<?xml version="1.0" encoding="UTF-8" standalone="no" ?>
<gpx xmlns="http://www.topografix.com/GPX/1/1" xmlns:xsi="http://www.w3.org/2001/XMLSchema-instance" xsi:schemaLocation="http://www.topografix.com/GPX/1/1 http://www.topografix.com/GPX/1/1/gpx.xsd" version="1.1" creator="VisuGPX - https://www.visugpx.com">
  <metadata>
    <name>TransWest 50</name>
    <desc><![CDATA[Parcours officiel de la TransWest 50 de 2019]]></desc>
  </metadata>
  <trk>
    <name><![CDATA[Caille Mountain Bike]]></name>
    <trkseg>
      <trkpt lat="43.75561" lon="6.76331">
        <ele>1365.5999755859</ele>
        <time>2019-10-06T07:45:19.000Z</time>
      </trkpt>
      <trkpt lat="43.75561" lon="6.76331">
        <ele>1365.5999755859</ele>
        <time>2019-10-06T07:45:20.000Z</time>
      </trkpt>
      <trkpt lat="43.75561" lon="6.76337">
        <ele>1366.5999755859</ele>
        <time>2019-10-06T07:45:25.000Z</time>
      </trkpt>
      <trkpt lat="43.75556" lon="6.76367">
        <ele>1367.8000488281</ele>
        <time>2019-10-06T07:45:32.000Z</time>
      </trkpt>
      <trkpt lat="43.75554" lon="6.76375">
        <ele>1369</ele>
        <time>2019-10-06T07:45:34.000Z</time>
      </trkpt>
      <trkpt lat="43.75553" lon="6.76386">
        <ele>1370</ele>
        <time>2019-10-06T07:45:37.000Z</time>
      </trkpt>
      <trkpt lat="43.75552" lon="6.76394">
        <ele>1371.1999511719</ele>
        <time>2019-10-06T07:45:39.000Z</time>
      </trkpt>
      <trkpt lat="43.75551" lon="6.76398">
        <ele>1371.5999755859</ele>
        <time>2019-10-06T07:45:40.000Z</time>
      </trkpt>
      <trkpt lat="43.75551" lon="6.76402">
        <ele>1372</ele>
        <time>2019-10-06T07:45:41.000Z</time>
      </trkpt>
      <trkpt lat="43.75551" lon="6.76406">
        <ele>1372.1999511719</ele>
        <time>2019-10-06T07:45:42.000Z</time>
      </trkpt>
      <trkpt lat="43.75551" lon="6.7641">
        <ele>1372.5999755859</ele>
        <time>2019-10-06T07:45:43.000Z</time>
      </trkpt>
      <trkpt lat="43.75551" lon="6.76414">
        <ele>1372.8000488281</ele>
        <time>2019-10-06T07:45:44.000Z</time>
      </trkpt>
      <trkpt lat="43.75551" lon="6.76418">
        <ele>1373.4000244141</ele>
        <time>2019-10-06T07:45:45.000Z</time>
      </trkpt>
      <trkpt lat="43.75552" lon="6.76421">
        <ele>1373.5999755859</ele>
        <time>2019-10-06T07:45:46.000Z</time>
      </trkpt>
      <trkpt lat="43.75553" lon="6.76429">
        <ele>1374</ele>
        <time>2019-10-06T07:45:48.000Z</time>
      </trkpt>
      <trkpt lat="43.75554" lon="6.76436">
        <ele>1374.4000244141</ele>
        <time>2019-10-06T07:45:50.000Z</time>
      </trkpt>
      <trkpt lat="43.75555" lon="6.76439">
        <ele>1374.8000488281</ele>
        <time>2019-10-06T07:45:51.000Z</time>
      </trkpt>
      <trkpt lat="43.75559" lon="6.76452">
        <ele>1375.5999755859</ele>
        <time>2019-10-06T07:45:55.000Z</time>
      </trkpt>
      <trkpt lat="43.75561" lon="6.76458">
        <ele>1376.1999511719</ele>
        <time>2019-10-06T07:45:57.000Z</time>
      </trkpt>
      <trkpt lat="43.75563" lon="6.76463">
        <ele>1376.8000488281</ele>
        <time>2019-10-06T07:45:59.000Z</time>
      </trkpt>
      <trkpt lat="43.75566" lon="6.76471">
        <ele>1377.5999755859</ele>
        <time>2019-10-06T07:46:02.000Z</time>
      </trkpt>
      <trkpt lat="43.75567" lon="6.76473">
        <ele>1377.8000488281</ele>
        <time>2019-10-06T07:46:03.000Z</time>
      </trkpt>
      <trkpt lat="43.75573" lon="6.76484">
        <ele>1378.5999755859</ele>
        <time>2019-10-06T07:46:08.000Z</time>
      </trkpt>
      <trkpt lat="43.75574" lon="6.76486">
        <ele>1379</ele>
        <time>2019-10-06T07:46:12.000Z</time>
      </trkpt>
      <trkpt lat="43.75578" lon="6.76492">
        <ele>1380.1999511719</ele>
        <time>2019-10-06T07:46:17.000Z</time>
      </trkpt>
      <trkpt lat="43.75581" lon="6.76496">
        <ele>1381</ele>
        <time>2019-10-06T07:46:21.000Z</time>
      </trkpt>
      <trkpt lat="43.75582" lon="6.76496">
        <ele>1381</ele>
        <time>2019-10-06T07:46:22.000Z</time>
      </trkpt>
      <trkpt lat="43.75588" lon="6.76501">
        <ele>1380.8000488281</ele>
        <time>2019-10-06T07:46:26.000Z</time>
      </trkpt>
      <trkpt lat="43.75593" lon="6.7649">
        <ele>1379.5999755859</ele>
        <time>2019-10-06T07:46:30.000Z</time>
      </trkpt>
      <trkpt lat="43.75594" lon="6.76478">
        <ele>1378.5999755859</ele>
        <time>2019-10-06T07:46:32.000Z</time>
      </trkpt>
      <trkpt lat="43.75593" lon="6.76471">
        <ele>1377.8000488281</ele>
        <time>2019-10-06T07:46:33.000Z</time>
      </trkpt>
      <trkpt lat="43.75593" lon="6.76463">
        <ele>1376.8000488281</ele>
        <time>2019-10-06T07:46:34.000Z</time>
      </trkpt>
      <trkpt lat="43.75592" lon="6.76454">
        <ele>1375.4000244141</ele>
        <time>2019-10-06T07:46:35.000Z</time>
      </trkpt>
      <trkpt lat="43.75591" lon="6.76436">
        <ele>1373.5999755859</ele>
        <time>2019-10-06T07:46:37.000Z</time>
      </trkpt>
      <trkpt lat="43.7559" lon="6.76426">
        <ele>1372.4000244141</ele>
        <time>2019-10-06T07:46:38.000Z</time>
      </trkpt>
      <trkpt lat="43.75591" lon="6.76417">
        <ele>1371.4000244141</ele>
        <time>2019-10-06T07:46:39.000Z</time>
      </trkpt>
      <trkpt lat="43.75592" lon="6.76408">
        <ele>1370</ele>
        <time>2019-10-06T07:46:40.000Z</time>
      </trkpt>
      <trkpt lat="43.75594" lon="6.764">
        <ele>1368.5999755859</ele>
        <time>2019-10-06T07:46:41.000Z</time>
      </trkpt>
      <trkpt lat="43.75596" lon="6.76392">
        <ele>1367.4000244141</ele>
        <time>2019-10-06T07:46:42.000Z</time>
      </trkpt>
      <trkpt lat="43.75605" lon="6.76384">
        <ele>1365.5999755859</ele>
        <time>2019-10-06T07:46:44.000Z</time>
      </trkpt>
      <trkpt lat="43.75609" lon="6.76385">
        <ele>1365.1999511719</ele>
        <time>2019-10-06T07:46:45.000Z</time>
      </trkpt>
      <trkpt lat="43.75624" lon="6.764">
        <ele>1364.5999755859</ele>
        <time>2019-10-06T07:46:49.000Z</time>
      </trkpt>
      <trkpt lat="43.75629" lon="6.76408">
        <ele>1364.5999755859</ele>
        <time>2019-10-06T07:46:51.000Z</time>
      </trkpt>
      <trkpt lat="43.75633" lon="6.7642">
        <ele>1365.8000488281</ele>
        <time>2019-10-06T07:46:55.000Z</time>
      </trkpt>
      <trkpt lat="43.75639" lon="6.76432">
        <ele>1366.8000488281</ele>
        <time>2019-10-06T07:46:59.000Z</time>
      </trkpt>
      <trkpt lat="43.75641" lon="6.76437">
        <ele>1367</ele>
        <time>2019-10-06T07:47:01.000Z</time>
      </trkpt>
      <trkpt lat="43.75644" lon="6.76443">
        <ele>1367.4000244141</ele>
        <time>2019-10-06T07:47:03.000Z</time>
      </trkpt>
      <trkpt lat="43.75649" lon="6.76456">
        <ele>1367.5999755859</ele>
        <time>2019-10-06T07:47:07.000Z</time>
      </trkpt>
      <trkpt lat="43.75657" lon="6.76466">
        <ele>1367.1999511719</ele>
        <time>2019-10-06T07:47:10.000Z</time>
      </trkpt>
      <trkpt lat="43.75666" lon="6.76472">
        <ele>1366.4000244141</ele>
        <time>2019-10-06T07:47:12.000Z</time>
      </trkpt>
      <trkpt lat="43.75672" lon="6.76473">
        <ele>1365.5999755859</ele>
        <time>2019-10-06T07:47:13.000Z</time>
      </trkpt>
      <trkpt lat="43.75684" lon="6.76475">
        <ele>1364.4000244141</ele>
        <time>2019-10-06T07:47:15.000Z</time>
      </trkpt>
      <trkpt lat="43.75696" lon="6.7647">
        <ele>1363.1999511719</ele>
        <time>2019-10-06T07:47:17.000Z</time>
      </trkpt>
      <trkpt lat="43.75706" lon="6.76461">
        <ele>1362.1999511719</ele>
        <time>2019-10-06T07:47:19.000Z</time>
      </trkpt>
      <trkpt lat="43.75719" lon="6.76438">
        <ele>1361</ele>
        <time>2019-10-06T07:47:23.000Z</time>
      </trkpt>
      <trkpt lat="43.7572" lon="6.76401">
        <ele>1360.5999755859</ele>
        <time>2019-10-06T07:47:28.000Z</time>
      </trkpt>
      <trkpt lat="43.75719" lon="6.76393">
        <ele>1360.1999511719</ele>
        <time>2019-10-06T07:47:29.000Z</time>
      </trkpt>
      <trkpt lat="43.7571" lon="6.76348">
        <ele>1359</ele>
        <time>2019-10-06T07:47:35.000Z</time>
      </trkpt>
      <trkpt lat="43.75706" lon="6.76327">
        <ele>1358.5999755859</ele>
        <time>2019-10-06T07:47:38.000Z</time>
      </trkpt>
      <trkpt lat="43.75703" lon="6.76313">
        <ele>1358.4000244141</ele>
        <time>2019-10-06T07:47:40.000Z</time>
      </trkpt>
      <trkpt lat="43.75686" lon="6.76295">
        <ele>1358.5999755859</ele>
        <time>2019-10-06T07:47:44.000Z</time>
      </trkpt>
      <trkpt lat="43.75675" lon="6.76294">
        <ele>1358.8000488281</ele>
        <time>2019-10-06T07:47:46.000Z</time>
      </trkpt>
      <trkpt lat="43.7567" lon="6.76293">
        <ele>1358.8000488281</ele>
        <time>2019-10-06T07:47:47.000Z</time>
      </trkpt>
      <trkpt lat="43.75653" lon="6.76273">
        <ele>1359.8000488281</ele>
        <time>2019-10-06T07:47:53.000Z</time>
      </trkpt>
      <trkpt lat="43.75651" lon="6.76255">
        <ele>1360</ele>
        <time>2019-10-06T07:47:57.000Z</time>
      </trkpt>
      <trkpt lat="43.75648" lon="6.76243">
        <ele>1360.4000244141</ele>
        <time>2019-10-06T07:48:00.000Z</time>
      </trkpt>
      <trkpt lat="43.75641" lon="6.76236">
        <ele>1361.5999755859</ele>
        <time>2019-10-06T07:48:03.000Z</time>
      </trkpt>
      <trkpt lat="43.75632" lon="6.76227">
        <ele>1362.5999755859</ele>
        <time>2019-10-06T07:48:07.000Z</time>
      </trkpt>
      <trkpt lat="43.75624" lon="6.76217">
        <ele>1363.5999755859</ele>
        <time>2019-10-06T07:48:10.000Z</time>
      </trkpt>
      <trkpt lat="43.75616" lon="6.76207">
        <ele>1364.5999755859</ele>
        <time>2019-10-06T07:48:13.000Z</time>
      </trkpt>
      <trkpt lat="43.75614" lon="6.76204">
        <ele>1364.8000488281</ele>
        <time>2019-10-06T07:48:14.000Z</time>
      </trkpt>
      <trkpt lat="43.756" lon="6.76187">
        <ele>1366</ele>
        <time>2019-10-06T07:48:20.000Z</time>
      </trkpt>
      <trkpt lat="43.75575" lon="6.76174">
        <ele>1366</ele>
        <time>2019-10-06T07:48:28.000Z</time>
      </trkpt>
      <trkpt lat="43.75549" lon="6.76196">
        <ele>1365</ele>
        <time>2019-10-06T07:48:39.000Z</time>
      </trkpt>
      <trkpt lat="43.75547" lon="6.76211">
        <ele>1364</ele>
        <time>2019-10-06T07:48:41.000Z</time>
      </trkpt>
      <trkpt lat="43.75551" lon="6.76257">
        <ele>1363.8000488281</ele>
        <time>2019-10-06T07:48:50.000Z</time>
      </trkpt>
      <trkpt lat="43.75546" lon="6.76278">
        <ele>1365.1999511719</ele>
        <time>2019-10-06T07:48:55.000Z</time>
      </trkpt>
      <trkpt lat="43.75538" lon="6.76279">
        <ele>1366.5999755859</ele>
        <time>2019-10-06T07:48:59.000Z</time>
      </trkpt>
      <trkpt lat="43.75536" lon="6.76278">
        <ele>1367</ele>
        <time>2019-10-06T07:49:00.000Z</time>
      </trkpt>
      <trkpt lat="43.75534" lon="6.76278">
        <ele>1367.1999511719</ele>
        <time>2019-10-06T07:49:01.000Z</time>
      </trkpt>
      <trkpt lat="43.75527" lon="6.76275">
        <ele>1367.5999755859</ele>
        <time>2019-10-06T07:49:05.000Z</time>
      </trkpt>
      <trkpt lat="43.75518" lon="6.76274">
        <ele>1368</ele>
        <time>2019-10-06T07:49:09.000Z</time>
      </trkpt>
      <trkpt lat="43.75487" lon="6.76272">
        <ele>1367.8000488281</ele>
        <time>2019-10-06T07:49:20.000Z</time>
      </trkpt>
      <trkpt lat="43.75458" lon="6.76259">
        <ele>1366.8000488281</ele>
        <time>2019-10-06T07:49:26.000Z</time>
      </trkpt>
      <trkpt lat="43.75435" lon="6.76249">
        <ele>1365.4000244141</ele>
        <time>2019-10-06T07:49:30.000Z</time>
      </trkpt>
      <trkpt lat="43.75417" lon="6.76239">
        <ele>1364.4000244141</ele>
        <time>2019-10-06T07:49:33.000Z</time>
      </trkpt>
      <trkpt lat="43.75408" lon="6.7622">
        <ele>1363.1999511719</ele>
        <time>2019-10-06T07:49:36.000Z</time>
      </trkpt>
      <trkpt lat="43.75406" lon="6.76212">
        <ele>1362.8000488281</ele>
        <time>2019-10-06T07:49:37.000Z</time>
      </trkpt>
      <trkpt lat="43.75405" lon="6.76203">
        <ele>1361.8000488281</ele>
        <time>2019-10-06T07:49:38.000Z</time>
      </trkpt>
      <trkpt lat="43.75404" lon="6.76195">
        <ele>1360.8000488281</ele>
        <time>2019-10-06T07:49:39.000Z</time>
      </trkpt>
      <trkpt lat="43.75406" lon="6.76177">
        <ele>1359.4000244141</ele>
        <time>2019-10-06T07:49:41.000Z</time>
      </trkpt>
      <trkpt lat="43.75408" lon="6.76157">
        <ele>1358.1999511719</ele>
        <time>2019-10-06T07:49:43.000Z</time>
      </trkpt>
      <trkpt lat="43.75409" lon="6.76148">
        <ele>1356.8000488281</ele>
        <time>2019-10-06T07:49:44.000Z</time>
      </trkpt>
      <trkpt lat="43.75411" lon="6.76139">
        <ele>1355.5999755859</ele>
        <time>2019-10-06T07:49:45.000Z</time>
      </trkpt>
      <trkpt lat="43.75412" lon="6.7613">
        <ele>1354.4000244141</ele>
        <time>2019-10-06T07:49:46.000Z</time>
      </trkpt>
      <trkpt lat="43.75414" lon="6.76114">
        <ele>1352.4000244141</ele>
        <time>2019-10-06T07:49:48.000Z</time>
      </trkpt>
      <trkpt lat="43.75414" lon="6.76107">
        <ele>1351.8000488281</ele>
        <time>2019-10-06T07:49:49.000Z</time>
      </trkpt>
      <trkpt lat="43.75411" lon="6.76103">
        <ele>1351.4000244141</ele>
        <time>2019-10-06T07:49:50.000Z</time>
      </trkpt>
      <trkpt lat="43.75408" lon="6.76101">
        <ele>1351</ele>
        <time>2019-10-06T07:49:51.000Z</time>
      </trkpt>
      <trkpt lat="43.75401" lon="6.76098">
        <ele>1350.4000244141</ele>
        <time>2019-10-06T07:49:53.000Z</time>
      </trkpt>
      <trkpt lat="43.75398" lon="6.76097">
        <ele>1350.4000244141</ele>
        <time>2019-10-06T07:49:54.000Z</time>
      </trkpt>
      <trkpt lat="43.75391" lon="6.76092">
        <ele>1350</ele>
        <time>2019-10-06T07:49:57.000Z</time>
      </trkpt>
      <trkpt lat="43.75388" lon="6.7609">
        <ele>1349.5999755859</ele>
        <time>2019-10-06T07:49:58.000Z</time>
      </trkpt>
      <trkpt lat="43.75382" lon="6.76085">
        <ele>1348.5999755859</ele>
        <time>2019-10-06T07:50:00.000Z</time>
      </trkpt>
      <trkpt lat="43.75374" lon="6.76077">
        <ele>1348</ele>
        <time>2019-10-06T07:50:02.000Z</time>
      </trkpt>
      <trkpt lat="43.75368" lon="6.76065">
        <ele>1347.1999511719</ele>
        <time>2019-10-06T07:50:04.000Z</time>
      </trkpt>
      <trkpt lat="43.75355" lon="6.76038">
        <ele>1346</ele>
        <time>2019-10-06T07:50:08.000Z</time>
      </trkpt>
      <trkpt lat="43.75347" lon="6.76029">
        <ele>1345.1999511719</ele>
        <time>2019-10-06T07:50:10.000Z</time>
      </trkpt>
      <trkpt lat="43.75334" lon="6.76009">
        <ele>1344.4000244141</ele>
        <time>2019-10-06T07:50:14.000Z</time>
      </trkpt>
      <trkpt lat="43.75322" lon="6.75992">
        <ele>1344</ele>
        <time>2019-10-06T07:50:17.000Z</time>
      </trkpt>
      <trkpt lat="43.75309" lon="6.75976">
        <ele>1343</ele>
        <time>2019-10-06T07:50:20.000Z</time>
      </trkpt>
      <trkpt lat="43.75305" lon="6.75969">
        <ele>1342.8000488281</ele>
        <time>2019-10-06T07:50:21.000Z</time>
      </trkpt>
      <trkpt lat="43.75298" lon="6.75946">
        <ele>1342.5999755859</ele>
        <time>2019-10-06T07:50:24.000Z</time>
      </trkpt>
      <trkpt lat="43.75295" lon="6.75938">
        <ele>1342.4000244141</ele>
        <time>2019-10-06T07:50:25.000Z</time>
      </trkpt>
      <trkpt lat="43.75287" lon="6.75923">
        <ele>1341.8000488281</ele>
        <time>2019-10-06T07:50:27.000Z</time>
      </trkpt>
      <trkpt lat="43.75278" lon="6.75908">
        <ele>1340.5999755859</ele>
        <time>2019-10-06T07:50:29.000Z</time>
      </trkpt>
      <trkpt lat="43.75265" lon="6.75883">
        <ele>1339.1999511719</ele>
        <time>2019-10-06T07:50:32.000Z</time>
      </trkpt>
      <trkpt lat="43.7525" lon="6.75846">
        <ele>1338</ele>
        <time>2019-10-06T07:50:36.000Z</time>
      </trkpt>
      <trkpt lat="43.75245" lon="6.7583">
        <ele>1336.5999755859</ele>
        <time>2019-10-06T07:50:38.000Z</time>
      </trkpt>
      <trkpt lat="43.75241" lon="6.75816">
        <ele>1335.1999511719</ele>
        <time>2019-10-06T07:50:40.000Z</time>
      </trkpt>
      <trkpt lat="43.75237" lon="6.75799">
        <ele>1334.1999511719</ele>
        <time>2019-10-06T07:50:42.000Z</time>
      </trkpt>
      <trkpt lat="43.75234" lon="6.75782">
        <ele>1332.8000488281</ele>
        <time>2019-10-06T07:50:44.000Z</time>
      </trkpt>
      <trkpt lat="43.75232" lon="6.75774">
        <ele>1331.8000488281</ele>
        <time>2019-10-06T07:50:45.000Z</time>
      </trkpt>
      <trkpt lat="43.75231" lon="6.75767">
        <ele>1330.1999511719</ele>
        <time>2019-10-06T07:50:46.000Z</time>
      </trkpt>
      <trkpt lat="43.75229" lon="6.75761">
        <ele>1329</ele>
        <time>2019-10-06T07:50:47.000Z</time>
      </trkpt>
      <trkpt lat="43.75225" lon="6.75749">
        <ele>1327.1999511719</ele>
        <time>2019-10-06T07:50:49.000Z</time>
      </trkpt>
      <trkpt lat="43.75224" lon="6.75743">
        <ele>1326</ele>
        <time>2019-10-06T07:50:50.000Z</time>
      </trkpt>
      <trkpt lat="43.75219" lon="6.75732">
        <ele>1324.5999755859</ele>
        <time>2019-10-06T07:50:52.000Z</time>
      </trkpt>
      <trkpt lat="43.75213" lon="6.75721">
        <ele>1323.1999511719</ele>
        <time>2019-10-06T07:50:54.000Z</time>
      </trkpt>
      <trkpt lat="43.7521" lon="6.75716">
        <ele>1322.5999755859</ele>
        <time>2019-10-06T07:50:55.000Z</time>
      </trkpt>
      <trkpt lat="43.75207" lon="6.75711">
        <ele>1321.8000488281</ele>
        <time>2019-10-06T07:50:56.000Z</time>
      </trkpt>
      <trkpt lat="43.75203" lon="6.75702">
        <ele>1320</ele>
        <time>2019-10-06T07:50:58.000Z</time>
      </trkpt>
      <trkpt lat="43.75202" lon="6.75697">
        <ele>1318.8000488281</ele>
        <time>2019-10-06T07:50:59.000Z</time>
      </trkpt>
      <trkpt lat="43.75199" lon="6.75688">
        <ele>1316.8000488281</ele>
        <time>2019-10-06T07:51:01.000Z</time>
      </trkpt>
      <trkpt lat="43.75197" lon="6.75678">
        <ele>1315.4000244141</ele>
        <time>2019-10-06T07:51:03.000Z</time>
      </trkpt>
      <trkpt lat="43.75194" lon="6.7567">
        <ele>1313.5999755859</ele>
        <time>2019-10-06T07:51:05.000Z</time>
      </trkpt>
      <trkpt lat="43.75193" lon="6.75665">
        <ele>1312.1999511719</ele>
        <time>2019-10-06T07:51:06.000Z</time>
      </trkpt>
      <trkpt lat="43.75192" lon="6.7566">
        <ele>1310.5999755859</ele>
        <time>2019-10-06T07:51:07.000Z</time>
      </trkpt>
      <trkpt lat="43.75191" lon="6.75655">
        <ele>1309.5999755859</ele>
        <time>2019-10-06T07:51:08.000Z</time>
      </trkpt>
      <trkpt lat="43.75187" lon="6.75646">
        <ele>1307.1999511719</ele>
        <time>2019-10-06T07:51:10.000Z</time>
      </trkpt>
      <trkpt lat="43.75185" lon="6.75642">
        <ele>1305.8000488281</ele>
        <time>2019-10-06T07:51:11.000Z</time>
      </trkpt>
      <trkpt lat="43.7518" lon="6.75632">
        <ele>1304.4000244141</ele>
        <time>2019-10-06T07:51:13.000Z</time>
      </trkpt>
      <trkpt lat="43.75176" lon="6.75627">
        <ele>1303</ele>
        <time>2019-10-06T07:51:14.000Z</time>
      </trkpt>
      <trkpt lat="43.75173" lon="6.75622">
        <ele>1302</ele>
        <time>2019-10-06T07:51:15.000Z</time>
      </trkpt>
      <trkpt lat="43.75167" lon="6.75611">
        <ele>1300</ele>
        <time>2019-10-06T07:51:17.000Z</time>
      </trkpt>
      <trkpt lat="43.7516" lon="6.75601">
        <ele>1298.5999755859</ele>
        <time>2019-10-06T07:51:19.000Z</time>
      </trkpt>
      <trkpt lat="43.75153" lon="6.7559">
        <ele>1296.5999755859</ele>
        <time>2019-10-06T07:51:21.000Z</time>
      </trkpt>
      <trkpt lat="43.75147" lon="6.75579">
        <ele>1294.5999755859</ele>
        <time>2019-10-06T07:51:23.000Z</time>
      </trkpt>
      <trkpt lat="43.75139" lon="6.75567">
        <ele>1292.5999755859</ele>
        <time>2019-10-06T07:51:25.000Z</time>
      </trkpt>
      <trkpt lat="43.75135" lon="6.75562">
        <ele>1291.4000244141</ele>
        <time>2019-10-06T07:51:26.000Z</time>
      </trkpt>
      <trkpt lat="43.75132" lon="6.75557">
        <ele>1290.1999511719</ele>
        <time>2019-10-06T07:51:27.000Z</time>
      </trkpt>
      <trkpt lat="43.75127" lon="6.75548">
        <ele>1288.8000488281</ele>
        <time>2019-10-06T07:51:29.000Z</time>
      </trkpt>
      <trkpt lat="43.75123" lon="6.75543">
        <ele>1288</ele>
        <time>2019-10-06T07:51:30.000Z</time>
      </trkpt>
      <trkpt lat="43.7512" lon="6.75537">
        <ele>1287.4000244141</ele>
        <time>2019-10-06T07:51:31.000Z</time>
      </trkpt>
      <trkpt lat="43.75117" lon="6.75532">
        <ele>1286</ele>
        <time>2019-10-06T07:51:32.000Z</time>
      </trkpt>
      <trkpt lat="43.75112" lon="6.75523">
        <ele>1284.4000244141</ele>
        <time>2019-10-06T07:51:34.000Z</time>
      </trkpt>
      <trkpt lat="43.75108" lon="6.75516">
        <ele>1282.8000488281</ele>
        <time>2019-10-06T07:51:36.000Z</time>
      </trkpt>
      <trkpt lat="43.75105" lon="6.75511">
        <ele>1281.4000244141</ele>
        <time>2019-10-06T07:51:38.000Z</time>
      </trkpt>
      <trkpt lat="43.75104" lon="6.75511">
        <ele>1280.8000488281</ele>
        <time>2019-10-06T07:51:41.000Z</time>
      </trkpt>
      <trkpt lat="43.75103" lon="6.7551">
        <ele>1280.5999755859</ele>
        <time>2019-10-06T07:51:43.000Z</time>
      </trkpt>
      <trkpt lat="43.75103" lon="6.75506">
        <ele>1280.4000244141</ele>
        <time>2019-10-06T07:51:50.000Z</time>
      </trkpt>
      <trkpt lat="43.75102" lon="6.75504">
        <ele>1280.4000244141</ele>
        <time>2019-10-06T07:51:51.000Z</time>
      </trkpt>
      <trkpt lat="43.75101" lon="6.755">
        <ele>1279.1999511719</ele>
        <time>2019-10-06T07:51:53.000Z</time>
      </trkpt>
      <trkpt lat="43.751" lon="6.75496">
        <ele>1278.4000244141</ele>
        <time>2019-10-06T07:51:54.000Z</time>
      </trkpt>
      <trkpt lat="43.75098" lon="6.75493">
        <ele>1277.8000488281</ele>
        <time>2019-10-06T07:51:55.000Z</time>
      </trkpt>
      <trkpt lat="43.75094" lon="6.75488">
        <ele>1276.5999755859</ele>
        <time>2019-10-06T07:51:57.000Z</time>
      </trkpt>
      <trkpt lat="43.75089" lon="6.75483">
        <ele>1275.1999511719</ele>
        <time>2019-10-06T07:51:59.000Z</time>
      </trkpt>
      <trkpt lat="43.75084" lon="6.75477">
        <ele>1273.8000488281</ele>
        <time>2019-10-06T07:52:01.000Z</time>
      </trkpt>
      <trkpt lat="43.7508" lon="6.75473">
        <ele>1272</ele>
        <time>2019-10-06T07:52:03.000Z</time>
      </trkpt>
      <trkpt lat="43.75077" lon="6.75469">
        <ele>1270.5999755859</ele>
        <time>2019-10-06T07:52:05.000Z</time>
      </trkpt>
      <trkpt lat="43.75073" lon="6.75464">
        <ele>1268.5999755859</ele>
        <time>2019-10-06T07:52:07.000Z</time>
      </trkpt>
      <trkpt lat="43.75071" lon="6.75462">
        <ele>1267.4000244141</ele>
        <time>2019-10-06T07:52:08.000Z</time>
      </trkpt>
      <trkpt lat="43.75066" lon="6.75456">
        <ele>1266.1999511719</ele>
        <time>2019-10-06T07:52:10.000Z</time>
      </trkpt>
      <trkpt lat="43.75061" lon="6.75448">
        <ele>1264.8000488281</ele>
        <time>2019-10-06T07:52:12.000Z</time>
      </trkpt>
      <trkpt lat="43.75055" lon="6.75439">
        <ele>1262.8000488281</ele>
        <time>2019-10-06T07:52:14.000Z</time>
      </trkpt>
      <trkpt lat="43.75051" lon="6.75435">
        <ele>1261.5999755859</ele>
        <time>2019-10-06T07:52:15.000Z</time>
      </trkpt>
      <trkpt lat="43.75048" lon="6.75431">
        <ele>1260.4000244141</ele>
        <time>2019-10-06T07:52:16.000Z</time>
      </trkpt>
      <trkpt lat="43.75041" lon="6.75424">
        <ele>1258.8000488281</ele>
        <time>2019-10-06T07:52:18.000Z</time>
      </trkpt>
      <trkpt lat="43.75038" lon="6.7542">
        <ele>1258.1999511719</ele>
        <time>2019-10-06T07:52:19.000Z</time>
      </trkpt>
      <trkpt lat="43.75035" lon="6.75418">
        <ele>1257.8000488281</ele>
        <time>2019-10-06T07:52:20.000Z</time>
      </trkpt>
      <trkpt lat="43.75029" lon="6.75411">
        <ele>1256.4000244141</ele>
        <time>2019-10-06T07:52:22.000Z</time>
      </trkpt>
      <trkpt lat="43.75023" lon="6.75404">
        <ele>1255</ele>
        <time>2019-10-06T07:52:24.000Z</time>
      </trkpt>
      <trkpt lat="43.7502" lon="6.754">
        <ele>1253.8000488281</ele>
        <time>2019-10-06T07:52:25.000Z</time>
      </trkpt>
      <trkpt lat="43.75017" lon="6.75394">
        <ele>1252</ele>
        <time>2019-10-06T07:52:26.000Z</time>
      </trkpt>
      <trkpt lat="43.75013" lon="6.75389">
        <ele>1250.5999755859</ele>
        <time>2019-10-06T07:52:27.000Z</time>
      </trkpt>
      <trkpt lat="43.75008" lon="6.75384">
        <ele>1248.8000488281</ele>
        <time>2019-10-06T07:52:28.000Z</time>
      </trkpt>
      <trkpt lat="43.75004" lon="6.7538">
        <ele>1247.5999755859</ele>
        <time>2019-10-06T07:52:29.000Z</time>
      </trkpt>
      <trkpt lat="43.74999" lon="6.75375">
        <ele>1246.1999511719</ele>
        <time>2019-10-06T07:52:30.000Z</time>
      </trkpt>
      <trkpt lat="43.74995" lon="6.7537">
        <ele>1245.1999511719</ele>
        <time>2019-10-06T07:52:31.000Z</time>
      </trkpt>
      <trkpt lat="43.74991" lon="6.75365">
        <ele>1244</ele>
        <time>2019-10-06T07:52:32.000Z</time>
      </trkpt>
      <trkpt lat="43.74987" lon="6.7536">
        <ele>1242.8000488281</ele>
        <time>2019-10-06T07:52:33.000Z</time>
      </trkpt>
      <trkpt lat="43.7498" lon="6.75352">
        <ele>1241</ele>
        <time>2019-10-06T07:52:35.000Z</time>
      </trkpt>
      <trkpt lat="43.74974" lon="6.75346">
        <ele>1239.5999755859</ele>
        <time>2019-10-06T07:52:37.000Z</time>
      </trkpt>
      <trkpt lat="43.74972" lon="6.75342">
        <ele>1238.5999755859</ele>
        <time>2019-10-06T07:52:38.000Z</time>
      </trkpt>
      <trkpt lat="43.74965" lon="6.75334">
        <ele>1237.4000244141</ele>
        <time>2019-10-06T07:52:40.000Z</time>
      </trkpt>
      <trkpt lat="43.74958" lon="6.75326">
        <ele>1235.8000488281</ele>
        <time>2019-10-06T07:52:42.000Z</time>
      </trkpt>
      <trkpt lat="43.7495" lon="6.75319">
        <ele>1233.1999511719</ele>
        <time>2019-10-06T07:52:44.000Z</time>
      </trkpt>
      <trkpt lat="43.74944" lon="6.75314">
        <ele>1232.1999511719</ele>
        <time>2019-10-06T07:52:46.000Z</time>
      </trkpt>
      <trkpt lat="43.74941" lon="6.75311">
        <ele>1231</ele>
        <time>2019-10-06T07:52:48.000Z</time>
      </trkpt>
      <trkpt lat="43.74939" lon="6.75307">
        <ele>1230.1999511719</ele>
        <time>2019-10-06T07:52:54.000Z</time>
      </trkpt>
      <trkpt lat="43.74936" lon="6.75303">
        <ele>1229.5999755859</ele>
        <time>2019-10-06T07:52:57.000Z</time>
      </trkpt>
      <trkpt lat="43.7493" lon="6.75295">
        <ele>1229</ele>
        <time>2019-10-06T07:53:00.000Z</time>
      </trkpt>
      <trkpt lat="43.74923" lon="6.75288">
        <ele>1227.8000488281</ele>
        <time>2019-10-06T07:53:02.000Z</time>
      </trkpt>
      <trkpt lat="43.74918" lon="6.75284">
        <ele>1227.1999511719</ele>
        <time>2019-10-06T07:53:03.000Z</time>
      </trkpt>
      <trkpt lat="43.74913" lon="6.75281">
        <ele>1226.5999755859</ele>
        <time>2019-10-06T07:53:04.000Z</time>
      </trkpt>
      <trkpt lat="43.74903" lon="6.75274">
        <ele>1225.5999755859</ele>
        <time>2019-10-06T07:53:06.000Z</time>
      </trkpt>
      <trkpt lat="43.74892" lon="6.75269">
        <ele>1224.1999511719</ele>
        <time>2019-10-06T07:53:08.000Z</time>
      </trkpt>
      <trkpt lat="43.74887" lon="6.75267">
        <ele>1223.8000488281</ele>
        <time>2019-10-06T07:53:09.000Z</time>
      </trkpt>
      <trkpt lat="43.74881" lon="6.75266">
        <ele>1222.8000488281</ele>
        <time>2019-10-06T07:53:10.000Z</time>
      </trkpt>
      <trkpt lat="43.74875" lon="6.75265">
        <ele>1221.8000488281</ele>
        <time>2019-10-06T07:53:11.000Z</time>
      </trkpt>
      <trkpt lat="43.7487" lon="6.75265">
        <ele>1221.4000244141</ele>
        <time>2019-10-06T07:53:12.000Z</time>
      </trkpt>
      <trkpt lat="43.74861" lon="6.75266">
        <ele>1219.8000488281</ele>
        <time>2019-10-06T07:53:14.000Z</time>
      </trkpt>
      <trkpt lat="43.74851" lon="6.75268">
        <ele>1218.5999755859</ele>
        <time>2019-10-06T07:53:16.000Z</time>
      </trkpt>
      <trkpt lat="43.74846" lon="6.75268">
        <ele>1217.5999755859</ele>
        <time>2019-10-06T07:53:17.000Z</time>
      </trkpt>
      <trkpt lat="43.74842" lon="6.75268">
        <ele>1216.5999755859</ele>
        <time>2019-10-06T07:53:18.000Z</time>
      </trkpt>
      <trkpt lat="43.74831" lon="6.75268">
        <ele>1214.8000488281</ele>
        <time>2019-10-06T07:53:20.000Z</time>
      </trkpt>
      <trkpt lat="43.74825" lon="6.7527">
        <ele>1213.8000488281</ele>
        <time>2019-10-06T07:53:21.000Z</time>
      </trkpt>
      <trkpt lat="43.74819" lon="6.75271">
        <ele>1212.1999511719</ele>
        <time>2019-10-06T07:53:22.000Z</time>
      </trkpt>
      <trkpt lat="43.74813" lon="6.75273">
        <ele>1211</ele>
        <time>2019-10-06T07:53:23.000Z</time>
      </trkpt>
      <trkpt lat="43.74809" lon="6.75273">
        <ele>1209.8000488281</ele>
        <time>2019-10-06T07:53:24.000Z</time>
      </trkpt>
      <trkpt lat="43.74804" lon="6.75274">
        <ele>1209</ele>
        <time>2019-10-06T07:53:25.000Z</time>
      </trkpt>
      <trkpt lat="43.74799" lon="6.75275">
        <ele>1208</ele>
        <time>2019-10-06T07:53:26.000Z</time>
      </trkpt>
      <trkpt lat="43.74789" lon="6.75277">
        <ele>1206</ele>
        <time>2019-10-06T07:53:28.000Z</time>
      </trkpt>
      <trkpt lat="43.74783" lon="6.75279">
        <ele>1204.8000488281</ele>
        <time>2019-10-06T07:53:29.000Z</time>
      </trkpt>
      <trkpt lat="43.74778" lon="6.75282">
        <ele>1204</ele>
        <time>2019-10-06T07:53:30.000Z</time>
      </trkpt>
      <trkpt lat="43.74774" lon="6.75284">
        <ele>1202.5999755859</ele>
        <time>2019-10-06T07:53:31.000Z</time>
      </trkpt>
      <trkpt lat="43.74769" lon="6.75289">
        <ele>1201</ele>
        <time>2019-10-06T07:53:33.000Z</time>
      </trkpt>
      <trkpt lat="43.74765" lon="6.75289">
        <ele>1200</ele>
        <time>2019-10-06T07:53:35.000Z</time>
      </trkpt>
      <trkpt lat="43.74764" lon="6.7529">
        <ele>1198.5999755859</ele>
        <time>2019-10-06T07:53:37.000Z</time>
      </trkpt>
      <trkpt lat="43.74763" lon="6.7529">
        <ele>1198.1999511719</ele>
        <time>2019-10-06T07:53:41.000Z</time>
      </trkpt>
      <trkpt lat="43.74761" lon="6.75291">
        <ele>1197.4000244141</ele>
        <time>2019-10-06T07:53:45.000Z</time>
      </trkpt>
      <trkpt lat="43.74754" lon="6.75296">
        <ele>1196.4000244141</ele>
        <time>2019-10-06T07:53:48.000Z</time>
      </trkpt>
      <trkpt lat="43.74751" lon="6.75297">
        <ele>1194.8000488281</ele>
        <time>2019-10-06T07:53:50.000Z</time>
      </trkpt>
      <trkpt lat="43.74751" lon="6.75297">
        <ele>1194.4000244141</ele>
        <time>2019-10-06T07:53:52.000Z</time>
      </trkpt>
      <trkpt lat="43.7475" lon="6.75299">
        <ele>1194</ele>
        <time>2019-10-06T07:53:54.000Z</time>
      </trkpt>
      <trkpt lat="43.74749" lon="6.75299">
        <ele>1193.8000488281</ele>
        <time>2019-10-06T07:53:56.000Z</time>
      </trkpt>
      <trkpt lat="43.7475" lon="6.75299">
        <ele>1194</ele>
        <time>2019-10-06T07:54:01.000Z</time>
      </trkpt>
      <trkpt lat="43.74749" lon="6.75299">
        <ele>1194</ele>
        <time>2019-10-06T07:54:05.000Z</time>
      </trkpt>
      <trkpt lat="43.74746" lon="6.753">
        <ele>1193.5999755859</ele>
        <time>2019-10-06T07:54:09.000Z</time>
      </trkpt>
      <trkpt lat="43.74745" lon="6.75301">
        <ele>1193</ele>
        <time>2019-10-06T07:54:11.000Z</time>
      </trkpt>
      <trkpt lat="43.74742" lon="6.75303">
        <ele>1191.5999755859</ele>
        <time>2019-10-06T07:54:15.000Z</time>
      </trkpt>
      <trkpt lat="43.74738" lon="6.75307">
        <ele>1190.8000488281</ele>
        <time>2019-10-06T07:54:19.000Z</time>
      </trkpt>
      <trkpt lat="43.74736" lon="6.75309">
        <ele>1189.8000488281</ele>
        <time>2019-10-06T07:54:22.000Z</time>
      </trkpt>
      <trkpt lat="43.74733" lon="6.75311">
        <ele>1189</ele>
        <time>2019-10-06T07:54:26.000Z</time>
      </trkpt>
      <trkpt lat="43.74732" lon="6.75313">
        <ele>1188.4000244141</ele>
        <time>2019-10-06T07:54:28.000Z</time>
      </trkpt>
      <trkpt lat="43.7473" lon="6.75315">
        <ele>1187.1999511719</ele>
        <time>2019-10-06T07:54:32.000Z</time>
      </trkpt>
      <trkpt lat="43.74727" lon="6.75315">
        <ele>1186.1999511719</ele>
        <time>2019-10-06T07:54:35.000Z</time>
      </trkpt>
      <trkpt lat="43.74723" lon="6.75315">
        <ele>1184.5999755859</ele>
        <time>2019-10-06T07:54:37.000Z</time>
      </trkpt>
      <trkpt lat="43.74721" lon="6.75314">
        <ele>1183.5999755859</ele>
        <time>2019-10-06T07:54:38.000Z</time>
      </trkpt>
      <trkpt lat="43.74719" lon="6.75313">
        <ele>1182.8000488281</ele>
        <time>2019-10-06T07:54:39.000Z</time>
      </trkpt>
      <trkpt lat="43.74717" lon="6.75312">
        <ele>1181.4000244141</ele>
        <time>2019-10-06T07:54:40.000Z</time>
      </trkpt>
      <trkpt lat="43.74714" lon="6.75311">
        <ele>1180</ele>
        <time>2019-10-06T07:54:41.000Z</time>
      </trkpt>
      <trkpt lat="43.74707" lon="6.7531">
        <ele>1178.5999755859</ele>
        <time>2019-10-06T07:54:43.000Z</time>
      </trkpt>
      <trkpt lat="43.74703" lon="6.7531">
        <ele>1177.8000488281</ele>
        <time>2019-10-06T07:54:44.000Z</time>
      </trkpt>
      <trkpt lat="43.74698" lon="6.75309">
        <ele>1176.8000488281</ele>
        <time>2019-10-06T07:54:45.000Z</time>
      </trkpt>
      <trkpt lat="43.74693" lon="6.75309">
        <ele>1175.5999755859</ele>
        <time>2019-10-06T07:54:46.000Z</time>
      </trkpt>
      <trkpt lat="43.74683" lon="6.75308">
        <ele>1174</ele>
        <time>2019-10-06T07:54:48.000Z</time>
      </trkpt>
      <trkpt lat="43.74679" lon="6.75306">
        <ele>1172.8000488281</ele>
        <time>2019-10-06T07:54:49.000Z</time>
      </trkpt>
      <trkpt lat="43.74677" lon="6.75305">
        <ele>1172.4000244141</ele>
        <time>2019-10-06T07:54:50.000Z</time>
      </trkpt>
      <trkpt lat="43.74675" lon="6.75303">
        <ele>1171.8000488281</ele>
        <time>2019-10-06T07:54:51.000Z</time>
      </trkpt>
      <trkpt lat="43.74675" lon="6.75295">
        <ele>1171</ele>
        <time>2019-10-06T07:54:55.000Z</time>
      </trkpt>
      <trkpt lat="43.74675" lon="6.75293">
        <ele>1171</ele>
        <time>2019-10-06T07:54:56.000Z</time>
      </trkpt>
      <trkpt lat="43.74678" lon="6.75278">
        <ele>1170.8000488281</ele>
        <time>2019-10-06T07:55:01.000Z</time>
      </trkpt>
      <trkpt lat="43.74688" lon="6.75247">
        <ele>1171.5999755859</ele>
        <time>2019-10-06T07:55:09.000Z</time>
      </trkpt>
      <trkpt lat="43.74697" lon="6.75238">
        <ele>1170.5999755859</ele>
        <time>2019-10-06T07:55:12.000Z</time>
      </trkpt>
      <trkpt lat="43.74702" lon="6.75233">
        <ele>1169</ele>
        <time>2019-10-06T07:55:14.000Z</time>
      </trkpt>
      <trkpt lat="43.74704" lon="6.75225">
        <ele>1167.1999511719</ele>
        <time>2019-10-06T07:55:16.000Z</time>
      </trkpt>
      <trkpt lat="43.74703" lon="6.75222">
        <ele>1166.5999755859</ele>
        <time>2019-10-06T07:55:17.000Z</time>
      </trkpt>
      <trkpt lat="43.74701" lon="6.75218">
        <ele>1165.8000488281</ele>
        <time>2019-10-06T07:55:18.000Z</time>
      </trkpt>
      <trkpt lat="43.74697" lon="6.75214">
        <ele>1164.5999755859</ele>
        <time>2019-10-06T07:55:20.000Z</time>
      </trkpt>
      <trkpt lat="43.74692" lon="6.75211">
        <ele>1163.4000244141</ele>
        <time>2019-10-06T07:55:22.000Z</time>
      </trkpt>
      <trkpt lat="43.74684" lon="6.75208">
        <ele>1161.5999755859</ele>
        <time>2019-10-06T07:55:24.000Z</time>
      </trkpt>
      <trkpt lat="43.74678" lon="6.75206">
        <ele>1159.8000488281</ele>
        <time>2019-10-06T07:55:25.000Z</time>
      </trkpt>
      <trkpt lat="43.74673" lon="6.75205">
        <ele>1158</ele>
        <time>2019-10-06T07:55:26.000Z</time>
      </trkpt>
      <trkpt lat="43.74669" lon="6.75204">
        <ele>1157</ele>
        <time>2019-10-06T07:55:27.000Z</time>
      </trkpt>
      <trkpt lat="43.74661" lon="6.75201">
        <ele>1155.4000244141</ele>
        <time>2019-10-06T07:55:29.000Z</time>
      </trkpt>
      <trkpt lat="43.74653" lon="6.75198">
        <ele>1153</ele>
        <time>2019-10-06T07:55:31.000Z</time>
      </trkpt>
      <trkpt lat="43.74649" lon="6.75196">
        <ele>1152</ele>
        <time>2019-10-06T07:55:32.000Z</time>
      </trkpt>
      <trkpt lat="43.74639" lon="6.75193">
        <ele>1150.1999511719</ele>
        <time>2019-10-06T07:55:34.000Z</time>
      </trkpt>
      <trkpt lat="43.7463" lon="6.75195">
        <ele>1148.4000244141</ele>
        <time>2019-10-06T07:55:36.000Z</time>
      </trkpt>
      <trkpt lat="43.74625" lon="6.75196">
        <ele>1147.1999511719</ele>
        <time>2019-10-06T07:55:37.000Z</time>
      </trkpt>
      <trkpt lat="43.7462" lon="6.75199">
        <ele>1146.5999755859</ele>
        <time>2019-10-06T07:55:38.000Z</time>
      </trkpt>
      <trkpt lat="43.74614" lon="6.752">
        <ele>1146</ele>
        <time>2019-10-06T07:55:39.000Z</time>
      </trkpt>
      <trkpt lat="43.74603" lon="6.75204">
        <ele>1144.8000488281</ele>
        <time>2019-10-06T07:55:41.000Z</time>
      </trkpt>
      <trkpt lat="43.74589" lon="6.75218">
        <ele>1143.1999511719</ele>
        <time>2019-10-06T07:55:44.000Z</time>
      </trkpt>
      <trkpt lat="43.74578" lon="6.75226">
        <ele>1142.4000244141</ele>
        <time>2019-10-06T07:55:46.000Z</time>
      </trkpt>
      <trkpt lat="43.74566" lon="6.75231">
        <ele>1140.8000488281</ele>
        <time>2019-10-06T07:55:48.000Z</time>
      </trkpt>
      <trkpt lat="43.74553" lon="6.75233">
        <ele>1139.4000244141</ele>
        <time>2019-10-06T07:55:50.000Z</time>
      </trkpt>
      <trkpt lat="43.74547" lon="6.75233">
        <ele>1138.4000244141</ele>
        <time>2019-10-06T07:55:51.000Z</time>
      </trkpt>
      <trkpt lat="43.74535" lon="6.75235">
        <ele>1137.1999511719</ele>
        <time>2019-10-06T07:55:53.000Z</time>
      </trkpt>
      <trkpt lat="43.74529" lon="6.75235">
        <ele>1135.5999755859</ele>
        <time>2019-10-06T07:55:55.000Z</time>
      </trkpt>
      <trkpt lat="43.74526" lon="6.75229">
        <ele>1134.1999511719</ele>
        <time>2019-10-06T07:55:57.000Z</time>
      </trkpt>
      <trkpt lat="43.7452" lon="6.75219">
        <ele>1132.8000488281</ele>
        <time>2019-10-06T07:55:59.000Z</time>
      </trkpt>
      <trkpt lat="43.74515" lon="6.75213">
        <ele>1131.8000488281</ele>
        <time>2019-10-06T07:56:00.000Z</time>
      </trkpt>
      <trkpt lat="43.74501" lon="6.75202">
        <ele>1129.8000488281</ele>
        <time>2019-10-06T07:56:02.000Z</time>
      </trkpt>
      <trkpt lat="43.74493" lon="6.75197">
        <ele>1128.4000244141</ele>
        <time>2019-10-06T07:56:03.000Z</time>
      </trkpt>
      <trkpt lat="43.74484" lon="6.75192">
        <ele>1127.1999511719</ele>
        <time>2019-10-06T07:56:04.000Z</time>
      </trkpt>
      <trkpt lat="43.74476" lon="6.7519">
        <ele>1126.1999511719</ele>
        <time>2019-10-06T07:56:05.000Z</time>
      </trkpt>
      <trkpt lat="43.7447" lon="6.7519">
        <ele>1125</ele>
        <time>2019-10-06T07:56:06.000Z</time>
      </trkpt>
      <trkpt lat="43.74463" lon="6.75189">
        <ele>1123.5999755859</ele>
        <time>2019-10-06T07:56:07.000Z</time>
      </trkpt>
      <trkpt lat="43.74457" lon="6.7519">
        <ele>1121.8000488281</ele>
        <time>2019-10-06T07:56:08.000Z</time>
      </trkpt>
      <trkpt lat="43.74451" lon="6.75192">
        <ele>1120.1999511719</ele>
        <time>2019-10-06T07:56:09.000Z</time>
      </trkpt>
      <trkpt lat="43.74444" lon="6.75195">
        <ele>1119</ele>
        <time>2019-10-06T07:56:10.000Z</time>
      </trkpt>
      <trkpt lat="43.74432" lon="6.75206">
        <ele>1117.5999755859</ele>
        <time>2019-10-06T07:56:12.000Z</time>
      </trkpt>
      <trkpt lat="43.74423" lon="6.75219">
        <ele>1116.5999755859</ele>
        <time>2019-10-06T07:56:14.000Z</time>
      </trkpt>
      <trkpt lat="43.74409" lon="6.75241">
        <ele>1115.4000244141</ele>
        <time>2019-10-06T07:56:17.000Z</time>
      </trkpt>
      <trkpt lat="43.7439" lon="6.75268">
        <ele>1114.1999511719</ele>
        <time>2019-10-06T07:56:21.000Z</time>
      </trkpt>
      <trkpt lat="43.74372" lon="6.75295">
        <ele>1113.5999755859</ele>
        <time>2019-10-06T07:56:25.000Z</time>
      </trkpt>
      <trkpt lat="43.74364" lon="6.75297">
        <ele>1113</ele>
        <time>2019-10-06T07:56:27.000Z</time>
      </trkpt>
      <trkpt lat="43.74358" lon="6.7529">
        <ele>1111.8000488281</ele>
        <time>2019-10-06T07:56:29.000Z</time>
      </trkpt>
      <trkpt lat="43.74356" lon="6.75281">
        <ele>1110</ele>
        <time>2019-10-06T07:56:31.000Z</time>
      </trkpt>
      <trkpt lat="43.74356" lon="6.75277">
        <ele>1108.8000488281</ele>
        <time>2019-10-06T07:56:32.000Z</time>
      </trkpt>
      <trkpt lat="43.74356" lon="6.75269">
        <ele>1107</ele>
        <time>2019-10-06T07:56:34.000Z</time>
      </trkpt>
      <trkpt lat="43.74357" lon="6.75265">
        <ele>1105.4000244141</ele>
        <time>2019-10-06T07:56:35.000Z</time>
      </trkpt>
      <trkpt lat="43.74357" lon="6.75261">
        <ele>1103.8000488281</ele>
        <time>2019-10-06T07:56:36.000Z</time>
      </trkpt>
      <trkpt lat="43.74357" lon="6.75259">
        <ele>1102.8000488281</ele>
        <time>2019-10-06T07:56:37.000Z</time>
      </trkpt>
      <trkpt lat="43.74355" lon="6.75257">
        <ele>1102.1999511719</ele>
        <time>2019-10-06T07:56:38.000Z</time>
      </trkpt>
      <trkpt lat="43.74351" lon="6.75256">
        <ele>1101.8000488281</ele>
        <time>2019-10-06T07:56:39.000Z</time>
      </trkpt>
      <trkpt lat="43.74326" lon="6.75272">
        <ele>1101.1999511719</ele>
        <time>2019-10-06T07:56:45.000Z</time>
      </trkpt>
      <trkpt lat="43.74322" lon="6.75278">
        <ele>1100.8000488281</ele>
        <time>2019-10-06T07:56:46.000Z</time>
      </trkpt>
      <trkpt lat="43.74315" lon="6.75292">
        <ele>1099</ele>
        <time>2019-10-06T07:56:48.000Z</time>
      </trkpt>
      <trkpt lat="43.74313" lon="6.75299">
        <ele>1098.5999755859</ele>
        <time>2019-10-06T07:56:49.000Z</time>
      </trkpt>
      <trkpt lat="43.74311" lon="6.75306">
        <ele>1098.4000244141</ele>
        <time>2019-10-06T07:56:50.000Z</time>
      </trkpt>
      <trkpt lat="43.7431" lon="6.75321">
        <ele>1097.5999755859</ele>
        <time>2019-10-06T07:56:52.000Z</time>
      </trkpt>
      <trkpt lat="43.74312" lon="6.75338">
        <ele>1095.8000488281</ele>
        <time>2019-10-06T07:56:54.000Z</time>
      </trkpt>
      <trkpt lat="43.74318" lon="6.75352">
        <ele>1094.5999755859</ele>
        <time>2019-10-06T07:56:56.000Z</time>
      </trkpt>
      <trkpt lat="43.74322" lon="6.75359">
        <ele>1094</ele>
        <time>2019-10-06T07:56:57.000Z</time>
      </trkpt>
      <trkpt lat="43.74325" lon="6.75366">
        <ele>1093.1999511719</ele>
        <time>2019-10-06T07:56:58.000Z</time>
      </trkpt>
      <trkpt lat="43.74332" lon="6.75381">
        <ele>1092.1999511719</ele>
        <time>2019-10-06T07:57:00.000Z</time>
      </trkpt>
      <trkpt lat="43.74334" lon="6.75389">
        <ele>1092</ele>
        <time>2019-10-06T07:57:01.000Z</time>
      </trkpt>
      <trkpt lat="43.74335" lon="6.75403">
        <ele>1091.5999755859</ele>
        <time>2019-10-06T07:57:03.000Z</time>
      </trkpt>
      <trkpt lat="43.74333" lon="6.75407">
        <ele>1091.1999511719</ele>
        <time>2019-10-06T07:57:04.000Z</time>
      </trkpt>
      <trkpt lat="43.74327" lon="6.75415">
        <ele>1089.8000488281</ele>
        <time>2019-10-06T07:57:06.000Z</time>
      </trkpt>
      <trkpt lat="43.74326" lon="6.75417">
        <ele>1088.8000488281</ele>
        <time>2019-10-06T07:57:08.000Z</time>
      </trkpt>
      <trkpt lat="43.74318" lon="6.75419">
        <ele>1088</ele>
        <time>2019-10-06T07:57:16.000Z</time>
      </trkpt>
      <trkpt lat="43.74301" lon="6.75432">
        <ele>1087.1999511719</ele>
        <time>2019-10-06T07:57:22.000Z</time>
      </trkpt>
      <trkpt lat="43.74298" lon="6.75436">
        <ele>1086.8000488281</ele>
        <time>2019-10-06T07:57:23.000Z</time>
      </trkpt>
      <trkpt lat="43.74296" lon="6.75453">
        <ele>1085.4000244141</ele>
        <time>2019-10-06T07:57:26.000Z</time>
      </trkpt>
      <trkpt lat="43.74304" lon="6.75471">
        <ele>1084.4000244141</ele>
        <time>2019-10-06T07:57:29.000Z</time>
      </trkpt>
      <trkpt lat="43.74307" lon="6.75477">
        <ele>1084.4000244141</ele>
        <time>2019-10-06T07:57:30.000Z</time>
      </trkpt>
      <trkpt lat="43.74309" lon="6.75482">
        <ele>1084.1999511719</ele>
        <time>2019-10-06T07:57:31.000Z</time>
      </trkpt>
      <trkpt lat="43.7431" lon="6.75498">
        <ele>1084</ele>
        <time>2019-10-06T07:57:35.000Z</time>
      </trkpt>
      <trkpt lat="43.74307" lon="6.75504">
        <ele>1084</ele>
        <time>2019-10-06T07:57:37.000Z</time>
      </trkpt>
      <trkpt lat="43.74298" lon="6.75519">
        <ele>1083.1999511719</ele>
        <time>2019-10-06T07:57:41.000Z</time>
      </trkpt>
      <trkpt lat="43.7429" lon="6.75539">
        <ele>1082.4000244141</ele>
        <time>2019-10-06T07:57:44.000Z</time>
      </trkpt>
      <trkpt lat="43.74286" lon="6.75545">
        <ele>1082.1999511719</ele>
        <time>2019-10-06T07:57:45.000Z</time>
      </trkpt>
      <trkpt lat="43.74282" lon="6.7555">
        <ele>1080.8000488281</ele>
        <time>2019-10-06T07:57:46.000Z</time>
      </trkpt>
      <trkpt lat="43.74277" lon="6.75556">
        <ele>1079.5999755859</ele>
        <time>2019-10-06T07:57:47.000Z</time>
      </trkpt>
      <trkpt lat="43.74269" lon="6.75566">
        <ele>1077.5999755859</ele>
        <time>2019-10-06T07:57:49.000Z</time>
      </trkpt>
      <trkpt lat="43.74265" lon="6.7557">
        <ele>1076.4000244141</ele>
        <time>2019-10-06T07:57:50.000Z</time>
      </trkpt>
      <trkpt lat="43.74258" lon="6.7558">
        <ele>1075</ele>
        <time>2019-10-06T07:57:52.000Z</time>
      </trkpt>
      <trkpt lat="43.74254" lon="6.75583">
        <ele>1074.5999755859</ele>
        <time>2019-10-06T07:57:53.000Z</time>
      </trkpt>
      <trkpt lat="43.74249" lon="6.75585">
        <ele>1073.8000488281</ele>
        <time>2019-10-06T07:57:54.000Z</time>
      </trkpt>
      <trkpt lat="43.74245" lon="6.75586">
        <ele>1073.1999511719</ele>
        <time>2019-10-06T07:57:55.000Z</time>
      </trkpt>
      <trkpt lat="43.74241" lon="6.75588">
        <ele>1072.1999511719</ele>
        <time>2019-10-06T07:57:56.000Z</time>
      </trkpt>
      <trkpt lat="43.74237" lon="6.7559">
        <ele>1071.8000488281</ele>
        <time>2019-10-06T07:57:57.000Z</time>
      </trkpt>
      <trkpt lat="43.74227" lon="6.75595">
        <ele>1071.1999511719</ele>
        <time>2019-10-06T07:57:59.000Z</time>
      </trkpt>
      <trkpt lat="43.74212" lon="6.75603">
        <ele>1070.1999511719</ele>
        <time>2019-10-06T07:58:02.000Z</time>
      </trkpt>
      <trkpt lat="43.74194" lon="6.75605">
        <ele>1070.1999511719</ele>
        <time>2019-10-06T07:58:06.000Z</time>
      </trkpt>
      <trkpt lat="43.74181" lon="6.75613">
        <ele>1069.4000244141</ele>
        <time>2019-10-06T07:58:09.000Z</time>
      </trkpt>
      <trkpt lat="43.74178" lon="6.75618">
        <ele>1069</ele>
        <time>2019-10-06T07:58:10.000Z</time>
      </trkpt>
      <trkpt lat="43.7417" lon="6.75647">
        <ele>1067.8000488281</ele>
        <time>2019-10-06T07:58:14.000Z</time>
      </trkpt>
      <trkpt lat="43.74167" lon="6.75655">
        <ele>1066.5999755859</ele>
        <time>2019-10-06T07:58:15.000Z</time>
      </trkpt>
      <trkpt lat="43.74164" lon="6.75663">
        <ele>1066.1999511719</ele>
        <time>2019-10-06T07:58:16.000Z</time>
      </trkpt>
      <trkpt lat="43.74161" lon="6.75671">
        <ele>1065.5999755859</ele>
        <time>2019-10-06T07:58:17.000Z</time>
      </trkpt>
      <trkpt lat="43.74151" lon="6.757">
        <ele>1064.5999755859</ele>
        <time>2019-10-06T07:58:21.000Z</time>
      </trkpt>
      <trkpt lat="43.7415" lon="6.75707">
        <ele>1064</ele>
        <time>2019-10-06T07:58:22.000Z</time>
      </trkpt>
      <trkpt lat="43.74148" lon="6.75715">
        <ele>1063</ele>
        <time>2019-10-06T07:58:23.000Z</time>
      </trkpt>
      <trkpt lat="43.74146" lon="6.75733">
        <ele>1062</ele>
        <time>2019-10-06T07:58:25.000Z</time>
      </trkpt>
      <trkpt lat="43.74143" lon="6.75751">
        <ele>1061</ele>
        <time>2019-10-06T07:58:27.000Z</time>
      </trkpt>
      <trkpt lat="43.74142" lon="6.75761">
        <ele>1060.5999755859</ele>
        <time>2019-10-06T07:58:28.000Z</time>
      </trkpt>
      <trkpt lat="43.74138" lon="6.75778">
        <ele>1059.4000244141</ele>
        <time>2019-10-06T07:58:30.000Z</time>
      </trkpt>
      <trkpt lat="43.74135" lon="6.75796">
        <ele>1058.4000244141</ele>
        <time>2019-10-06T07:58:32.000Z</time>
      </trkpt>
      <trkpt lat="43.74134" lon="6.75805">
        <ele>1057.8000488281</ele>
        <time>2019-10-06T07:58:33.000Z</time>
      </trkpt>
      <trkpt lat="43.7413" lon="6.75825">
        <ele>1057.4000244141</ele>
        <time>2019-10-06T07:58:35.000Z</time>
      </trkpt>
      <trkpt lat="43.74128" lon="6.75835">
        <ele>1057</ele>
        <time>2019-10-06T07:58:36.000Z</time>
      </trkpt>
      <trkpt lat="43.74124" lon="6.75854">
        <ele>1056.8000488281</ele>
        <time>2019-10-06T07:58:38.000Z</time>
      </trkpt>
      <trkpt lat="43.74111" lon="6.75904">
        <ele>1055.8000488281</ele>
        <time>2019-10-06T07:58:44.000Z</time>
      </trkpt>
      <trkpt lat="43.74108" lon="6.7591">
        <ele>1055.4000244141</ele>
        <time>2019-10-06T07:58:45.000Z</time>
      </trkpt>
      <trkpt lat="43.74105" lon="6.75916">
        <ele>1054.5999755859</ele>
        <time>2019-10-06T07:58:46.000Z</time>
      </trkpt>
      <trkpt lat="43.74101" lon="6.75923">
        <ele>1054</ele>
        <time>2019-10-06T07:58:47.000Z</time>
      </trkpt>
      <trkpt lat="43.74098" lon="6.75929">
        <ele>1053.5999755859</ele>
        <time>2019-10-06T07:58:48.000Z</time>
      </trkpt>
      <trkpt lat="43.74092" lon="6.7595">
        <ele>1052.8000488281</ele>
        <time>2019-10-06T07:58:51.000Z</time>
      </trkpt>
      <trkpt lat="43.74086" lon="6.7596">
        <ele>1052.5999755859</ele>
        <time>2019-10-06T07:58:53.000Z</time>
      </trkpt>
      <trkpt lat="43.74073" lon="6.75984">
        <ele>1052.5999755859</ele>
        <time>2019-10-06T07:59:03.000Z</time>
      </trkpt>
      <trkpt lat="43.74049" lon="6.76039">
        <ele>1052.5999755859</ele>
        <time>2019-10-06T07:59:21.000Z</time>
      </trkpt>
      <trkpt lat="43.74044" lon="6.76063">
        <ele>1052.5999755859</ele>
        <time>2019-10-06T07:59:26.000Z</time>
      </trkpt>
      <trkpt lat="43.74057" lon="6.76108">
        <ele>1051.4000244141</ele>
        <time>2019-10-06T07:59:36.000Z</time>
      </trkpt>
      <trkpt lat="43.74062" lon="6.76116">
        <ele>1049.8000488281</ele>
        <time>2019-10-06T07:59:38.000Z</time>
      </trkpt>
      <trkpt lat="43.74067" lon="6.76127">
        <ele>1048.8000488281</ele>
        <time>2019-10-06T07:59:40.000Z</time>
      </trkpt>
      <trkpt lat="43.74071" lon="6.76131">
        <ele>1047.8000488281</ele>
        <time>2019-10-06T07:59:41.000Z</time>
      </trkpt>
      <trkpt lat="43.74079" lon="6.7614">
        <ele>1046.4000244141</ele>
        <time>2019-10-06T07:59:43.000Z</time>
      </trkpt>
      <trkpt lat="43.74082" lon="6.76145">
        <ele>1045.5999755859</ele>
        <time>2019-10-06T07:59:44.000Z</time>
      </trkpt>
      <trkpt lat="43.74085" lon="6.76151">
        <ele>1044.4000244141</ele>
        <time>2019-10-06T07:59:45.000Z</time>
      </trkpt>
      <trkpt lat="43.74089" lon="6.76166">
        <ele>1043</ele>
        <time>2019-10-06T07:59:47.000Z</time>
      </trkpt>
      <trkpt lat="43.74088" lon="6.76182">
        <ele>1042.4000244141</ele>
        <time>2019-10-06T07:59:49.000Z</time>
      </trkpt>
      <trkpt lat="43.74085" lon="6.76195">
        <ele>1042.1999511719</ele>
        <time>2019-10-06T07:59:51.000Z</time>
      </trkpt>
      <trkpt lat="43.74079" lon="6.76205">
        <ele>1042</ele>
        <time>2019-10-06T07:59:53.000Z</time>
      </trkpt>
      <trkpt lat="43.74075" lon="6.7621">
        <ele>1042</ele>
        <time>2019-10-06T07:59:54.000Z</time>
      </trkpt>
      <trkpt lat="43.74069" lon="6.76219">
        <ele>1041.5999755859</ele>
        <time>2019-10-06T07:59:56.000Z</time>
      </trkpt>
      <trkpt lat="43.74061" lon="6.76229">
        <ele>1041.1999511719</ele>
        <time>2019-10-06T07:59:58.000Z</time>
      </trkpt>
      <trkpt lat="43.74057" lon="6.76234">
        <ele>1041</ele>
        <time>2019-10-06T07:59:59.000Z</time>
      </trkpt>
      <trkpt lat="43.74045" lon="6.76249">
        <ele>1039.8000488281</ele>
        <time>2019-10-06T08:00:02.000Z</time>
      </trkpt>
      <trkpt lat="43.74042" lon="6.76254">
        <ele>1039.5999755859</ele>
        <time>2019-10-06T08:00:03.000Z</time>
      </trkpt>
      <trkpt lat="43.74032" lon="6.76274">
        <ele>1039.1999511719</ele>
        <time>2019-10-06T08:00:07.000Z</time>
      </trkpt>
      <trkpt lat="43.74029" lon="6.76283">
        <ele>1038.5999755859</ele>
        <time>2019-10-06T08:00:09.000Z</time>
      </trkpt>
      <trkpt lat="43.74029" lon="6.76295">
        <ele>1036.5999755859</ele>
        <time>2019-10-06T08:00:11.000Z</time>
      </trkpt>
      <trkpt lat="43.74029" lon="6.76301">
        <ele>1036</ele>
        <time>2019-10-06T08:00:12.000Z</time>
      </trkpt>
      <trkpt lat="43.7403" lon="6.76306">
        <ele>1035.4000244141</ele>
        <time>2019-10-06T08:00:13.000Z</time>
      </trkpt>
      <trkpt lat="43.74034" lon="6.7632">
        <ele>1034.4000244141</ele>
        <time>2019-10-06T08:00:15.000Z</time>
      </trkpt>
      <trkpt lat="43.74038" lon="6.76334">
        <ele>1032.8000488281</ele>
        <time>2019-10-06T08:00:17.000Z</time>
      </trkpt>
      <trkpt lat="43.74039" lon="6.7634">
        <ele>1032</ele>
        <time>2019-10-06T08:00:18.000Z</time>
      </trkpt>
      <trkpt lat="43.7404" lon="6.76348">
        <ele>1031.4000244141</ele>
        <time>2019-10-06T08:00:19.000Z</time>
      </trkpt>
      <trkpt lat="43.74036" lon="6.76368">
        <ele>1030.1999511719</ele>
        <time>2019-10-06T08:00:22.000Z</time>
      </trkpt>
      <trkpt lat="43.74029" lon="6.76379">
        <ele>1029.1999511719</ele>
        <time>2019-10-06T08:00:24.000Z</time>
      </trkpt>
      <trkpt lat="43.74021" lon="6.76388">
        <ele>1027.4000244141</ele>
        <time>2019-10-06T08:00:26.000Z</time>
      </trkpt>
      <trkpt lat="43.74013" lon="6.76396">
        <ele>1025.5999755859</ele>
        <time>2019-10-06T08:00:28.000Z</time>
      </trkpt>
      <trkpt lat="43.7401" lon="6.764">
        <ele>1024</ele>
        <time>2019-10-06T08:00:29.000Z</time>
      </trkpt>
      <trkpt lat="43.74007" lon="6.76409">
        <ele>1022.4000244141</ele>
        <time>2019-10-06T08:00:31.000Z</time>
      </trkpt>
      <trkpt lat="43.74004" lon="6.76417">
        <ele>1021</ele>
        <time>2019-10-06T08:00:33.000Z</time>
      </trkpt>
      <trkpt lat="43.74003" lon="6.7642">
        <ele>1020.200012207</ele>
        <time>2019-10-06T08:00:34.000Z</time>
      </trkpt>
      <trkpt lat="43.74003" lon="6.76421">
        <ele>1019.5999755859</ele>
        <time>2019-10-06T08:00:35.000Z</time>
      </trkpt>
      <trkpt lat="43.74001" lon="6.76423">
        <ele>1018.4000244141</ele>
        <time>2019-10-06T08:00:38.000Z</time>
      </trkpt>
      <trkpt lat="43.73999" lon="6.76426">
        <ele>1018.200012207</ele>
        <time>2019-10-06T08:00:40.000Z</time>
      </trkpt>
      <trkpt lat="43.73989" lon="6.76435">
        <ele>1017</ele>
        <time>2019-10-06T08:00:43.000Z</time>
      </trkpt>
      <trkpt lat="43.7398" lon="6.76443">
        <ele>1015.799987793</ele>
        <time>2019-10-06T08:00:45.000Z</time>
      </trkpt>
      <trkpt lat="43.73972" lon="6.7645">
        <ele>1013.5999755859</ele>
        <time>2019-10-06T08:00:47.000Z</time>
      </trkpt>
      <trkpt lat="43.73972" lon="6.76455">
        <ele>1012.200012207</ele>
        <time>2019-10-06T08:00:49.000Z</time>
      </trkpt>
      <trkpt lat="43.73975" lon="6.76454">
        <ele>1011.4000244141</ele>
        <time>2019-10-06T08:00:51.000Z</time>
      </trkpt>
      <trkpt lat="43.73979" lon="6.76451">
        <ele>1011</ele>
        <time>2019-10-06T08:00:53.000Z</time>
      </trkpt>
      <trkpt lat="43.73988" lon="6.76446">
        <ele>1010.4000244141</ele>
        <time>2019-10-06T08:00:56.000Z</time>
      </trkpt>
      <trkpt lat="43.73996" lon="6.76442">
        <ele>1010</ele>
        <time>2019-10-06T08:00:59.000Z</time>
      </trkpt>
      <trkpt lat="43.74005" lon="6.76443">
        <ele>1009.200012207</ele>
        <time>2019-10-06T08:01:04.000Z</time>
      </trkpt>
      <trkpt lat="43.74007" lon="6.76446">
        <ele>1008.799987793</ele>
        <time>2019-10-06T08:01:05.000Z</time>
      </trkpt>
      <trkpt lat="43.7401" lon="6.7645">
        <ele>1008.4000244141</ele>
        <time>2019-10-06T08:01:07.000Z</time>
      </trkpt>
      <trkpt lat="43.74012" lon="6.76456">
        <ele>1008.4000244141</ele>
        <time>2019-10-06T08:01:12.000Z</time>
      </trkpt>
      <trkpt lat="43.74012" lon="6.76459">
        <ele>1008.4000244141</ele>
        <time>2019-10-06T08:01:14.000Z</time>
      </trkpt>
      <trkpt lat="43.7401" lon="6.76466">
        <ele>1008.4000244141</ele>
        <time>2019-10-06T08:01:19.000Z</time>
      </trkpt>
      <trkpt lat="43.7401" lon="6.76467">
        <ele>1008.5999755859</ele>
        <time>2019-10-06T08:01:24.000Z</time>
      </trkpt>
      <trkpt lat="43.7401" lon="6.76467">
        <ele>1008.5999755859</ele>
        <time>2019-10-06T08:01:27.000Z</time>
      </trkpt>
      <trkpt lat="43.74011" lon="6.76468">
        <ele>1008.200012207</ele>
        <time>2019-10-06T08:01:30.000Z</time>
      </trkpt>
      <trkpt lat="43.74011" lon="6.76468">
        <ele>1007.5999755859</ele>
        <time>2019-10-06T08:01:36.000Z</time>
      </trkpt>
      <trkpt lat="43.74011" lon="6.76468">
        <ele>1007.4000244141</ele>
        <time>2019-10-06T08:01:41.000Z</time>
      </trkpt>
      <trkpt lat="43.74011" lon="6.76468">
        <ele>1007.5999755859</ele>
        <time>2019-10-06T08:01:50.000Z</time>
      </trkpt>
      <trkpt lat="43.74011" lon="6.76468">
        <ele>1007.5999755859</ele>
        <time>2019-10-06T08:01:55.000Z</time>
      </trkpt>
      <trkpt lat="43.74011" lon="6.76468">
        <ele>1007.4000244141</ele>
        <time>2019-10-06T08:01:59.000Z</time>
      </trkpt>
      <trkpt lat="43.74011" lon="6.76468">
        <ele>1007.4000244141</ele>
        <time>2019-10-06T08:02:09.000Z</time>
      </trkpt>
      <trkpt lat="43.7401" lon="6.76467">
        <ele>1007.200012207</ele>
        <time>2019-10-06T08:02:23.000Z</time>
      </trkpt>
      <trkpt lat="43.7401" lon="6.76467">
        <ele>1007.200012207</ele>
        <time>2019-10-06T08:02:42.000Z</time>
      </trkpt>
      <trkpt lat="43.7401" lon="6.76466">
        <ele>1007.200012207</ele>
        <time>2019-10-06T08:02:53.000Z</time>
      </trkpt>
      <trkpt lat="43.7401" lon="6.76466">
        <ele>1007</ele>
        <time>2019-10-06T08:02:58.000Z</time>
      </trkpt>
      <trkpt lat="43.7401" lon="6.76466">
        <ele>1007.200012207</ele>
        <time>2019-10-06T08:03:04.000Z</time>
      </trkpt>
      <trkpt lat="43.7401" lon="6.76466">
        <ele>1007.5999755859</ele>
        <time>2019-10-06T08:03:08.000Z</time>
      </trkpt>
      <trkpt lat="43.7401" lon="6.76466">
        <ele>1007.799987793</ele>
        <time>2019-10-06T08:03:15.000Z</time>
      </trkpt>
      <trkpt lat="43.74009" lon="6.76469">
        <ele>1007.799987793</ele>
        <time>2019-10-06T08:03:21.000Z</time>
      </trkpt>
      <trkpt lat="43.74007" lon="6.76474">
        <ele>1008.200012207</ele>
        <time>2019-10-06T08:03:24.000Z</time>
      </trkpt>
      <trkpt lat="43.74005" lon="6.7648">
        <ele>1008.200012207</ele>
        <time>2019-10-06T08:03:27.000Z</time>
      </trkpt>
      <trkpt lat="43.74004" lon="6.76483">
        <ele>1008</ele>
        <time>2019-10-06T08:03:29.000Z</time>
      </trkpt>
      <trkpt lat="43.73998" lon="6.76498">
        <ele>1008.799987793</ele>
        <time>2019-10-06T08:03:40.000Z</time>
      </trkpt>
      <trkpt lat="43.73993" lon="6.76511">
        <ele>1009</ele>
        <time>2019-10-06T08:03:46.000Z</time>
      </trkpt>
      <trkpt lat="43.73989" lon="6.76516">
        <ele>1009</ele>
        <time>2019-10-06T08:03:49.000Z</time>
      </trkpt>
      <trkpt lat="43.73979" lon="6.76531">
        <ele>1009.799987793</ele>
        <time>2019-10-06T08:03:58.000Z</time>
      </trkpt>
      <trkpt lat="43.73973" lon="6.76539">
        <ele>1010</ele>
        <time>2019-10-06T08:04:02.000Z</time>
      </trkpt>
      <trkpt lat="43.73969" lon="6.76547">
        <ele>1010.200012207</ele>
        <time>2019-10-06T08:04:05.000Z</time>
      </trkpt>
      <trkpt lat="43.73968" lon="6.76549">
        <ele>1010.200012207</ele>
        <time>2019-10-06T08:04:06.000Z</time>
      </trkpt>
      <trkpt lat="43.73963" lon="6.76559">
        <ele>1010.5999755859</ele>
        <time>2019-10-06T08:04:11.000Z</time>
      </trkpt>
      <trkpt lat="43.73961" lon="6.76561">
        <ele>1010.799987793</ele>
        <time>2019-10-06T08:04:13.000Z</time>
      </trkpt>
      <trkpt lat="43.73961" lon="6.76561">
        <ele>1010.799987793</ele>
        <time>2019-10-06T08:04:14.000Z</time>
      </trkpt>
      <trkpt lat="43.73961" lon="6.76561">
        <ele>1010.799987793</ele>
        <time>2019-10-06T08:04:16.000Z</time>
      </trkpt>
      <trkpt lat="43.7396" lon="6.76563">
        <ele>1010.799987793</ele>
        <time>2019-10-06T08:04:18.000Z</time>
      </trkpt>
      <trkpt lat="43.7396" lon="6.76563">
        <ele>1010.799987793</ele>
        <time>2019-10-06T08:04:20.000Z</time>
      </trkpt>
      <trkpt lat="43.73958" lon="6.76567">
        <ele>1011.200012207</ele>
        <time>2019-10-06T08:04:25.000Z</time>
      </trkpt>
      <trkpt lat="43.73957" lon="6.76568">
        <ele>1011.200012207</ele>
        <time>2019-10-06T08:04:26.000Z</time>
      </trkpt>
      <trkpt lat="43.73956" lon="6.76571">
        <ele>1011.4000244141</ele>
        <time>2019-10-06T08:04:29.000Z</time>
      </trkpt>
      <trkpt lat="43.73953" lon="6.76578">
        <ele>1011.5999755859</ele>
        <time>2019-10-06T08:04:47.000Z</time>
      </trkpt>
      <trkpt lat="43.73949" lon="6.76593">
        <ele>1012.5999755859</ele>
        <time>2019-10-06T08:04:56.000Z</time>
      </trkpt>
      <trkpt lat="43.73948" lon="6.76597">
        <ele>1012.799987793</ele>
        <time>2019-10-06T08:04:59.000Z</time>
      </trkpt>
      <trkpt lat="43.73947" lon="6.76598">
        <ele>1013</ele>
        <time>2019-10-06T08:05:02.000Z</time>
      </trkpt>
      <trkpt lat="43.73947" lon="6.76601">
        <ele>1013</ele>
        <time>2019-10-06T08:05:06.000Z</time>
      </trkpt>
      <trkpt lat="43.73945" lon="6.76604">
        <ele>1013</ele>
        <time>2019-10-06T08:05:08.000Z</time>
      </trkpt>
      <trkpt lat="43.73943" lon="6.76606">
        <ele>1012.799987793</ele>
        <time>2019-10-06T08:05:10.000Z</time>
      </trkpt>
      <trkpt lat="43.7394" lon="6.76609">
        <ele>1012.799987793</ele>
        <time>2019-10-06T08:05:13.000Z</time>
      </trkpt>
      <trkpt lat="43.73937" lon="6.76613">
        <ele>1013.200012207</ele>
        <time>2019-10-06T08:05:16.000Z</time>
      </trkpt>
      <trkpt lat="43.73935" lon="6.76615">
        <ele>1013</ele>
        <time>2019-10-06T08:05:20.000Z</time>
      </trkpt>
      <trkpt lat="43.73933" lon="6.76616">
        <ele>1013.200012207</ele>
        <time>2019-10-06T08:05:23.000Z</time>
      </trkpt>
      <trkpt lat="43.73924" lon="6.76622">
        <ele>1013.799987793</ele>
        <time>2019-10-06T08:05:29.000Z</time>
      </trkpt>
      <trkpt lat="43.73919" lon="6.76629">
        <ele>1014.4000244141</ele>
        <time>2019-10-06T08:05:32.000Z</time>
      </trkpt>
      <trkpt lat="43.73914" lon="6.76641">
        <ele>1015.200012207</ele>
        <time>2019-10-06T08:05:36.000Z</time>
      </trkpt>
      <trkpt lat="43.7391" lon="6.76651">
        <ele>1016</ele>
        <time>2019-10-06T08:05:40.000Z</time>
      </trkpt>
      <trkpt lat="43.73909" lon="6.76653">
        <ele>1016.200012207</ele>
        <time>2019-10-06T08:05:41.000Z</time>
      </trkpt>
      <trkpt lat="43.73904" lon="6.76665">
        <ele>1017.200012207</ele>
        <time>2019-10-06T08:05:48.000Z</time>
      </trkpt>
      <trkpt lat="43.73896" lon="6.76684">
        <ele>1018.5999755859</ele>
        <time>2019-10-06T08:05:58.000Z</time>
      </trkpt>
      <trkpt lat="43.73892" lon="6.76693">
        <ele>1019.4000244141</ele>
        <time>2019-10-06T08:06:02.000Z</time>
      </trkpt>
      <trkpt lat="43.73891" lon="6.76695">
        <ele>1019.5999755859</ele>
        <time>2019-10-06T08:06:03.000Z</time>
      </trkpt>
      <trkpt lat="43.73879" lon="6.76712">
        <ele>1020.799987793</ele>
        <time>2019-10-06T08:06:11.000Z</time>
      </trkpt>
      <trkpt lat="43.73874" lon="6.7672">
        <ele>1021.4000244141</ele>
        <time>2019-10-06T08:06:15.000Z</time>
      </trkpt>
      <trkpt lat="43.73871" lon="6.76725">
        <ele>1022</ele>
        <time>2019-10-06T08:06:18.000Z</time>
      </trkpt>
      <trkpt lat="43.73868" lon="6.76729">
        <ele>1022</ele>
        <time>2019-10-06T08:06:20.000Z</time>
      </trkpt>
      <trkpt lat="43.73866" lon="6.76734">
        <ele>1022.5999755859</ele>
        <time>2019-10-06T08:06:22.000Z</time>
      </trkpt>
      <trkpt lat="43.73861" lon="6.76742">
        <ele>1023</ele>
        <time>2019-10-06T08:06:26.000Z</time>
      </trkpt>
      <trkpt lat="43.73851" lon="6.76753">
        <ele>1024</ele>
        <time>2019-10-06T08:06:34.000Z</time>
      </trkpt>
      <trkpt lat="43.73845" lon="6.76762">
        <ele>1025.4000244141</ele>
        <time>2019-10-06T08:06:40.000Z</time>
      </trkpt>
      <trkpt lat="43.73839" lon="6.76771">
        <ele>1026.4000244141</ele>
        <time>2019-10-06T08:06:46.000Z</time>
      </trkpt>
      <trkpt lat="43.73835" lon="6.76778">
        <ele>1027.1999511719</ele>
        <time>2019-10-06T08:06:51.000Z</time>
      </trkpt>
      <trkpt lat="43.73833" lon="6.76782">
        <ele>1027.5999755859</ele>
        <time>2019-10-06T08:06:53.000Z</time>
      </trkpt>
      <trkpt lat="43.73829" lon="6.7679">
        <ele>1028.8000488281</ele>
        <time>2019-10-06T08:06:58.000Z</time>
      </trkpt>
      <trkpt lat="43.73822" lon="6.76802">
        <ele>1030</ele>
        <time>2019-10-06T08:07:05.000Z</time>
      </trkpt>
      <trkpt lat="43.73817" lon="6.7681">
        <ele>1031</ele>
        <time>2019-10-06T08:07:11.000Z</time>
      </trkpt>
      <trkpt lat="43.73812" lon="6.7682">
        <ele>1032</ele>
        <time>2019-10-06T08:07:17.000Z</time>
      </trkpt>
      <trkpt lat="43.73808" lon="6.76827">
        <ele>1033</ele>
        <time>2019-10-06T08:07:22.000Z</time>
      </trkpt>
      <trkpt lat="43.73805" lon="6.76836">
        <ele>1034.1999511719</ele>
        <time>2019-10-06T08:07:27.000Z</time>
      </trkpt>
      <trkpt lat="43.738" lon="6.76842">
        <ele>1035.4000244141</ele>
        <time>2019-10-06T08:07:32.000Z</time>
      </trkpt>
      <trkpt lat="43.73795" lon="6.76849">
        <ele>1036.5999755859</ele>
        <time>2019-10-06T08:07:37.000Z</time>
      </trkpt>
      <trkpt lat="43.73789" lon="6.76861">
        <ele>1037.8000488281</ele>
        <time>2019-10-06T08:07:44.000Z</time>
      </trkpt>
      <trkpt lat="43.73787" lon="6.76869">
        <ele>1038.8000488281</ele>
        <time>2019-10-06T08:07:49.000Z</time>
      </trkpt>
      <trkpt lat="43.73786" lon="6.76874">
        <ele>1039.1999511719</ele>
        <time>2019-10-06T08:07:52.000Z</time>
      </trkpt>
      <trkpt lat="43.73785" lon="6.7688">
        <ele>1040.1999511719</ele>
        <time>2019-10-06T08:07:56.000Z</time>
      </trkpt>
      <trkpt lat="43.73768" lon="6.76904">
        <ele>1040.8000488281</ele>
        <time>2019-10-06T08:08:07.000Z</time>
      </trkpt>
      <trkpt lat="43.7376" lon="6.76911">
        <ele>1040.8000488281</ele>
        <time>2019-10-06T08:08:11.000Z</time>
      </trkpt>
      <trkpt lat="43.73752" lon="6.7692">
        <ele>1041.1999511719</ele>
        <time>2019-10-06T08:08:17.000Z</time>
      </trkpt>
      <trkpt lat="43.73749" lon="6.76924">
        <ele>1042</ele>
        <time>2019-10-06T08:08:20.000Z</time>
      </trkpt>
      <trkpt lat="43.73748" lon="6.76925">
        <ele>1042</ele>
        <time>2019-10-06T08:08:21.000Z</time>
      </trkpt>
      <trkpt lat="43.73743" lon="6.76932">
        <ele>1042.5999755859</ele>
        <time>2019-10-06T08:08:25.000Z</time>
      </trkpt>
      <trkpt lat="43.73738" lon="6.76941">
        <ele>1043.5999755859</ele>
        <time>2019-10-06T08:08:31.000Z</time>
      </trkpt>
      <trkpt lat="43.73732" lon="6.76951">
        <ele>1044.4000244141</ele>
        <time>2019-10-06T08:08:38.000Z</time>
      </trkpt>
      <trkpt lat="43.73729" lon="6.76956">
        <ele>1044.8000488281</ele>
        <time>2019-10-06T08:08:41.000Z</time>
      </trkpt>
      <trkpt lat="43.73725" lon="6.76965">
        <ele>1045.8000488281</ele>
        <time>2019-10-06T08:08:46.000Z</time>
      </trkpt>
      <trkpt lat="43.7372" lon="6.76972">
        <ele>1046.5999755859</ele>
        <time>2019-10-06T08:08:50.000Z</time>
      </trkpt>
      <trkpt lat="43.73719" lon="6.76974">
        <ele>1046.8000488281</ele>
        <time>2019-10-06T08:08:51.000Z</time>
      </trkpt>
      <trkpt lat="43.73718" lon="6.76976">
        <ele>1047</ele>
        <time>2019-10-06T08:08:52.000Z</time>
      </trkpt>
      <trkpt lat="43.73713" lon="6.76983">
        <ele>1047.4000244141</ele>
        <time>2019-10-06T08:08:57.000Z</time>
      </trkpt>
      <trkpt lat="43.73692" lon="6.76999">
        <ele>1047.4000244141</ele>
        <time>2019-10-06T08:09:07.000Z</time>
      </trkpt>
      <trkpt lat="43.73681" lon="6.77004">
        <ele>1046.8000488281</ele>
        <time>2019-10-06T08:09:11.000Z</time>
      </trkpt>
      <trkpt lat="43.73659" lon="6.77024">
        <ele>1046.1999511719</ele>
        <time>2019-10-06T08:09:18.000Z</time>
      </trkpt>
      <trkpt lat="43.73611" lon="6.77056">
        <ele>1045</ele>
        <time>2019-10-06T08:09:34.000Z</time>
      </trkpt>
      <trkpt lat="43.73579" lon="6.77065">
        <ele>1044</ele>
        <time>2019-10-06T08:09:44.000Z</time>
      </trkpt>
      <trkpt lat="43.73573" lon="6.77067">
        <ele>1043.8000488281</ele>
        <time>2019-10-06T08:09:46.000Z</time>
      </trkpt>
      <trkpt lat="43.73551" lon="6.77075">
        <ele>1044</ele>
        <time>2019-10-06T08:09:54.000Z</time>
      </trkpt>
      <trkpt lat="43.73546" lon="6.77075">
        <ele>1044</ele>
        <time>2019-10-06T08:09:56.000Z</time>
      </trkpt>
      <trkpt lat="43.7354" lon="6.77079">
        <ele>1044.4000244141</ele>
        <time>2019-10-06T08:09:59.000Z</time>
      </trkpt>
      <trkpt lat="43.73529" lon="6.77085">
        <ele>1045.1999511719</ele>
        <time>2019-10-06T08:10:04.000Z</time>
      </trkpt>
      <trkpt lat="43.73506" lon="6.77097">
        <ele>1044.4000244141</ele>
        <time>2019-10-06T08:10:11.000Z</time>
      </trkpt>
      <trkpt lat="43.73502" lon="6.771">
        <ele>1044.1999511719</ele>
        <time>2019-10-06T08:10:12.000Z</time>
      </trkpt>
      <trkpt lat="43.73475" lon="6.77119">
        <ele>1043.1999511719</ele>
        <time>2019-10-06T08:10:20.000Z</time>
      </trkpt>
      <trkpt lat="43.73466" lon="6.7712">
        <ele>1043.1999511719</ele>
        <time>2019-10-06T08:10:23.000Z</time>
      </trkpt>
      <trkpt lat="43.73449" lon="6.77122">
        <ele>1043</ele>
        <time>2019-10-06T08:10:30.000Z</time>
      </trkpt>
      <trkpt lat="43.73448" lon="6.77123">
        <ele>1043</ele>
        <time>2019-10-06T08:10:31.000Z</time>
      </trkpt>
      <trkpt lat="43.73447" lon="6.77122">
        <ele>1043.5999755859</ele>
        <time>2019-10-06T08:10:39.000Z</time>
      </trkpt>
      <trkpt lat="43.73443" lon="6.77123">
        <ele>1043.8000488281</ele>
        <time>2019-10-06T08:10:44.000Z</time>
      </trkpt>
      <trkpt lat="43.73439" lon="6.77125">
        <ele>1044.8000488281</ele>
        <time>2019-10-06T08:10:47.000Z</time>
      </trkpt>
      <trkpt lat="43.73438" lon="6.77126">
        <ele>1045.4000244141</ele>
        <time>2019-10-06T08:10:48.000Z</time>
      </trkpt>
      <trkpt lat="43.73437" lon="6.77129">
        <ele>1046</ele>
        <time>2019-10-06T08:10:50.000Z</time>
      </trkpt>
      <trkpt lat="43.73435" lon="6.77132">
        <ele>1047</ele>
        <time>2019-10-06T08:10:54.000Z</time>
      </trkpt>
      <trkpt lat="43.73434" lon="6.77135">
        <ele>1047.5999755859</ele>
        <time>2019-10-06T08:10:57.000Z</time>
      </trkpt>
      <trkpt lat="43.7341" lon="6.77163">
        <ele>1046</ele>
        <time>2019-10-06T08:11:08.000Z</time>
      </trkpt>
      <trkpt lat="43.73387" lon="6.77174">
        <ele>1044.4000244141</ele>
        <time>2019-10-06T08:11:11.000Z</time>
      </trkpt>
      <trkpt lat="43.73369" lon="6.77181">
        <ele>1042.8000488281</ele>
        <time>2019-10-06T08:11:13.000Z</time>
      </trkpt>
      <trkpt lat="43.73359" lon="6.77185">
        <ele>1041.5999755859</ele>
        <time>2019-10-06T08:11:14.000Z</time>
      </trkpt>
      <trkpt lat="43.73349" lon="6.7719">
        <ele>1040.5999755859</ele>
        <time>2019-10-06T08:11:15.000Z</time>
      </trkpt>
      <trkpt lat="43.73339" lon="6.77196">
        <ele>1039.4000244141</ele>
        <time>2019-10-06T08:11:16.000Z</time>
      </trkpt>
      <trkpt lat="43.7333" lon="6.77203">
        <ele>1038.1999511719</ele>
        <time>2019-10-06T08:11:17.000Z</time>
      </trkpt>
      <trkpt lat="43.73321" lon="6.7721">
        <ele>1037</ele>
        <time>2019-10-06T08:11:18.000Z</time>
      </trkpt>
      <trkpt lat="43.73312" lon="6.77219">
        <ele>1036</ele>
        <time>2019-10-06T08:11:19.000Z</time>
      </trkpt>
      <trkpt lat="43.73302" lon="6.77228">
        <ele>1034.5999755859</ele>
        <time>2019-10-06T08:11:20.000Z</time>
      </trkpt>
      <trkpt lat="43.73293" lon="6.77239">
        <ele>1033</ele>
        <time>2019-10-06T08:11:21.000Z</time>
      </trkpt>
      <trkpt lat="43.73284" lon="6.77251">
        <ele>1031.5999755859</ele>
        <time>2019-10-06T08:11:22.000Z</time>
      </trkpt>
      <trkpt lat="43.73276" lon="6.77265">
        <ele>1029.8000488281</ele>
        <time>2019-10-06T08:11:23.000Z</time>
      </trkpt>
      <trkpt lat="43.73269" lon="6.77279">
        <ele>1028.8000488281</ele>
        <time>2019-10-06T08:11:24.000Z</time>
      </trkpt>
      <trkpt lat="43.73258" lon="6.7731">
        <ele>1027.8000488281</ele>
        <time>2019-10-06T08:11:26.000Z</time>
      </trkpt>
      <trkpt lat="43.73244" lon="6.77354">
        <ele>1026.5999755859</ele>
        <time>2019-10-06T08:11:29.000Z</time>
      </trkpt>
      <trkpt lat="43.73229" lon="6.77397">
        <ele>1024.8000488281</ele>
        <time>2019-10-06T08:11:32.000Z</time>
      </trkpt>
      <trkpt lat="43.73219" lon="6.77427">
        <ele>1023.200012207</ele>
        <time>2019-10-06T08:11:34.000Z</time>
      </trkpt>
      <trkpt lat="43.7321" lon="6.77458">
        <ele>1021.4000244141</ele>
        <time>2019-10-06T08:11:36.000Z</time>
      </trkpt>
      <trkpt lat="43.732" lon="6.7749">
        <ele>1019.5999755859</ele>
        <time>2019-10-06T08:11:38.000Z</time>
      </trkpt>
      <trkpt lat="43.73194" lon="6.77506">
        <ele>1018.5999755859</ele>
        <time>2019-10-06T08:11:39.000Z</time>
      </trkpt>
      <trkpt lat="43.73182" lon="6.77538">
        <ele>1016.200012207</ele>
        <time>2019-10-06T08:11:41.000Z</time>
      </trkpt>
      <trkpt lat="43.73175" lon="6.77553">
        <ele>1015</ele>
        <time>2019-10-06T08:11:42.000Z</time>
      </trkpt>
      <trkpt lat="43.73159" lon="6.77581">
        <ele>1013.4000244141</ele>
        <time>2019-10-06T08:11:44.000Z</time>
      </trkpt>
      <trkpt lat="43.73131" lon="6.77614">
        <ele>1011.5999755859</ele>
        <time>2019-10-06T08:11:47.000Z</time>
      </trkpt>
      <trkpt lat="43.73112" lon="6.77633">
        <ele>1010</ele>
        <time>2019-10-06T08:11:49.000Z</time>
      </trkpt>
      <trkpt lat="43.73097" lon="6.77656">
        <ele>1008.799987793</ele>
        <time>2019-10-06T08:11:51.000Z</time>
      </trkpt>
      <trkpt lat="43.73078" lon="6.77694">
        <ele>1007.4000244141</ele>
        <time>2019-10-06T08:11:54.000Z</time>
      </trkpt>
      <trkpt lat="43.73067" lon="6.77719">
        <ele>1006.200012207</ele>
        <time>2019-10-06T08:11:56.000Z</time>
      </trkpt>
      <trkpt lat="43.73051" lon="6.77755">
        <ele>1004.799987793</ele>
        <time>2019-10-06T08:11:59.000Z</time>
      </trkpt>
      <trkpt lat="43.73042" lon="6.7778">
        <ele>1003.799987793</ele>
        <time>2019-10-06T08:12:01.000Z</time>
      </trkpt>
      <trkpt lat="43.73039" lon="6.77793">
        <ele>1003.4000244141</ele>
        <time>2019-10-06T08:12:02.000Z</time>
      </trkpt>
      <trkpt lat="43.73027" lon="6.77841">
        <ele>1002.200012207</ele>
        <time>2019-10-06T08:12:06.000Z</time>
      </trkpt>
      <trkpt lat="43.7301" lon="6.77884">
        <ele>1001</ele>
        <time>2019-10-06T08:12:10.000Z</time>
      </trkpt>
      <trkpt lat="43.73001" lon="6.77908">
        <ele>999.40002441406</ele>
        <time>2019-10-06T08:12:12.000Z</time>
      </trkpt>
      <trkpt lat="43.72991" lon="6.77932">
        <ele>998.20001220703</ele>
        <time>2019-10-06T08:12:14.000Z</time>
      </trkpt>
      <trkpt lat="43.72982" lon="6.77958">
        <ele>996.20001220703</ele>
        <time>2019-10-06T08:12:16.000Z</time>
      </trkpt>
      <trkpt lat="43.72978" lon="6.77972">
        <ele>994.40002441406</ele>
        <time>2019-10-06T08:12:17.000Z</time>
      </trkpt>
      <trkpt lat="43.72973" lon="6.77986">
        <ele>992.59997558594</ele>
        <time>2019-10-06T08:12:18.000Z</time>
      </trkpt>
      <trkpt lat="43.72969" lon="6.78">
        <ele>991.40002441406</ele>
        <time>2019-10-06T08:12:19.000Z</time>
      </trkpt>
      <trkpt lat="43.72964" lon="6.78016">
        <ele>989.79998779297</ele>
        <time>2019-10-06T08:12:20.000Z</time>
      </trkpt>
      <trkpt lat="43.72958" lon="6.78031">
        <ele>988.59997558594</ele>
        <time>2019-10-06T08:12:21.000Z</time>
      </trkpt>
      <trkpt lat="43.72951" lon="6.78046">
        <ele>987.79998779297</ele>
        <time>2019-10-06T08:12:22.000Z</time>
      </trkpt>
      <trkpt lat="43.72943" lon="6.78059">
        <ele>987.59997558594</ele>
        <time>2019-10-06T08:12:23.000Z</time>
      </trkpt>
      <trkpt lat="43.72922" lon="6.78088">
        <ele>987</ele>
        <time>2019-10-06T08:12:26.000Z</time>
      </trkpt>
      <trkpt lat="43.72911" lon="6.78104">
        <ele>987.20001220703</ele>
        <time>2019-10-06T08:12:28.000Z</time>
      </trkpt>
      <trkpt lat="43.72903" lon="6.78119">
        <ele>987.20001220703</ele>
        <time>2019-10-06T08:12:30.000Z</time>
      </trkpt>
      <trkpt lat="43.72896" lon="6.78136">
        <ele>987.79998779297</ele>
        <time>2019-10-06T08:12:32.000Z</time>
      </trkpt>
      <trkpt lat="43.72897" lon="6.78204">
        <ele>987.40002441406</ele>
        <time>2019-10-06T08:12:39.000Z</time>
      </trkpt>
      <trkpt lat="43.72901" lon="6.78212">
        <ele>987.40002441406</ele>
        <time>2019-10-06T08:12:40.000Z</time>
      </trkpt>
      <trkpt lat="43.72904" lon="6.78244">
        <ele>988.59997558594</ele>
        <time>2019-10-06T08:12:44.000Z</time>
      </trkpt>
      <trkpt lat="43.72898" lon="6.78259">
        <ele>990</ele>
        <time>2019-10-06T08:12:47.000Z</time>
      </trkpt>
      <trkpt lat="43.72893" lon="6.78273">
        <ele>991.40002441406</ele>
        <time>2019-10-06T08:12:50.000Z</time>
      </trkpt>
      <trkpt lat="43.7289" lon="6.78288">
        <ele>992.79998779297</ele>
        <time>2019-10-06T08:12:54.000Z</time>
      </trkpt>
      <trkpt lat="43.72888" lon="6.78295">
        <ele>993.40002441406</ele>
        <time>2019-10-06T08:12:56.000Z</time>
      </trkpt>
      <trkpt lat="43.72888" lon="6.78299">
        <ele>993.79998779297</ele>
        <time>2019-10-06T08:12:57.000Z</time>
      </trkpt>
      <trkpt lat="43.72887" lon="6.78307">
        <ele>994.59997558594</ele>
        <time>2019-10-06T08:12:59.000Z</time>
      </trkpt>
      <trkpt lat="43.72887" lon="6.7831">
        <ele>995</ele>
        <time>2019-10-06T08:13:00.000Z</time>
      </trkpt>
      <trkpt lat="43.72887" lon="6.78321">
        <ele>995.59997558594</ele>
        <time>2019-10-06T08:13:03.000Z</time>
      </trkpt>
      <trkpt lat="43.72887" lon="6.78324">
        <ele>995.79998779297</ele>
        <time>2019-10-06T08:13:04.000Z</time>
      </trkpt>
      <trkpt lat="43.72887" lon="6.78328">
        <ele>996.20001220703</ele>
        <time>2019-10-06T08:13:05.000Z</time>
      </trkpt>
      <trkpt lat="43.72887" lon="6.78338">
        <ele>996.79998779297</ele>
        <time>2019-10-06T08:13:08.000Z</time>
      </trkpt>
      <trkpt lat="43.72888" lon="6.7834">
        <ele>997</ele>
        <time>2019-10-06T08:13:09.000Z</time>
      </trkpt>
      <trkpt lat="43.72888" lon="6.78343">
        <ele>997.20001220703</ele>
        <time>2019-10-06T08:13:10.000Z</time>
      </trkpt>
      <trkpt lat="43.72889" lon="6.78348">
        <ele>997.59997558594</ele>
        <time>2019-10-06T08:13:12.000Z</time>
      </trkpt>
      <trkpt lat="43.7289" lon="6.78351">
        <ele>997.79998779297</ele>
        <time>2019-10-06T08:13:13.000Z</time>
      </trkpt>
      <trkpt lat="43.7289" lon="6.78354">
        <ele>998.20001220703</ele>
        <time>2019-10-06T08:13:14.000Z</time>
      </trkpt>
      <trkpt lat="43.72891" lon="6.78356">
        <ele>998.40002441406</ele>
        <time>2019-10-06T08:13:15.000Z</time>
      </trkpt>
      <trkpt lat="43.72892" lon="6.78359">
        <ele>998.59997558594</ele>
        <time>2019-10-06T08:13:16.000Z</time>
      </trkpt>
      <trkpt lat="43.72893" lon="6.78365">
        <ele>999</ele>
        <time>2019-10-06T08:13:18.000Z</time>
      </trkpt>
      <trkpt lat="43.72895" lon="6.7837">
        <ele>999.40002441406</ele>
        <time>2019-10-06T08:13:20.000Z</time>
      </trkpt>
      <trkpt lat="43.72895" lon="6.78372">
        <ele>999.79998779297</ele>
        <time>2019-10-06T08:13:21.000Z</time>
      </trkpt>
      <trkpt lat="43.72897" lon="6.78376">
        <ele>1000.200012207</ele>
        <time>2019-10-06T08:13:23.000Z</time>
      </trkpt>
      <trkpt lat="43.72897" lon="6.78379">
        <ele>1000.5999755859</ele>
        <time>2019-10-06T08:13:24.000Z</time>
      </trkpt>
      <trkpt lat="43.72898" lon="6.78381">
        <ele>1000.799987793</ele>
        <time>2019-10-06T08:13:25.000Z</time>
      </trkpt>
      <trkpt lat="43.72899" lon="6.78383">
        <ele>1001</ele>
        <time>2019-10-06T08:13:26.000Z</time>
      </trkpt>
      <trkpt lat="43.72901" lon="6.78388">
        <ele>1001.200012207</ele>
        <time>2019-10-06T08:13:28.000Z</time>
      </trkpt>
      <trkpt lat="43.72903" lon="6.78395">
        <ele>1002</ele>
        <time>2019-10-06T08:13:31.000Z</time>
      </trkpt>
      <trkpt lat="43.72907" lon="6.7841">
        <ele>1003</ele>
        <time>2019-10-06T08:13:37.000Z</time>
      </trkpt>
      <trkpt lat="43.72911" lon="6.78428">
        <ele>1004.200012207</ele>
        <time>2019-10-06T08:13:44.000Z</time>
      </trkpt>
      <trkpt lat="43.72913" lon="6.78443">
        <ele>1005.4000244141</ele>
        <time>2019-10-06T08:13:50.000Z</time>
      </trkpt>
      <trkpt lat="43.72914" lon="6.78456">
        <ele>1006.4000244141</ele>
        <time>2019-10-06T08:13:55.000Z</time>
      </trkpt>
      <trkpt lat="43.72915" lon="6.7847">
        <ele>1007.799987793</ele>
        <time>2019-10-06T08:14:01.000Z</time>
      </trkpt>
      <trkpt lat="43.72914" lon="6.78485">
        <ele>1008.799987793</ele>
        <time>2019-10-06T08:14:07.000Z</time>
      </trkpt>
      <trkpt lat="43.72912" lon="6.78496">
        <ele>1009.799987793</ele>
        <time>2019-10-06T08:14:12.000Z</time>
      </trkpt>
      <trkpt lat="43.72909" lon="6.78509">
        <ele>1010.799987793</ele>
        <time>2019-10-06T08:14:18.000Z</time>
      </trkpt>
      <trkpt lat="43.72908" lon="6.7852">
        <ele>1011.799987793</ele>
        <time>2019-10-06T08:14:23.000Z</time>
      </trkpt>
      <trkpt lat="43.72907" lon="6.78534">
        <ele>1013</ele>
        <time>2019-10-06T08:14:29.000Z</time>
      </trkpt>
      <trkpt lat="43.72905" lon="6.78545">
        <ele>1014.200012207</ele>
        <time>2019-10-06T08:14:35.000Z</time>
      </trkpt>
      <trkpt lat="43.72904" lon="6.78559">
        <ele>1015.4000244141</ele>
        <time>2019-10-06T08:14:42.000Z</time>
      </trkpt>
      <trkpt lat="43.72903" lon="6.78572">
        <ele>1016.5999755859</ele>
        <time>2019-10-06T08:14:49.000Z</time>
      </trkpt>
      <trkpt lat="43.72903" lon="6.78587">
        <ele>1017.5999755859</ele>
        <time>2019-10-06T08:14:56.000Z</time>
      </trkpt>
      <trkpt lat="43.72903" lon="6.78597">
        <ele>1018.5999755859</ele>
        <time>2019-10-06T08:15:01.000Z</time>
      </trkpt>
      <trkpt lat="43.72903" lon="6.7861">
        <ele>1020</ele>
        <time>2019-10-06T08:15:07.000Z</time>
      </trkpt>
      <trkpt lat="43.72902" lon="6.78626">
        <ele>1021.200012207</ele>
        <time>2019-10-06T08:15:14.000Z</time>
      </trkpt>
      <trkpt lat="43.72907" lon="6.78642">
        <ele>1006.4000244141</ele>
        <time>2019-10-06T08:15:21.000Z</time>
      </trkpt>
      <trkpt lat="43.7291" lon="6.78649">
        <ele>1023.5999755859</ele>
        <time>2019-10-06T08:15:25.000Z</time>
      </trkpt>
      <trkpt lat="43.72915" lon="6.7866">
        <ele>1024.5999755859</ele>
        <time>2019-10-06T08:15:31.000Z</time>
      </trkpt>
      <trkpt lat="43.72919" lon="6.78669">
        <ele>1025.8000488281</ele>
        <time>2019-10-06T08:15:36.000Z</time>
      </trkpt>
      <trkpt lat="43.72923" lon="6.78677">
        <ele>1027</ele>
        <time>2019-10-06T08:15:41.000Z</time>
      </trkpt>
      <trkpt lat="43.72927" lon="6.78686">
        <ele>1028</ele>
        <time>2019-10-06T08:15:46.000Z</time>
      </trkpt>
      <trkpt lat="43.7293" lon="6.78695">
        <ele>1029.1999511719</ele>
        <time>2019-10-06T08:15:51.000Z</time>
      </trkpt>
      <trkpt lat="43.72932" lon="6.78705">
        <ele>1030.4000244141</ele>
        <time>2019-10-06T08:15:56.000Z</time>
      </trkpt>
      <trkpt lat="43.72934" lon="6.78723">
        <ele>1031.4000244141</ele>
        <time>2019-10-06T08:16:04.000Z</time>
      </trkpt>
      <trkpt lat="43.72934" lon="6.78749">
        <ele>1032.5999755859</ele>
        <time>2019-10-06T08:16:16.000Z</time>
      </trkpt>
      <trkpt lat="43.72932" lon="6.78775">
        <ele>1033.8000488281</ele>
        <time>2019-10-06T08:16:28.000Z</time>
      </trkpt>
      <trkpt lat="43.72932" lon="6.78793">
        <ele>1035</ele>
        <time>2019-10-06T08:16:36.000Z</time>
      </trkpt>
      <trkpt lat="43.72935" lon="6.78814">
        <ele>1036.1999511719</ele>
        <time>2019-10-06T08:16:45.000Z</time>
      </trkpt>
      <trkpt lat="43.72938" lon="6.78828">
        <ele>1037.4000244141</ele>
        <time>2019-10-06T08:16:51.000Z</time>
      </trkpt>
      <trkpt lat="43.72941" lon="6.7884">
        <ele>1038.4000244141</ele>
        <time>2019-10-06T08:16:56.000Z</time>
      </trkpt>
      <trkpt lat="43.72942" lon="6.78852">
        <ele>1039.5999755859</ele>
        <time>2019-10-06T08:17:01.000Z</time>
      </trkpt>
      <trkpt lat="43.72942" lon="6.78866">
        <ele>1040.8000488281</ele>
        <time>2019-10-06T08:17:07.000Z</time>
      </trkpt>
      <trkpt lat="43.72944" lon="6.78883">
        <ele>1041.8000488281</ele>
        <time>2019-10-06T08:17:14.000Z</time>
      </trkpt>
      <trkpt lat="43.72944" lon="6.78898">
        <ele>1043</ele>
        <time>2019-10-06T08:17:20.000Z</time>
      </trkpt>
      <trkpt lat="43.72944" lon="6.78912">
        <ele>1044.4000244141</ele>
        <time>2019-10-06T08:17:26.000Z</time>
      </trkpt>
      <trkpt lat="43.72945" lon="6.7892">
        <ele>1045.4000244141</ele>
        <time>2019-10-06T08:17:30.000Z</time>
      </trkpt>
      <trkpt lat="43.72946" lon="6.78934">
        <ele>1046.4000244141</ele>
        <time>2019-10-06T08:17:36.000Z</time>
      </trkpt>
      <trkpt lat="43.72945" lon="6.78951">
        <ele>1047.5999755859</ele>
        <time>2019-10-06T08:17:43.000Z</time>
      </trkpt>
      <trkpt lat="43.72945" lon="6.78954">
        <ele>1047.5999755859</ele>
        <time>2019-10-06T08:17:44.000Z</time>
      </trkpt>
      <trkpt lat="43.72946" lon="6.78965">
        <ele>1048.5999755859</ele>
        <time>2019-10-06T08:17:48.000Z</time>
      </trkpt>
      <trkpt lat="43.72946" lon="6.78985">
        <ele>1049.8000488281</ele>
        <time>2019-10-06T08:17:56.000Z</time>
      </trkpt>
      <trkpt lat="43.72947" lon="6.78999">
        <ele>1050.8000488281</ele>
        <time>2019-10-06T08:18:02.000Z</time>
      </trkpt>
      <trkpt lat="43.72947" lon="6.79014">
        <ele>1052</ele>
        <time>2019-10-06T08:18:08.000Z</time>
      </trkpt>
      <trkpt lat="43.72947" lon="6.79021">
        <ele>1052.8000488281</ele>
        <time>2019-10-06T08:18:11.000Z</time>
      </trkpt>
      <trkpt lat="43.72947" lon="6.79026">
        <ele>1053</ele>
        <time>2019-10-06T08:18:13.000Z</time>
      </trkpt>
      <trkpt lat="43.72946" lon="6.79045">
        <ele>1054.1999511719</ele>
        <time>2019-10-06T08:18:21.000Z</time>
      </trkpt>
      <trkpt lat="43.72945" lon="6.79056">
        <ele>1055.1999511719</ele>
        <time>2019-10-06T08:18:26.000Z</time>
      </trkpt>
      <trkpt lat="43.72943" lon="6.79072">
        <ele>1056.1999511719</ele>
        <time>2019-10-06T08:18:33.000Z</time>
      </trkpt>
      <trkpt lat="43.72942" lon="6.7909">
        <ele>1057.5999755859</ele>
        <time>2019-10-06T08:18:40.000Z</time>
      </trkpt>
      <trkpt lat="43.72945" lon="6.79124">
        <ele>1058.5999755859</ele>
        <time>2019-10-06T08:18:52.000Z</time>
      </trkpt>
      <trkpt lat="43.72946" lon="6.79164">
        <ele>1059.8000488281</ele>
        <time>2019-10-06T08:19:05.000Z</time>
      </trkpt>
      <trkpt lat="43.72948" lon="6.79187">
        <ele>1060.8000488281</ele>
        <time>2019-10-06T08:19:12.000Z</time>
      </trkpt>
      <trkpt lat="43.72948" lon="6.79197">
        <ele>1061.1999511719</ele>
        <time>2019-10-06T08:19:15.000Z</time>
      </trkpt>
      <trkpt lat="43.72943" lon="6.79213">
        <ele>1061.5999755859</ele>
        <time>2019-10-06T08:19:20.000Z</time>
      </trkpt>
      <trkpt lat="43.72942" lon="6.79216">
        <ele>1061.8000488281</ele>
        <time>2019-10-06T08:19:21.000Z</time>
      </trkpt>
      <trkpt lat="43.72925" lon="6.7926">
        <ele>1063</ele>
        <time>2019-10-06T08:19:34.000Z</time>
      </trkpt>
      <trkpt lat="43.7292" lon="6.79275">
        <ele>1064.1999511719</ele>
        <time>2019-10-06T08:19:39.000Z</time>
      </trkpt>
      <trkpt lat="43.72907" lon="6.79291">
        <ele>1065.1999511719</ele>
        <time>2019-10-06T08:19:46.000Z</time>
      </trkpt>
      <trkpt lat="43.729" lon="6.79304">
        <ele>1065.5999755859</ele>
        <time>2019-10-06T08:19:50.000Z</time>
      </trkpt>
      <trkpt lat="43.72883" lon="6.79336">
        <ele>1066</ele>
        <time>2019-10-06T08:19:58.000Z</time>
      </trkpt>
      <trkpt lat="43.72879" lon="6.79344">
        <ele>1066</ele>
        <time>2019-10-06T08:20:00.000Z</time>
      </trkpt>
      <trkpt lat="43.72853" lon="6.79395">
        <ele>1066</ele>
        <time>2019-10-06T08:20:11.000Z</time>
      </trkpt>
      <trkpt lat="43.72833" lon="6.79419">
        <ele>1066.5999755859</ele>
        <time>2019-10-06T08:20:18.000Z</time>
      </trkpt>
      <trkpt lat="43.72818" lon="6.79433">
        <ele>1067.5999755859</ele>
        <time>2019-10-06T08:20:25.000Z</time>
      </trkpt>
      <trkpt lat="43.72809" lon="6.7944">
        <ele>1068.5999755859</ele>
        <time>2019-10-06T08:20:30.000Z</time>
      </trkpt>
      <trkpt lat="43.72799" lon="6.79445">
        <ele>1069.8000488281</ele>
        <time>2019-10-06T08:20:36.000Z</time>
      </trkpt>
      <trkpt lat="43.72791" lon="6.79445">
        <ele>1070.8000488281</ele>
        <time>2019-10-06T08:20:41.000Z</time>
      </trkpt>
      <trkpt lat="43.72783" lon="6.79444">
        <ele>1072</ele>
        <time>2019-10-06T08:20:46.000Z</time>
      </trkpt>
      <trkpt lat="43.7277" lon="6.7944">
        <ele>1073</ele>
        <time>2019-10-06T08:20:53.000Z</time>
      </trkpt>
      <trkpt lat="43.72759" lon="6.79434">
        <ele>1074.1999511719</ele>
        <time>2019-10-06T08:21:00.000Z</time>
      </trkpt>
      <trkpt lat="43.72748" lon="6.79427">
        <ele>1075.1999511719</ele>
        <time>2019-10-06T08:21:08.000Z</time>
      </trkpt>
      <trkpt lat="43.72739" lon="6.79421">
        <ele>1076.1999511719</ele>
        <time>2019-10-06T08:21:14.000Z</time>
      </trkpt>
      <trkpt lat="43.72729" lon="6.79416">
        <ele>1077.5999755859</ele>
        <time>2019-10-06T08:21:21.000Z</time>
      </trkpt>
      <trkpt lat="43.72722" lon="6.79411">
        <ele>1079</ele>
        <time>2019-10-06T08:21:28.000Z</time>
      </trkpt>
      <trkpt lat="43.72715" lon="6.79406">
        <ele>1080.1999511719</ele>
        <time>2019-10-06T08:21:34.000Z</time>
      </trkpt>
      <trkpt lat="43.72703" lon="6.79399">
        <ele>1081.1999511719</ele>
        <time>2019-10-06T08:21:42.000Z</time>
      </trkpt>
      <trkpt lat="43.7269" lon="6.79392">
        <ele>1082.4000244141</ele>
        <time>2019-10-06T08:21:49.000Z</time>
      </trkpt>
      <trkpt lat="43.72679" lon="6.79387">
        <ele>1083.4000244141</ele>
        <time>2019-10-06T08:21:55.000Z</time>
      </trkpt>
      <trkpt lat="43.72668" lon="6.79386">
        <ele>1084.4000244141</ele>
        <time>2019-10-06T08:22:01.000Z</time>
      </trkpt>
      <trkpt lat="43.72656" lon="6.79389">
        <ele>1085.8000488281</ele>
        <time>2019-10-06T08:22:08.000Z</time>
      </trkpt>
      <trkpt lat="43.72645" lon="6.79393">
        <ele>1086.8000488281</ele>
        <time>2019-10-06T08:22:15.000Z</time>
      </trkpt>
      <trkpt lat="43.72634" lon="6.79396">
        <ele>1088</ele>
        <time>2019-10-06T08:22:22.000Z</time>
      </trkpt>
      <trkpt lat="43.72629" lon="6.79397">
        <ele>1089.1999511719</ele>
        <time>2019-10-06T08:22:25.000Z</time>
      </trkpt>
      <trkpt lat="43.72623" lon="6.79401">
        <ele>1090.1999511719</ele>
        <time>2019-10-06T08:22:29.000Z</time>
      </trkpt>
      <trkpt lat="43.72609" lon="6.79405">
        <ele>1091.1999511719</ele>
        <time>2019-10-06T08:22:37.000Z</time>
      </trkpt>
      <trkpt lat="43.726" lon="6.79408">
        <ele>1092.4000244141</ele>
        <time>2019-10-06T08:22:43.000Z</time>
      </trkpt>
      <trkpt lat="43.72587" lon="6.79414">
        <ele>1093.5999755859</ele>
        <time>2019-10-06T08:22:52.000Z</time>
      </trkpt>
      <trkpt lat="43.72579" lon="6.79416">
        <ele>1094.4000244141</ele>
        <time>2019-10-06T08:22:57.000Z</time>
      </trkpt>
      <trkpt lat="43.72576" lon="6.79415">
        <ele>1094.8000488281</ele>
        <time>2019-10-06T08:22:59.000Z</time>
      </trkpt>
      <trkpt lat="43.72568" lon="6.79418">
        <ele>1095.4000244141</ele>
        <time>2019-10-06T08:23:04.000Z</time>
      </trkpt>
      <trkpt lat="43.72565" lon="6.79418">
        <ele>1095.8000488281</ele>
        <time>2019-10-06T08:23:06.000Z</time>
      </trkpt>
      <trkpt lat="43.72562" lon="6.79418">
        <ele>1096</ele>
        <time>2019-10-06T08:23:08.000Z</time>
      </trkpt>
      <trkpt lat="43.72549" lon="6.79419">
        <ele>1096.8000488281</ele>
        <time>2019-10-06T08:23:16.000Z</time>
      </trkpt>
      <trkpt lat="43.72535" lon="6.79418">
        <ele>1098</ele>
        <time>2019-10-06T08:23:25.000Z</time>
      </trkpt>
      <trkpt lat="43.72516" lon="6.79416">
        <ele>1099</ele>
        <time>2019-10-06T08:23:35.000Z</time>
      </trkpt>
      <trkpt lat="43.72497" lon="6.79416">
        <ele>1100.1999511719</ele>
        <time>2019-10-06T08:23:45.000Z</time>
      </trkpt>
      <trkpt lat="43.72477" lon="6.79416">
        <ele>1101.4000244141</ele>
        <time>2019-10-06T08:23:56.000Z</time>
      </trkpt>
      <trkpt lat="43.72463" lon="6.79418">
        <ele>1102.4000244141</ele>
        <time>2019-10-06T08:24:03.000Z</time>
      </trkpt>
      <trkpt lat="43.72448" lon="6.79428">
        <ele>1103.5999755859</ele>
        <time>2019-10-06T08:24:12.000Z</time>
      </trkpt>
      <trkpt lat="43.72432" lon="6.79439">
        <ele>1105</ele>
        <time>2019-10-06T08:24:22.000Z</time>
      </trkpt>
      <trkpt lat="43.72424" lon="6.79444">
        <ele>1106</ele>
        <time>2019-10-06T08:24:27.000Z</time>
      </trkpt>
      <trkpt lat="43.72412" lon="6.7945">
        <ele>1107.1999511719</ele>
        <time>2019-10-06T08:24:34.000Z</time>
      </trkpt>
      <trkpt lat="43.72395" lon="6.7946">
        <ele>1108.1999511719</ele>
        <time>2019-10-06T08:24:42.000Z</time>
      </trkpt>
      <trkpt lat="43.72378" lon="6.79469">
        <ele>1109.4000244141</ele>
        <time>2019-10-06T08:24:50.000Z</time>
      </trkpt>
      <trkpt lat="43.72335" lon="6.79503">
        <ele>1108.5999755859</ele>
        <time>2019-10-06T08:25:04.000Z</time>
      </trkpt>
      <trkpt lat="43.72325" lon="6.79499">
        <ele>1108.1999511719</ele>
        <time>2019-10-06T08:25:06.000Z</time>
      </trkpt>
      <trkpt lat="43.72308" lon="6.79486">
        <ele>1106.5999755859</ele>
        <time>2019-10-06T08:25:10.000Z</time>
      </trkpt>
      <trkpt lat="43.72305" lon="6.79491">
        <ele>1105.4000244141</ele>
        <time>2019-10-06T08:25:12.000Z</time>
      </trkpt>
      <trkpt lat="43.72311" lon="6.79503">
        <ele>1104.1999511719</ele>
        <time>2019-10-06T08:25:15.000Z</time>
      </trkpt>
      <trkpt lat="43.72315" lon="6.79506">
        <ele>1103.8000488281</ele>
        <time>2019-10-06T08:25:16.000Z</time>
      </trkpt>
      <trkpt lat="43.7232" lon="6.79512">
        <ele>1103.4000244141</ele>
        <time>2019-10-06T08:25:18.000Z</time>
      </trkpt>
      <trkpt lat="43.72322" lon="6.79516">
        <ele>1103.1999511719</ele>
        <time>2019-10-06T08:25:19.000Z</time>
      </trkpt>
      <trkpt lat="43.72316" lon="6.79521">
        <ele>1102</ele>
        <time>2019-10-06T08:25:23.000Z</time>
      </trkpt>
      <trkpt lat="43.72305" lon="6.79514">
        <ele>1100.8000488281</ele>
        <time>2019-10-06T08:25:26.000Z</time>
      </trkpt>
      <trkpt lat="43.72294" lon="6.79507">
        <ele>1099.4000244141</ele>
        <time>2019-10-06T08:25:28.000Z</time>
      </trkpt>
      <trkpt lat="43.7228" lon="6.795">
        <ele>1098</ele>
        <time>2019-10-06T08:25:30.000Z</time>
      </trkpt>
      <trkpt lat="43.72265" lon="6.79494">
        <ele>1095.8000488281</ele>
        <time>2019-10-06T08:25:32.000Z</time>
      </trkpt>
      <trkpt lat="43.72257" lon="6.7949">
        <ele>1093.8000488281</ele>
        <time>2019-10-06T08:25:33.000Z</time>
      </trkpt>
      <trkpt lat="43.72243" lon="6.79479">
        <ele>1092.4000244141</ele>
        <time>2019-10-06T08:25:35.000Z</time>
      </trkpt>
      <trkpt lat="43.72229" lon="6.79466">
        <ele>1091.8000488281</ele>
        <time>2019-10-06T08:25:37.000Z</time>
      </trkpt>
      <trkpt lat="43.72222" lon="6.7946">
        <ele>1091.4000244141</ele>
        <time>2019-10-06T08:25:38.000Z</time>
      </trkpt>
      <trkpt lat="43.72201" lon="6.79443">
        <ele>1089.8000488281</ele>
        <time>2019-10-06T08:25:41.000Z</time>
      </trkpt>
      <trkpt lat="43.72188" lon="6.79429">
        <ele>1088.8000488281</ele>
        <time>2019-10-06T08:25:43.000Z</time>
      </trkpt>
      <trkpt lat="43.72169" lon="6.79413">
        <ele>1088.5999755859</ele>
        <time>2019-10-06T08:25:46.000Z</time>
      </trkpt>
      <trkpt lat="43.72125" lon="6.79403">
        <ele>1088.8000488281</ele>
        <time>2019-10-06T08:25:53.000Z</time>
      </trkpt>
      <trkpt lat="43.72105" lon="6.79407">
        <ele>1087.5999755859</ele>
        <time>2019-10-06T08:25:56.000Z</time>
      </trkpt>
      <trkpt lat="43.72082" lon="6.79419">
        <ele>1085.8000488281</ele>
        <time>2019-10-06T08:25:59.000Z</time>
      </trkpt>
      <trkpt lat="43.72075" lon="6.79423">
        <ele>1084.4000244141</ele>
        <time>2019-10-06T08:26:00.000Z</time>
      </trkpt>
      <trkpt lat="43.72068" lon="6.79427">
        <ele>1083.8000488281</ele>
        <time>2019-10-06T08:26:01.000Z</time>
      </trkpt>
      <trkpt lat="43.72062" lon="6.7943">
        <ele>1083</ele>
        <time>2019-10-06T08:26:02.000Z</time>
      </trkpt>
      <trkpt lat="43.72055" lon="6.79432">
        <ele>1082.1999511719</ele>
        <time>2019-10-06T08:26:03.000Z</time>
      </trkpt>
      <trkpt lat="43.72048" lon="6.79432">
        <ele>1081.4000244141</ele>
        <time>2019-10-06T08:26:04.000Z</time>
      </trkpt>
      <trkpt lat="43.72035" lon="6.79426">
        <ele>1079.4000244141</ele>
        <time>2019-10-06T08:26:06.000Z</time>
      </trkpt>
      <trkpt lat="43.72028" lon="6.79422">
        <ele>1078.5999755859</ele>
        <time>2019-10-06T08:26:07.000Z</time>
      </trkpt>
      <trkpt lat="43.72021" lon="6.79417">
        <ele>1077.4000244141</ele>
        <time>2019-10-06T08:26:08.000Z</time>
      </trkpt>
      <trkpt lat="43.72014" lon="6.79413">
        <ele>1075.5999755859</ele>
        <time>2019-10-06T08:26:09.000Z</time>
      </trkpt>
      <trkpt lat="43.72006" lon="6.7941">
        <ele>1074.1999511719</ele>
        <time>2019-10-06T08:26:10.000Z</time>
      </trkpt>
      <trkpt lat="43.71991" lon="6.79403">
        <ele>1072.8000488281</ele>
        <time>2019-10-06T08:26:12.000Z</time>
      </trkpt>
      <trkpt lat="43.71978" lon="6.79392">
        <ele>1071.1999511719</ele>
        <time>2019-10-06T08:26:14.000Z</time>
      </trkpt>
      <trkpt lat="43.71963" lon="6.79385">
        <ele>1069.4000244141</ele>
        <time>2019-10-06T08:26:16.000Z</time>
      </trkpt>
      <trkpt lat="43.71954" lon="6.79383">
        <ele>1068.1999511719</ele>
        <time>2019-10-06T08:26:17.000Z</time>
      </trkpt>
      <trkpt lat="43.71946" lon="6.79383">
        <ele>1067</ele>
        <time>2019-10-06T08:26:18.000Z</time>
      </trkpt>
      <trkpt lat="43.71937" lon="6.79383">
        <ele>1066</ele>
        <time>2019-10-06T08:26:19.000Z</time>
      </trkpt>
      <trkpt lat="43.71927" lon="6.79383">
        <ele>1065.1999511719</ele>
        <time>2019-10-06T08:26:20.000Z</time>
      </trkpt>
      <trkpt lat="43.71917" lon="6.79383">
        <ele>1064</ele>
        <time>2019-10-06T08:26:21.000Z</time>
      </trkpt>
      <trkpt lat="43.71907" lon="6.79383">
        <ele>1062.4000244141</ele>
        <time>2019-10-06T08:26:22.000Z</time>
      </trkpt>
      <trkpt lat="43.71885" lon="6.79385">
        <ele>1061</ele>
        <time>2019-10-06T08:26:24.000Z</time>
      </trkpt>
      <trkpt lat="43.71864" lon="6.79391">
        <ele>1059.1999511719</ele>
        <time>2019-10-06T08:26:26.000Z</time>
      </trkpt>
      <trkpt lat="43.71855" lon="6.79395">
        <ele>1058.1999511719</ele>
        <time>2019-10-06T08:26:27.000Z</time>
      </trkpt>
      <trkpt lat="43.71846" lon="6.794">
        <ele>1057.4000244141</ele>
        <time>2019-10-06T08:26:28.000Z</time>
      </trkpt>
      <trkpt lat="43.71837" lon="6.79408">
        <ele>1056.1999511719</ele>
        <time>2019-10-06T08:26:29.000Z</time>
      </trkpt>
      <trkpt lat="43.71821" lon="6.79426">
        <ele>1055</ele>
        <time>2019-10-06T08:26:31.000Z</time>
      </trkpt>
      <trkpt lat="43.71805" lon="6.79443">
        <ele>1052.8000488281</ele>
        <time>2019-10-06T08:26:33.000Z</time>
      </trkpt>
      <trkpt lat="43.71797" lon="6.79451">
        <ele>1051.5999755859</ele>
        <time>2019-10-06T08:26:34.000Z</time>
      </trkpt>
      <trkpt lat="43.71789" lon="6.79457">
        <ele>1050.5999755859</ele>
        <time>2019-10-06T08:26:35.000Z</time>
      </trkpt>
      <trkpt lat="43.7178" lon="6.79462">
        <ele>1049.8000488281</ele>
        <time>2019-10-06T08:26:36.000Z</time>
      </trkpt>
      <trkpt lat="43.71762" lon="6.79467">
        <ele>1048.1999511719</ele>
        <time>2019-10-06T08:26:38.000Z</time>
      </trkpt>
      <trkpt lat="43.71752" lon="6.79467">
        <ele>1047.1999511719</ele>
        <time>2019-10-06T08:26:39.000Z</time>
      </trkpt>
      <trkpt lat="43.71733" lon="6.79462">
        <ele>1046</ele>
        <time>2019-10-06T08:26:41.000Z</time>
      </trkpt>
      <trkpt lat="43.71724" lon="6.79458">
        <ele>1045.5999755859</ele>
        <time>2019-10-06T08:26:42.000Z</time>
      </trkpt>
      <trkpt lat="43.71706" lon="6.79449">
        <ele>1045</ele>
        <time>2019-10-06T08:26:44.000Z</time>
      </trkpt>
      <trkpt lat="43.7169" lon="6.79436">
        <ele>1044.4000244141</ele>
        <time>2019-10-06T08:26:46.000Z</time>
      </trkpt>
      <trkpt lat="43.71668" lon="6.79417">
        <ele>1044</ele>
        <time>2019-10-06T08:26:49.000Z</time>
      </trkpt>
      <trkpt lat="43.71646" lon="6.79399">
        <ele>1043.4000244141</ele>
        <time>2019-10-06T08:26:52.000Z</time>
      </trkpt>
      <trkpt lat="43.71638" lon="6.79394">
        <ele>1043</ele>
        <time>2019-10-06T08:26:53.000Z</time>
      </trkpt>
      <trkpt lat="43.71629" lon="6.79391">
        <ele>1042.8000488281</ele>
        <time>2019-10-06T08:26:54.000Z</time>
      </trkpt>
      <trkpt lat="43.71603" lon="6.79383">
        <ele>1041.5999755859</ele>
        <time>2019-10-06T08:26:57.000Z</time>
      </trkpt>
      <trkpt lat="43.71578" lon="6.79368">
        <ele>1040.4000244141</ele>
        <time>2019-10-06T08:27:00.000Z</time>
      </trkpt>
      <trkpt lat="43.71562" lon="6.79356">
        <ele>1039.4000244141</ele>
        <time>2019-10-06T08:27:02.000Z</time>
      </trkpt>
      <trkpt lat="43.71547" lon="6.79343">
        <ele>1038</ele>
        <time>2019-10-06T08:27:04.000Z</time>
      </trkpt>
      <trkpt lat="43.71539" lon="6.79338">
        <ele>1037.8000488281</ele>
        <time>2019-10-06T08:27:05.000Z</time>
      </trkpt>
      <trkpt lat="43.71523" lon="6.79332">
        <ele>1037</ele>
        <time>2019-10-06T08:27:07.000Z</time>
      </trkpt>
      <trkpt lat="43.71488" lon="6.79317">
        <ele>1035.5999755859</ele>
        <time>2019-10-06T08:27:11.000Z</time>
      </trkpt>
      <trkpt lat="43.71472" lon="6.79306">
        <ele>1034.5999755859</ele>
        <time>2019-10-06T08:27:13.000Z</time>
      </trkpt>
      <trkpt lat="43.71457" lon="6.79292">
        <ele>1033.5999755859</ele>
        <time>2019-10-06T08:27:15.000Z</time>
      </trkpt>
      <trkpt lat="43.71441" lon="6.79281">
        <ele>1032.5999755859</ele>
        <time>2019-10-06T08:27:17.000Z</time>
      </trkpt>
      <trkpt lat="43.71432" lon="6.79277">
        <ele>1031.5999755859</ele>
        <time>2019-10-06T08:27:18.000Z</time>
      </trkpt>
      <trkpt lat="43.71414" lon="6.79268">
        <ele>1029.5999755859</ele>
        <time>2019-10-06T08:27:20.000Z</time>
      </trkpt>
      <trkpt lat="43.71395" lon="6.7926">
        <ele>1028.4000244141</ele>
        <time>2019-10-06T08:27:22.000Z</time>
      </trkpt>
      <trkpt lat="43.71363" lon="6.79246">
        <ele>1026.5999755859</ele>
        <time>2019-10-06T08:27:25.000Z</time>
      </trkpt>
      <trkpt lat="43.71352" lon="6.79242">
        <ele>1025.1999511719</ele>
        <time>2019-10-06T08:27:26.000Z</time>
      </trkpt>
      <trkpt lat="43.71342" lon="6.79239">
        <ele>1022.799987793</ele>
        <time>2019-10-06T08:27:27.000Z</time>
      </trkpt>
      <trkpt lat="43.71333" lon="6.79237">
        <ele>1021.4000244141</ele>
        <time>2019-10-06T08:27:28.000Z</time>
      </trkpt>
      <trkpt lat="43.71324" lon="6.79236">
        <ele>1020</ele>
        <time>2019-10-06T08:27:29.000Z</time>
      </trkpt>
      <trkpt lat="43.71317" lon="6.79236">
        <ele>1019</ele>
        <time>2019-10-06T08:27:30.000Z</time>
      </trkpt>
      <trkpt lat="43.71312" lon="6.79237">
        <ele>1017.799987793</ele>
        <time>2019-10-06T08:27:31.000Z</time>
      </trkpt>
      <trkpt lat="43.71308" lon="6.79237">
        <ele>1016.5999755859</ele>
        <time>2019-10-06T08:27:32.000Z</time>
      </trkpt>
      <trkpt lat="43.71305" lon="6.79239">
        <ele>1015.200012207</ele>
        <time>2019-10-06T08:27:34.000Z</time>
      </trkpt>
      <trkpt lat="43.71305" lon="6.7924">
        <ele>1014</ele>
        <time>2019-10-06T08:27:42.000Z</time>
      </trkpt>
      <trkpt lat="43.71305" lon="6.7924">
        <ele>1013.4000244141</ele>
        <time>2019-10-06T08:27:45.000Z</time>
      </trkpt>
      <trkpt lat="43.71305" lon="6.7924">
        <ele>1012.799987793</ele>
        <time>2019-10-06T08:27:47.000Z</time>
      </trkpt>
      <trkpt lat="43.71305" lon="6.79241">
        <ele>1011.4000244141</ele>
        <time>2019-10-06T08:27:50.000Z</time>
      </trkpt>
      <trkpt lat="43.71305" lon="6.79241">
        <ele>1009.200012207</ele>
        <time>2019-10-06T08:27:57.000Z</time>
      </trkpt>
      <trkpt lat="43.71304" lon="6.79242">
        <ele>1008</ele>
        <time>2019-10-06T08:28:02.000Z</time>
      </trkpt>
      <trkpt lat="43.71304" lon="6.79242">
        <ele>1006.799987793</ele>
        <time>2019-10-06T08:28:06.000Z</time>
      </trkpt>
      <trkpt lat="43.71303" lon="6.79242">
        <ele>1005.5999755859</ele>
        <time>2019-10-06T08:28:09.000Z</time>
      </trkpt>
      <trkpt lat="43.71303" lon="6.79242">
        <ele>1004.5999755859</ele>
        <time>2019-10-06T08:28:12.000Z</time>
      </trkpt>
      <trkpt lat="43.71303" lon="6.79243">
        <ele>1003.4000244141</ele>
        <time>2019-10-06T08:28:15.000Z</time>
      </trkpt>
      <trkpt lat="43.71303" lon="6.79243">
        <ele>1002.200012207</ele>
        <time>2019-10-06T08:28:17.000Z</time>
      </trkpt>
      <trkpt lat="43.71303" lon="6.79243">
        <ele>1001</ele>
        <time>2019-10-06T08:28:19.000Z</time>
      </trkpt>
      <trkpt lat="43.71302" lon="6.79243">
        <ele>999.79998779297</ele>
        <time>2019-10-06T08:28:22.000Z</time>
      </trkpt>
      <trkpt lat="43.71302" lon="6.79243">
        <ele>999.20001220703</ele>
        <time>2019-10-06T08:28:25.000Z</time>
      </trkpt>
      <trkpt lat="43.71302" lon="6.79243">
        <ele>998.59997558594</ele>
        <time>2019-10-06T08:28:27.000Z</time>
      </trkpt>
      <trkpt lat="43.71297" lon="6.79246">
        <ele>997.40002441406</ele>
        <time>2019-10-06T08:28:30.000Z</time>
      </trkpt>
      <trkpt lat="43.71283" lon="6.79247">
        <ele>995.79998779297</ele>
        <time>2019-10-06T08:28:33.000Z</time>
      </trkpt>
      <trkpt lat="43.71277" lon="6.79246">
        <ele>994.79998779297</ele>
        <time>2019-10-06T08:28:35.000Z</time>
      </trkpt>
      <trkpt lat="43.71272" lon="6.79247">
        <ele>993.59997558594</ele>
        <time>2019-10-06T08:28:37.000Z</time>
      </trkpt>
      <trkpt lat="43.71268" lon="6.79248">
        <ele>992.40002441406</ele>
        <time>2019-10-06T08:28:39.000Z</time>
      </trkpt>
      <trkpt lat="43.71263" lon="6.7925">
        <ele>990.79998779297</ele>
        <time>2019-10-06T08:28:41.000Z</time>
      </trkpt>
      <trkpt lat="43.7126" lon="6.79251">
        <ele>989.79998779297</ele>
        <time>2019-10-06T08:28:42.000Z</time>
      </trkpt>
      <trkpt lat="43.71256" lon="6.79254">
        <ele>988.79998779297</ele>
        <time>2019-10-06T08:28:43.000Z</time>
      </trkpt>
      <trkpt lat="43.71253" lon="6.79257">
        <ele>987.20001220703</ele>
        <time>2019-10-06T08:28:44.000Z</time>
      </trkpt>
      <trkpt lat="43.71249" lon="6.7926">
        <ele>985.79998779297</ele>
        <time>2019-10-06T08:28:45.000Z</time>
      </trkpt>
      <trkpt lat="43.71243" lon="6.79265">
        <ele>984.40002441406</ele>
        <time>2019-10-06T08:28:47.000Z</time>
      </trkpt>
      <trkpt lat="43.71235" lon="6.79268">
        <ele>983</ele>
        <time>2019-10-06T08:28:50.000Z</time>
      </trkpt>
      <trkpt lat="43.7123" lon="6.79271">
        <ele>981.20001220703</ele>
        <time>2019-10-06T08:28:52.000Z</time>
      </trkpt>
      <trkpt lat="43.71224" lon="6.79276">
        <ele>980</ele>
        <time>2019-10-06T08:28:54.000Z</time>
      </trkpt>
      <trkpt lat="43.71222" lon="6.79278">
        <ele>979</ele>
        <time>2019-10-06T08:28:55.000Z</time>
      </trkpt>
      <trkpt lat="43.71214" lon="6.79282">
        <ele>977.59997558594</ele>
        <time>2019-10-06T08:28:57.000Z</time>
      </trkpt>
      <trkpt lat="43.71204" lon="6.79287">
        <ele>975.79998779297</ele>
        <time>2019-10-06T08:28:59.000Z</time>
      </trkpt>
      <trkpt lat="43.71195" lon="6.7929">
        <ele>974.59997558594</ele>
        <time>2019-10-06T08:29:01.000Z</time>
      </trkpt>
      <trkpt lat="43.71186" lon="6.79291">
        <ele>973.40002441406</ele>
        <time>2019-10-06T08:29:03.000Z</time>
      </trkpt>
      <trkpt lat="43.71176" lon="6.79299">
        <ele>971.59997558594</ele>
        <time>2019-10-06T08:29:06.000Z</time>
      </trkpt>
      <trkpt lat="43.71168" lon="6.79301">
        <ele>970.20001220703</ele>
        <time>2019-10-06T08:29:08.000Z</time>
      </trkpt>
      <trkpt lat="43.71162" lon="6.79306">
        <ele>968.40002441406</ele>
        <time>2019-10-06T08:29:10.000Z</time>
      </trkpt>
      <trkpt lat="43.71158" lon="6.79308">
        <ele>967.40002441406</ele>
        <time>2019-10-06T08:29:11.000Z</time>
      </trkpt>
      <trkpt lat="43.71153" lon="6.7931">
        <ele>966.40002441406</ele>
        <time>2019-10-06T08:29:12.000Z</time>
      </trkpt>
      <trkpt lat="43.71149" lon="6.79313">
        <ele>965.20001220703</ele>
        <time>2019-10-06T08:29:13.000Z</time>
      </trkpt>
      <trkpt lat="43.71142" lon="6.79314">
        <ele>963.79998779297</ele>
        <time>2019-10-06T08:29:15.000Z</time>
      </trkpt>
      <trkpt lat="43.71135" lon="6.79315">
        <ele>962.40002441406</ele>
        <time>2019-10-06T08:29:17.000Z</time>
      </trkpt>
      <trkpt lat="43.71129" lon="6.79315">
        <ele>961</ele>
        <time>2019-10-06T08:29:19.000Z</time>
      </trkpt>
      <trkpt lat="43.71124" lon="6.79317">
        <ele>959.40002441406</ele>
        <time>2019-10-06T08:29:21.000Z</time>
      </trkpt>
      <trkpt lat="43.7112" lon="6.79318">
        <ele>958.59997558594</ele>
        <time>2019-10-06T08:29:23.000Z</time>
      </trkpt>
      <trkpt lat="43.71119" lon="6.79318">
        <ele>958.40002441406</ele>
        <time>2019-10-06T08:29:24.000Z</time>
      </trkpt>
      <trkpt lat="43.71118" lon="6.79318">
        <ele>958.20001220703</ele>
        <time>2019-10-06T08:29:26.000Z</time>
      </trkpt>
      <trkpt lat="43.71117" lon="6.79318">
        <ele>958.20001220703</ele>
        <time>2019-10-06T08:29:27.000Z</time>
      </trkpt>
      <trkpt lat="43.71117" lon="6.79317">
        <ele>958</ele>
        <time>2019-10-06T08:29:29.000Z</time>
      </trkpt>
      <trkpt lat="43.71117" lon="6.79317">
        <ele>957.20001220703</ele>
        <time>2019-10-06T08:29:33.000Z</time>
      </trkpt>
      <trkpt lat="43.71117" lon="6.79317">
        <ele>957.20001220703</ele>
        <time>2019-10-06T08:29:34.000Z</time>
      </trkpt>
      <trkpt lat="43.71118" lon="6.7932">
        <ele>956.40002441406</ele>
        <time>2019-10-06T08:29:38.000Z</time>
      </trkpt>
      <trkpt lat="43.71118" lon="6.7932">
        <ele>956</ele>
        <time>2019-10-06T08:29:39.000Z</time>
      </trkpt>
      <trkpt lat="43.71122" lon="6.79326">
        <ele>954.79998779297</ele>
        <time>2019-10-06T08:29:43.000Z</time>
      </trkpt>
      <trkpt lat="43.71127" lon="6.79331">
        <ele>953.59997558594</ele>
        <time>2019-10-06T08:29:45.000Z</time>
      </trkpt>
      <trkpt lat="43.71132" lon="6.79338">
        <ele>952.40002441406</ele>
        <time>2019-10-06T08:29:48.000Z</time>
      </trkpt>
      <trkpt lat="43.71137" lon="6.79345">
        <ele>950.59997558594</ele>
        <time>2019-10-06T08:29:51.000Z</time>
      </trkpt>
      <trkpt lat="43.71139" lon="6.79346">
        <ele>949.59997558594</ele>
        <time>2019-10-06T08:29:52.000Z</time>
      </trkpt>
      <trkpt lat="43.71143" lon="6.79349">
        <ele>947.79998779297</ele>
        <time>2019-10-06T08:29:54.000Z</time>
      </trkpt>
      <trkpt lat="43.71147" lon="6.79353">
        <ele>946.40002441406</ele>
        <time>2019-10-06T08:29:56.000Z</time>
      </trkpt>
      <trkpt lat="43.71147" lon="6.79354">
        <ele>945.59997558594</ele>
        <time>2019-10-06T08:29:57.000Z</time>
      </trkpt>
      <trkpt lat="43.71147" lon="6.79355">
        <ele>945</ele>
        <time>2019-10-06T08:29:58.000Z</time>
      </trkpt>
      <trkpt lat="43.71143" lon="6.79357">
        <ele>943.79998779297</ele>
        <time>2019-10-06T08:30:01.000Z</time>
      </trkpt>
      <trkpt lat="43.71141" lon="6.79359">
        <ele>942.40002441406</ele>
        <time>2019-10-06T08:30:03.000Z</time>
      </trkpt>
      <trkpt lat="43.71139" lon="6.7936">
        <ele>941.20001220703</ele>
        <time>2019-10-06T08:30:06.000Z</time>
      </trkpt>
      <trkpt lat="43.71137" lon="6.7936">
        <ele>940.20001220703</ele>
        <time>2019-10-06T08:30:10.000Z</time>
      </trkpt>
      <trkpt lat="43.71135" lon="6.7936">
        <ele>939.20001220703</ele>
        <time>2019-10-06T08:30:13.000Z</time>
      </trkpt>
      <trkpt lat="43.71133" lon="6.79363">
        <ele>937.79998779297</ele>
        <time>2019-10-06T08:30:16.000Z</time>
      </trkpt>
      <trkpt lat="43.71131" lon="6.79365">
        <ele>936.79998779297</ele>
        <time>2019-10-06T08:30:19.000Z</time>
      </trkpt>
      <trkpt lat="43.71129" lon="6.79366">
        <ele>935.59997558594</ele>
        <time>2019-10-06T08:30:23.000Z</time>
      </trkpt>
      <trkpt lat="43.71125" lon="6.7937">
        <ele>934.59997558594</ele>
        <time>2019-10-06T08:30:28.000Z</time>
      </trkpt>
      <trkpt lat="43.71122" lon="6.7937">
        <ele>934</ele>
        <time>2019-10-06T08:30:30.000Z</time>
      </trkpt>
      <trkpt lat="43.7112" lon="6.7937">
        <ele>933</ele>
        <time>2019-10-06T08:30:31.000Z</time>
      </trkpt>
      <trkpt lat="43.71117" lon="6.79373">
        <ele>931.40002441406</ele>
        <time>2019-10-06T08:30:33.000Z</time>
      </trkpt>
      <trkpt lat="43.71114" lon="6.79374">
        <ele>930.20001220703</ele>
        <time>2019-10-06T08:30:35.000Z</time>
      </trkpt>
      <trkpt lat="43.71111" lon="6.79378">
        <ele>928.79998779297</ele>
        <time>2019-10-06T08:30:37.000Z</time>
      </trkpt>
      <trkpt lat="43.71107" lon="6.7938">
        <ele>927</ele>
        <time>2019-10-06T08:30:39.000Z</time>
      </trkpt>
      <trkpt lat="43.71104" lon="6.7938">
        <ele>925.79998779297</ele>
        <time>2019-10-06T08:30:41.000Z</time>
      </trkpt>
      <trkpt lat="43.71098" lon="6.79379">
        <ele>924.59997558594</ele>
        <time>2019-10-06T08:30:44.000Z</time>
      </trkpt>
      <trkpt lat="43.71096" lon="6.7938">
        <ele>923.79998779297</ele>
        <time>2019-10-06T08:30:45.000Z</time>
      </trkpt>
      <trkpt lat="43.71094" lon="6.79381">
        <ele>923</ele>
        <time>2019-10-06T08:30:46.000Z</time>
      </trkpt>
      <trkpt lat="43.71093" lon="6.79382">
        <ele>922.40002441406</ele>
        <time>2019-10-06T08:30:47.000Z</time>
      </trkpt>
      <trkpt lat="43.71091" lon="6.79381">
        <ele>921.59997558594</ele>
        <time>2019-10-06T08:30:48.000Z</time>
      </trkpt>
      <trkpt lat="43.7109" lon="6.79382">
        <ele>920.79998779297</ele>
        <time>2019-10-06T08:30:49.000Z</time>
      </trkpt>
      <trkpt lat="43.71088" lon="6.79382">
        <ele>920.40002441406</ele>
        <time>2019-10-06T08:30:50.000Z</time>
      </trkpt>
      <trkpt lat="43.71084" lon="6.79384">
        <ele>918.79998779297</ele>
        <time>2019-10-06T08:30:52.000Z</time>
      </trkpt>
      <trkpt lat="43.71082" lon="6.79385">
        <ele>917.79998779297</ele>
        <time>2019-10-06T08:30:53.000Z</time>
      </trkpt>
      <trkpt lat="43.71079" lon="6.79387">
        <ele>916.40002441406</ele>
        <time>2019-10-06T08:30:55.000Z</time>
      </trkpt>
      <trkpt lat="43.71076" lon="6.79387">
        <ele>914.79998779297</ele>
        <time>2019-10-06T08:30:57.000Z</time>
      </trkpt>
      <trkpt lat="43.71072" lon="6.79389">
        <ele>913.59997558594</ele>
        <time>2019-10-06T08:30:59.000Z</time>
      </trkpt>
      <trkpt lat="43.71067" lon="6.79392">
        <ele>912.20001220703</ele>
        <time>2019-10-06T08:31:01.000Z</time>
      </trkpt>
      <trkpt lat="43.71063" lon="6.79394">
        <ele>910.79998779297</ele>
        <time>2019-10-06T08:31:03.000Z</time>
      </trkpt>
      <trkpt lat="43.71062" lon="6.79395">
        <ele>910</ele>
        <time>2019-10-06T08:31:04.000Z</time>
      </trkpt>
      <trkpt lat="43.7106" lon="6.79396">
        <ele>909.40002441406</ele>
        <time>2019-10-06T08:31:05.000Z</time>
      </trkpt>
      <trkpt lat="43.71055" lon="6.79397">
        <ele>907.79998779297</ele>
        <time>2019-10-06T08:31:07.000Z</time>
      </trkpt>
      <trkpt lat="43.71049" lon="6.794">
        <ele>906.59997558594</ele>
        <time>2019-10-06T08:31:09.000Z</time>
      </trkpt>
      <trkpt lat="43.71042" lon="6.79398">
        <ele>905.40002441406</ele>
        <time>2019-10-06T08:31:11.000Z</time>
      </trkpt>
      <trkpt lat="43.71032" lon="6.79404">
        <ele>904.40002441406</ele>
        <time>2019-10-06T08:31:18.000Z</time>
      </trkpt>
      <trkpt lat="43.7103" lon="6.79406">
        <ele>904.20001220703</ele>
        <time>2019-10-06T08:31:19.000Z</time>
      </trkpt>
      <trkpt lat="43.7102" lon="6.7941">
        <ele>903</ele>
        <time>2019-10-06T08:31:23.000Z</time>
      </trkpt>
      <trkpt lat="43.71017" lon="6.7941">
        <ele>902.40002441406</ele>
        <time>2019-10-06T08:31:24.000Z</time>
      </trkpt>
      <trkpt lat="43.71014" lon="6.79412">
        <ele>901.59997558594</ele>
        <time>2019-10-06T08:31:25.000Z</time>
      </trkpt>
      <trkpt lat="43.71006" lon="6.79417">
        <ele>900.40002441406</ele>
        <time>2019-10-06T08:31:27.000Z</time>
      </trkpt>
      <trkpt lat="43.71003" lon="6.79419">
        <ele>898.79998779297</ele>
        <time>2019-10-06T08:31:29.000Z</time>
      </trkpt>
      <trkpt lat="43.70998" lon="6.79419">
        <ele>897.59997558594</ele>
        <time>2019-10-06T08:31:31.000Z</time>
      </trkpt>
      <trkpt lat="43.70994" lon="6.79419">
        <ele>896.79998779297</ele>
        <time>2019-10-06T08:31:33.000Z</time>
      </trkpt>
      <trkpt lat="43.70991" lon="6.79421">
        <ele>896.59997558594</ele>
        <time>2019-10-06T08:31:34.000Z</time>
      </trkpt>
      <trkpt lat="43.70988" lon="6.79423">
        <ele>896.20001220703</ele>
        <time>2019-10-06T08:31:35.000Z</time>
      </trkpt>
      <trkpt lat="43.70984" lon="6.79424">
        <ele>895.79998779297</ele>
        <time>2019-10-06T08:31:36.000Z</time>
      </trkpt>
      <trkpt lat="43.70978" lon="6.79427">
        <ele>895.40002441406</ele>
        <time>2019-10-06T08:31:38.000Z</time>
      </trkpt>
      <trkpt lat="43.70975" lon="6.79428">
        <ele>895.20001220703</ele>
        <time>2019-10-06T08:31:39.000Z</time>
      </trkpt>
      <trkpt lat="43.70968" lon="6.79428">
        <ele>894.59997558594</ele>
        <time>2019-10-06T08:31:41.000Z</time>
      </trkpt>
      <trkpt lat="43.70965" lon="6.79427">
        <ele>894.40002441406</ele>
        <time>2019-10-06T08:31:42.000Z</time>
      </trkpt>
      <trkpt lat="43.70961" lon="6.79426">
        <ele>894</ele>
        <time>2019-10-06T08:31:43.000Z</time>
      </trkpt>
      <trkpt lat="43.70954" lon="6.79427">
        <ele>893</ele>
        <time>2019-10-06T08:31:45.000Z</time>
      </trkpt>
      <trkpt lat="43.70948" lon="6.79428">
        <ele>891.59997558594</ele>
        <time>2019-10-06T08:31:47.000Z</time>
      </trkpt>
      <trkpt lat="43.70943" lon="6.79429">
        <ele>890.40002441406</ele>
        <time>2019-10-06T08:31:49.000Z</time>
      </trkpt>
      <trkpt lat="43.70938" lon="6.79433">
        <ele>888</ele>
        <time>2019-10-06T08:31:51.000Z</time>
      </trkpt>
      <trkpt lat="43.70934" lon="6.79434">
        <ele>886.59997558594</ele>
        <time>2019-10-06T08:31:53.000Z</time>
      </trkpt>
      <trkpt lat="43.70931" lon="6.79434">
        <ele>886.20001220703</ele>
        <time>2019-10-06T08:31:54.000Z</time>
      </trkpt>
      <trkpt lat="43.70928" lon="6.79433">
        <ele>885.79998779297</ele>
        <time>2019-10-06T08:31:55.000Z</time>
      </trkpt>
      <trkpt lat="43.70926" lon="6.79434">
        <ele>885.20001220703</ele>
        <time>2019-10-06T08:31:56.000Z</time>
      </trkpt>
      <trkpt lat="43.70924" lon="6.79438">
        <ele>884.40002441406</ele>
        <time>2019-10-06T08:31:58.000Z</time>
      </trkpt>
      <trkpt lat="43.70925" lon="6.79441">
        <ele>884</ele>
        <time>2019-10-06T08:31:59.000Z</time>
      </trkpt>
      <trkpt lat="43.70928" lon="6.79449">
        <ele>882.79998779297</ele>
        <time>2019-10-06T08:32:01.000Z</time>
      </trkpt>
      <trkpt lat="43.70932" lon="6.79464">
        <ele>882.59997558594</ele>
        <time>2019-10-06T08:32:04.000Z</time>
      </trkpt>
      <trkpt lat="43.70934" lon="6.79473">
        <ele>882.79998779297</ele>
        <time>2019-10-06T08:32:06.000Z</time>
      </trkpt>
      <trkpt lat="43.70936" lon="6.79478">
        <ele>882.79998779297</ele>
        <time>2019-10-06T08:32:07.000Z</time>
      </trkpt>
      <trkpt lat="43.7094" lon="6.79488">
        <ele>882.59997558594</ele>
        <time>2019-10-06T08:32:09.000Z</time>
      </trkpt>
      <trkpt lat="43.70946" lon="6.79496">
        <ele>881.79998779297</ele>
        <time>2019-10-06T08:32:13.000Z</time>
      </trkpt>
      <trkpt lat="43.70945" lon="6.79496">
        <ele>881.59997558594</ele>
        <time>2019-10-06T08:32:21.000Z</time>
      </trkpt>
      <trkpt lat="43.70946" lon="6.79496">
        <ele>882</ele>
        <time>2019-10-06T08:32:26.000Z</time>
      </trkpt>
      <trkpt lat="43.7095" lon="6.79497">
        <ele>882</ele>
        <time>2019-10-06T08:32:30.000Z</time>
      </trkpt>
      <trkpt lat="43.70966" lon="6.795">
        <ele>881</ele>
        <time>2019-10-06T08:32:35.000Z</time>
      </trkpt>
      <trkpt lat="43.7097" lon="6.79501">
        <ele>880.79998779297</ele>
        <time>2019-10-06T08:32:36.000Z</time>
      </trkpt>
      <trkpt lat="43.70982" lon="6.79504">
        <ele>880.59997558594</ele>
        <time>2019-10-06T08:32:39.000Z</time>
      </trkpt>
      <trkpt lat="43.70986" lon="6.79505">
        <ele>880.20001220703</ele>
        <time>2019-10-06T08:32:40.000Z</time>
      </trkpt>
      <trkpt lat="43.7099" lon="6.79505">
        <ele>880</ele>
        <time>2019-10-06T08:32:41.000Z</time>
      </trkpt>
      <trkpt lat="43.71014" lon="6.79517">
        <ele>879</ele>
        <time>2019-10-06T08:32:47.000Z</time>
      </trkpt>
      <trkpt lat="43.71024" lon="6.79523">
        <ele>879.40002441406</ele>
        <time>2019-10-06T08:32:49.000Z</time>
      </trkpt>
      <trkpt lat="43.71038" lon="6.79535">
        <ele>879.79998779297</ele>
        <time>2019-10-06T08:32:52.000Z</time>
      </trkpt>
      <trkpt lat="43.71054" lon="6.7955">
        <ele>880.20001220703</ele>
        <time>2019-10-06T08:32:56.000Z</time>
      </trkpt>
      <trkpt lat="43.71087" lon="6.79613">
        <ele>880.59997558594</ele>
        <time>2019-10-06T08:33:08.000Z</time>
      </trkpt>
      <trkpt lat="43.7109" lon="6.79629">
        <ele>880.20001220703</ele>
        <time>2019-10-06T08:33:11.000Z</time>
      </trkpt>
      <trkpt lat="43.71092" lon="6.79635">
        <ele>880.20001220703</ele>
        <time>2019-10-06T08:33:12.000Z</time>
      </trkpt>
      <trkpt lat="43.71096" lon="6.79658">
        <ele>878.59997558594</ele>
        <time>2019-10-06T08:33:15.000Z</time>
      </trkpt>
      <trkpt lat="43.71099" lon="6.79677">
        <ele>877.20001220703</ele>
        <time>2019-10-06T08:33:17.000Z</time>
      </trkpt>
      <trkpt lat="43.71101" lon="6.79687">
        <ele>876.59997558594</ele>
        <time>2019-10-06T08:33:18.000Z</time>
      </trkpt>
      <trkpt lat="43.71105" lon="6.79704">
        <ele>875.59997558594</ele>
        <time>2019-10-06T08:33:20.000Z</time>
      </trkpt>
      <trkpt lat="43.71109" lon="6.79719">
        <ele>874.40002441406</ele>
        <time>2019-10-06T08:33:22.000Z</time>
      </trkpt>
      <trkpt lat="43.71119" lon="6.79748">
        <ele>873.59997558594</ele>
        <time>2019-10-06T08:33:26.000Z</time>
      </trkpt>
      <trkpt lat="43.71122" lon="6.79765">
        <ele>873</ele>
        <time>2019-10-06T08:33:28.000Z</time>
      </trkpt>
      <trkpt lat="43.71126" lon="6.79785">
        <ele>872</ele>
        <time>2019-10-06T08:33:30.000Z</time>
      </trkpt>
      <trkpt lat="43.71128" lon="6.79794">
        <ele>871.40002441406</ele>
        <time>2019-10-06T08:33:31.000Z</time>
      </trkpt>
      <trkpt lat="43.71129" lon="6.79801">
        <ele>870.79998779297</ele>
        <time>2019-10-06T08:33:32.000Z</time>
      </trkpt>
      <trkpt lat="43.71151" lon="6.79828">
        <ele>870.40002441406</ele>
        <time>2019-10-06T08:33:39.000Z</time>
      </trkpt>
      <trkpt lat="43.71164" lon="6.79839">
        <ele>870.79998779297</ele>
        <time>2019-10-06T08:33:44.000Z</time>
      </trkpt>
      <trkpt lat="43.71173" lon="6.79849">
        <ele>871</ele>
        <time>2019-10-06T08:33:48.000Z</time>
      </trkpt>
      <trkpt lat="43.71175" lon="6.79851">
        <ele>870.79998779297</ele>
        <time>2019-10-06T08:33:49.000Z</time>
      </trkpt>
      <trkpt lat="43.71177" lon="6.79853">
        <ele>870.79998779297</ele>
        <time>2019-10-06T08:33:50.000Z</time>
      </trkpt>
      <trkpt lat="43.71181" lon="6.79856">
        <ele>870</ele>
        <time>2019-10-06T08:33:52.000Z</time>
      </trkpt>
      <trkpt lat="43.71182" lon="6.79858">
        <ele>869.79998779297</ele>
        <time>2019-10-06T08:33:53.000Z</time>
      </trkpt>
      <trkpt lat="43.71186" lon="6.79862">
        <ele>869.20001220703</ele>
        <time>2019-10-06T08:33:55.000Z</time>
      </trkpt>
      <trkpt lat="43.71188" lon="6.79865">
        <ele>868.79998779297</ele>
        <time>2019-10-06T08:33:56.000Z</time>
      </trkpt>
      <trkpt lat="43.71196" lon="6.79873">
        <ele>867.79998779297</ele>
        <time>2019-10-06T08:33:59.000Z</time>
      </trkpt>
      <trkpt lat="43.71204" lon="6.7988">
        <ele>866.59997558594</ele>
        <time>2019-10-06T08:34:02.000Z</time>
      </trkpt>
      <trkpt lat="43.71212" lon="6.79886">
        <ele>865.59997558594</ele>
        <time>2019-10-06T08:34:05.000Z</time>
      </trkpt>
      <trkpt lat="43.71217" lon="6.7989">
        <ele>864.59997558594</ele>
        <time>2019-10-06T08:34:07.000Z</time>
      </trkpt>
      <trkpt lat="43.71226" lon="6.79896">
        <ele>863</ele>
        <time>2019-10-06T08:34:10.000Z</time>
      </trkpt>
      <trkpt lat="43.71232" lon="6.799">
        <ele>861.79998779297</ele>
        <time>2019-10-06T08:34:12.000Z</time>
      </trkpt>
      <trkpt lat="43.71242" lon="6.79908">
        <ele>860.59997558594</ele>
        <time>2019-10-06T08:34:15.000Z</time>
      </trkpt>
      <trkpt lat="43.71249" lon="6.79914">
        <ele>859</ele>
        <time>2019-10-06T08:34:17.000Z</time>
      </trkpt>
      <trkpt lat="43.71257" lon="6.79916">
        <ele>857.20001220703</ele>
        <time>2019-10-06T08:34:19.000Z</time>
      </trkpt>
      <trkpt lat="43.71266" lon="6.79918">
        <ele>855.79998779297</ele>
        <time>2019-10-06T08:34:21.000Z</time>
      </trkpt>
      <trkpt lat="43.71278" lon="6.79922">
        <ele>854.40002441406</ele>
        <time>2019-10-06T08:34:25.000Z</time>
      </trkpt>
      <trkpt lat="43.71285" lon="6.79926">
        <ele>853</ele>
        <time>2019-10-06T08:34:27.000Z</time>
      </trkpt>
      <trkpt lat="43.71293" lon="6.79932">
        <ele>852.20001220703</ele>
        <time>2019-10-06T08:34:29.000Z</time>
      </trkpt>
      <trkpt lat="43.713" lon="6.79936">
        <ele>850.79998779297</ele>
        <time>2019-10-06T08:34:31.000Z</time>
      </trkpt>
      <trkpt lat="43.71309" lon="6.7994">
        <ele>849.40002441406</ele>
        <time>2019-10-06T08:34:33.000Z</time>
      </trkpt>
      <trkpt lat="43.71316" lon="6.79943">
        <ele>848</ele>
        <time>2019-10-06T08:34:35.000Z</time>
      </trkpt>
      <trkpt lat="43.71324" lon="6.79945">
        <ele>846.20001220703</ele>
        <time>2019-10-06T08:34:37.000Z</time>
      </trkpt>
      <trkpt lat="43.71329" lon="6.79945">
        <ele>845.40002441406</ele>
        <time>2019-10-06T08:34:38.000Z</time>
      </trkpt>
      <trkpt lat="43.71334" lon="6.79944">
        <ele>844.79998779297</ele>
        <time>2019-10-06T08:34:39.000Z</time>
      </trkpt>
      <trkpt lat="43.71338" lon="6.79944">
        <ele>844.40002441406</ele>
        <time>2019-10-06T08:34:40.000Z</time>
      </trkpt>
      <trkpt lat="43.71346" lon="6.79942">
        <ele>843.20001220703</ele>
        <time>2019-10-06T08:34:42.000Z</time>
      </trkpt>
      <trkpt lat="43.71356" lon="6.79942">
        <ele>841.20001220703</ele>
        <time>2019-10-06T08:34:44.000Z</time>
      </trkpt>
      <trkpt lat="43.7136" lon="6.79942">
        <ele>840</ele>
        <time>2019-10-06T08:34:45.000Z</time>
      </trkpt>
      <trkpt lat="43.71363" lon="6.79943">
        <ele>839</ele>
        <time>2019-10-06T08:34:46.000Z</time>
      </trkpt>
      <trkpt lat="43.71371" lon="6.79946">
        <ele>837.59997558594</ele>
        <time>2019-10-06T08:34:48.000Z</time>
      </trkpt>
      <trkpt lat="43.7138" lon="6.79949">
        <ele>835.79998779297</ele>
        <time>2019-10-06T08:34:50.000Z</time>
      </trkpt>
      <trkpt lat="43.71386" lon="6.7995">
        <ele>834.59997558594</ele>
        <time>2019-10-06T08:34:51.000Z</time>
      </trkpt>
      <trkpt lat="43.71391" lon="6.79951">
        <ele>833.40002441406</ele>
        <time>2019-10-06T08:34:52.000Z</time>
      </trkpt>
      <trkpt lat="43.71401" lon="6.79956">
        <ele>832.20001220703</ele>
        <time>2019-10-06T08:34:54.000Z</time>
      </trkpt>
      <trkpt lat="43.71409" lon="6.7996">
        <ele>831</ele>
        <time>2019-10-06T08:34:56.000Z</time>
      </trkpt>
      <trkpt lat="43.7142" lon="6.79966">
        <ele>829.79998779297</ele>
        <time>2019-10-06T08:34:58.000Z</time>
      </trkpt>
      <trkpt lat="43.71429" lon="6.7997">
        <ele>828</ele>
        <time>2019-10-06T08:35:00.000Z</time>
      </trkpt>
      <trkpt lat="43.71438" lon="6.79974">
        <ele>826.59997558594</ele>
        <time>2019-10-06T08:35:02.000Z</time>
      </trkpt>
      <trkpt lat="43.71446" lon="6.79978">
        <ele>825.40002441406</ele>
        <time>2019-10-06T08:35:04.000Z</time>
      </trkpt>
      <trkpt lat="43.71457" lon="6.79986">
        <ele>824</ele>
        <time>2019-10-06T08:35:07.000Z</time>
      </trkpt>
      <trkpt lat="43.71463" lon="6.79993">
        <ele>823</ele>
        <time>2019-10-06T08:35:09.000Z</time>
      </trkpt>
      <trkpt lat="43.71469" lon="6.79998">
        <ele>822.20001220703</ele>
        <time>2019-10-06T08:35:11.000Z</time>
      </trkpt>
      <trkpt lat="43.71473" lon="6.80001">
        <ele>821.59997558594</ele>
        <time>2019-10-06T08:35:12.000Z</time>
      </trkpt>
      <trkpt lat="43.71477" lon="6.80003">
        <ele>820.59997558594</ele>
        <time>2019-10-06T08:35:13.000Z</time>
      </trkpt>
      <trkpt lat="43.71483" lon="6.80009">
        <ele>818.59997558594</ele>
        <time>2019-10-06T08:35:15.000Z</time>
      </trkpt>
      <trkpt lat="43.71485" lon="6.80012">
        <ele>817.59997558594</ele>
        <time>2019-10-06T08:35:16.000Z</time>
      </trkpt>
      <trkpt lat="43.7149" lon="6.80021">
        <ele>816</ele>
        <time>2019-10-06T08:35:19.000Z</time>
      </trkpt>
      <trkpt lat="43.71493" lon="6.80025">
        <ele>814.79998779297</ele>
        <time>2019-10-06T08:35:20.000Z</time>
      </trkpt>
      <trkpt lat="43.71501" lon="6.80033">
        <ele>813.20001220703</ele>
        <time>2019-10-06T08:35:22.000Z</time>
      </trkpt>
      <trkpt lat="43.71508" lon="6.80039">
        <ele>811.79998779297</ele>
        <time>2019-10-06T08:35:24.000Z</time>
      </trkpt>
      <trkpt lat="43.71515" lon="6.80044">
        <ele>810.40002441406</ele>
        <time>2019-10-06T08:35:26.000Z</time>
      </trkpt>
      <trkpt lat="43.71529" lon="6.80054">
        <ele>809.40002441406</ele>
        <time>2019-10-06T08:35:29.000Z</time>
      </trkpt>
      <trkpt lat="43.7154" lon="6.80063">
        <ele>807.59997558594</ele>
        <time>2019-10-06T08:35:32.000Z</time>
      </trkpt>
      <trkpt lat="43.71548" lon="6.80069">
        <ele>806.40002441406</ele>
        <time>2019-10-06T08:35:34.000Z</time>
      </trkpt>
      <trkpt lat="43.71555" lon="6.80075">
        <ele>804.59997558594</ele>
        <time>2019-10-06T08:35:36.000Z</time>
      </trkpt>
      <trkpt lat="43.71564" lon="6.8008">
        <ele>803.79998779297</ele>
        <time>2019-10-06T08:35:39.000Z</time>
      </trkpt>
      <trkpt lat="43.71566" lon="6.80082">
        <ele>803.40002441406</ele>
        <time>2019-10-06T08:35:40.000Z</time>
      </trkpt>
      <trkpt lat="43.71571" lon="6.80089">
        <ele>801.79998779297</ele>
        <time>2019-10-06T08:35:43.000Z</time>
      </trkpt>
      <trkpt lat="43.71573" lon="6.80091">
        <ele>800.59997558594</ele>
        <time>2019-10-06T08:35:44.000Z</time>
      </trkpt>
      <trkpt lat="43.71577" lon="6.80098">
        <ele>798.59997558594</ele>
        <time>2019-10-06T08:35:46.000Z</time>
      </trkpt>
      <trkpt lat="43.71582" lon="6.80105">
        <ele>797.40002441406</ele>
        <time>2019-10-06T08:35:48.000Z</time>
      </trkpt>
      <trkpt lat="43.71587" lon="6.80109">
        <ele>796</ele>
        <time>2019-10-06T08:35:50.000Z</time>
      </trkpt>
      <trkpt lat="43.71592" lon="6.80113">
        <ele>795</ele>
        <time>2019-10-06T08:35:52.000Z</time>
      </trkpt>
      <trkpt lat="43.71602" lon="6.80119">
        <ele>793.79998779297</ele>
        <time>2019-10-06T08:35:55.000Z</time>
      </trkpt>
      <trkpt lat="43.7161" lon="6.80124">
        <ele>792.40002441406</ele>
        <time>2019-10-06T08:35:58.000Z</time>
      </trkpt>
      <trkpt lat="43.71618" lon="6.80128">
        <ele>791.40002441406</ele>
        <time>2019-10-06T08:36:02.000Z</time>
      </trkpt>
      <trkpt lat="43.71625" lon="6.80131">
        <ele>790.59997558594</ele>
        <time>2019-10-06T08:36:06.000Z</time>
      </trkpt>
      <trkpt lat="43.71627" lon="6.80132">
        <ele>790.40002441406</ele>
        <time>2019-10-06T08:36:07.000Z</time>
      </trkpt>
      <trkpt lat="43.71632" lon="6.80134">
        <ele>789.59997558594</ele>
        <time>2019-10-06T08:36:09.000Z</time>
      </trkpt>
      <trkpt lat="43.71634" lon="6.80135">
        <ele>789</ele>
        <time>2019-10-06T08:36:10.000Z</time>
      </trkpt>
      <trkpt lat="43.71639" lon="6.80136">
        <ele>787.79998779297</ele>
        <time>2019-10-06T08:36:12.000Z</time>
      </trkpt>
      <trkpt lat="43.71646" lon="6.80135">
        <ele>787.20001220703</ele>
        <time>2019-10-06T08:36:14.000Z</time>
      </trkpt>
      <trkpt lat="43.71649" lon="6.80134">
        <ele>787</ele>
        <time>2019-10-06T08:36:15.000Z</time>
      </trkpt>
      <trkpt lat="43.71653" lon="6.80133">
        <ele>786.20001220703</ele>
        <time>2019-10-06T08:36:16.000Z</time>
      </trkpt>
      <trkpt lat="43.71663" lon="6.8013">
        <ele>785</ele>
        <time>2019-10-06T08:36:18.000Z</time>
      </trkpt>
      <trkpt lat="43.71681" lon="6.80128">
        <ele>784.40002441406</ele>
        <time>2019-10-06T08:36:21.000Z</time>
      </trkpt>
      <trkpt lat="43.71692" lon="6.80127">
        <ele>783.59997558594</ele>
        <time>2019-10-06T08:36:23.000Z</time>
      </trkpt>
      <trkpt lat="43.71704" lon="6.80126">
        <ele>782.40002441406</ele>
        <time>2019-10-06T08:36:26.000Z</time>
      </trkpt>
      <trkpt lat="43.71707" lon="6.80126">
        <ele>781.40002441406</ele>
        <time>2019-10-06T08:36:27.000Z</time>
      </trkpt>
      <trkpt lat="43.71714" lon="6.80126">
        <ele>779.59997558594</ele>
        <time>2019-10-06T08:36:29.000Z</time>
      </trkpt>
      <trkpt lat="43.71721" lon="6.80125">
        <ele>778.40002441406</ele>
        <time>2019-10-06T08:36:31.000Z</time>
      </trkpt>
      <trkpt lat="43.71725" lon="6.80125">
        <ele>777.20001220703</ele>
        <time>2019-10-06T08:36:32.000Z</time>
      </trkpt>
      <trkpt lat="43.71729" lon="6.80126">
        <ele>776</ele>
        <time>2019-10-06T08:36:33.000Z</time>
      </trkpt>
      <trkpt lat="43.71734" lon="6.80126">
        <ele>774.59997558594</ele>
        <time>2019-10-06T08:36:35.000Z</time>
      </trkpt>
      <trkpt lat="43.71742" lon="6.80127">
        <ele>773</ele>
        <time>2019-10-06T08:36:38.000Z</time>
      </trkpt>
      <trkpt lat="43.71748" lon="6.8013">
        <ele>771.40002441406</ele>
        <time>2019-10-06T08:36:40.000Z</time>
      </trkpt>
      <trkpt lat="43.71751" lon="6.80131">
        <ele>770.40002441406</ele>
        <time>2019-10-06T08:36:41.000Z</time>
      </trkpt>
      <trkpt lat="43.71756" lon="6.80133">
        <ele>769</ele>
        <time>2019-10-06T08:36:43.000Z</time>
      </trkpt>
      <trkpt lat="43.71762" lon="6.80136">
        <ele>767.59997558594</ele>
        <time>2019-10-06T08:36:45.000Z</time>
      </trkpt>
      <trkpt lat="43.71767" lon="6.80139">
        <ele>766.20001220703</ele>
        <time>2019-10-06T08:36:47.000Z</time>
      </trkpt>
      <trkpt lat="43.71771" lon="6.80141">
        <ele>765.20001220703</ele>
        <time>2019-10-06T08:36:48.000Z</time>
      </trkpt>
      <trkpt lat="43.71776" lon="6.80143">
        <ele>764</ele>
        <time>2019-10-06T08:36:49.000Z</time>
      </trkpt>
      <trkpt lat="43.71783" lon="6.80148">
        <ele>762.79998779297</ele>
        <time>2019-10-06T08:36:51.000Z</time>
      </trkpt>
      <trkpt lat="43.71791" lon="6.8016">
        <ele>761.20001220703</ele>
        <time>2019-10-06T08:36:54.000Z</time>
      </trkpt>
      <trkpt lat="43.71793" lon="6.80164">
        <ele>760.20001220703</ele>
        <time>2019-10-06T08:36:55.000Z</time>
      </trkpt>
      <trkpt lat="43.71795" lon="6.8017">
        <ele>758.59997558594</ele>
        <time>2019-10-06T08:36:57.000Z</time>
      </trkpt>
      <trkpt lat="43.71801" lon="6.8018">
        <ele>757.59997558594</ele>
        <time>2019-10-06T08:37:00.000Z</time>
      </trkpt>
      <trkpt lat="43.71806" lon="6.80189">
        <ele>755.59997558594</ele>
        <time>2019-10-06T08:37:02.000Z</time>
      </trkpt>
      <trkpt lat="43.71808" lon="6.80193">
        <ele>754.40002441406</ele>
        <time>2019-10-06T08:37:03.000Z</time>
      </trkpt>
      <trkpt lat="43.7181" lon="6.80196">
        <ele>753.20001220703</ele>
        <time>2019-10-06T08:37:04.000Z</time>
      </trkpt>
      <trkpt lat="43.71812" lon="6.80199">
        <ele>752.40002441406</ele>
        <time>2019-10-06T08:37:05.000Z</time>
      </trkpt>
      <trkpt lat="43.71812" lon="6.80202">
        <ele>751.40002441406</ele>
        <time>2019-10-06T08:37:06.000Z</time>
      </trkpt>
      <trkpt lat="43.71809" lon="6.80208">
        <ele>750.40002441406</ele>
        <time>2019-10-06T08:37:09.000Z</time>
      </trkpt>
      <trkpt lat="43.71803" lon="6.80211">
        <ele>749.59997558594</ele>
        <time>2019-10-06T08:37:12.000Z</time>
      </trkpt>
      <trkpt lat="43.718" lon="6.80211">
        <ele>749.20001220703</ele>
        <time>2019-10-06T08:37:13.000Z</time>
      </trkpt>
      <trkpt lat="43.71798" lon="6.80211">
        <ele>748.79998779297</ele>
        <time>2019-10-06T08:37:14.000Z</time>
      </trkpt>
      <trkpt lat="43.71794" lon="6.80209">
        <ele>748.20001220703</ele>
        <time>2019-10-06T08:37:16.000Z</time>
      </trkpt>
      <trkpt lat="43.7179" lon="6.80206">
        <ele>747</ele>
        <time>2019-10-06T08:37:18.000Z</time>
      </trkpt>
      <trkpt lat="43.71785" lon="6.80206">
        <ele>746</ele>
        <time>2019-10-06T08:37:20.000Z</time>
      </trkpt>
      <trkpt lat="43.71779" lon="6.80209">
        <ele>745</ele>
        <time>2019-10-06T08:37:22.000Z</time>
      </trkpt>
      <trkpt lat="43.71775" lon="6.80212">
        <ele>743.40002441406</ele>
        <time>2019-10-06T08:37:24.000Z</time>
      </trkpt>
      <trkpt lat="43.71771" lon="6.80214">
        <ele>742</ele>
        <time>2019-10-06T08:37:26.000Z</time>
      </trkpt>
      <trkpt lat="43.71762" lon="6.80218">
        <ele>741.20001220703</ele>
        <time>2019-10-06T08:37:30.000Z</time>
      </trkpt>
      <trkpt lat="43.71751" lon="6.80221">
        <ele>740.20001220703</ele>
        <time>2019-10-06T08:37:34.000Z</time>
      </trkpt>
      <trkpt lat="43.71748" lon="6.80223">
        <ele>739.79998779297</ele>
        <time>2019-10-06T08:37:35.000Z</time>
      </trkpt>
      <trkpt lat="43.71741" lon="6.80222">
        <ele>738.40002441406</ele>
        <time>2019-10-06T08:37:37.000Z</time>
      </trkpt>
      <trkpt lat="43.71733" lon="6.80221">
        <ele>737.20001220703</ele>
        <time>2019-10-06T08:37:39.000Z</time>
      </trkpt>
      <trkpt lat="43.71726" lon="6.80222">
        <ele>736</ele>
        <time>2019-10-06T08:37:41.000Z</time>
      </trkpt>
      <trkpt lat="43.71722" lon="6.80222">
        <ele>734.79998779297</ele>
        <time>2019-10-06T08:37:42.000Z</time>
      </trkpt>
      <trkpt lat="43.71714" lon="6.80224">
        <ele>733.40002441406</ele>
        <time>2019-10-06T08:37:44.000Z</time>
      </trkpt>
      <trkpt lat="43.71705" lon="6.80229">
        <ele>732.40002441406</ele>
        <time>2019-10-06T08:37:47.000Z</time>
      </trkpt>
      <trkpt lat="43.71699" lon="6.80233">
        <ele>731.20001220703</ele>
        <time>2019-10-06T08:37:49.000Z</time>
      </trkpt>
      <trkpt lat="43.71691" lon="6.80239">
        <ele>729.79998779297</ele>
        <time>2019-10-06T08:37:51.000Z</time>
      </trkpt>
      <trkpt lat="43.71684" lon="6.80252">
        <ele>728.40002441406</ele>
        <time>2019-10-06T08:37:54.000Z</time>
      </trkpt>
      <trkpt lat="43.71679" lon="6.8026">
        <ele>727.20001220703</ele>
        <time>2019-10-06T08:37:56.000Z</time>
      </trkpt>
      <trkpt lat="43.71675" lon="6.80268">
        <ele>726.20001220703</ele>
        <time>2019-10-06T08:37:58.000Z</time>
      </trkpt>
      <trkpt lat="43.71669" lon="6.80276">
        <ele>724.59997558594</ele>
        <time>2019-10-06T08:38:00.000Z</time>
      </trkpt>
      <trkpt lat="43.71662" lon="6.80285">
        <ele>723.40002441406</ele>
        <time>2019-10-06T08:38:02.000Z</time>
      </trkpt>
      <trkpt lat="43.71655" lon="6.80294">
        <ele>722.20001220703</ele>
        <time>2019-10-06T08:38:04.000Z</time>
      </trkpt>
      <trkpt lat="43.71649" lon="6.80304">
        <ele>721.20001220703</ele>
        <time>2019-10-06T08:38:06.000Z</time>
      </trkpt>
      <trkpt lat="43.71639" lon="6.8032">
        <ele>720.40002441406</ele>
        <time>2019-10-06T08:38:09.000Z</time>
      </trkpt>
      <trkpt lat="43.71633" lon="6.8033">
        <ele>720.40002441406</ele>
        <time>2019-10-06T08:38:11.000Z</time>
      </trkpt>
      <trkpt lat="43.71622" lon="6.80348">
        <ele>720.59997558594</ele>
        <time>2019-10-06T08:38:14.000Z</time>
      </trkpt>
      <trkpt lat="43.71617" lon="6.80356">
        <ele>720.40002441406</ele>
        <time>2019-10-06T08:38:15.000Z</time>
      </trkpt>
      <trkpt lat="43.71609" lon="6.80374">
        <ele>719.20001220703</ele>
        <time>2019-10-06T08:38:17.000Z</time>
      </trkpt>
      <trkpt lat="43.71595" lon="6.80398">
        <ele>718</ele>
        <time>2019-10-06T08:38:20.000Z</time>
      </trkpt>
      <trkpt lat="43.71585" lon="6.80408">
        <ele>717</ele>
        <time>2019-10-06T08:38:22.000Z</time>
      </trkpt>
      <trkpt lat="43.71573" lon="6.80415">
        <ele>715.40002441406</ele>
        <time>2019-10-06T08:38:24.000Z</time>
      </trkpt>
      <trkpt lat="43.71567" lon="6.80417">
        <ele>714.59997558594</ele>
        <time>2019-10-06T08:38:25.000Z</time>
      </trkpt>
      <trkpt lat="43.71562" lon="6.80417">
        <ele>713.59997558594</ele>
        <time>2019-10-06T08:38:26.000Z</time>
      </trkpt>
      <trkpt lat="43.7155" lon="6.80409">
        <ele>712.59997558594</ele>
        <time>2019-10-06T08:38:29.000Z</time>
      </trkpt>
      <trkpt lat="43.71542" lon="6.80396">
        <ele>711.20001220703</ele>
        <time>2019-10-06T08:38:31.000Z</time>
      </trkpt>
      <trkpt lat="43.71533" lon="6.80385">
        <ele>709.59997558594</ele>
        <time>2019-10-06T08:38:33.000Z</time>
      </trkpt>
      <trkpt lat="43.71524" lon="6.8038">
        <ele>708</ele>
        <time>2019-10-06T08:38:35.000Z</time>
      </trkpt>
      <trkpt lat="43.71506" lon="6.80385">
        <ele>706.40002441406</ele>
        <time>2019-10-06T08:38:38.000Z</time>
      </trkpt>
      <trkpt lat="43.71492" lon="6.8039">
        <ele>704.59997558594</ele>
        <time>2019-10-06T08:38:40.000Z</time>
      </trkpt>
      <trkpt lat="43.71484" lon="6.80392">
        <ele>703.59997558594</ele>
        <time>2019-10-06T08:38:41.000Z</time>
      </trkpt>
      <trkpt lat="43.71476" lon="6.80392">
        <ele>702.79998779297</ele>
        <time>2019-10-06T08:38:42.000Z</time>
      </trkpt>
      <trkpt lat="43.71468" lon="6.80392">
        <ele>701.40002441406</ele>
        <time>2019-10-06T08:38:43.000Z</time>
      </trkpt>
      <trkpt lat="43.7146" lon="6.80392">
        <ele>700.79998779297</ele>
        <time>2019-10-06T08:38:44.000Z</time>
      </trkpt>
      <trkpt lat="43.71443" lon="6.80387">
        <ele>700.40002441406</ele>
        <time>2019-10-06T08:38:46.000Z</time>
      </trkpt>
      <trkpt lat="43.71419" lon="6.80378">
        <ele>699.59997558594</ele>
        <time>2019-10-06T08:38:49.000Z</time>
      </trkpt>
      <trkpt lat="43.71412" lon="6.80378">
        <ele>699</ele>
        <time>2019-10-06T08:38:50.000Z</time>
      </trkpt>
      <trkpt lat="43.71397" lon="6.8038">
        <ele>697.59997558594</ele>
        <time>2019-10-06T08:38:52.000Z</time>
      </trkpt>
      <trkpt lat="43.71389" lon="6.8038">
        <ele>696.40002441406</ele>
        <time>2019-10-06T08:38:53.000Z</time>
      </trkpt>
      <trkpt lat="43.71357" lon="6.80382">
        <ele>695.40002441406</ele>
        <time>2019-10-06T08:38:57.000Z</time>
      </trkpt>
      <trkpt lat="43.71333" lon="6.80379">
        <ele>693.59997558594</ele>
        <time>2019-10-06T08:39:00.000Z</time>
      </trkpt>
      <trkpt lat="43.71316" lon="6.80376">
        <ele>691.59997558594</ele>
        <time>2019-10-06T08:39:02.000Z</time>
      </trkpt>
      <trkpt lat="43.71308" lon="6.80375">
        <ele>691</ele>
        <time>2019-10-06T08:39:03.000Z</time>
      </trkpt>
      <trkpt lat="43.71283" lon="6.80383">
        <ele>690.40002441406</ele>
        <time>2019-10-06T08:39:06.000Z</time>
      </trkpt>
      <trkpt lat="43.71269" lon="6.80395">
        <ele>689.20001220703</ele>
        <time>2019-10-06T08:39:08.000Z</time>
      </trkpt>
      <trkpt lat="43.71257" lon="6.8041">
        <ele>688.20001220703</ele>
        <time>2019-10-06T08:39:10.000Z</time>
      </trkpt>
      <trkpt lat="43.71248" lon="6.80427">
        <ele>687.20001220703</ele>
        <time>2019-10-06T08:39:12.000Z</time>
      </trkpt>
      <trkpt lat="43.71237" lon="6.80441">
        <ele>685.79998779297</ele>
        <time>2019-10-06T08:39:14.000Z</time>
      </trkpt>
      <trkpt lat="43.71212" lon="6.80451">
        <ele>684.20001220703</ele>
        <time>2019-10-06T08:39:18.000Z</time>
      </trkpt>
      <trkpt lat="43.71206" lon="6.80452">
        <ele>683.59997558594</ele>
        <time>2019-10-06T08:39:19.000Z</time>
      </trkpt>
      <trkpt lat="43.712" lon="6.80453">
        <ele>682.40002441406</ele>
        <time>2019-10-06T08:39:20.000Z</time>
      </trkpt>
      <trkpt lat="43.71193" lon="6.80454">
        <ele>681.20001220703</ele>
        <time>2019-10-06T08:39:21.000Z</time>
      </trkpt>
      <trkpt lat="43.7118" lon="6.80457">
        <ele>680.20001220703</ele>
        <time>2019-10-06T08:39:23.000Z</time>
      </trkpt>
      <trkpt lat="43.71174" lon="6.80459">
        <ele>678.79998779297</ele>
        <time>2019-10-06T08:39:24.000Z</time>
      </trkpt>
      <trkpt lat="43.71169" lon="6.80462">
        <ele>677</ele>
        <time>2019-10-06T08:39:25.000Z</time>
      </trkpt>
      <trkpt lat="43.71163" lon="6.80465">
        <ele>675.79998779297</ele>
        <time>2019-10-06T08:39:26.000Z</time>
      </trkpt>
      <trkpt lat="43.71158" lon="6.80468">
        <ele>674.59997558594</ele>
        <time>2019-10-06T08:39:27.000Z</time>
      </trkpt>
      <trkpt lat="43.71149" lon="6.80471">
        <ele>672.40002441406</ele>
        <time>2019-10-06T08:39:29.000Z</time>
      </trkpt>
      <trkpt lat="43.71137" lon="6.80473">
        <ele>670.59997558594</ele>
        <time>2019-10-06T08:39:31.000Z</time>
      </trkpt>
      <trkpt lat="43.71125" lon="6.80474">
        <ele>669.20001220703</ele>
        <time>2019-10-06T08:39:33.000Z</time>
      </trkpt>
      <trkpt lat="43.71119" lon="6.80475">
        <ele>668</ele>
        <time>2019-10-06T08:39:34.000Z</time>
      </trkpt>
      <trkpt lat="43.71113" lon="6.80475">
        <ele>666.59997558594</ele>
        <time>2019-10-06T08:39:35.000Z</time>
      </trkpt>
      <trkpt lat="43.71106" lon="6.80474">
        <ele>665.20001220703</ele>
        <time>2019-10-06T08:39:36.000Z</time>
      </trkpt>
      <trkpt lat="43.71094" lon="6.8047">
        <ele>663</ele>
        <time>2019-10-06T08:39:38.000Z</time>
      </trkpt>
      <trkpt lat="43.71087" lon="6.80467">
        <ele>662</ele>
        <time>2019-10-06T08:39:39.000Z</time>
      </trkpt>
      <trkpt lat="43.7108" lon="6.80465">
        <ele>661.20001220703</ele>
        <time>2019-10-06T08:39:40.000Z</time>
      </trkpt>
      <trkpt lat="43.71073" lon="6.80465">
        <ele>660</ele>
        <time>2019-10-06T08:39:41.000Z</time>
      </trkpt>
      <trkpt lat="43.71068" lon="6.80467">
        <ele>658.79998779297</ele>
        <time>2019-10-06T08:39:42.000Z</time>
      </trkpt>
      <trkpt lat="43.71063" lon="6.80469">
        <ele>657.59997558594</ele>
        <time>2019-10-06T08:39:43.000Z</time>
      </trkpt>
      <trkpt lat="43.71058" lon="6.80472">
        <ele>656.79998779297</ele>
        <time>2019-10-06T08:39:44.000Z</time>
      </trkpt>
      <trkpt lat="43.71054" lon="6.80476">
        <ele>656</ele>
        <time>2019-10-06T08:39:45.000Z</time>
      </trkpt>
      <trkpt lat="43.7105" lon="6.80481">
        <ele>655</ele>
        <time>2019-10-06T08:39:46.000Z</time>
      </trkpt>
      <trkpt lat="43.71047" lon="6.80492">
        <ele>653.40002441406</ele>
        <time>2019-10-06T08:39:48.000Z</time>
      </trkpt>
      <trkpt lat="43.71048" lon="6.80503">
        <ele>651.79998779297</ele>
        <time>2019-10-06T08:39:50.000Z</time>
      </trkpt>
      <trkpt lat="43.7105" lon="6.80509">
        <ele>650.59997558594</ele>
        <time>2019-10-06T08:39:51.000Z</time>
      </trkpt>
      <trkpt lat="43.71051" lon="6.80514">
        <ele>649.40002441406</ele>
        <time>2019-10-06T08:39:52.000Z</time>
      </trkpt>
      <trkpt lat="43.71054" lon="6.8052">
        <ele>648.40002441406</ele>
        <time>2019-10-06T08:39:53.000Z</time>
      </trkpt>
      <trkpt lat="43.71057" lon="6.80533">
        <ele>646.40002441406</ele>
        <time>2019-10-06T08:39:55.000Z</time>
      </trkpt>
      <trkpt lat="43.71059" lon="6.80539">
        <ele>645.40002441406</ele>
        <time>2019-10-06T08:39:56.000Z</time>
      </trkpt>
      <trkpt lat="43.71065" lon="6.80551">
        <ele>644.20001220703</ele>
        <time>2019-10-06T08:39:58.000Z</time>
      </trkpt>
      <trkpt lat="43.71074" lon="6.8056">
        <ele>642.79998779297</ele>
        <time>2019-10-06T08:40:00.000Z</time>
      </trkpt>
      <trkpt lat="43.71085" lon="6.80567">
        <ele>641.59997558594</ele>
        <time>2019-10-06T08:40:02.000Z</time>
      </trkpt>
      <trkpt lat="43.71099" lon="6.80573">
        <ele>640.59997558594</ele>
        <time>2019-10-06T08:40:04.000Z</time>
      </trkpt>
      <trkpt lat="43.71111" lon="6.80577">
        <ele>639.20001220703</ele>
        <time>2019-10-06T08:40:06.000Z</time>
      </trkpt>
      <trkpt lat="43.71118" lon="6.80578">
        <ele>638.79998779297</ele>
        <time>2019-10-06T08:40:07.000Z</time>
      </trkpt>
      <trkpt lat="43.71125" lon="6.80578">
        <ele>637.59997558594</ele>
        <time>2019-10-06T08:40:08.000Z</time>
      </trkpt>
      <trkpt lat="43.71132" lon="6.80577">
        <ele>636.40002441406</ele>
        <time>2019-10-06T08:40:09.000Z</time>
      </trkpt>
      <trkpt lat="43.71139" lon="6.80575">
        <ele>635.20001220703</ele>
        <time>2019-10-06T08:40:10.000Z</time>
      </trkpt>
      <trkpt lat="43.71146" lon="6.8057">
        <ele>634.59997558594</ele>
        <time>2019-10-06T08:40:11.000Z</time>
      </trkpt>
      <trkpt lat="43.71153" lon="6.80565">
        <ele>633.79998779297</ele>
        <time>2019-10-06T08:40:12.000Z</time>
      </trkpt>
      <trkpt lat="43.71158" lon="6.80558">
        <ele>633.20001220703</ele>
        <time>2019-10-06T08:40:13.000Z</time>
      </trkpt>
      <trkpt lat="43.71164" lon="6.80552">
        <ele>632.59997558594</ele>
        <time>2019-10-06T08:40:14.000Z</time>
      </trkpt>
      <trkpt lat="43.71174" lon="6.80541">
        <ele>631.79998779297</ele>
        <time>2019-10-06T08:40:16.000Z</time>
      </trkpt>
      <trkpt lat="43.71179" lon="6.80538">
        <ele>631.40002441406</ele>
        <time>2019-10-06T08:40:17.000Z</time>
      </trkpt>
      <trkpt lat="43.71188" lon="6.80539">
        <ele>630.20001220703</ele>
        <time>2019-10-06T08:40:19.000Z</time>
      </trkpt>
      <trkpt lat="43.71186" lon="6.80553">
        <ele>629</ele>
        <time>2019-10-06T08:40:23.000Z</time>
      </trkpt>
      <trkpt lat="43.71174" lon="6.80566">
        <ele>627.40002441406</ele>
        <time>2019-10-06T08:40:26.000Z</time>
      </trkpt>
      <trkpt lat="43.7117" lon="6.80584">
        <ele>626</ele>
        <time>2019-10-06T08:40:29.000Z</time>
      </trkpt>
      <trkpt lat="43.71174" lon="6.80601">
        <ele>625.40002441406</ele>
        <time>2019-10-06T08:40:31.000Z</time>
      </trkpt>
      <trkpt lat="43.71176" lon="6.8061">
        <ele>625</ele>
        <time>2019-10-06T08:40:32.000Z</time>
      </trkpt>
      <trkpt lat="43.71177" lon="6.8062">
        <ele>624.79998779297</ele>
        <time>2019-10-06T08:40:33.000Z</time>
      </trkpt>
      <trkpt lat="43.71176" lon="6.80662">
        <ele>624.79998779297</ele>
        <time>2019-10-06T08:40:37.000Z</time>
      </trkpt>
      <trkpt lat="43.7116" lon="6.80717">
        <ele>626.20001220703</ele>
        <time>2019-10-06T08:40:44.000Z</time>
      </trkpt>
      <trkpt lat="43.71158" lon="6.80724">
        <ele>626.40002441406</ele>
        <time>2019-10-06T08:40:45.000Z</time>
      </trkpt>
      <trkpt lat="43.71155" lon="6.80729">
        <ele>626.59997558594</ele>
        <time>2019-10-06T08:40:46.000Z</time>
      </trkpt>
      <trkpt lat="43.71148" lon="6.80737">
        <ele>626.79998779297</ele>
        <time>2019-10-06T08:40:48.000Z</time>
      </trkpt>
      <trkpt lat="43.71145" lon="6.8074">
        <ele>626.79998779297</ele>
        <time>2019-10-06T08:40:49.000Z</time>
      </trkpt>
      <trkpt lat="43.71139" lon="6.80744">
        <ele>627.59997558594</ele>
        <time>2019-10-06T08:40:51.000Z</time>
      </trkpt>
      <trkpt lat="43.71132" lon="6.80749">
        <ele>628.20001220703</ele>
        <time>2019-10-06T08:40:53.000Z</time>
      </trkpt>
      <trkpt lat="43.71127" lon="6.80754">
        <ele>628.79998779297</ele>
        <time>2019-10-06T08:40:55.000Z</time>
      </trkpt>
      <trkpt lat="43.71118" lon="6.8076">
        <ele>629.40002441406</ele>
        <time>2019-10-06T08:40:58.000Z</time>
      </trkpt>
      <trkpt lat="43.71107" lon="6.80765">
        <ele>629.79998779297</ele>
        <time>2019-10-06T08:41:01.000Z</time>
      </trkpt>
      <trkpt lat="43.71058" lon="6.80755">
        <ele>629.79998779297</ele>
        <time>2019-10-06T08:41:11.000Z</time>
      </trkpt>
      <trkpt lat="43.71031" lon="6.8075">
        <ele>630.59997558594</ele>
        <time>2019-10-06T08:41:20.000Z</time>
      </trkpt>
      <trkpt lat="43.71017" lon="6.80746">
        <ele>631.79998779297</ele>
        <time>2019-10-06T08:41:26.000Z</time>
      </trkpt>
      <trkpt lat="43.71015" lon="6.80745">
        <ele>632.20001220703</ele>
        <time>2019-10-06T08:41:27.000Z</time>
      </trkpt>
      <trkpt lat="43.70999" lon="6.80747">
        <ele>633</ele>
        <time>2019-10-06T08:41:33.000Z</time>
      </trkpt>
      <trkpt lat="43.70988" lon="6.80744">
        <ele>633.20001220703</ele>
        <time>2019-10-06T08:41:36.000Z</time>
      </trkpt>
      <trkpt lat="43.70984" lon="6.80744">
        <ele>633.40002441406</ele>
        <time>2019-10-06T08:41:37.000Z</time>
      </trkpt>
      <trkpt lat="43.70981" lon="6.80744">
        <ele>633.59997558594</ele>
        <time>2019-10-06T08:41:38.000Z</time>
      </trkpt>
      <trkpt lat="43.70968" lon="6.80748">
        <ele>633.20001220703</ele>
        <time>2019-10-06T08:41:42.000Z</time>
      </trkpt>
      <trkpt lat="43.70964" lon="6.80748">
        <ele>633</ele>
        <time>2019-10-06T08:41:43.000Z</time>
      </trkpt>
      <trkpt lat="43.70959" lon="6.8075">
        <ele>632.79998779297</ele>
        <time>2019-10-06T08:41:44.000Z</time>
      </trkpt>
      <trkpt lat="43.70948" lon="6.80755">
        <ele>632.40002441406</ele>
        <time>2019-10-06T08:41:46.000Z</time>
      </trkpt>
      <trkpt lat="43.70942" lon="6.80759">
        <ele>632.20001220703</ele>
        <time>2019-10-06T08:41:47.000Z</time>
      </trkpt>
      <trkpt lat="43.70927" lon="6.80774">
        <ele>631.79998779297</ele>
        <time>2019-10-06T08:41:50.000Z</time>
      </trkpt>
      <trkpt lat="43.70916" lon="6.80785">
        <ele>631</ele>
        <time>2019-10-06T08:41:52.000Z</time>
      </trkpt>
      <trkpt lat="43.70906" lon="6.80795">
        <ele>630.20001220703</ele>
        <time>2019-10-06T08:41:54.000Z</time>
      </trkpt>
      <trkpt lat="43.709" lon="6.80797">
        <ele>629.59997558594</ele>
        <time>2019-10-06T08:41:55.000Z</time>
      </trkpt>
      <trkpt lat="43.70853" lon="6.80792">
        <ele>629</ele>
        <time>2019-10-06T08:42:02.000Z</time>
      </trkpt>
      <trkpt lat="43.70841" lon="6.80796">
        <ele>629.20001220703</ele>
        <time>2019-10-06T08:42:04.000Z</time>
      </trkpt>
      <trkpt lat="43.70824" lon="6.8081">
        <ele>630.40002441406</ele>
        <time>2019-10-06T08:42:09.000Z</time>
      </trkpt>
      <trkpt lat="43.7082" lon="6.80815">
        <ele>631</ele>
        <time>2019-10-06T08:42:11.000Z</time>
      </trkpt>
      <trkpt lat="43.7081" lon="6.80824">
        <ele>631.40002441406</ele>
        <time>2019-10-06T08:42:16.000Z</time>
      </trkpt>
      <trkpt lat="43.70805" lon="6.80827">
        <ele>632</ele>
        <time>2019-10-06T08:42:19.000Z</time>
      </trkpt>
      <trkpt lat="43.70796" lon="6.80832">
        <ele>633.40002441406</ele>
        <time>2019-10-06T08:42:24.000Z</time>
      </trkpt>
      <trkpt lat="43.70788" lon="6.8084">
        <ele>635</ele>
        <time>2019-10-06T08:42:29.000Z</time>
      </trkpt>
      <trkpt lat="43.70779" lon="6.80846">
        <ele>636</ele>
        <time>2019-10-06T08:42:34.000Z</time>
      </trkpt>
      <trkpt lat="43.70773" lon="6.80849">
        <ele>637</ele>
        <time>2019-10-06T08:42:37.000Z</time>
      </trkpt>
      <trkpt lat="43.70762" lon="6.80854">
        <ele>638</ele>
        <time>2019-10-06T08:42:42.000Z</time>
      </trkpt>
      <trkpt lat="43.70753" lon="6.80857">
        <ele>639.40002441406</ele>
        <time>2019-10-06T08:42:47.000Z</time>
      </trkpt>
      <trkpt lat="43.7074" lon="6.8086">
        <ele>640.59997558594</ele>
        <time>2019-10-06T08:42:54.000Z</time>
      </trkpt>
      <trkpt lat="43.70716" lon="6.80854">
        <ele>641.79998779297</ele>
        <time>2019-10-06T08:43:04.000Z</time>
      </trkpt>
      <trkpt lat="43.70706" lon="6.8085">
        <ele>643</ele>
        <time>2019-10-06T08:43:08.000Z</time>
      </trkpt>
      <trkpt lat="43.70698" lon="6.80845">
        <ele>643.59997558594</ele>
        <time>2019-10-06T08:43:12.000Z</time>
      </trkpt>
      <trkpt lat="43.70694" lon="6.80843">
        <ele>644</ele>
        <time>2019-10-06T08:43:14.000Z</time>
      </trkpt>
      <trkpt lat="43.7064" lon="6.80828">
        <ele>644</ele>
        <time>2019-10-06T08:43:31.000Z</time>
      </trkpt>
      <trkpt lat="43.70587" lon="6.80808">
        <ele>643.59997558594</ele>
        <time>2019-10-06T08:43:45.000Z</time>
      </trkpt>
      <trkpt lat="43.70567" lon="6.80795">
        <ele>644.20001220703</ele>
        <time>2019-10-06T08:43:51.000Z</time>
      </trkpt>
      <trkpt lat="43.70562" lon="6.8079">
        <ele>644.20001220703</ele>
        <time>2019-10-06T08:43:53.000Z</time>
      </trkpt>
      <trkpt lat="43.70536" lon="6.80736">
        <ele>643.59997558594</ele>
        <time>2019-10-06T08:44:10.000Z</time>
      </trkpt>
      <trkpt lat="43.70529" lon="6.80711">
        <ele>643.40002441406</ele>
        <time>2019-10-06T08:44:19.000Z</time>
      </trkpt>
      <trkpt lat="43.70522" lon="6.80686">
        <ele>643.40002441406</ele>
        <time>2019-10-06T08:44:26.000Z</time>
      </trkpt>
      <trkpt lat="43.70517" lon="6.80677">
        <ele>643.40002441406</ele>
        <time>2019-10-06T08:44:28.000Z</time>
      </trkpt>
      <trkpt lat="43.705" lon="6.80621">
        <ele>644.20001220703</ele>
        <time>2019-10-06T08:44:42.000Z</time>
      </trkpt>
      <trkpt lat="43.70474" lon="6.80571">
        <ele>643.79998779297</ele>
        <time>2019-10-06T08:44:54.000Z</time>
      </trkpt>
      <trkpt lat="43.70452" lon="6.80549">
        <ele>643.40002441406</ele>
        <time>2019-10-06T08:45:00.000Z</time>
      </trkpt>
      <trkpt lat="43.70426" lon="6.80558">
        <ele>642.79998779297</ele>
        <time>2019-10-06T08:45:08.000Z</time>
      </trkpt>
      <trkpt lat="43.70411" lon="6.80572">
        <ele>642.79998779297</ele>
        <time>2019-10-06T08:45:22.000Z</time>
      </trkpt>
      <trkpt lat="43.70406" lon="6.80577">
        <ele>643</ele>
        <time>2019-10-06T08:45:29.000Z</time>
      </trkpt>
      <trkpt lat="43.70394" lon="6.80582">
        <ele>642.79998779297</ele>
        <time>2019-10-06T08:45:33.000Z</time>
      </trkpt>
      <trkpt lat="43.70386" lon="6.80573">
        <ele>643</ele>
        <time>2019-10-06T08:45:37.000Z</time>
      </trkpt>
      <trkpt lat="43.70385" lon="6.80564">
        <ele>642.79998779297</ele>
        <time>2019-10-06T08:45:39.000Z</time>
      </trkpt>
      <trkpt lat="43.70375" lon="6.80522">
        <ele>642.79998779297</ele>
        <time>2019-10-06T08:45:47.000Z</time>
      </trkpt>
      <trkpt lat="43.70373" lon="6.80497">
        <ele>642.40002441406</ele>
        <time>2019-10-06T08:45:51.000Z</time>
      </trkpt>
      <trkpt lat="43.7037" lon="6.8047">
        <ele>642.59997558594</ele>
        <time>2019-10-06T08:45:55.000Z</time>
      </trkpt>
      <trkpt lat="43.70355" lon="6.80399">
        <ele>642.40002441406</ele>
        <time>2019-10-06T08:46:06.000Z</time>
      </trkpt>
      <trkpt lat="43.70337" lon="6.80373">
        <ele>642.40002441406</ele>
        <time>2019-10-06T08:46:11.000Z</time>
      </trkpt>
      <trkpt lat="43.70322" lon="6.80332">
        <ele>642.40002441406</ele>
        <time>2019-10-06T08:46:18.000Z</time>
      </trkpt>
      <trkpt lat="43.70307" lon="6.80315">
        <ele>642.59997558594</ele>
        <time>2019-10-06T08:46:22.000Z</time>
      </trkpt>
      <trkpt lat="43.703" lon="6.8031">
        <ele>644.20001220703</ele>
        <time>2019-10-06T08:46:33.000Z</time>
      </trkpt>
      <trkpt lat="43.70298" lon="6.8031">
        <ele>645.20001220703</ele>
        <time>2019-10-06T08:46:43.000Z</time>
      </trkpt>
      <trkpt lat="43.70298" lon="6.8031">
        <ele>646.59997558594</ele>
        <time>2019-10-06T08:46:53.000Z</time>
      </trkpt>
      <trkpt lat="43.70298" lon="6.8031">
        <ele>647.79998779297</ele>
        <time>2019-10-06T08:47:00.000Z</time>
      </trkpt>
      <trkpt lat="43.70297" lon="6.8031">
        <ele>648.79998779297</ele>
        <time>2019-10-06T08:47:05.000Z</time>
      </trkpt>
      <trkpt lat="43.70292" lon="6.8031">
        <ele>649.79998779297</ele>
        <time>2019-10-06T08:47:11.000Z</time>
      </trkpt>
      <trkpt lat="43.70274" lon="6.80315">
        <ele>649.59997558594</ele>
        <time>2019-10-06T08:47:20.000Z</time>
      </trkpt>
      <trkpt lat="43.70241" lon="6.80331">
        <ele>648.59997558594</ele>
        <time>2019-10-06T08:47:30.000Z</time>
      </trkpt>
      <trkpt lat="43.70238" lon="6.80329">
        <ele>648.40002441406</ele>
        <time>2019-10-06T08:47:31.000Z</time>
      </trkpt>
      <trkpt lat="43.70235" lon="6.80327">
        <ele>647.79998779297</ele>
        <time>2019-10-06T08:47:32.000Z</time>
      </trkpt>
      <trkpt lat="43.70229" lon="6.8032">
        <ele>646</ele>
        <time>2019-10-06T08:47:34.000Z</time>
      </trkpt>
      <trkpt lat="43.70228" lon="6.80316">
        <ele>644.79998779297</ele>
        <time>2019-10-06T08:47:35.000Z</time>
      </trkpt>
      <trkpt lat="43.70223" lon="6.80306">
        <ele>643.59997558594</ele>
        <time>2019-10-06T08:47:37.000Z</time>
      </trkpt>
      <trkpt lat="43.70219" lon="6.803">
        <ele>643.40002441406</ele>
        <time>2019-10-06T08:47:38.000Z</time>
      </trkpt>
      <trkpt lat="43.70208" lon="6.80282">
        <ele>642.40002441406</ele>
        <time>2019-10-06T08:47:44.000Z</time>
      </trkpt>
      <trkpt lat="43.70206" lon="6.80277">
        <ele>642.59997558594</ele>
        <time>2019-10-06T08:47:47.000Z</time>
      </trkpt>
      <trkpt lat="43.70203" lon="6.80271">
        <ele>642.59997558594</ele>
        <time>2019-10-06T08:47:53.000Z</time>
      </trkpt>
      <trkpt lat="43.70202" lon="6.80259">
        <ele>641.20001220703</ele>
        <time>2019-10-06T08:48:06.000Z</time>
      </trkpt>
      <trkpt lat="43.70202" lon="6.80257">
        <ele>641</ele>
        <time>2019-10-06T08:48:07.000Z</time>
      </trkpt>
      <trkpt lat="43.70202" lon="6.80246">
        <ele>640.79998779297</ele>
        <time>2019-10-06T08:48:11.000Z</time>
      </trkpt>
      <trkpt lat="43.702" lon="6.80237">
        <ele>640.59997558594</ele>
        <time>2019-10-06T08:48:13.000Z</time>
      </trkpt>
      <trkpt lat="43.70198" lon="6.80226">
        <ele>640.59997558594</ele>
        <time>2019-10-06T08:48:17.000Z</time>
      </trkpt>
      <trkpt lat="43.7017" lon="6.80159">
        <ele>640.40002441406</ele>
        <time>2019-10-06T08:48:33.000Z</time>
      </trkpt>
      <trkpt lat="43.70161" lon="6.80151">
        <ele>641</ele>
        <time>2019-10-06T08:48:51.000Z</time>
      </trkpt>
      <trkpt lat="43.70161" lon="6.80151">
        <ele>641</ele>
        <time>2019-10-06T08:48:52.000Z</time>
      </trkpt>
      <trkpt lat="43.70161" lon="6.80151">
        <ele>641.40002441406</ele>
        <time>2019-10-06T08:49:01.000Z</time>
      </trkpt>
      <trkpt lat="43.70159" lon="6.80148">
        <ele>642</ele>
        <time>2019-10-06T08:49:28.000Z</time>
      </trkpt>
      <trkpt lat="43.70159" lon="6.80148">
        <ele>641.79998779297</ele>
        <time>2019-10-06T08:49:30.000Z</time>
      </trkpt>
      <trkpt lat="43.70159" lon="6.80147">
        <ele>641.59997558594</ele>
        <time>2019-10-06T08:49:40.000Z</time>
      </trkpt>
      <trkpt lat="43.70158" lon="6.80146">
        <ele>641.40002441406</ele>
        <time>2019-10-06T08:49:54.000Z</time>
      </trkpt>
      <trkpt lat="43.70158" lon="6.80146">
        <ele>640.79998779297</ele>
        <time>2019-10-06T08:50:05.000Z</time>
      </trkpt>
      <trkpt lat="43.70158" lon="6.80146">
        <ele>640.79998779297</ele>
        <time>2019-10-06T08:50:09.000Z</time>
      </trkpt>
      <trkpt lat="43.70158" lon="6.80146">
        <ele>640.59997558594</ele>
        <time>2019-10-06T08:50:13.000Z</time>
      </trkpt>
      <trkpt lat="43.70158" lon="6.80145">
        <ele>639.20001220703</ele>
        <time>2019-10-06T08:50:17.000Z</time>
      </trkpt>
      <trkpt lat="43.70158" lon="6.80145">
        <ele>638.40002441406</ele>
        <time>2019-10-06T08:50:20.000Z</time>
      </trkpt>
      <trkpt lat="43.70156" lon="6.80142">
        <ele>638.20001220703</ele>
        <time>2019-10-06T08:50:22.000Z</time>
      </trkpt>
      <trkpt lat="43.70154" lon="6.80141">
        <ele>638</ele>
        <time>2019-10-06T08:50:23.000Z</time>
      </trkpt>
      <trkpt lat="43.70147" lon="6.80139">
        <ele>637.40002441406</ele>
        <time>2019-10-06T08:50:27.000Z</time>
      </trkpt>
      <trkpt lat="43.70139" lon="6.80138">
        <ele>639.20001220703</ele>
        <time>2019-10-06T08:50:35.000Z</time>
      </trkpt>
      <trkpt lat="43.70136" lon="6.80136">
        <ele>640</ele>
        <time>2019-10-06T08:50:39.000Z</time>
      </trkpt>
      <trkpt lat="43.70134" lon="6.80135">
        <ele>640.40002441406</ele>
        <time>2019-10-06T08:50:41.000Z</time>
      </trkpt>
      <trkpt lat="43.70131" lon="6.80131">
        <ele>641</ele>
        <time>2019-10-06T08:50:45.000Z</time>
      </trkpt>
      <trkpt lat="43.70125" lon="6.80126">
        <ele>641</ele>
        <time>2019-10-06T08:50:51.000Z</time>
      </trkpt>
      <trkpt lat="43.70121" lon="6.80124">
        <ele>641.79998779297</ele>
        <time>2019-10-06T08:50:54.000Z</time>
      </trkpt>
      <trkpt lat="43.70117" lon="6.80122">
        <ele>642.20001220703</ele>
        <time>2019-10-06T08:50:57.000Z</time>
      </trkpt>
      <trkpt lat="43.70115" lon="6.8012">
        <ele>642.40002441406</ele>
        <time>2019-10-06T08:50:59.000Z</time>
      </trkpt>
      <trkpt lat="43.70109" lon="6.80113">
        <ele>642.79998779297</ele>
        <time>2019-10-06T08:51:07.000Z</time>
      </trkpt>
      <trkpt lat="43.70105" lon="6.8011">
        <ele>643.79998779297</ele>
        <time>2019-10-06T08:51:15.000Z</time>
      </trkpt>
      <trkpt lat="43.70104" lon="6.8011">
        <ele>644</ele>
        <time>2019-10-06T08:51:17.000Z</time>
      </trkpt>
      <trkpt lat="43.70103" lon="6.80109">
        <ele>644</ele>
        <time>2019-10-06T08:51:19.000Z</time>
      </trkpt>
      <trkpt lat="43.70097" lon="6.80108">
        <ele>643.20001220703</ele>
        <time>2019-10-06T08:51:31.000Z</time>
      </trkpt>
      <trkpt lat="43.70096" lon="6.80108">
        <ele>642.79998779297</ele>
        <time>2019-10-06T08:51:32.000Z</time>
      </trkpt>
      <trkpt lat="43.70095" lon="6.80107">
        <ele>642.40002441406</ele>
        <time>2019-10-06T08:51:37.000Z</time>
      </trkpt>
      <trkpt lat="43.70095" lon="6.80105">
        <ele>642.40002441406</ele>
        <time>2019-10-06T08:51:47.000Z</time>
      </trkpt>
      <trkpt lat="43.70095" lon="6.80101">
        <ele>642</ele>
        <time>2019-10-06T08:51:52.000Z</time>
      </trkpt>
      <trkpt lat="43.70093" lon="6.80098">
        <ele>640.79998779297</ele>
        <time>2019-10-06T08:51:56.000Z</time>
      </trkpt>
      <trkpt lat="43.7009" lon="6.80098">
        <ele>639.79998779297</ele>
        <time>2019-10-06T08:51:59.000Z</time>
      </trkpt>
      <trkpt lat="43.70085" lon="6.80099">
        <ele>639.59997558594</ele>
        <time>2019-10-06T08:52:04.000Z</time>
      </trkpt>
      <trkpt lat="43.70079" lon="6.80102">
        <ele>641</ele>
        <time>2019-10-06T08:52:15.000Z</time>
      </trkpt>
      <trkpt lat="43.70076" lon="6.80105">
        <ele>642.40002441406</ele>
        <time>2019-10-06T08:52:21.000Z</time>
      </trkpt>
      <trkpt lat="43.70073" lon="6.80106">
        <ele>643.40002441406</ele>
        <time>2019-10-06T08:52:25.000Z</time>
      </trkpt>
      <trkpt lat="43.70064" lon="6.80107">
        <ele>644</ele>
        <time>2019-10-06T08:52:34.000Z</time>
      </trkpt>
      <trkpt lat="43.70056" lon="6.80108">
        <ele>642</ele>
        <time>2019-10-06T08:52:38.000Z</time>
      </trkpt>
      <trkpt lat="43.70051" lon="6.80108">
        <ele>641.59997558594</ele>
        <time>2019-10-06T08:52:39.000Z</time>
      </trkpt>
      <trkpt lat="43.70047" lon="6.8011">
        <ele>641.20001220703</ele>
        <time>2019-10-06T08:52:40.000Z</time>
      </trkpt>
      <trkpt lat="43.70043" lon="6.80113">
        <ele>641</ele>
        <time>2019-10-06T08:52:41.000Z</time>
      </trkpt>
      <trkpt lat="43.70031" lon="6.80122">
        <ele>640.59997558594</ele>
        <time>2019-10-06T08:52:45.000Z</time>
      </trkpt>
      <trkpt lat="43.70019" lon="6.80125">
        <ele>640.59997558594</ele>
        <time>2019-10-06T08:52:49.000Z</time>
      </trkpt>
      <trkpt lat="43.70017" lon="6.80126">
        <ele>640.79998779297</ele>
        <time>2019-10-06T08:52:50.000Z</time>
      </trkpt>
      <trkpt lat="43.70015" lon="6.80127">
        <ele>640.79998779297</ele>
        <time>2019-10-06T08:52:51.000Z</time>
      </trkpt>
      <trkpt lat="43.70011" lon="6.80127">
        <ele>641</ele>
        <time>2019-10-06T08:52:53.000Z</time>
      </trkpt>
      <trkpt lat="43.69995" lon="6.8013">
        <ele>642</ele>
        <time>2019-10-06T08:53:00.000Z</time>
      </trkpt>
      <trkpt lat="43.69987" lon="6.80129">
        <ele>643.40002441406</ele>
        <time>2019-10-06T08:53:04.000Z</time>
      </trkpt>
      <trkpt lat="43.69983" lon="6.80124">
        <ele>644.40002441406</ele>
        <time>2019-10-06T08:53:12.000Z</time>
      </trkpt>
      <trkpt lat="43.69983" lon="6.80124">
        <ele>644.79998779297</ele>
        <time>2019-10-06T08:53:15.000Z</time>
      </trkpt>
      <trkpt lat="43.69982" lon="6.80124">
        <ele>645.40002441406</ele>
        <time>2019-10-06T08:53:34.000Z</time>
      </trkpt>
      <trkpt lat="43.69982" lon="6.80124">
        <ele>646.40002441406</ele>
        <time>2019-10-06T08:53:38.000Z</time>
      </trkpt>
      <trkpt lat="43.69981" lon="6.80124">
        <ele>646.59997558594</ele>
        <time>2019-10-06T08:53:40.000Z</time>
      </trkpt>
      <trkpt lat="43.69976" lon="6.80124">
        <ele>646.40002441406</ele>
        <time>2019-10-06T08:53:44.000Z</time>
      </trkpt>
      <trkpt lat="43.69966" lon="6.80126">
        <ele>646.79998779297</ele>
        <time>2019-10-06T08:53:53.000Z</time>
      </trkpt>
      <trkpt lat="43.69962" lon="6.80123">
        <ele>646.40002441406</ele>
        <time>2019-10-06T08:53:56.000Z</time>
      </trkpt>
      <trkpt lat="43.6996" lon="6.80122">
        <ele>645.79998779297</ele>
        <time>2019-10-06T08:53:58.000Z</time>
      </trkpt>
      <trkpt lat="43.69959" lon="6.8012">
        <ele>645.40002441406</ele>
        <time>2019-10-06T08:53:59.000Z</time>
      </trkpt>
      <trkpt lat="43.69954" lon="6.80114">
        <ele>644</ele>
        <time>2019-10-06T08:54:03.000Z</time>
      </trkpt>
      <trkpt lat="43.69951" lon="6.80109">
        <ele>643</ele>
        <time>2019-10-06T08:54:06.000Z</time>
      </trkpt>
      <trkpt lat="43.6995" lon="6.80107">
        <ele>642.40002441406</ele>
        <time>2019-10-06T08:54:07.000Z</time>
      </trkpt>
      <trkpt lat="43.69948" lon="6.80102">
        <ele>642.20001220703</ele>
        <time>2019-10-06T08:54:11.000Z</time>
      </trkpt>
      <trkpt lat="43.69946" lon="6.80096">
        <ele>642.79998779297</ele>
        <time>2019-10-06T08:54:15.000Z</time>
      </trkpt>
      <trkpt lat="43.69932" lon="6.80081">
        <ele>642</ele>
        <time>2019-10-06T08:54:25.000Z</time>
      </trkpt>
      <trkpt lat="43.69922" lon="6.80075">
        <ele>640.79998779297</ele>
        <time>2019-10-06T08:54:28.000Z</time>
      </trkpt>
      <trkpt lat="43.69877" lon="6.80032">
        <ele>640.59997558594</ele>
        <time>2019-10-06T08:54:50.000Z</time>
      </trkpt>
      <trkpt lat="43.69837" lon="6.79983">
        <ele>640.59997558594</ele>
        <time>2019-10-06T08:55:09.000Z</time>
      </trkpt>
      <trkpt lat="43.69819" lon="6.7998">
        <ele>639.79998779297</ele>
        <time>2019-10-06T08:55:14.000Z</time>
      </trkpt>
      <trkpt lat="43.69815" lon="6.79983">
        <ele>639.20001220703</ele>
        <time>2019-10-06T08:55:20.000Z</time>
      </trkpt>
      <trkpt lat="43.69814" lon="6.79983">
        <ele>639.59997558594</ele>
        <time>2019-10-06T08:55:26.000Z</time>
      </trkpt>
      <trkpt lat="43.6981" lon="6.79985">
        <ele>638.79998779297</ele>
        <time>2019-10-06T08:55:30.000Z</time>
      </trkpt>
      <trkpt lat="43.69805" lon="6.79986">
        <ele>638.40002441406</ele>
        <time>2019-10-06T08:55:36.000Z</time>
      </trkpt>
      <trkpt lat="43.69804" lon="6.79986">
        <ele>637.59997558594</ele>
        <time>2019-10-06T08:55:37.000Z</time>
      </trkpt>
      <trkpt lat="43.69802" lon="6.79983">
        <ele>636.40002441406</ele>
        <time>2019-10-06T08:55:39.000Z</time>
      </trkpt>
      <trkpt lat="43.69801" lon="6.79982">
        <ele>636</ele>
        <time>2019-10-06T08:55:40.000Z</time>
      </trkpt>
      <trkpt lat="43.698" lon="6.79979">
        <ele>635.40002441406</ele>
        <time>2019-10-06T08:55:42.000Z</time>
      </trkpt>
      <trkpt lat="43.69801" lon="6.79973">
        <ele>633.79998779297</ele>
        <time>2019-10-06T08:55:45.000Z</time>
      </trkpt>
      <trkpt lat="43.69801" lon="6.79969">
        <ele>632.79998779297</ele>
        <time>2019-10-06T08:55:47.000Z</time>
      </trkpt>
      <trkpt lat="43.69802" lon="6.79965">
        <ele>631.79998779297</ele>
        <time>2019-10-06T08:55:51.000Z</time>
      </trkpt>
      <trkpt lat="43.69802" lon="6.79961">
        <ele>631.40002441406</ele>
        <time>2019-10-06T08:55:53.000Z</time>
      </trkpt>
      <trkpt lat="43.698" lon="6.79961">
        <ele>630.59997558594</ele>
        <time>2019-10-06T08:55:55.000Z</time>
      </trkpt>
      <trkpt lat="43.69796" lon="6.79964">
        <ele>629.40002441406</ele>
        <time>2019-10-06T08:55:57.000Z</time>
      </trkpt>
      <trkpt lat="43.69794" lon="6.79965">
        <ele>629</ele>
        <time>2019-10-06T08:55:58.000Z</time>
      </trkpt>
      <trkpt lat="43.69792" lon="6.79965">
        <ele>628.20001220703</ele>
        <time>2019-10-06T08:55:59.000Z</time>
      </trkpt>
      <trkpt lat="43.6979" lon="6.79966">
        <ele>627.20001220703</ele>
        <time>2019-10-06T08:56:00.000Z</time>
      </trkpt>
      <trkpt lat="43.69788" lon="6.79966">
        <ele>625.59997558594</ele>
        <time>2019-10-06T08:56:02.000Z</time>
      </trkpt>
      <trkpt lat="43.69787" lon="6.79966">
        <ele>625.20001220703</ele>
        <time>2019-10-06T08:56:03.000Z</time>
      </trkpt>
      <trkpt lat="43.69786" lon="6.79965">
        <ele>624.59997558594</ele>
        <time>2019-10-06T08:56:04.000Z</time>
      </trkpt>
      <trkpt lat="43.69786" lon="6.79964">
        <ele>624.40002441406</ele>
        <time>2019-10-06T08:56:05.000Z</time>
      </trkpt>
      <trkpt lat="43.69788" lon="6.79958">
        <ele>623.20001220703</ele>
        <time>2019-10-06T08:56:09.000Z</time>
      </trkpt>
      <trkpt lat="43.69789" lon="6.79955">
        <ele>622.20001220703</ele>
        <time>2019-10-06T08:56:14.000Z</time>
      </trkpt>
      <trkpt lat="43.69783" lon="6.79952">
        <ele>621</ele>
        <time>2019-10-06T08:56:21.000Z</time>
      </trkpt>
      <trkpt lat="43.69778" lon="6.79955">
        <ele>620</ele>
        <time>2019-10-06T08:56:25.000Z</time>
      </trkpt>
      <trkpt lat="43.69778" lon="6.79952">
        <ele>618.79998779297</ele>
        <time>2019-10-06T08:56:28.000Z</time>
      </trkpt>
      <trkpt lat="43.69778" lon="6.7995">
        <ele>618.40002441406</ele>
        <time>2019-10-06T08:56:29.000Z</time>
      </trkpt>
      <trkpt lat="43.6978" lon="6.79944">
        <ele>617.59997558594</ele>
        <time>2019-10-06T08:56:31.000Z</time>
      </trkpt>
      <trkpt lat="43.6978" lon="6.79937">
        <ele>616.59997558594</ele>
        <time>2019-10-06T08:56:33.000Z</time>
      </trkpt>
      <trkpt lat="43.6978" lon="6.7993">
        <ele>615.59997558594</ele>
        <time>2019-10-06T08:56:35.000Z</time>
      </trkpt>
      <trkpt lat="43.69779" lon="6.79928">
        <ele>615</ele>
        <time>2019-10-06T08:56:36.000Z</time>
      </trkpt>
      <trkpt lat="43.69778" lon="6.79925">
        <ele>614</ele>
        <time>2019-10-06T08:56:38.000Z</time>
      </trkpt>
      <trkpt lat="43.69777" lon="6.79921">
        <ele>613</ele>
        <time>2019-10-06T08:56:47.000Z</time>
      </trkpt>
      <trkpt lat="43.69776" lon="6.79919">
        <ele>612.40002441406</ele>
        <time>2019-10-06T08:56:49.000Z</time>
      </trkpt>
      <trkpt lat="43.69775" lon="6.79919">
        <ele>612.20001220703</ele>
        <time>2019-10-06T08:56:50.000Z</time>
      </trkpt>
      <trkpt lat="43.69774" lon="6.79919">
        <ele>611.79998779297</ele>
        <time>2019-10-06T08:56:52.000Z</time>
      </trkpt>
      <trkpt lat="43.69772" lon="6.79926">
        <ele>610.79998779297</ele>
        <time>2019-10-06T08:57:02.000Z</time>
      </trkpt>
      <trkpt lat="43.69769" lon="6.79927">
        <ele>609.59997558594</ele>
        <time>2019-10-06T08:57:07.000Z</time>
      </trkpt>
      <trkpt lat="43.69765" lon="6.7993">
        <ele>608.20001220703</ele>
        <time>2019-10-06T08:57:12.000Z</time>
      </trkpt>
      <trkpt lat="43.69763" lon="6.79933">
        <ele>607.20001220703</ele>
        <time>2019-10-06T08:57:17.000Z</time>
      </trkpt>
      <trkpt lat="43.69757" lon="6.7994">
        <ele>606</ele>
        <time>2019-10-06T08:57:21.000Z</time>
      </trkpt>
      <trkpt lat="43.69755" lon="6.79944">
        <ele>605.40002441406</ele>
        <time>2019-10-06T08:57:23.000Z</time>
      </trkpt>
      <trkpt lat="43.69755" lon="6.79945">
        <ele>604.79998779297</ele>
        <time>2019-10-06T08:57:24.000Z</time>
      </trkpt>
      <trkpt lat="43.69754" lon="6.79947">
        <ele>603.59997558594</ele>
        <time>2019-10-06T08:57:28.000Z</time>
      </trkpt>
      <trkpt lat="43.69753" lon="6.7995">
        <ele>603.40002441406</ele>
        <time>2019-10-06T08:57:32.000Z</time>
      </trkpt>
      <trkpt lat="43.69751" lon="6.79949">
        <ele>602.40002441406</ele>
        <time>2019-10-06T08:57:38.000Z</time>
      </trkpt>
      <trkpt lat="43.69751" lon="6.79946">
        <ele>601.20001220703</ele>
        <time>2019-10-06T08:57:41.000Z</time>
      </trkpt>
      <trkpt lat="43.69751" lon="6.79945">
        <ele>600.79998779297</ele>
        <time>2019-10-06T08:57:42.000Z</time>
      </trkpt>
      <trkpt lat="43.69751" lon="6.79943">
        <ele>600</ele>
        <time>2019-10-06T08:57:44.000Z</time>
      </trkpt>
      <trkpt lat="43.69749" lon="6.79939">
        <ele>599</ele>
        <time>2019-10-06T08:57:48.000Z</time>
      </trkpt>
      <trkpt lat="43.69749" lon="6.79938">
        <ele>597.79998779297</ele>
        <time>2019-10-06T08:57:52.000Z</time>
      </trkpt>
      <trkpt lat="43.69746" lon="6.7994">
        <ele>596.59997558594</ele>
        <time>2019-10-06T08:57:56.000Z</time>
      </trkpt>
      <trkpt lat="43.69733" lon="6.7995">
        <ele>595.20001220703</ele>
        <time>2019-10-06T08:58:02.000Z</time>
      </trkpt>
      <trkpt lat="43.6972" lon="6.79945">
        <ele>594</ele>
        <time>2019-10-06T08:58:06.000Z</time>
      </trkpt>
      <trkpt lat="43.69711" lon="6.79942">
        <ele>594</ele>
        <time>2019-10-06T08:58:12.000Z</time>
      </trkpt>
      <trkpt lat="43.69709" lon="6.79941">
        <ele>594</ele>
        <time>2019-10-06T08:58:22.000Z</time>
      </trkpt>
      <trkpt lat="43.69706" lon="6.79942">
        <ele>595</ele>
        <time>2019-10-06T08:58:34.000Z</time>
      </trkpt>
      <trkpt lat="43.69702" lon="6.79942">
        <ele>596.40002441406</ele>
        <time>2019-10-06T08:58:39.000Z</time>
      </trkpt>
      <trkpt lat="43.697" lon="6.79942">
        <ele>597.59997558594</ele>
        <time>2019-10-06T08:58:42.000Z</time>
      </trkpt>
      <trkpt lat="43.69698" lon="6.79943">
        <ele>598.59997558594</ele>
        <time>2019-10-06T08:58:45.000Z</time>
      </trkpt>
      <trkpt lat="43.69696" lon="6.79942">
        <ele>599</ele>
        <time>2019-10-06T08:58:47.000Z</time>
      </trkpt>
      <trkpt lat="43.69696" lon="6.79941">
        <ele>599.20001220703</ele>
        <time>2019-10-06T08:58:48.000Z</time>
      </trkpt>
      <trkpt lat="43.69695" lon="6.79939">
        <ele>599.59997558594</ele>
        <time>2019-10-06T08:58:52.000Z</time>
      </trkpt>
      <trkpt lat="43.69695" lon="6.79935">
        <ele>600.79998779297</ele>
        <time>2019-10-06T08:58:57.000Z</time>
      </trkpt>
      <trkpt lat="43.69695" lon="6.79933">
        <ele>601</ele>
        <time>2019-10-06T08:58:59.000Z</time>
      </trkpt>
      <trkpt lat="43.69696" lon="6.7993">
        <ele>601.40002441406</ele>
        <time>2019-10-06T08:59:03.000Z</time>
      </trkpt>
      <trkpt lat="43.69696" lon="6.79927">
        <ele>601.40002441406</ele>
        <time>2019-10-06T08:59:07.000Z</time>
      </trkpt>
      <trkpt lat="43.69696" lon="6.79925">
        <ele>601.40002441406</ele>
        <time>2019-10-06T08:59:10.000Z</time>
      </trkpt>
      <trkpt lat="43.69688" lon="6.79905">
        <ele>601.59997558594</ele>
        <time>2019-10-06T08:59:30.000Z</time>
      </trkpt>
      <trkpt lat="43.69686" lon="6.79903">
        <ele>601.40002441406</ele>
        <time>2019-10-06T08:59:35.000Z</time>
      </trkpt>
      <trkpt lat="43.69684" lon="6.79903">
        <ele>601.79998779297</ele>
        <time>2019-10-06T08:59:43.000Z</time>
      </trkpt>
      <trkpt lat="43.69682" lon="6.79903">
        <ele>602.59997558594</ele>
        <time>2019-10-06T08:59:48.000Z</time>
      </trkpt>
      <trkpt lat="43.69681" lon="6.79904">
        <ele>602.79998779297</ele>
        <time>2019-10-06T08:59:51.000Z</time>
      </trkpt>
      <trkpt lat="43.69679" lon="6.79903">
        <ele>603</ele>
        <time>2019-10-06T08:59:52.000Z</time>
      </trkpt>
      <trkpt lat="43.69675" lon="6.79903">
        <ele>604</ele>
        <time>2019-10-06T08:59:56.000Z</time>
      </trkpt>
      <trkpt lat="43.69671" lon="6.79903">
        <ele>605.20001220703</ele>
        <time>2019-10-06T09:00:03.000Z</time>
      </trkpt>
      <trkpt lat="43.69668" lon="6.79906">
        <ele>606.59997558594</ele>
        <time>2019-10-06T09:00:08.000Z</time>
      </trkpt>
      <trkpt lat="43.69666" lon="6.79907">
        <ele>607.59997558594</ele>
        <time>2019-10-06T09:00:12.000Z</time>
      </trkpt>
      <trkpt lat="43.69663" lon="6.79907">
        <ele>608.59997558594</ele>
        <time>2019-10-06T09:00:17.000Z</time>
      </trkpt>
      <trkpt lat="43.69659" lon="6.79907">
        <ele>610</ele>
        <time>2019-10-06T09:00:23.000Z</time>
      </trkpt>
      <trkpt lat="43.69658" lon="6.79905">
        <ele>610.79998779297</ele>
        <time>2019-10-06T09:00:26.000Z</time>
      </trkpt>
      <trkpt lat="43.69655" lon="6.79905">
        <ele>611.20001220703</ele>
        <time>2019-10-06T09:00:30.000Z</time>
      </trkpt>
      <trkpt lat="43.69653" lon="6.79905">
        <ele>612.59997558594</ele>
        <time>2019-10-06T09:00:34.000Z</time>
      </trkpt>
      <trkpt lat="43.6965" lon="6.79903">
        <ele>613.79998779297</ele>
        <time>2019-10-06T09:00:38.000Z</time>
      </trkpt>
      <trkpt lat="43.69646" lon="6.79902">
        <ele>614.79998779297</ele>
        <time>2019-10-06T09:00:45.000Z</time>
      </trkpt>
      <trkpt lat="43.69645" lon="6.79903">
        <ele>615</ele>
        <time>2019-10-06T09:00:46.000Z</time>
      </trkpt>
      <trkpt lat="43.69642" lon="6.79905">
        <ele>616</ele>
        <time>2019-10-06T09:00:53.000Z</time>
      </trkpt>
      <trkpt lat="43.69639" lon="6.79903">
        <ele>617.20001220703</ele>
        <time>2019-10-06T09:00:59.000Z</time>
      </trkpt>
      <trkpt lat="43.69636" lon="6.79902">
        <ele>618.40002441406</ele>
        <time>2019-10-06T09:01:04.000Z</time>
      </trkpt>
      <trkpt lat="43.69633" lon="6.79899">
        <ele>619.40002441406</ele>
        <time>2019-10-06T09:01:10.000Z</time>
      </trkpt>
      <trkpt lat="43.69628" lon="6.79898">
        <ele>620.40002441406</ele>
        <time>2019-10-06T09:01:17.000Z</time>
      </trkpt>
      <trkpt lat="43.69628" lon="6.79898">
        <ele>620.59997558594</ele>
        <time>2019-10-06T09:01:18.000Z</time>
      </trkpt>
      <trkpt lat="43.69626" lon="6.79897">
        <ele>621</ele>
        <time>2019-10-06T09:01:20.000Z</time>
      </trkpt>
      <trkpt lat="43.69624" lon="6.79896">
        <ele>621.59997558594</ele>
        <time>2019-10-06T09:01:24.000Z</time>
      </trkpt>
      <trkpt lat="43.69621" lon="6.79894">
        <ele>622.59997558594</ele>
        <time>2019-10-06T09:01:29.000Z</time>
      </trkpt>
      <trkpt lat="43.69617" lon="6.79893">
        <ele>623.79998779297</ele>
        <time>2019-10-06T09:01:37.000Z</time>
      </trkpt>
      <trkpt lat="43.69614" lon="6.79892">
        <ele>624.79998779297</ele>
        <time>2019-10-06T09:01:43.000Z</time>
      </trkpt>
      <trkpt lat="43.6961" lon="6.7989">
        <ele>626</ele>
        <time>2019-10-06T09:01:49.000Z</time>
      </trkpt>
      <trkpt lat="43.69607" lon="6.79888">
        <ele>627</ele>
        <time>2019-10-06T09:01:55.000Z</time>
      </trkpt>
      <trkpt lat="43.69603" lon="6.79887">
        <ele>628.40002441406</ele>
        <time>2019-10-06T09:02:02.000Z</time>
      </trkpt>
      <trkpt lat="43.69599" lon="6.79885">
        <ele>629.40002441406</ele>
        <time>2019-10-06T09:02:09.000Z</time>
      </trkpt>
      <trkpt lat="43.69596" lon="6.79883">
        <ele>630.59997558594</ele>
        <time>2019-10-06T09:02:14.000Z</time>
      </trkpt>
      <trkpt lat="43.69593" lon="6.79881">
        <ele>631.59997558594</ele>
        <time>2019-10-06T09:02:22.000Z</time>
      </trkpt>
      <trkpt lat="43.69589" lon="6.79877">
        <ele>632.59997558594</ele>
        <time>2019-10-06T09:02:30.000Z</time>
      </trkpt>
      <trkpt lat="43.69586" lon="6.79873">
        <ele>634</ele>
        <time>2019-10-06T09:02:36.000Z</time>
      </trkpt>
      <trkpt lat="43.69582" lon="6.7987">
        <ele>635.20001220703</ele>
        <time>2019-10-06T09:02:43.000Z</time>
      </trkpt>
      <trkpt lat="43.69579" lon="6.79868">
        <ele>636.40002441406</ele>
        <time>2019-10-06T09:02:49.000Z</time>
      </trkpt>
      <trkpt lat="43.69577" lon="6.79867">
        <ele>637.59997558594</ele>
        <time>2019-10-06T09:02:54.000Z</time>
      </trkpt>
      <trkpt lat="43.69575" lon="6.79866">
        <ele>638.59997558594</ele>
        <time>2019-10-06T09:02:59.000Z</time>
      </trkpt>
      <trkpt lat="43.69572" lon="6.79861">
        <ele>639.59997558594</ele>
        <time>2019-10-06T09:03:08.000Z</time>
      </trkpt>
      <trkpt lat="43.6957" lon="6.7986">
        <ele>640.59997558594</ele>
        <time>2019-10-06T09:03:11.000Z</time>
      </trkpt>
      <trkpt lat="43.69568" lon="6.79858">
        <ele>641.20001220703</ele>
        <time>2019-10-06T09:03:16.000Z</time>
      </trkpt>
      <trkpt lat="43.69565" lon="6.79855">
        <ele>640.59997558594</ele>
        <time>2019-10-06T09:03:20.000Z</time>
      </trkpt>
      <trkpt lat="43.69561" lon="6.79868">
        <ele>642</ele>
        <time>2019-10-06T09:03:35.000Z</time>
      </trkpt>
      <trkpt lat="43.6956" lon="6.7987">
        <ele>642</ele>
        <time>2019-10-06T09:03:36.000Z</time>
      </trkpt>
      <trkpt lat="43.6955" lon="6.79893">
        <ele>643</ele>
        <time>2019-10-06T09:03:51.000Z</time>
      </trkpt>
      <trkpt lat="43.69537" lon="6.79923">
        <ele>641.79998779297</ele>
        <time>2019-10-06T09:04:00.000Z</time>
      </trkpt>
      <trkpt lat="43.69519" lon="6.79949">
        <ele>640.40002441406</ele>
        <time>2019-10-06T09:04:08.000Z</time>
      </trkpt>
      <trkpt lat="43.69517" lon="6.79954">
        <ele>640</ele>
        <time>2019-10-06T09:04:09.000Z</time>
      </trkpt>
      <trkpt lat="43.69519" lon="6.79973">
        <ele>639.40002441406</ele>
        <time>2019-10-06T09:04:14.000Z</time>
      </trkpt>
      <trkpt lat="43.69514" lon="6.79991">
        <ele>640</ele>
        <time>2019-10-06T09:04:20.000Z</time>
      </trkpt>
      <trkpt lat="43.6951" lon="6.79997">
        <ele>640.59997558594</ele>
        <time>2019-10-06T09:04:23.000Z</time>
      </trkpt>
      <trkpt lat="43.69506" lon="6.80005">
        <ele>641.59997558594</ele>
        <time>2019-10-06T09:04:27.000Z</time>
      </trkpt>
      <trkpt lat="43.69503" lon="6.80012">
        <ele>642.20001220703</ele>
        <time>2019-10-06T09:04:30.000Z</time>
      </trkpt>
      <trkpt lat="43.69503" lon="6.80018">
        <ele>642.79998779297</ele>
        <time>2019-10-06T09:04:34.000Z</time>
      </trkpt>
      <trkpt lat="43.69497" lon="6.80043">
        <ele>644</ele>
        <time>2019-10-06T09:04:46.000Z</time>
      </trkpt>
      <trkpt lat="43.69491" lon="6.80085">
        <ele>643.79998779297</ele>
        <time>2019-10-06T09:05:00.000Z</time>
      </trkpt>
      <trkpt lat="43.69484" lon="6.80138">
        <ele>643.59997558594</ele>
        <time>2019-10-06T09:05:11.000Z</time>
      </trkpt>
      <trkpt lat="43.69473" lon="6.80185">
        <ele>643</ele>
        <time>2019-10-06T09:05:20.000Z</time>
      </trkpt>
      <trkpt lat="43.69471" lon="6.80189">
        <ele>643</ele>
        <time>2019-10-06T09:05:21.000Z</time>
      </trkpt>
      <trkpt lat="43.6947" lon="6.80196">
        <ele>642.40002441406</ele>
        <time>2019-10-06T09:05:23.000Z</time>
      </trkpt>
      <trkpt lat="43.69468" lon="6.80202">
        <ele>642</ele>
        <time>2019-10-06T09:05:25.000Z</time>
      </trkpt>
      <trkpt lat="43.69462" lon="6.80222">
        <ele>641.79998779297</ele>
        <time>2019-10-06T09:05:31.000Z</time>
      </trkpt>
      <trkpt lat="43.69454" lon="6.80253">
        <ele>641.20001220703</ele>
        <time>2019-10-06T09:05:38.000Z</time>
      </trkpt>
      <trkpt lat="43.69451" lon="6.80265">
        <ele>640.79998779297</ele>
        <time>2019-10-06T09:05:40.000Z</time>
      </trkpt>
      <trkpt lat="43.69446" lon="6.80296">
        <ele>639.79998779297</ele>
        <time>2019-10-06T09:05:46.000Z</time>
      </trkpt>
      <trkpt lat="43.69441" lon="6.80309">
        <ele>638.40002441406</ele>
        <time>2019-10-06T09:05:49.000Z</time>
      </trkpt>
      <trkpt lat="43.69426" lon="6.80344">
        <ele>638</ele>
        <time>2019-10-06T09:05:58.000Z</time>
      </trkpt>
      <trkpt lat="43.69413" lon="6.80367">
        <ele>638</ele>
        <time>2019-10-06T09:06:04.000Z</time>
      </trkpt>
      <trkpt lat="43.69412" lon="6.80383">
        <ele>637.79998779297</ele>
        <time>2019-10-06T09:06:07.000Z</time>
      </trkpt>
      <trkpt lat="43.69411" lon="6.80389">
        <ele>637.40002441406</ele>
        <time>2019-10-06T09:06:08.000Z</time>
      </trkpt>
      <trkpt lat="43.6941" lon="6.8041">
        <ele>635.79998779297</ele>
        <time>2019-10-06T09:06:11.000Z</time>
      </trkpt>
      <trkpt lat="43.69409" lon="6.80424">
        <ele>634.79998779297</ele>
        <time>2019-10-06T09:06:13.000Z</time>
      </trkpt>
      <trkpt lat="43.6941" lon="6.8044">
        <ele>633.20001220703</ele>
        <time>2019-10-06T09:06:15.000Z</time>
      </trkpt>
      <trkpt lat="43.6941" lon="6.80457">
        <ele>632.40002441406</ele>
        <time>2019-10-06T09:06:17.000Z</time>
      </trkpt>
      <trkpt lat="43.6941" lon="6.80465">
        <ele>632.20001220703</ele>
        <time>2019-10-06T09:06:18.000Z</time>
      </trkpt>
      <trkpt lat="43.69409" lon="6.80481">
        <ele>631.20001220703</ele>
        <time>2019-10-06T09:06:25.000Z</time>
      </trkpt>
      <trkpt lat="43.6941" lon="6.80484">
        <ele>631.20001220703</ele>
        <time>2019-10-06T09:06:27.000Z</time>
      </trkpt>
      <trkpt lat="43.69405" lon="6.80493">
        <ele>631.79998779297</ele>
        <time>2019-10-06T09:06:38.000Z</time>
      </trkpt>
      <trkpt lat="43.69403" lon="6.80494">
        <ele>631.79998779297</ele>
        <time>2019-10-06T09:06:40.000Z</time>
      </trkpt>
      <trkpt lat="43.69401" lon="6.80496">
        <ele>632.20001220703</ele>
        <time>2019-10-06T09:06:42.000Z</time>
      </trkpt>
      <trkpt lat="43.69391" lon="6.80506">
        <ele>632.59997558594</ele>
        <time>2019-10-06T09:06:51.000Z</time>
      </trkpt>
      <trkpt lat="43.69387" lon="6.80508">
        <ele>632.59997558594</ele>
        <time>2019-10-06T09:06:54.000Z</time>
      </trkpt>
      <trkpt lat="43.69369" lon="6.8053">
        <ele>632</ele>
        <time>2019-10-06T09:07:12.000Z</time>
      </trkpt>
      <trkpt lat="43.69359" lon="6.80561">
        <ele>631.59997558594</ele>
        <time>2019-10-06T09:07:36.000Z</time>
      </trkpt>
      <trkpt lat="43.69362" lon="6.80582">
        <ele>630</ele>
        <time>2019-10-06T09:07:40.000Z</time>
      </trkpt>
      <trkpt lat="43.6936" lon="6.80603">
        <ele>629</ele>
        <time>2019-10-06T09:07:43.000Z</time>
      </trkpt>
      <trkpt lat="43.69356" lon="6.8064">
        <ele>627.79998779297</ele>
        <time>2019-10-06T09:07:48.000Z</time>
      </trkpt>
      <trkpt lat="43.69343" lon="6.80665">
        <ele>626.40002441406</ele>
        <time>2019-10-06T09:07:53.000Z</time>
      </trkpt>
      <trkpt lat="43.69342" lon="6.80697">
        <ele>626.40002441406</ele>
        <time>2019-10-06T09:08:00.000Z</time>
      </trkpt>
      <trkpt lat="43.69341" lon="6.80701">
        <ele>627.40002441406</ele>
        <time>2019-10-06T09:08:06.000Z</time>
      </trkpt>
      <trkpt lat="43.69341" lon="6.80704">
        <ele>628.20001220703</ele>
        <time>2019-10-06T09:08:15.000Z</time>
      </trkpt>
      <trkpt lat="43.69341" lon="6.80712">
        <ele>628.40002441406</ele>
        <time>2019-10-06T09:08:20.000Z</time>
      </trkpt>
      <trkpt lat="43.69339" lon="6.80733">
        <ele>628.59997558594</ele>
        <time>2019-10-06T09:08:27.000Z</time>
      </trkpt>
      <trkpt lat="43.69344" lon="6.8075">
        <ele>627.79998779297</ele>
        <time>2019-10-06T09:08:31.000Z</time>
      </trkpt>
      <trkpt lat="43.69345" lon="6.80758">
        <ele>627.59997558594</ele>
        <time>2019-10-06T09:08:33.000Z</time>
      </trkpt>
      <trkpt lat="43.6936" lon="6.80789">
        <ele>626.40002441406</ele>
        <time>2019-10-06T09:08:44.000Z</time>
      </trkpt>
      <trkpt lat="43.69363" lon="6.80795">
        <ele>627.59997558594</ele>
        <time>2019-10-06T09:08:59.000Z</time>
      </trkpt>
      <trkpt lat="43.6937" lon="6.80804">
        <ele>628.59997558594</ele>
        <time>2019-10-06T09:09:10.000Z</time>
      </trkpt>
      <trkpt lat="43.69373" lon="6.80814">
        <ele>628.79998779297</ele>
        <time>2019-10-06T09:09:14.000Z</time>
      </trkpt>
      <trkpt lat="43.69382" lon="6.80826">
        <ele>628</ele>
        <time>2019-10-06T09:09:22.000Z</time>
      </trkpt>
      <trkpt lat="43.69383" lon="6.80828">
        <ele>627.59997558594</ele>
        <time>2019-10-06T09:09:23.000Z</time>
      </trkpt>
      <trkpt lat="43.69388" lon="6.8084">
        <ele>627.20001220703</ele>
        <time>2019-10-06T09:09:28.000Z</time>
      </trkpt>
      <trkpt lat="43.69389" lon="6.80858">
        <ele>628</ele>
        <time>2019-10-06T09:09:37.000Z</time>
      </trkpt>
      <trkpt lat="43.69386" lon="6.80858">
        <ele>628.79998779297</ele>
        <time>2019-10-06T09:09:41.000Z</time>
      </trkpt>
      <trkpt lat="43.69384" lon="6.80862">
        <ele>629.79998779297</ele>
        <time>2019-10-06T09:09:46.000Z</time>
      </trkpt>
      <trkpt lat="43.69384" lon="6.80866">
        <ele>630</ele>
        <time>2019-10-06T09:09:48.000Z</time>
      </trkpt>
      <trkpt lat="43.69381" lon="6.80895">
        <ele>629.59997558594</ele>
        <time>2019-10-06T09:09:55.000Z</time>
      </trkpt>
      <trkpt lat="43.69379" lon="6.80902">
        <ele>628.79998779297</ele>
        <time>2019-10-06T09:09:57.000Z</time>
      </trkpt>
      <trkpt lat="43.69342" lon="6.80951">
        <ele>630</ele>
        <time>2019-10-06T09:10:15.000Z</time>
      </trkpt>
      <trkpt lat="43.69316" lon="6.8098">
        <ele>631.40002441406</ele>
        <time>2019-10-06T09:10:33.000Z</time>
      </trkpt>
      <trkpt lat="43.69316" lon="6.80982">
        <ele>632.40002441406</ele>
        <time>2019-10-06T09:10:40.000Z</time>
      </trkpt>
      <trkpt lat="43.69313" lon="6.80989">
        <ele>632.79998779297</ele>
        <time>2019-10-06T09:10:52.000Z</time>
      </trkpt>
      <trkpt lat="43.69311" lon="6.80993">
        <ele>632.79998779297</ele>
        <time>2019-10-06T09:10:55.000Z</time>
      </trkpt>
      <trkpt lat="43.69307" lon="6.80998">
        <ele>632.59997558594</ele>
        <time>2019-10-06T09:10:58.000Z</time>
      </trkpt>
      <trkpt lat="43.69298" lon="6.81014">
        <ele>632.40002441406</ele>
        <time>2019-10-06T09:11:05.000Z</time>
      </trkpt>
      <trkpt lat="43.69292" lon="6.81032">
        <ele>631.59997558594</ele>
        <time>2019-10-06T09:11:12.000Z</time>
      </trkpt>
      <trkpt lat="43.69282" lon="6.81057">
        <ele>631.79998779297</ele>
        <time>2019-10-06T09:11:20.000Z</time>
      </trkpt>
      <trkpt lat="43.6928" lon="6.81085">
        <ele>633</ele>
        <time>2019-10-06T09:11:28.000Z</time>
      </trkpt>
      <trkpt lat="43.69279" lon="6.81097">
        <ele>633.59997558594</ele>
        <time>2019-10-06T09:11:32.000Z</time>
      </trkpt>
      <trkpt lat="43.69284" lon="6.8112">
        <ele>634.79998779297</ele>
        <time>2019-10-06T09:11:42.000Z</time>
      </trkpt>
      <trkpt lat="43.69286" lon="6.81129">
        <ele>635.20001220703</ele>
        <time>2019-10-06T09:11:50.000Z</time>
      </trkpt>
      <trkpt lat="43.69287" lon="6.8114">
        <ele>634.59997558594</ele>
        <time>2019-10-06T09:11:53.000Z</time>
      </trkpt>
      <trkpt lat="43.69287" lon="6.81144">
        <ele>634.40002441406</ele>
        <time>2019-10-06T09:11:54.000Z</time>
      </trkpt>
      <trkpt lat="43.69286" lon="6.81155">
        <ele>634</ele>
        <time>2019-10-06T09:11:57.000Z</time>
      </trkpt>
      <trkpt lat="43.69286" lon="6.8117">
        <ele>635</ele>
        <time>2019-10-06T09:12:04.000Z</time>
      </trkpt>
      <trkpt lat="43.69288" lon="6.81173">
        <ele>635.79998779297</ele>
        <time>2019-10-06T09:12:06.000Z</time>
      </trkpt>
      <trkpt lat="43.69291" lon="6.81175">
        <ele>636.20001220703</ele>
        <time>2019-10-06T09:12:08.000Z</time>
      </trkpt>
      <trkpt lat="43.693" lon="6.81182">
        <ele>636.79998779297</ele>
        <time>2019-10-06T09:12:14.000Z</time>
      </trkpt>
      <trkpt lat="43.69308" lon="6.81188">
        <ele>637</ele>
        <time>2019-10-06T09:12:18.000Z</time>
      </trkpt>
      <trkpt lat="43.69311" lon="6.81192">
        <ele>637.59997558594</ele>
        <time>2019-10-06T09:12:20.000Z</time>
      </trkpt>
      <trkpt lat="43.69318" lon="6.81214">
        <ele>638.79998779297</ele>
        <time>2019-10-06T09:12:29.000Z</time>
      </trkpt>
      <trkpt lat="43.69318" lon="6.81223">
        <ele>639.20001220703</ele>
        <time>2019-10-06T09:12:33.000Z</time>
      </trkpt>
      <trkpt lat="43.69312" lon="6.81232">
        <ele>639.59997558594</ele>
        <time>2019-10-06T09:12:37.000Z</time>
      </trkpt>
      <trkpt lat="43.69311" lon="6.81234">
        <ele>639.79998779297</ele>
        <time>2019-10-06T09:12:38.000Z</time>
      </trkpt>
      <trkpt lat="43.69308" lon="6.81239">
        <ele>640</ele>
        <time>2019-10-06T09:12:41.000Z</time>
      </trkpt>
      <trkpt lat="43.69302" lon="6.81246">
        <ele>640.20001220703</ele>
        <time>2019-10-06T09:12:46.000Z</time>
      </trkpt>
      <trkpt lat="43.69298" lon="6.81253">
        <ele>640.20001220703</ele>
        <time>2019-10-06T09:12:55.000Z</time>
      </trkpt>
      <trkpt lat="43.69295" lon="6.81263">
        <ele>639.20001220703</ele>
        <time>2019-10-06T09:12:59.000Z</time>
      </trkpt>
      <trkpt lat="43.69295" lon="6.81274">
        <ele>638.79998779297</ele>
        <time>2019-10-06T09:13:02.000Z</time>
      </trkpt>
      <trkpt lat="43.69299" lon="6.8129">
        <ele>639.20001220703</ele>
        <time>2019-10-06T09:13:09.000Z</time>
      </trkpt>
      <trkpt lat="43.69295" lon="6.81294">
        <ele>640</ele>
        <time>2019-10-06T09:13:12.000Z</time>
      </trkpt>
      <trkpt lat="43.69287" lon="6.81302">
        <ele>641</ele>
        <time>2019-10-06T09:13:18.000Z</time>
      </trkpt>
      <trkpt lat="43.69285" lon="6.81305">
        <ele>641.20001220703</ele>
        <time>2019-10-06T09:13:20.000Z</time>
      </trkpt>
      <trkpt lat="43.69282" lon="6.81311">
        <ele>642</ele>
        <time>2019-10-06T09:13:23.000Z</time>
      </trkpt>
      <trkpt lat="43.6928" lon="6.81314">
        <ele>642.40002441406</ele>
        <time>2019-10-06T09:13:25.000Z</time>
      </trkpt>
      <trkpt lat="43.69271" lon="6.81324">
        <ele>643.40002441406</ele>
        <time>2019-10-06T09:13:32.000Z</time>
      </trkpt>
      <trkpt lat="43.69266" lon="6.81328">
        <ele>644</ele>
        <time>2019-10-06T09:13:36.000Z</time>
      </trkpt>
      <trkpt lat="43.69263" lon="6.81331">
        <ele>644.40002441406</ele>
        <time>2019-10-06T09:13:38.000Z</time>
      </trkpt>
      <trkpt lat="43.69258" lon="6.81342">
        <ele>645.40002441406</ele>
        <time>2019-10-06T09:13:45.000Z</time>
      </trkpt>
      <trkpt lat="43.69249" lon="6.81366">
        <ele>646.40002441406</ele>
        <time>2019-10-06T09:13:57.000Z</time>
      </trkpt>
      <trkpt lat="43.69252" lon="6.81385">
        <ele>647.59997558594</ele>
        <time>2019-10-06T09:14:05.000Z</time>
      </trkpt>
      <trkpt lat="43.69256" lon="6.81393">
        <ele>648.59997558594</ele>
        <time>2019-10-06T09:14:10.000Z</time>
      </trkpt>
      <trkpt lat="43.69259" lon="6.81394">
        <ele>649</ele>
        <time>2019-10-06T09:14:12.000Z</time>
      </trkpt>
      <trkpt lat="43.69264" lon="6.81393">
        <ele>649.79998779297</ele>
        <time>2019-10-06T09:14:16.000Z</time>
      </trkpt>
      <trkpt lat="43.69268" lon="6.81384">
        <ele>650.20001220703</ele>
        <time>2019-10-06T09:14:21.000Z</time>
      </trkpt>
      <trkpt lat="43.69295" lon="6.81347">
        <ele>648.79998779297</ele>
        <time>2019-10-06T09:14:43.000Z</time>
      </trkpt>
      <trkpt lat="43.69297" lon="6.81346">
        <ele>648.59997558594</ele>
        <time>2019-10-06T09:14:44.000Z</time>
      </trkpt>
      <trkpt lat="43.69303" lon="6.81346">
        <ele>648.79998779297</ele>
        <time>2019-10-06T09:14:48.000Z</time>
      </trkpt>
      <trkpt lat="43.69308" lon="6.81347">
        <ele>649.59997558594</ele>
        <time>2019-10-06T09:14:51.000Z</time>
      </trkpt>
      <trkpt lat="43.69311" lon="6.81358">
        <ele>650.79998779297</ele>
        <time>2019-10-06T09:14:58.000Z</time>
      </trkpt>
      <trkpt lat="43.69309" lon="6.81375">
        <ele>651.79998779297</ele>
        <time>2019-10-06T09:15:08.000Z</time>
      </trkpt>
      <trkpt lat="43.69307" lon="6.81382">
        <ele>652.20001220703</ele>
        <time>2019-10-06T09:15:12.000Z</time>
      </trkpt>
      <trkpt lat="43.69304" lon="6.81383">
        <ele>652.20001220703</ele>
        <time>2019-10-06T09:15:19.000Z</time>
      </trkpt>
      <trkpt lat="43.69296" lon="6.81387">
        <ele>651</ele>
        <time>2019-10-06T09:15:32.000Z</time>
      </trkpt>
      <trkpt lat="43.69296" lon="6.81386">
        <ele>651</ele>
        <time>2019-10-06T09:15:47.000Z</time>
      </trkpt>
      <trkpt lat="43.69296" lon="6.81386">
        <ele>650.79998779297</ele>
        <time>2019-10-06T09:15:49.000Z</time>
      </trkpt>
      <trkpt lat="43.69296" lon="6.81386">
        <ele>650.79998779297</ele>
        <time>2019-10-06T09:16:00.000Z</time>
      </trkpt>
      <trkpt lat="43.69296" lon="6.81386">
        <ele>650.79998779297</ele>
        <time>2019-10-06T09:16:04.000Z</time>
      </trkpt>
      <trkpt lat="43.69296" lon="6.81386">
        <ele>650.79998779297</ele>
        <time>2019-10-06T09:16:13.000Z</time>
      </trkpt>
      <trkpt lat="43.69296" lon="6.81386">
        <ele>651</ele>
        <time>2019-10-06T09:16:29.000Z</time>
      </trkpt>
      <trkpt lat="43.69296" lon="6.81386">
        <ele>651</ele>
        <time>2019-10-06T09:16:37.000Z</time>
      </trkpt>
      <trkpt lat="43.69296" lon="6.81386">
        <ele>650.79998779297</ele>
        <time>2019-10-06T09:16:57.000Z</time>
      </trkpt>
      <trkpt lat="43.69296" lon="6.81386">
        <ele>650.79998779297</ele>
        <time>2019-10-06T09:16:58.000Z</time>
      </trkpt>
      <trkpt lat="43.69296" lon="6.81386">
        <ele>651</ele>
        <time>2019-10-06T09:17:10.000Z</time>
      </trkpt>
      <trkpt lat="43.69296" lon="6.81386">
        <ele>651.20001220703</ele>
        <time>2019-10-06T09:17:19.000Z</time>
      </trkpt>
      <trkpt lat="43.69296" lon="6.81386">
        <ele>651.20001220703</ele>
        <time>2019-10-06T09:17:24.000Z</time>
      </trkpt>
      <trkpt lat="43.69296" lon="6.81386">
        <ele>651</ele>
        <time>2019-10-06T09:18:04.000Z</time>
      </trkpt>
      <trkpt lat="43.69296" lon="6.81386">
        <ele>651.20001220703</ele>
        <time>2019-10-06T09:18:22.000Z</time>
      </trkpt>
      <trkpt lat="43.69296" lon="6.81386">
        <ele>651.20001220703</ele>
        <time>2019-10-06T09:18:29.000Z</time>
      </trkpt>
      <trkpt lat="43.69296" lon="6.81386">
        <ele>651.20001220703</ele>
        <time>2019-10-06T09:18:30.000Z</time>
      </trkpt>
      <trkpt lat="43.69296" lon="6.81386">
        <ele>651.20001220703</ele>
        <time>2019-10-06T09:18:31.000Z</time>
      </trkpt>
      <trkpt lat="43.69296" lon="6.81386">
        <ele>651.20001220703</ele>
        <time>2019-10-06T09:18:32.000Z</time>
      </trkpt>
      <trkpt lat="43.69296" lon="6.81386">
        <ele>651.20001220703</ele>
        <time>2019-10-06T09:18:33.000Z</time>
      </trkpt>
      <trkpt lat="43.69296" lon="6.81386">
        <ele>651.20001220703</ele>
        <time>2019-10-06T09:18:35.000Z</time>
      </trkpt>
      <trkpt lat="43.69296" lon="6.81386">
        <ele>651.20001220703</ele>
        <time>2019-10-06T09:18:47.000Z</time>
      </trkpt>
      <trkpt lat="43.69279" lon="6.814">
        <ele>650.79998779297</ele>
        <time>2019-10-06T09:19:03.000Z</time>
      </trkpt>
      <trkpt lat="43.69273" lon="6.81409">
        <ele>650</ele>
        <time>2019-10-06T09:19:06.000Z</time>
      </trkpt>
      <trkpt lat="43.69271" lon="6.81411">
        <ele>650</ele>
        <time>2019-10-06T09:19:07.000Z</time>
      </trkpt>
      <trkpt lat="43.69264" lon="6.81417">
        <ele>648.79998779297</ele>
        <time>2019-10-06T09:19:11.000Z</time>
      </trkpt>
      <trkpt lat="43.69263" lon="6.81421">
        <ele>648.40002441406</ele>
        <time>2019-10-06T09:19:12.000Z</time>
      </trkpt>
      <trkpt lat="43.69263" lon="6.81425">
        <ele>648</ele>
        <time>2019-10-06T09:19:13.000Z</time>
      </trkpt>
      <trkpt lat="43.69264" lon="6.81429">
        <ele>647.20001220703</ele>
        <time>2019-10-06T09:19:14.000Z</time>
      </trkpt>
      <trkpt lat="43.69264" lon="6.81433">
        <ele>646.59997558594</ele>
        <time>2019-10-06T09:19:15.000Z</time>
      </trkpt>
      <trkpt lat="43.69265" lon="6.81437">
        <ele>645.79998779297</ele>
        <time>2019-10-06T09:19:16.000Z</time>
      </trkpt>
      <trkpt lat="43.69264" lon="6.81441">
        <ele>645.20001220703</ele>
        <time>2019-10-06T09:19:17.000Z</time>
      </trkpt>
      <trkpt lat="43.69264" lon="6.81444">
        <ele>644.79998779297</ele>
        <time>2019-10-06T09:19:18.000Z</time>
      </trkpt>
      <trkpt lat="43.69263" lon="6.81445">
        <ele>644.40002441406</ele>
        <time>2019-10-06T09:19:19.000Z</time>
      </trkpt>
      <trkpt lat="43.69261" lon="6.81445">
        <ele>643.79998779297</ele>
        <time>2019-10-06T09:19:20.000Z</time>
      </trkpt>
      <trkpt lat="43.69259" lon="6.81445">
        <ele>643.40002441406</ele>
        <time>2019-10-06T09:19:21.000Z</time>
      </trkpt>
      <trkpt lat="43.69254" lon="6.81443">
        <ele>642.79998779297</ele>
        <time>2019-10-06T09:19:23.000Z</time>
      </trkpt>
      <trkpt lat="43.69252" lon="6.81442">
        <ele>642.59997558594</ele>
        <time>2019-10-06T09:19:24.000Z</time>
      </trkpt>
      <trkpt lat="43.69244" lon="6.81438">
        <ele>642.40002441406</ele>
        <time>2019-10-06T09:19:27.000Z</time>
      </trkpt>
      <trkpt lat="43.69233" lon="6.81438">
        <ele>643.40002441406</ele>
        <time>2019-10-06T09:19:34.000Z</time>
      </trkpt>
      <trkpt lat="43.69231" lon="6.81438">
        <ele>643.59997558594</ele>
        <time>2019-10-06T09:19:35.000Z</time>
      </trkpt>
      <trkpt lat="43.69226" lon="6.81436">
        <ele>644.40002441406</ele>
        <time>2019-10-06T09:19:40.000Z</time>
      </trkpt>
      <trkpt lat="43.69226" lon="6.81436">
        <ele>644.59997558594</ele>
        <time>2019-10-06T09:19:41.000Z</time>
      </trkpt>
      <trkpt lat="43.69225" lon="6.81435">
        <ele>644.79998779297</ele>
        <time>2019-10-06T09:19:43.000Z</time>
      </trkpt>
      <trkpt lat="43.69225" lon="6.81435">
        <ele>645</ele>
        <time>2019-10-06T09:19:45.000Z</time>
      </trkpt>
      <trkpt lat="43.69221" lon="6.81434">
        <ele>645.59997558594</ele>
        <time>2019-10-06T09:19:48.000Z</time>
      </trkpt>
      <trkpt lat="43.69218" lon="6.81431">
        <ele>646.59997558594</ele>
        <time>2019-10-06T09:19:52.000Z</time>
      </trkpt>
      <trkpt lat="43.69216" lon="6.81428">
        <ele>647</ele>
        <time>2019-10-06T09:19:54.000Z</time>
      </trkpt>
      <trkpt lat="43.69215" lon="6.81426">
        <ele>647.20001220703</ele>
        <time>2019-10-06T09:19:57.000Z</time>
      </trkpt>
      <trkpt lat="43.6921" lon="6.81425">
        <ele>647.59997558594</ele>
        <time>2019-10-06T09:20:14.000Z</time>
      </trkpt>
      <trkpt lat="43.69208" lon="6.81425">
        <ele>647.79998779297</ele>
        <time>2019-10-06T09:20:18.000Z</time>
      </trkpt>
      <trkpt lat="43.69207" lon="6.81425">
        <ele>648</ele>
        <time>2019-10-06T09:20:19.000Z</time>
      </trkpt>
      <trkpt lat="43.69204" lon="6.81424">
        <ele>648.20001220703</ele>
        <time>2019-10-06T09:20:21.000Z</time>
      </trkpt>
      <trkpt lat="43.692" lon="6.81423">
        <ele>648.59997558594</ele>
        <time>2019-10-06T09:20:24.000Z</time>
      </trkpt>
      <trkpt lat="43.69198" lon="6.81422">
        <ele>648.79998779297</ele>
        <time>2019-10-06T09:20:25.000Z</time>
      </trkpt>
      <trkpt lat="43.69189" lon="6.81419">
        <ele>649.79998779297</ele>
        <time>2019-10-06T09:20:31.000Z</time>
      </trkpt>
      <trkpt lat="43.69182" lon="6.81418">
        <ele>650.59997558594</ele>
        <time>2019-10-06T09:20:37.000Z</time>
      </trkpt>
      <trkpt lat="43.69179" lon="6.81417">
        <ele>650.79998779297</ele>
        <time>2019-10-06T09:20:39.000Z</time>
      </trkpt>
      <trkpt lat="43.69165" lon="6.81404">
        <ele>652.20001220703</ele>
        <time>2019-10-06T09:20:50.000Z</time>
      </trkpt>
      <trkpt lat="43.69163" lon="6.81399">
        <ele>652.40002441406</ele>
        <time>2019-10-06T09:20:53.000Z</time>
      </trkpt>
      <trkpt lat="43.69164" lon="6.81387">
        <ele>653.40002441406</ele>
        <time>2019-10-06T09:20:59.000Z</time>
      </trkpt>
      <trkpt lat="43.69164" lon="6.81385">
        <ele>653.59997558594</ele>
        <time>2019-10-06T09:21:00.000Z</time>
      </trkpt>
      <trkpt lat="43.69151" lon="6.81376">
        <ele>654</ele>
        <time>2019-10-06T09:21:09.000Z</time>
      </trkpt>
      <trkpt lat="43.69131" lon="6.81346">
        <ele>653.40002441406</ele>
        <time>2019-10-06T09:21:20.000Z</time>
      </trkpt>
      <trkpt lat="43.69125" lon="6.81269">
        <ele>652.20001220703</ele>
        <time>2019-10-06T09:21:36.000Z</time>
      </trkpt>
      <trkpt lat="43.69125" lon="6.81263">
        <ele>652</ele>
        <time>2019-10-06T09:21:37.000Z</time>
      </trkpt>
      <trkpt lat="43.69118" lon="6.8124">
        <ele>651.79998779297</ele>
        <time>2019-10-06T09:21:41.000Z</time>
      </trkpt>
      <trkpt lat="43.69106" lon="6.81219">
        <ele>651.59997558594</ele>
        <time>2019-10-06T09:21:45.000Z</time>
      </trkpt>
      <trkpt lat="43.69099" lon="6.81211">
        <ele>651</ele>
        <time>2019-10-06T09:21:47.000Z</time>
      </trkpt>
      <trkpt lat="43.69088" lon="6.81199">
        <ele>650.79998779297</ele>
        <time>2019-10-06T09:21:50.000Z</time>
      </trkpt>
      <trkpt lat="43.69078" lon="6.81211">
        <ele>651</ele>
        <time>2019-10-06T09:21:55.000Z</time>
      </trkpt>
      <trkpt lat="43.6906" lon="6.81207">
        <ele>651.40002441406</ele>
        <time>2019-10-06T09:22:02.000Z</time>
      </trkpt>
      <trkpt lat="43.69048" lon="6.81196">
        <ele>652</ele>
        <time>2019-10-06T09:22:07.000Z</time>
      </trkpt>
      <trkpt lat="43.6904" lon="6.81197">
        <ele>652.20001220703</ele>
        <time>2019-10-06T09:22:10.000Z</time>
      </trkpt>
      <trkpt lat="43.69029" lon="6.81194">
        <ele>652.79998779297</ele>
        <time>2019-10-06T09:22:15.000Z</time>
      </trkpt>
      <trkpt lat="43.69023" lon="6.81199">
        <ele>653.20001220703</ele>
        <time>2019-10-06T09:22:18.000Z</time>
      </trkpt>
      <trkpt lat="43.6901" lon="6.81211">
        <ele>653.40002441406</ele>
        <time>2019-10-06T09:22:24.000Z</time>
      </trkpt>
      <trkpt lat="43.68989" lon="6.8124">
        <ele>654.20001220703</ele>
        <time>2019-10-06T09:22:35.000Z</time>
      </trkpt>
      <trkpt lat="43.68974" lon="6.8126">
        <ele>655.40002441406</ele>
        <time>2019-10-06T09:22:43.000Z</time>
      </trkpt>
      <trkpt lat="43.68956" lon="6.81281">
        <ele>656.40002441406</ele>
        <time>2019-10-06T09:22:52.000Z</time>
      </trkpt>
      <trkpt lat="43.68954" lon="6.81284">
        <ele>656.40002441406</ele>
        <time>2019-10-06T09:22:53.000Z</time>
      </trkpt>
      <trkpt lat="43.6893" lon="6.81254">
        <ele>656.40002441406</ele>
        <time>2019-10-06T09:23:06.000Z</time>
      </trkpt>
      <trkpt lat="43.68904" lon="6.81238">
        <ele>657.59997558594</ele>
        <time>2019-10-06T09:23:19.000Z</time>
      </trkpt>
      <trkpt lat="43.68903" lon="6.81233">
        <ele>657.79998779297</ele>
        <time>2019-10-06T09:23:21.000Z</time>
      </trkpt>
      <trkpt lat="43.68904" lon="6.81227">
        <ele>658.79998779297</ele>
        <time>2019-10-06T09:23:24.000Z</time>
      </trkpt>
      <trkpt lat="43.68901" lon="6.81214">
        <ele>660.20001220703</ele>
        <time>2019-10-06T09:23:30.000Z</time>
      </trkpt>
      <trkpt lat="43.68901" lon="6.81203">
        <ele>661.20001220703</ele>
        <time>2019-10-06T09:23:34.000Z</time>
      </trkpt>
      <trkpt lat="43.68901" lon="6.81201">
        <ele>661.40002441406</ele>
        <time>2019-10-06T09:23:35.000Z</time>
      </trkpt>
      <trkpt lat="43.68901" lon="6.81191">
        <ele>662.20001220703</ele>
        <time>2019-10-06T09:23:39.000Z</time>
      </trkpt>
      <trkpt lat="43.689" lon="6.81186">
        <ele>662.59997558594</ele>
        <time>2019-10-06T09:23:41.000Z</time>
      </trkpt>
      <trkpt lat="43.68894" lon="6.8117">
        <ele>663.40002441406</ele>
        <time>2019-10-06T09:23:49.000Z</time>
      </trkpt>
      <trkpt lat="43.68892" lon="6.81163">
        <ele>664.20001220703</ele>
        <time>2019-10-06T09:23:53.000Z</time>
      </trkpt>
      <trkpt lat="43.68892" lon="6.81161">
        <ele>664.59997558594</ele>
        <time>2019-10-06T09:23:54.000Z</time>
      </trkpt>
      <trkpt lat="43.6889" lon="6.81149">
        <ele>665.59997558594</ele>
        <time>2019-10-06T09:24:00.000Z</time>
      </trkpt>
      <trkpt lat="43.68889" lon="6.81147">
        <ele>665.79998779297</ele>
        <time>2019-10-06T09:24:01.000Z</time>
      </trkpt>
      <trkpt lat="43.68888" lon="6.81138">
        <ele>666.79998779297</ele>
        <time>2019-10-06T09:24:06.000Z</time>
      </trkpt>
      <trkpt lat="43.68892" lon="6.81101">
        <ele>667.79998779297</ele>
        <time>2019-10-06T09:24:20.000Z</time>
      </trkpt>
      <trkpt lat="43.68892" lon="6.81071">
        <ele>668.40002441406</ele>
        <time>2019-10-06T09:24:29.000Z</time>
      </trkpt>
      <trkpt lat="43.6889" lon="6.81059">
        <ele>668.79998779297</ele>
        <time>2019-10-06T09:24:33.000Z</time>
      </trkpt>
      <trkpt lat="43.68888" lon="6.81025">
        <ele>669.79998779297</ele>
        <time>2019-10-06T09:24:44.000Z</time>
      </trkpt>
      <trkpt lat="43.68886" lon="6.81007">
        <ele>670.79998779297</ele>
        <time>2019-10-06T09:24:50.000Z</time>
      </trkpt>
      <trkpt lat="43.68886" lon="6.80969">
        <ele>672</ele>
        <time>2019-10-06T09:25:01.000Z</time>
      </trkpt>
      <trkpt lat="43.68883" lon="6.80943">
        <ele>673.20001220703</ele>
        <time>2019-10-06T09:25:09.000Z</time>
      </trkpt>
      <trkpt lat="43.68877" lon="6.80899">
        <ele>674.20001220703</ele>
        <time>2019-10-06T09:25:20.000Z</time>
      </trkpt>
      <trkpt lat="43.68865" lon="6.80882">
        <ele>675.40002441406</ele>
        <time>2019-10-06T09:25:27.000Z</time>
      </trkpt>
      <trkpt lat="43.68856" lon="6.80872">
        <ele>676.59997558594</ele>
        <time>2019-10-06T09:25:33.000Z</time>
      </trkpt>
      <trkpt lat="43.68844" lon="6.80866">
        <ele>677.59997558594</ele>
        <time>2019-10-06T09:25:40.000Z</time>
      </trkpt>
      <trkpt lat="43.6884" lon="6.80864">
        <ele>678</ele>
        <time>2019-10-06T09:25:43.000Z</time>
      </trkpt>
      <trkpt lat="43.68834" lon="6.8086">
        <ele>678.79998779297</ele>
        <time>2019-10-06T09:25:47.000Z</time>
      </trkpt>
      <trkpt lat="43.68833" lon="6.80859">
        <ele>678.79998779297</ele>
        <time>2019-10-06T09:25:48.000Z</time>
      </trkpt>
      <trkpt lat="43.68825" lon="6.80863">
        <ele>679.79998779297</ele>
        <time>2019-10-06T09:25:53.000Z</time>
      </trkpt>
      <trkpt lat="43.68823" lon="6.80865">
        <ele>680.40002441406</ele>
        <time>2019-10-06T09:25:55.000Z</time>
      </trkpt>
      <trkpt lat="43.68817" lon="6.80868">
        <ele>680.79998779297</ele>
        <time>2019-10-06T09:25:59.000Z</time>
      </trkpt>
      <trkpt lat="43.68814" lon="6.80868">
        <ele>681.20001220703</ele>
        <time>2019-10-06T09:26:01.000Z</time>
      </trkpt>
      <trkpt lat="43.68812" lon="6.80869">
        <ele>681.59997558594</ele>
        <time>2019-10-06T09:26:03.000Z</time>
      </trkpt>
      <trkpt lat="43.68807" lon="6.8087">
        <ele>682.40002441406</ele>
        <time>2019-10-06T09:26:07.000Z</time>
      </trkpt>
      <trkpt lat="43.68804" lon="6.8087">
        <ele>682.59997558594</ele>
        <time>2019-10-06T09:26:09.000Z</time>
      </trkpt>
      <trkpt lat="43.68795" lon="6.80867">
        <ele>683.40002441406</ele>
        <time>2019-10-06T09:26:16.000Z</time>
      </trkpt>
      <trkpt lat="43.68788" lon="6.80868">
        <ele>684.40002441406</ele>
        <time>2019-10-06T09:26:21.000Z</time>
      </trkpt>
      <trkpt lat="43.68783" lon="6.80871">
        <ele>685</ele>
        <time>2019-10-06T09:26:25.000Z</time>
      </trkpt>
      <trkpt lat="43.68782" lon="6.80874">
        <ele>685.40002441406</ele>
        <time>2019-10-06T09:26:27.000Z</time>
      </trkpt>
      <trkpt lat="43.68779" lon="6.8088">
        <ele>685.59997558594</ele>
        <time>2019-10-06T09:26:30.000Z</time>
      </trkpt>
      <trkpt lat="43.68778" lon="6.80891">
        <ele>686.59997558594</ele>
        <time>2019-10-06T09:26:36.000Z</time>
      </trkpt>
      <trkpt lat="43.68777" lon="6.80896">
        <ele>687.20001220703</ele>
        <time>2019-10-06T09:26:39.000Z</time>
      </trkpt>
      <trkpt lat="43.68775" lon="6.80901">
        <ele>687.79998779297</ele>
        <time>2019-10-06T09:26:42.000Z</time>
      </trkpt>
      <trkpt lat="43.68772" lon="6.80907">
        <ele>688.40002441406</ele>
        <time>2019-10-06T09:26:46.000Z</time>
      </trkpt>
      <trkpt lat="43.68771" lon="6.80918">
        <ele>688.59997558594</ele>
        <time>2019-10-06T09:26:51.000Z</time>
      </trkpt>
      <trkpt lat="43.68773" lon="6.80922">
        <ele>688.59997558594</ele>
        <time>2019-10-06T09:26:53.000Z</time>
      </trkpt>
      <trkpt lat="43.68771" lon="6.8095">
        <ele>689.79998779297</ele>
        <time>2019-10-06T09:27:05.000Z</time>
      </trkpt>
      <trkpt lat="43.68763" lon="6.80969">
        <ele>690.40002441406</ele>
        <time>2019-10-06T09:27:15.000Z</time>
      </trkpt>
      <trkpt lat="43.6876" lon="6.80974">
        <ele>690.79998779297</ele>
        <time>2019-10-06T09:27:18.000Z</time>
      </trkpt>
      <trkpt lat="43.68757" lon="6.80976">
        <ele>691.20001220703</ele>
        <time>2019-10-06T09:27:20.000Z</time>
      </trkpt>
      <trkpt lat="43.6875" lon="6.8098">
        <ele>692</ele>
        <time>2019-10-06T09:27:25.000Z</time>
      </trkpt>
      <trkpt lat="43.6874" lon="6.80986">
        <ele>693</ele>
        <time>2019-10-06T09:27:33.000Z</time>
      </trkpt>
      <trkpt lat="43.68731" lon="6.8099">
        <ele>694</ele>
        <time>2019-10-06T09:27:39.000Z</time>
      </trkpt>
      <trkpt lat="43.6872" lon="6.81003">
        <ele>695.40002441406</ele>
        <time>2019-10-06T09:27:49.000Z</time>
      </trkpt>
      <trkpt lat="43.68712" lon="6.81012">
        <ele>696.40002441406</ele>
        <time>2019-10-06T09:27:56.000Z</time>
      </trkpt>
      <trkpt lat="43.68701" lon="6.81024">
        <ele>697.20001220703</ele>
        <time>2019-10-06T09:28:06.000Z</time>
      </trkpt>
      <trkpt lat="43.68693" lon="6.81036">
        <ele>698.40002441406</ele>
        <time>2019-10-06T09:28:14.000Z</time>
      </trkpt>
      <trkpt lat="43.68683" lon="6.81046">
        <ele>699.40002441406</ele>
        <time>2019-10-06T09:28:23.000Z</time>
      </trkpt>
      <trkpt lat="43.68657" lon="6.81087">
        <ele>700.40002441406</ele>
        <time>2019-10-06T09:28:43.000Z</time>
      </trkpt>
      <trkpt lat="43.68638" lon="6.81123">
        <ele>700.79998779297</ele>
        <time>2019-10-06T09:28:56.000Z</time>
      </trkpt>
      <trkpt lat="43.68628" lon="6.81132">
        <ele>702</ele>
        <time>2019-10-06T09:29:01.000Z</time>
      </trkpt>
      <trkpt lat="43.68609" lon="6.81151">
        <ele>703</ele>
        <time>2019-10-06T09:29:09.000Z</time>
      </trkpt>
      <trkpt lat="43.68594" lon="6.81159">
        <ele>704.20001220703</ele>
        <time>2019-10-06T09:29:15.000Z</time>
      </trkpt>
      <trkpt lat="43.68542" lon="6.81163">
        <ele>705.20001220703</ele>
        <time>2019-10-06T09:29:35.000Z</time>
      </trkpt>
      <trkpt lat="43.6851" lon="6.81173">
        <ele>706.20001220703</ele>
        <time>2019-10-06T09:29:48.000Z</time>
      </trkpt>
      <trkpt lat="43.68492" lon="6.81178">
        <ele>707.20001220703</ele>
        <time>2019-10-06T09:29:56.000Z</time>
      </trkpt>
      <trkpt lat="43.68465" lon="6.81181">
        <ele>708.20001220703</ele>
        <time>2019-10-06T09:30:08.000Z</time>
      </trkpt>
      <trkpt lat="43.68454" lon="6.81181">
        <ele>709.40002441406</ele>
        <time>2019-10-06T09:30:14.000Z</time>
      </trkpt>
      <trkpt lat="43.68443" lon="6.81176">
        <ele>710.59997558594</ele>
        <time>2019-10-06T09:30:21.000Z</time>
      </trkpt>
      <trkpt lat="43.68435" lon="6.81178">
        <ele>711.79998779297</ele>
        <time>2019-10-06T09:30:26.000Z</time>
      </trkpt>
      <trkpt lat="43.6843" lon="6.81186">
        <ele>712.79998779297</ele>
        <time>2019-10-06T09:30:32.000Z</time>
      </trkpt>
      <trkpt lat="43.6843" lon="6.81192">
        <ele>713.20001220703</ele>
        <time>2019-10-06T09:30:35.000Z</time>
      </trkpt>
      <trkpt lat="43.6843" lon="6.81209">
        <ele>713.79998779297</ele>
        <time>2019-10-06T09:30:42.000Z</time>
      </trkpt>
      <trkpt lat="43.68427" lon="6.8123">
        <ele>715</ele>
        <time>2019-10-06T09:30:52.000Z</time>
      </trkpt>
      <trkpt lat="43.68424" lon="6.81244">
        <ele>716</ele>
        <time>2019-10-06T09:30:59.000Z</time>
      </trkpt>
      <trkpt lat="43.68419" lon="6.8126">
        <ele>717</ele>
        <time>2019-10-06T09:31:08.000Z</time>
      </trkpt>
      <trkpt lat="43.68413" lon="6.81268">
        <ele>718</ele>
        <time>2019-10-06T09:31:14.000Z</time>
      </trkpt>
      <trkpt lat="43.68405" lon="6.8128">
        <ele>719</ele>
        <time>2019-10-06T09:31:22.000Z</time>
      </trkpt>
      <trkpt lat="43.6839" lon="6.813">
        <ele>720.20001220703</ele>
        <time>2019-10-06T09:31:33.000Z</time>
      </trkpt>
      <trkpt lat="43.68366" lon="6.81304">
        <ele>721.40002441406</ele>
        <time>2019-10-06T09:31:45.000Z</time>
      </trkpt>
      <trkpt lat="43.68356" lon="6.813">
        <ele>722</ele>
        <time>2019-10-06T09:31:51.000Z</time>
      </trkpt>
      <trkpt lat="43.68353" lon="6.81299">
        <ele>722.40002441406</ele>
        <time>2019-10-06T09:31:53.000Z</time>
      </trkpt>
      <trkpt lat="43.68334" lon="6.81302">
        <ele>723.40002441406</ele>
        <time>2019-10-06T09:32:02.000Z</time>
      </trkpt>
      <trkpt lat="43.68314" lon="6.81312">
        <ele>724.59997558594</ele>
        <time>2019-10-06T09:32:11.000Z</time>
      </trkpt>
      <trkpt lat="43.68261" lon="6.81304">
        <ele>725</ele>
        <time>2019-10-06T09:32:30.000Z</time>
      </trkpt>
      <trkpt lat="43.68235" lon="6.81311">
        <ele>725</ele>
        <time>2019-10-06T09:32:38.000Z</time>
      </trkpt>
      <trkpt lat="43.68221" lon="6.81307">
        <ele>725.20001220703</ele>
        <time>2019-10-06T09:32:42.000Z</time>
      </trkpt>
      <trkpt lat="43.682" lon="6.81301">
        <ele>725.59997558594</ele>
        <time>2019-10-06T09:32:49.000Z</time>
      </trkpt>
      <trkpt lat="43.68177" lon="6.81299">
        <ele>725.40002441406</ele>
        <time>2019-10-06T09:32:55.000Z</time>
      </trkpt>
      <trkpt lat="43.68157" lon="6.81276">
        <ele>725.59997558594</ele>
        <time>2019-10-06T09:33:00.000Z</time>
      </trkpt>
      <trkpt lat="43.68132" lon="6.81232">
        <ele>724.59997558594</ele>
        <time>2019-10-06T09:33:07.000Z</time>
      </trkpt>
      <trkpt lat="43.68098" lon="6.81248">
        <ele>725.59997558594</ele>
        <time>2019-10-06T09:33:19.000Z</time>
      </trkpt>
      <trkpt lat="43.68099" lon="6.81254">
        <ele>725.79998779297</ele>
        <time>2019-10-06T09:33:21.000Z</time>
      </trkpt>
      <trkpt lat="43.68098" lon="6.81303">
        <ele>726.59997558594</ele>
        <time>2019-10-06T09:33:36.000Z</time>
      </trkpt>
      <trkpt lat="43.6808" lon="6.81335">
        <ele>727.59997558594</ele>
        <time>2019-10-06T09:33:49.000Z</time>
      </trkpt>
      <trkpt lat="43.68073" lon="6.8135">
        <ele>728.79998779297</ele>
        <time>2019-10-06T09:33:56.000Z</time>
      </trkpt>
      <trkpt lat="43.68066" lon="6.81369">
        <ele>729.79998779297</ele>
        <time>2019-10-06T09:34:04.000Z</time>
      </trkpt>
      <trkpt lat="43.68057" lon="6.81389">
        <ele>731</ele>
        <time>2019-10-06T09:34:14.000Z</time>
      </trkpt>
      <trkpt lat="43.68054" lon="6.81402">
        <ele>732</ele>
        <time>2019-10-06T09:34:20.000Z</time>
      </trkpt>
      <trkpt lat="43.68052" lon="6.81414">
        <ele>733.20001220703</ele>
        <time>2019-10-06T09:34:26.000Z</time>
      </trkpt>
      <trkpt lat="43.68047" lon="6.81425">
        <ele>734.20001220703</ele>
        <time>2019-10-06T09:34:33.000Z</time>
      </trkpt>
      <trkpt lat="43.68043" lon="6.81431">
        <ele>735.20001220703</ele>
        <time>2019-10-06T09:34:37.000Z</time>
      </trkpt>
      <trkpt lat="43.68042" lon="6.81432">
        <ele>735.40002441406</ele>
        <time>2019-10-06T09:34:38.000Z</time>
      </trkpt>
      <trkpt lat="43.68036" lon="6.81441">
        <ele>736.40002441406</ele>
        <time>2019-10-06T09:34:44.000Z</time>
      </trkpt>
      <trkpt lat="43.68036" lon="6.81453">
        <ele>737.40002441406</ele>
        <time>2019-10-06T09:34:51.000Z</time>
      </trkpt>
      <trkpt lat="43.68037" lon="6.81464">
        <ele>738.59997558594</ele>
        <time>2019-10-06T09:34:58.000Z</time>
      </trkpt>
      <trkpt lat="43.68033" lon="6.81478">
        <ele>739.59997558594</ele>
        <time>2019-10-06T09:35:06.000Z</time>
      </trkpt>
      <trkpt lat="43.6803" lon="6.81492">
        <ele>740.20001220703</ele>
        <time>2019-10-06T09:35:14.000Z</time>
      </trkpt>
      <trkpt lat="43.68028" lon="6.81501">
        <ele>740.59997558594</ele>
        <time>2019-10-06T09:35:19.000Z</time>
      </trkpt>
      <trkpt lat="43.68026" lon="6.8151">
        <ele>741.59997558594</ele>
        <time>2019-10-06T09:35:25.000Z</time>
      </trkpt>
      <trkpt lat="43.68022" lon="6.81517">
        <ele>742.79998779297</ele>
        <time>2019-10-06T09:35:30.000Z</time>
      </trkpt>
      <trkpt lat="43.6802" lon="6.81522">
        <ele>743.20001220703</ele>
        <time>2019-10-06T09:35:33.000Z</time>
      </trkpt>
      <trkpt lat="43.68018" lon="6.81528">
        <ele>743.79998779297</ele>
        <time>2019-10-06T09:35:36.000Z</time>
      </trkpt>
      <trkpt lat="43.68012" lon="6.81537">
        <ele>744.79998779297</ele>
        <time>2019-10-06T09:35:43.000Z</time>
      </trkpt>
      <trkpt lat="43.68009" lon="6.81544">
        <ele>746</ele>
        <time>2019-10-06T09:35:48.000Z</time>
      </trkpt>
      <trkpt lat="43.68006" lon="6.81551">
        <ele>747</ele>
        <time>2019-10-06T09:35:53.000Z</time>
      </trkpt>
      <trkpt lat="43.68003" lon="6.81563">
        <ele>747.79998779297</ele>
        <time>2019-10-06T09:36:00.000Z</time>
      </trkpt>
      <trkpt lat="43.68002" lon="6.81565">
        <ele>748.20001220703</ele>
        <time>2019-10-06T09:36:01.000Z</time>
      </trkpt>
      <trkpt lat="43.67998" lon="6.81577">
        <ele>749.20001220703</ele>
        <time>2019-10-06T09:36:09.000Z</time>
      </trkpt>
      <trkpt lat="43.67996" lon="6.81586">
        <ele>750.20001220703</ele>
        <time>2019-10-06T09:36:16.000Z</time>
      </trkpt>
      <trkpt lat="43.67994" lon="6.81594">
        <ele>751.40002441406</ele>
        <time>2019-10-06T09:36:21.000Z</time>
      </trkpt>
      <trkpt lat="43.67993" lon="6.81602">
        <ele>752.59997558594</ele>
        <time>2019-10-06T09:36:26.000Z</time>
      </trkpt>
      <trkpt lat="43.67991" lon="6.81612">
        <ele>753.79998779297</ele>
        <time>2019-10-06T09:36:32.000Z</time>
      </trkpt>
      <trkpt lat="43.6799" lon="6.81621">
        <ele>754.79998779297</ele>
        <time>2019-10-06T09:36:38.000Z</time>
      </trkpt>
      <trkpt lat="43.6799" lon="6.81636">
        <ele>756</ele>
        <time>2019-10-06T09:36:47.000Z</time>
      </trkpt>
      <trkpt lat="43.67991" lon="6.8165">
        <ele>757</ele>
        <time>2019-10-06T09:36:55.000Z</time>
      </trkpt>
      <trkpt lat="43.67992" lon="6.81666">
        <ele>758.20001220703</ele>
        <time>2019-10-06T09:37:04.000Z</time>
      </trkpt>
      <trkpt lat="43.6799" lon="6.81684">
        <ele>759.20001220703</ele>
        <time>2019-10-06T09:37:13.000Z</time>
      </trkpt>
      <trkpt lat="43.67988" lon="6.81698">
        <ele>760.20001220703</ele>
        <time>2019-10-06T09:37:20.000Z</time>
      </trkpt>
      <trkpt lat="43.67986" lon="6.81721">
        <ele>761.40002441406</ele>
        <time>2019-10-06T09:37:30.000Z</time>
      </trkpt>
      <trkpt lat="43.67985" lon="6.81733">
        <ele>762.40002441406</ele>
        <time>2019-10-06T09:37:36.000Z</time>
      </trkpt>
      <trkpt lat="43.67985" lon="6.81756">
        <ele>763.40002441406</ele>
        <time>2019-10-06T09:37:46.000Z</time>
      </trkpt>
      <trkpt lat="43.67985" lon="6.81772">
        <ele>764.59997558594</ele>
        <time>2019-10-06T09:37:53.000Z</time>
      </trkpt>
      <trkpt lat="43.67983" lon="6.8178">
        <ele>764.79998779297</ele>
        <time>2019-10-06T09:37:57.000Z</time>
      </trkpt>
      <trkpt lat="43.67977" lon="6.81793">
        <ele>765.59997558594</ele>
        <time>2019-10-06T09:38:03.000Z</time>
      </trkpt>
      <trkpt lat="43.67973" lon="6.81815">
        <ele>766.40002441406</ele>
        <time>2019-10-06T09:38:12.000Z</time>
      </trkpt>
      <trkpt lat="43.67972" lon="6.8182">
        <ele>766.59997558594</ele>
        <time>2019-10-06T09:38:14.000Z</time>
      </trkpt>
      <trkpt lat="43.67971" lon="6.81838">
        <ele>767.59997558594</ele>
        <time>2019-10-06T09:38:21.000Z</time>
      </trkpt>
      <trkpt lat="43.6797" lon="6.81857">
        <ele>768.40002441406</ele>
        <time>2019-10-06T09:38:29.000Z</time>
      </trkpt>
      <trkpt lat="43.67971" lon="6.81861">
        <ele>768.40002441406</ele>
        <time>2019-10-06T09:38:31.000Z</time>
      </trkpt>
      <trkpt lat="43.67973" lon="6.81864">
        <ele>768.79998779297</ele>
        <time>2019-10-06T09:38:33.000Z</time>
      </trkpt>
      <trkpt lat="43.67977" lon="6.81872">
        <ele>769.59997558594</ele>
        <time>2019-10-06T09:38:38.000Z</time>
      </trkpt>
      <trkpt lat="43.67981" lon="6.81881">
        <ele>770.79998779297</ele>
        <time>2019-10-06T09:38:44.000Z</time>
      </trkpt>
      <trkpt lat="43.67982" lon="6.81888">
        <ele>771.59997558594</ele>
        <time>2019-10-06T09:38:48.000Z</time>
      </trkpt>
      <trkpt lat="43.67982" lon="6.81889">
        <ele>771.79998779297</ele>
        <time>2019-10-06T09:38:49.000Z</time>
      </trkpt>
      <trkpt lat="43.67979" lon="6.81896">
        <ele>772.59997558594</ele>
        <time>2019-10-06T09:38:54.000Z</time>
      </trkpt>
      <trkpt lat="43.67978" lon="6.81899">
        <ele>772.79998779297</ele>
        <time>2019-10-06T09:38:56.000Z</time>
      </trkpt>
      <trkpt lat="43.67977" lon="6.81902">
        <ele>773.20001220703</ele>
        <time>2019-10-06T09:38:58.000Z</time>
      </trkpt>
      <trkpt lat="43.67975" lon="6.81906">
        <ele>774</ele>
        <time>2019-10-06T09:39:01.000Z</time>
      </trkpt>
      <trkpt lat="43.67971" lon="6.81915">
        <ele>775</ele>
        <time>2019-10-06T09:39:07.000Z</time>
      </trkpt>
      <trkpt lat="43.67964" lon="6.8192">
        <ele>776</ele>
        <time>2019-10-06T09:39:14.000Z</time>
      </trkpt>
      <trkpt lat="43.67931" lon="6.81938">
        <ele>777.20001220703</ele>
        <time>2019-10-06T09:39:37.000Z</time>
      </trkpt>
      <trkpt lat="43.67919" lon="6.81956">
        <ele>778</ele>
        <time>2019-10-06T09:39:47.000Z</time>
      </trkpt>
      <trkpt lat="43.67918" lon="6.81957">
        <ele>778.20001220703</ele>
        <time>2019-10-06T09:39:48.000Z</time>
      </trkpt>
      <trkpt lat="43.67914" lon="6.81967">
        <ele>779</ele>
        <time>2019-10-06T09:39:54.000Z</time>
      </trkpt>
      <trkpt lat="43.67912" lon="6.8197">
        <ele>779.20001220703</ele>
        <time>2019-10-06T09:39:56.000Z</time>
      </trkpt>
      <trkpt lat="43.67908" lon="6.81984">
        <ele>780.40002441406</ele>
        <time>2019-10-06T09:40:04.000Z</time>
      </trkpt>
      <trkpt lat="43.6791" lon="6.81996">
        <ele>780.79998779297</ele>
        <time>2019-10-06T09:40:10.000Z</time>
      </trkpt>
      <trkpt lat="43.67907" lon="6.82005">
        <ele>781.40002441406</ele>
        <time>2019-10-06T09:40:15.000Z</time>
      </trkpt>
      <trkpt lat="43.67887" lon="6.82034">
        <ele>781.59997558594</ele>
        <time>2019-10-06T09:40:29.000Z</time>
      </trkpt>
      <trkpt lat="43.67883" lon="6.8204">
        <ele>781.40002441406</ele>
        <time>2019-10-06T09:40:31.000Z</time>
      </trkpt>
      <trkpt lat="43.67885" lon="6.82057">
        <ele>782.40002441406</ele>
        <time>2019-10-06T09:40:38.000Z</time>
      </trkpt>
      <trkpt lat="43.67888" lon="6.82065">
        <ele>783.59997558594</ele>
        <time>2019-10-06T09:40:43.000Z</time>
      </trkpt>
      <trkpt lat="43.67891" lon="6.82071">
        <ele>784.40002441406</ele>
        <time>2019-10-06T09:40:48.000Z</time>
      </trkpt>
      <trkpt lat="43.67891" lon="6.82072">
        <ele>784.59997558594</ele>
        <time>2019-10-06T09:40:49.000Z</time>
      </trkpt>
      <trkpt lat="43.67893" lon="6.82076">
        <ele>785</ele>
        <time>2019-10-06T09:40:52.000Z</time>
      </trkpt>
      <trkpt lat="43.67893" lon="6.82077">
        <ele>785.20001220703</ele>
        <time>2019-10-06T09:40:53.000Z</time>
      </trkpt>
      <trkpt lat="43.67894" lon="6.82079">
        <ele>785.59997558594</ele>
        <time>2019-10-06T09:40:56.000Z</time>
      </trkpt>
      <trkpt lat="43.67894" lon="6.82087">
        <ele>786.59997558594</ele>
        <time>2019-10-06T09:41:03.000Z</time>
      </trkpt>
      <trkpt lat="43.67894" lon="6.82088">
        <ele>786.79998779297</ele>
        <time>2019-10-06T09:41:13.000Z</time>
      </trkpt>
      <trkpt lat="43.67894" lon="6.82088">
        <ele>786.79998779297</ele>
        <time>2019-10-06T09:41:51.000Z</time>
      </trkpt>
      <trkpt lat="43.67893" lon="6.82092">
        <ele>787</ele>
        <time>2019-10-06T09:42:01.000Z</time>
      </trkpt>
      <trkpt lat="43.6789" lon="6.821">
        <ele>787.20001220703</ele>
        <time>2019-10-06T09:42:05.000Z</time>
      </trkpt>
      <trkpt lat="43.67889" lon="6.82116">
        <ele>787.79998779297</ele>
        <time>2019-10-06T09:42:12.000Z</time>
      </trkpt>
      <trkpt lat="43.67892" lon="6.82125">
        <ele>788.59997558594</ele>
        <time>2019-10-06T09:42:17.000Z</time>
      </trkpt>
      <trkpt lat="43.67893" lon="6.8213">
        <ele>788.79998779297</ele>
        <time>2019-10-06T09:42:19.000Z</time>
      </trkpt>
      <trkpt lat="43.67895" lon="6.8214">
        <ele>789.79998779297</ele>
        <time>2019-10-06T09:42:24.000Z</time>
      </trkpt>
      <trkpt lat="43.67896" lon="6.82149">
        <ele>790.79998779297</ele>
        <time>2019-10-06T09:42:28.000Z</time>
      </trkpt>
      <trkpt lat="43.67896" lon="6.82153">
        <ele>791.20001220703</ele>
        <time>2019-10-06T09:42:30.000Z</time>
      </trkpt>
      <trkpt lat="43.67898" lon="6.82164">
        <ele>792</ele>
        <time>2019-10-06T09:42:35.000Z</time>
      </trkpt>
      <trkpt lat="43.679" lon="6.82174">
        <ele>792</ele>
        <time>2019-10-06T09:42:39.000Z</time>
      </trkpt>
      <trkpt lat="43.679" lon="6.82179">
        <ele>792</ele>
        <time>2019-10-06T09:42:41.000Z</time>
      </trkpt>
      <trkpt lat="43.67893" lon="6.8219">
        <ele>792</ele>
        <time>2019-10-06T09:42:45.000Z</time>
      </trkpt>
      <trkpt lat="43.67878" lon="6.8226">
        <ele>791.59997558594</ele>
        <time>2019-10-06T09:43:02.000Z</time>
      </trkpt>
      <trkpt lat="43.67877" lon="6.82277">
        <ele>791.40002441406</ele>
        <time>2019-10-06T09:43:05.000Z</time>
      </trkpt>
      <trkpt lat="43.67877" lon="6.82297">
        <ele>791</ele>
        <time>2019-10-06T09:43:08.000Z</time>
      </trkpt>
      <trkpt lat="43.67874" lon="6.82316">
        <ele>791</ele>
        <time>2019-10-06T09:43:11.000Z</time>
      </trkpt>
      <trkpt lat="43.67874" lon="6.82347">
        <ele>790.59997558594</ele>
        <time>2019-10-06T09:43:16.000Z</time>
      </trkpt>
      <trkpt lat="43.67863" lon="6.82379">
        <ele>790</ele>
        <time>2019-10-06T09:43:22.000Z</time>
      </trkpt>
      <trkpt lat="43.67861" lon="6.82385">
        <ele>790</ele>
        <time>2019-10-06T09:43:23.000Z</time>
      </trkpt>
      <trkpt lat="43.67854" lon="6.82404">
        <ele>788.79998779297</ele>
        <time>2019-10-06T09:43:26.000Z</time>
      </trkpt>
      <trkpt lat="43.67851" lon="6.82422">
        <ele>787.40002441406</ele>
        <time>2019-10-06T09:43:29.000Z</time>
      </trkpt>
      <trkpt lat="43.67878" lon="6.82434">
        <ele>786.59997558594</ele>
        <time>2019-10-06T09:43:36.000Z</time>
      </trkpt>
      <trkpt lat="43.67893" lon="6.82435">
        <ele>786.79998779297</ele>
        <time>2019-10-06T09:43:39.000Z</time>
      </trkpt>
      <trkpt lat="43.67907" lon="6.8244">
        <ele>787.40002441406</ele>
        <time>2019-10-06T09:43:43.000Z</time>
      </trkpt>
      <trkpt lat="43.67918" lon="6.82449">
        <ele>788.40002441406</ele>
        <time>2019-10-06T09:43:48.000Z</time>
      </trkpt>
      <trkpt lat="43.67929" lon="6.82475">
        <ele>788.40002441406</ele>
        <time>2019-10-06T09:43:56.000Z</time>
      </trkpt>
      <trkpt lat="43.67927" lon="6.82484">
        <ele>788</ele>
        <time>2019-10-06T09:43:59.000Z</time>
      </trkpt>
      <trkpt lat="43.67928" lon="6.82493">
        <ele>787.20001220703</ele>
        <time>2019-10-06T09:44:01.000Z</time>
      </trkpt>
      <trkpt lat="43.67954" lon="6.82519">
        <ele>787</ele>
        <time>2019-10-06T09:44:13.000Z</time>
      </trkpt>
      <trkpt lat="43.67963" lon="6.82524">
        <ele>787</ele>
        <time>2019-10-06T09:44:20.000Z</time>
      </trkpt>
      <trkpt lat="43.67968" lon="6.82528">
        <ele>787</ele>
        <time>2019-10-06T09:44:23.000Z</time>
      </trkpt>
      <trkpt lat="43.67971" lon="6.82552">
        <ele>786.40002441406</ele>
        <time>2019-10-06T09:44:28.000Z</time>
      </trkpt>
      <trkpt lat="43.67973" lon="6.82557">
        <ele>786</ele>
        <time>2019-10-06T09:44:29.000Z</time>
      </trkpt>
      <trkpt lat="43.67966" lon="6.82577">
        <ele>785</ele>
        <time>2019-10-06T09:44:36.000Z</time>
      </trkpt>
      <trkpt lat="43.67965" lon="6.8258">
        <ele>784.79998779297</ele>
        <time>2019-10-06T09:44:37.000Z</time>
      </trkpt>
      <trkpt lat="43.67962" lon="6.82592">
        <ele>783.59997558594</ele>
        <time>2019-10-06T09:44:40.000Z</time>
      </trkpt>
      <trkpt lat="43.67951" lon="6.82601">
        <ele>782.40002441406</ele>
        <time>2019-10-06T09:44:44.000Z</time>
      </trkpt>
      <trkpt lat="43.67947" lon="6.82602">
        <ele>782.20001220703</ele>
        <time>2019-10-06T09:44:45.000Z</time>
      </trkpt>
      <trkpt lat="43.6794" lon="6.82604">
        <ele>781.20001220703</ele>
        <time>2019-10-06T09:44:47.000Z</time>
      </trkpt>
      <trkpt lat="43.67934" lon="6.82611">
        <ele>779.40002441406</ele>
        <time>2019-10-06T09:44:49.000Z</time>
      </trkpt>
      <trkpt lat="43.67927" lon="6.8262">
        <ele>778.20001220703</ele>
        <time>2019-10-06T09:44:51.000Z</time>
      </trkpt>
      <trkpt lat="43.67915" lon="6.82626">
        <ele>777</ele>
        <time>2019-10-06T09:44:54.000Z</time>
      </trkpt>
      <trkpt lat="43.67909" lon="6.82641">
        <ele>775.59997558594</ele>
        <time>2019-10-06T09:44:57.000Z</time>
      </trkpt>
      <trkpt lat="43.67901" lon="6.82655">
        <ele>774.40002441406</ele>
        <time>2019-10-06T09:45:00.000Z</time>
      </trkpt>
      <trkpt lat="43.67886" lon="6.82662">
        <ele>773</ele>
        <time>2019-10-06T09:45:03.000Z</time>
      </trkpt>
      <trkpt lat="43.67876" lon="6.82669">
        <ele>771.59997558594</ele>
        <time>2019-10-06T09:45:05.000Z</time>
      </trkpt>
      <trkpt lat="43.67866" lon="6.82677">
        <ele>770.59997558594</ele>
        <time>2019-10-06T09:45:07.000Z</time>
      </trkpt>
      <trkpt lat="43.67857" lon="6.82687">
        <ele>769.59997558594</ele>
        <time>2019-10-06T09:45:09.000Z</time>
      </trkpt>
      <trkpt lat="43.67843" lon="6.82694">
        <ele>768.20001220703</ele>
        <time>2019-10-06T09:45:12.000Z</time>
      </trkpt>
      <trkpt lat="43.67834" lon="6.82691">
        <ele>767.20001220703</ele>
        <time>2019-10-06T09:45:14.000Z</time>
      </trkpt>
      <trkpt lat="43.67826" lon="6.82686">
        <ele>766.79998779297</ele>
        <time>2019-10-06T09:45:16.000Z</time>
      </trkpt>
      <trkpt lat="43.67822" lon="6.82684">
        <ele>766.40002441406</ele>
        <time>2019-10-06T09:45:17.000Z</time>
      </trkpt>
      <trkpt lat="43.67817" lon="6.82683">
        <ele>766.20001220703</ele>
        <time>2019-10-06T09:45:18.000Z</time>
      </trkpt>
      <trkpt lat="43.67806" lon="6.82686">
        <ele>765</ele>
        <time>2019-10-06T09:45:21.000Z</time>
      </trkpt>
      <trkpt lat="43.67791" lon="6.82699">
        <ele>764</ele>
        <time>2019-10-06T09:45:26.000Z</time>
      </trkpt>
      <trkpt lat="43.67781" lon="6.82697">
        <ele>763.20001220703</ele>
        <time>2019-10-06T09:45:29.000Z</time>
      </trkpt>
      <trkpt lat="43.67778" lon="6.82698">
        <ele>762.79998779297</ele>
        <time>2019-10-06T09:45:30.000Z</time>
      </trkpt>
      <trkpt lat="43.67771" lon="6.82702">
        <ele>762.20001220703</ele>
        <time>2019-10-06T09:45:33.000Z</time>
      </trkpt>
      <trkpt lat="43.67767" lon="6.82702">
        <ele>762</ele>
        <time>2019-10-06T09:45:34.000Z</time>
      </trkpt>
      <trkpt lat="43.67764" lon="6.82701">
        <ele>761.59997558594</ele>
        <time>2019-10-06T09:45:35.000Z</time>
      </trkpt>
      <trkpt lat="43.67747" lon="6.82697">
        <ele>760.20001220703</ele>
        <time>2019-10-06T09:45:39.000Z</time>
      </trkpt>
      <trkpt lat="43.6774" lon="6.82696">
        <ele>759.20001220703</ele>
        <time>2019-10-06T09:45:41.000Z</time>
      </trkpt>
      <trkpt lat="43.67729" lon="6.82696">
        <ele>758</ele>
        <time>2019-10-06T09:45:44.000Z</time>
      </trkpt>
      <trkpt lat="43.67713" lon="6.82705">
        <ele>757</ele>
        <time>2019-10-06T09:45:49.000Z</time>
      </trkpt>
      <trkpt lat="43.67696" lon="6.8272">
        <ele>755.79998779297</ele>
        <time>2019-10-06T09:45:54.000Z</time>
      </trkpt>
      <trkpt lat="43.67666" lon="6.82746">
        <ele>755.40002441406</ele>
        <time>2019-10-06T09:46:02.000Z</time>
      </trkpt>
      <trkpt lat="43.67651" lon="6.82754">
        <ele>754.59997558594</ele>
        <time>2019-10-06T09:46:06.000Z</time>
      </trkpt>
      <trkpt lat="43.67632" lon="6.82767">
        <ele>755.40002441406</ele>
        <time>2019-10-06T09:46:12.000Z</time>
      </trkpt>
      <trkpt lat="43.67625" lon="6.82775">
        <ele>755.79998779297</ele>
        <time>2019-10-06T09:46:15.000Z</time>
      </trkpt>
      <trkpt lat="43.67621" lon="6.82777">
        <ele>755.79998779297</ele>
        <time>2019-10-06T09:46:16.000Z</time>
      </trkpt>
      <trkpt lat="43.67605" lon="6.82778">
        <ele>755.40002441406</ele>
        <time>2019-10-06T09:46:20.000Z</time>
      </trkpt>
      <trkpt lat="43.67581" lon="6.82793">
        <ele>754.59997558594</ele>
        <time>2019-10-06T09:46:27.000Z</time>
      </trkpt>
      <trkpt lat="43.67552" lon="6.8282">
        <ele>753.59997558594</ele>
        <time>2019-10-06T09:46:37.000Z</time>
      </trkpt>
      <trkpt lat="43.67549" lon="6.82828">
        <ele>753.40002441406</ele>
        <time>2019-10-06T09:46:39.000Z</time>
      </trkpt>
      <trkpt lat="43.67545" lon="6.82848">
        <ele>753.59997558594</ele>
        <time>2019-10-06T09:46:43.000Z</time>
      </trkpt>
      <trkpt lat="43.67556" lon="6.82887">
        <ele>753.40002441406</ele>
        <time>2019-10-06T09:46:53.000Z</time>
      </trkpt>
      <trkpt lat="43.67561" lon="6.82912">
        <ele>753.59997558594</ele>
        <time>2019-10-06T09:46:59.000Z</time>
      </trkpt>
      <trkpt lat="43.67529" lon="6.8296">
        <ele>752.20001220703</ele>
        <time>2019-10-06T09:47:14.000Z</time>
      </trkpt>
      <trkpt lat="43.67517" lon="6.82961">
        <ele>751.20001220703</ele>
        <time>2019-10-06T09:47:17.000Z</time>
      </trkpt>
      <trkpt lat="43.67507" lon="6.82948">
        <ele>750</ele>
        <time>2019-10-06T09:47:20.000Z</time>
      </trkpt>
      <trkpt lat="43.67493" lon="6.82932">
        <ele>748.59997558594</ele>
        <time>2019-10-06T09:47:23.000Z</time>
      </trkpt>
      <trkpt lat="43.67478" lon="6.82939">
        <ele>747.40002441406</ele>
        <time>2019-10-06T09:47:27.000Z</time>
      </trkpt>
      <trkpt lat="43.67472" lon="6.82962">
        <ele>746</ele>
        <time>2019-10-06T09:47:31.000Z</time>
      </trkpt>
      <trkpt lat="43.67471" lon="6.82969">
        <ele>746</ele>
        <time>2019-10-06T09:47:32.000Z</time>
      </trkpt>
      <trkpt lat="43.6747" lon="6.82989">
        <ele>746</ele>
        <time>2019-10-06T09:47:35.000Z</time>
      </trkpt>
      <trkpt lat="43.67469" lon="6.83003">
        <ele>746</ele>
        <time>2019-10-06T09:47:37.000Z</time>
      </trkpt>
      <trkpt lat="43.67473" lon="6.83021">
        <ele>744.79998779297</ele>
        <time>2019-10-06T09:47:40.000Z</time>
      </trkpt>
      <trkpt lat="43.67476" lon="6.83032">
        <ele>744.59997558594</ele>
        <time>2019-10-06T09:47:42.000Z</time>
      </trkpt>
      <trkpt lat="43.67478" lon="6.83037">
        <ele>744.20001220703</ele>
        <time>2019-10-06T09:47:43.000Z</time>
      </trkpt>
      <trkpt lat="43.6748" lon="6.83042">
        <ele>743.79998779297</ele>
        <time>2019-10-06T09:47:44.000Z</time>
      </trkpt>
      <trkpt lat="43.67486" lon="6.83051">
        <ele>743.20001220703</ele>
        <time>2019-10-06T09:47:46.000Z</time>
      </trkpt>
      <trkpt lat="43.67487" lon="6.83057">
        <ele>742.79998779297</ele>
        <time>2019-10-06T09:47:47.000Z</time>
      </trkpt>
      <trkpt lat="43.67487" lon="6.83069">
        <ele>742</ele>
        <time>2019-10-06T09:47:49.000Z</time>
      </trkpt>
      <trkpt lat="43.67486" lon="6.83076">
        <ele>741.79998779297</ele>
        <time>2019-10-06T09:47:50.000Z</time>
      </trkpt>
      <trkpt lat="43.67476" lon="6.83135">
        <ele>743</ele>
        <time>2019-10-06T09:48:03.000Z</time>
      </trkpt>
      <trkpt lat="43.67468" lon="6.83126">
        <ele>743.20001220703</ele>
        <time>2019-10-06T09:48:08.000Z</time>
      </trkpt>
      <trkpt lat="43.67463" lon="6.83116">
        <ele>743</ele>
        <time>2019-10-06T09:48:11.000Z</time>
      </trkpt>
      <trkpt lat="43.67461" lon="6.83113">
        <ele>743</ele>
        <time>2019-10-06T09:48:12.000Z</time>
      </trkpt>
      <trkpt lat="43.67459" lon="6.83111">
        <ele>743.20001220703</ele>
        <time>2019-10-06T09:48:13.000Z</time>
      </trkpt>
      <trkpt lat="43.67456" lon="6.83113">
        <ele>743.20001220703</ele>
        <time>2019-10-06T09:48:14.000Z</time>
      </trkpt>
      <trkpt lat="43.67447" lon="6.83139">
        <ele>743.20001220703</ele>
        <time>2019-10-06T09:48:22.000Z</time>
      </trkpt>
      <trkpt lat="43.67431" lon="6.83177">
        <ele>741.59997558594</ele>
        <time>2019-10-06T09:48:31.000Z</time>
      </trkpt>
      <trkpt lat="43.67422" lon="6.83194">
        <ele>740.40002441406</ele>
        <time>2019-10-06T09:48:36.000Z</time>
      </trkpt>
      <trkpt lat="43.67417" lon="6.83207">
        <ele>739.20001220703</ele>
        <time>2019-10-06T09:48:39.000Z</time>
      </trkpt>
      <trkpt lat="43.67411" lon="6.83213">
        <ele>738.20001220703</ele>
        <time>2019-10-06T09:48:41.000Z</time>
      </trkpt>
      <trkpt lat="43.67402" lon="6.83217">
        <ele>737.40002441406</ele>
        <time>2019-10-06T09:48:43.000Z</time>
      </trkpt>
      <trkpt lat="43.67398" lon="6.8322">
        <ele>736.79998779297</ele>
        <time>2019-10-06T09:48:44.000Z</time>
      </trkpt>
      <trkpt lat="43.67385" lon="6.83229">
        <ele>735.79998779297</ele>
        <time>2019-10-06T09:48:47.000Z</time>
      </trkpt>
      <trkpt lat="43.67376" lon="6.83235">
        <ele>734.59997558594</ele>
        <time>2019-10-06T09:48:50.000Z</time>
      </trkpt>
      <trkpt lat="43.6737" lon="6.83237">
        <ele>734.40002441406</ele>
        <time>2019-10-06T09:48:52.000Z</time>
      </trkpt>
      <trkpt lat="43.6736" lon="6.83244">
        <ele>732.79998779297</ele>
        <time>2019-10-06T09:48:55.000Z</time>
      </trkpt>
      <trkpt lat="43.67354" lon="6.8325">
        <ele>731.20001220703</ele>
        <time>2019-10-06T09:48:57.000Z</time>
      </trkpt>
      <trkpt lat="43.67351" lon="6.83254">
        <ele>730.59997558594</ele>
        <time>2019-10-06T09:48:58.000Z</time>
      </trkpt>
      <trkpt lat="43.67348" lon="6.83258">
        <ele>729.79998779297</ele>
        <time>2019-10-06T09:48:59.000Z</time>
      </trkpt>
      <trkpt lat="43.67345" lon="6.8326">
        <ele>729</ele>
        <time>2019-10-06T09:49:00.000Z</time>
      </trkpt>
      <trkpt lat="43.67342" lon="6.8326">
        <ele>728.59997558594</ele>
        <time>2019-10-06T09:49:01.000Z</time>
      </trkpt>
      <trkpt lat="43.67336" lon="6.83263">
        <ele>727</ele>
        <time>2019-10-06T09:49:03.000Z</time>
      </trkpt>
      <trkpt lat="43.6733" lon="6.83261">
        <ele>725.79998779297</ele>
        <time>2019-10-06T09:49:06.000Z</time>
      </trkpt>
      <trkpt lat="43.67326" lon="6.83254">
        <ele>724.79998779297</ele>
        <time>2019-10-06T09:49:09.000Z</time>
      </trkpt>
      <trkpt lat="43.67322" lon="6.83254">
        <ele>724.40002441406</ele>
        <time>2019-10-06T09:49:11.000Z</time>
      </trkpt>
      <trkpt lat="43.67311" lon="6.83261">
        <ele>723.20001220703</ele>
        <time>2019-10-06T09:49:15.000Z</time>
      </trkpt>
      <trkpt lat="43.67308" lon="6.83271">
        <ele>721.79998779297</ele>
        <time>2019-10-06T09:49:18.000Z</time>
      </trkpt>
      <trkpt lat="43.67306" lon="6.83286">
        <ele>720.59997558594</ele>
        <time>2019-10-06T09:49:21.000Z</time>
      </trkpt>
      <trkpt lat="43.67293" lon="6.83297">
        <ele>719.40002441406</ele>
        <time>2019-10-06T09:49:25.000Z</time>
      </trkpt>
      <trkpt lat="43.67281" lon="6.83292">
        <ele>717.79998779297</ele>
        <time>2019-10-06T09:49:28.000Z</time>
      </trkpt>
      <trkpt lat="43.67276" lon="6.83287">
        <ele>717.40002441406</ele>
        <time>2019-10-06T09:49:29.000Z</time>
      </trkpt>
      <trkpt lat="43.67272" lon="6.83282">
        <ele>716.79998779297</ele>
        <time>2019-10-06T09:49:30.000Z</time>
      </trkpt>
      <trkpt lat="43.67263" lon="6.83269">
        <ele>715.20001220703</ele>
        <time>2019-10-06T09:49:32.000Z</time>
      </trkpt>
      <trkpt lat="43.67255" lon="6.83255">
        <ele>714.40002441406</ele>
        <time>2019-10-06T09:49:34.000Z</time>
      </trkpt>
      <trkpt lat="43.67251" lon="6.8325">
        <ele>714</ele>
        <time>2019-10-06T09:49:35.000Z</time>
      </trkpt>
      <trkpt lat="43.67243" lon="6.83248">
        <ele>712.79998779297</ele>
        <time>2019-10-06T09:49:37.000Z</time>
      </trkpt>
      <trkpt lat="43.67236" lon="6.83257">
        <ele>711.40002441406</ele>
        <time>2019-10-06T09:49:39.000Z</time>
      </trkpt>
      <trkpt lat="43.67234" lon="6.83274">
        <ele>710.20001220703</ele>
        <time>2019-10-06T09:49:41.000Z</time>
      </trkpt>
      <trkpt lat="43.67233" lon="6.83287">
        <ele>709</ele>
        <time>2019-10-06T09:49:43.000Z</time>
      </trkpt>
      <trkpt lat="43.67227" lon="6.83295">
        <ele>707.79998779297</ele>
        <time>2019-10-06T09:49:46.000Z</time>
      </trkpt>
      <trkpt lat="43.67226" lon="6.83289">
        <ele>707</ele>
        <time>2019-10-06T09:49:49.000Z</time>
      </trkpt>
      <trkpt lat="43.67215" lon="6.83265">
        <ele>706.59997558594</ele>
        <time>2019-10-06T09:49:55.000Z</time>
      </trkpt>
      <trkpt lat="43.67211" lon="6.83252">
        <ele>705.40002441406</ele>
        <time>2019-10-06T09:49:57.000Z</time>
      </trkpt>
      <trkpt lat="43.67207" lon="6.83239">
        <ele>703.79998779297</ele>
        <time>2019-10-06T09:49:59.000Z</time>
      </trkpt>
      <trkpt lat="43.67205" lon="6.83233">
        <ele>703</ele>
        <time>2019-10-06T09:50:00.000Z</time>
      </trkpt>
      <trkpt lat="43.67199" lon="6.83221">
        <ele>702.40002441406</ele>
        <time>2019-10-06T09:50:01.000Z</time>
      </trkpt>
      <trkpt lat="43.67194" lon="6.83209">
        <ele>700</ele>
        <time>2019-10-06T09:50:04.000Z</time>
      </trkpt>
      <trkpt lat="43.67181" lon="6.83188">
        <ele>698.59997558594</ele>
        <time>2019-10-06T09:50:08.000Z</time>
      </trkpt>
      <trkpt lat="43.67178" lon="6.83182">
        <ele>698.20001220703</ele>
        <time>2019-10-06T09:50:09.000Z</time>
      </trkpt>
      <trkpt lat="43.67168" lon="6.83165">
        <ele>697.20001220703</ele>
        <time>2019-10-06T09:50:12.000Z</time>
      </trkpt>
      <trkpt lat="43.67163" lon="6.83154">
        <ele>695.59997558594</ele>
        <time>2019-10-06T09:50:14.000Z</time>
      </trkpt>
      <trkpt lat="43.6716" lon="6.83148">
        <ele>695</ele>
        <time>2019-10-06T09:50:15.000Z</time>
      </trkpt>
      <trkpt lat="43.67157" lon="6.83142">
        <ele>694.40002441406</ele>
        <time>2019-10-06T09:50:16.000Z</time>
      </trkpt>
      <trkpt lat="43.67151" lon="6.83128">
        <ele>693</ele>
        <time>2019-10-06T09:50:18.000Z</time>
      </trkpt>
      <trkpt lat="43.67149" lon="6.83122">
        <ele>691.79998779297</ele>
        <time>2019-10-06T09:50:19.000Z</time>
      </trkpt>
      <trkpt lat="43.67145" lon="6.83108">
        <ele>690.20001220703</ele>
        <time>2019-10-06T09:50:21.000Z</time>
      </trkpt>
      <trkpt lat="43.67144" lon="6.83102">
        <ele>689</ele>
        <time>2019-10-06T09:50:22.000Z</time>
      </trkpt>
      <trkpt lat="43.67144" lon="6.83092">
        <ele>687.40002441406</ele>
        <time>2019-10-06T09:50:24.000Z</time>
      </trkpt>
      <trkpt lat="43.67143" lon="6.83088">
        <ele>686.59997558594</ele>
        <time>2019-10-06T09:50:25.000Z</time>
      </trkpt>
      <trkpt lat="43.67141" lon="6.83086">
        <ele>685.79998779297</ele>
        <time>2019-10-06T09:50:26.000Z</time>
      </trkpt>
      <trkpt lat="43.67132" lon="6.83087">
        <ele>684.40002441406</ele>
        <time>2019-10-06T09:50:29.000Z</time>
      </trkpt>
      <trkpt lat="43.67125" lon="6.83096">
        <ele>682.59997558594</ele>
        <time>2019-10-06T09:50:31.000Z</time>
      </trkpt>
      <trkpt lat="43.67119" lon="6.83109">
        <ele>681.20001220703</ele>
        <time>2019-10-06T09:50:33.000Z</time>
      </trkpt>
      <trkpt lat="43.67114" lon="6.83123">
        <ele>680</ele>
        <time>2019-10-06T09:50:35.000Z</time>
      </trkpt>
      <trkpt lat="43.67111" lon="6.83136">
        <ele>679</ele>
        <time>2019-10-06T09:50:37.000Z</time>
      </trkpt>
      <trkpt lat="43.67107" lon="6.8315">
        <ele>678.20001220703</ele>
        <time>2019-10-06T09:50:39.000Z</time>
      </trkpt>
      <trkpt lat="43.67105" lon="6.83158">
        <ele>677</ele>
        <time>2019-10-06T09:50:40.000Z</time>
      </trkpt>
      <trkpt lat="43.67104" lon="6.83166">
        <ele>676.40002441406</ele>
        <time>2019-10-06T09:50:41.000Z</time>
      </trkpt>
      <trkpt lat="43.67102" lon="6.83181">
        <ele>675</ele>
        <time>2019-10-06T09:50:43.000Z</time>
      </trkpt>
      <trkpt lat="43.67099" lon="6.83195">
        <ele>673.59997558594</ele>
        <time>2019-10-06T09:50:45.000Z</time>
      </trkpt>
      <trkpt lat="43.67099" lon="6.83209">
        <ele>672.59997558594</ele>
        <time>2019-10-06T09:50:47.000Z</time>
      </trkpt>
      <trkpt lat="43.67094" lon="6.83236">
        <ele>672.59997558594</ele>
        <time>2019-10-06T09:50:53.000Z</time>
      </trkpt>
      <trkpt lat="43.67063" lon="6.83299">
        <ele>671.79998779297</ele>
        <time>2019-10-06T09:51:09.000Z</time>
      </trkpt>
      <trkpt lat="43.6706" lon="6.83303">
        <ele>671.40002441406</ele>
        <time>2019-10-06T09:51:10.000Z</time>
      </trkpt>
      <trkpt lat="43.67054" lon="6.83311">
        <ele>670.79998779297</ele>
        <time>2019-10-06T09:51:12.000Z</time>
      </trkpt>
      <trkpt lat="43.67051" lon="6.83316">
        <ele>670.40002441406</ele>
        <time>2019-10-06T09:51:13.000Z</time>
      </trkpt>
      <trkpt lat="43.67045" lon="6.83325">
        <ele>669.20001220703</ele>
        <time>2019-10-06T09:51:15.000Z</time>
      </trkpt>
      <trkpt lat="43.67037" lon="6.8333">
        <ele>667.79998779297</ele>
        <time>2019-10-06T09:51:17.000Z</time>
      </trkpt>
      <trkpt lat="43.67028" lon="6.83331">
        <ele>666.40002441406</ele>
        <time>2019-10-06T09:51:19.000Z</time>
      </trkpt>
      <trkpt lat="43.67023" lon="6.83331">
        <ele>665.79998779297</ele>
        <time>2019-10-06T09:51:20.000Z</time>
      </trkpt>
      <trkpt lat="43.67019" lon="6.83332">
        <ele>665.20001220703</ele>
        <time>2019-10-06T09:51:21.000Z</time>
      </trkpt>
      <trkpt lat="43.67015" lon="6.83334">
        <ele>664.20001220703</ele>
        <time>2019-10-06T09:51:22.000Z</time>
      </trkpt>
      <trkpt lat="43.67007" lon="6.83337">
        <ele>662.40002441406</ele>
        <time>2019-10-06T09:51:24.000Z</time>
      </trkpt>
      <trkpt lat="43.66999" lon="6.83336">
        <ele>660.79998779297</ele>
        <time>2019-10-06T09:51:26.000Z</time>
      </trkpt>
      <trkpt lat="43.66994" lon="6.83333">
        <ele>659.79998779297</ele>
        <time>2019-10-06T09:51:27.000Z</time>
      </trkpt>
      <trkpt lat="43.66989" lon="6.83331">
        <ele>658.59997558594</ele>
        <time>2019-10-06T09:51:28.000Z</time>
      </trkpt>
      <trkpt lat="43.66985" lon="6.83329">
        <ele>657.59997558594</ele>
        <time>2019-10-06T09:51:29.000Z</time>
      </trkpt>
      <trkpt lat="43.66979" lon="6.83326">
        <ele>657</ele>
        <time>2019-10-06T09:51:30.000Z</time>
      </trkpt>
      <trkpt lat="43.66975" lon="6.83324">
        <ele>655.79998779297</ele>
        <time>2019-10-06T09:51:31.000Z</time>
      </trkpt>
      <trkpt lat="43.66964" lon="6.8332">
        <ele>654.40002441406</ele>
        <time>2019-10-06T09:51:33.000Z</time>
      </trkpt>
      <trkpt lat="43.66959" lon="6.83316">
        <ele>653.40002441406</ele>
        <time>2019-10-06T09:51:34.000Z</time>
      </trkpt>
      <trkpt lat="43.66954" lon="6.83313">
        <ele>652.40002441406</ele>
        <time>2019-10-06T09:51:35.000Z</time>
      </trkpt>
      <trkpt lat="43.6695" lon="6.83308">
        <ele>651.20001220703</ele>
        <time>2019-10-06T09:51:36.000Z</time>
      </trkpt>
      <trkpt lat="43.66942" lon="6.83299">
        <ele>649.59997558594</ele>
        <time>2019-10-06T09:51:38.000Z</time>
      </trkpt>
      <trkpt lat="43.66935" lon="6.83294">
        <ele>648.40002441406</ele>
        <time>2019-10-06T09:51:40.000Z</time>
      </trkpt>
      <trkpt lat="43.6693" lon="6.83295">
        <ele>648.20001220703</ele>
        <time>2019-10-06T09:51:41.000Z</time>
      </trkpt>
      <trkpt lat="43.66923" lon="6.833">
        <ele>647.40002441406</ele>
        <time>2019-10-06T09:51:43.000Z</time>
      </trkpt>
      <trkpt lat="43.66919" lon="6.83314">
        <ele>647.20001220703</ele>
        <time>2019-10-06T09:51:46.000Z</time>
      </trkpt>
      <trkpt lat="43.66913" lon="6.83326">
        <ele>647.59997558594</ele>
        <time>2019-10-06T09:51:49.000Z</time>
      </trkpt>
      <trkpt lat="43.66885" lon="6.83314">
        <ele>646</ele>
        <time>2019-10-06T09:51:57.000Z</time>
      </trkpt>
      <trkpt lat="43.66875" lon="6.83321">
        <ele>645</ele>
        <time>2019-10-06T09:51:59.000Z</time>
      </trkpt>
      <trkpt lat="43.66866" lon="6.83331">
        <ele>643</ele>
        <time>2019-10-06T09:52:01.000Z</time>
      </trkpt>
      <trkpt lat="43.66858" lon="6.83338">
        <ele>641.59997558594</ele>
        <time>2019-10-06T09:52:03.000Z</time>
      </trkpt>
      <trkpt lat="43.6684" lon="6.83348">
        <ele>640.40002441406</ele>
        <time>2019-10-06T09:52:07.000Z</time>
      </trkpt>
      <trkpt lat="43.66828" lon="6.83355">
        <ele>639.20001220703</ele>
        <time>2019-10-06T09:52:09.000Z</time>
      </trkpt>
      <trkpt lat="43.66813" lon="6.83366">
        <ele>637.79998779297</ele>
        <time>2019-10-06T09:52:11.000Z</time>
      </trkpt>
      <trkpt lat="43.66798" lon="6.83379">
        <ele>636.20001220703</ele>
        <time>2019-10-06T09:52:13.000Z</time>
      </trkpt>
      <trkpt lat="43.66782" lon="6.83391">
        <ele>634.20001220703</ele>
        <time>2019-10-06T09:52:15.000Z</time>
      </trkpt>
      <trkpt lat="43.66774" lon="6.83398">
        <ele>633.40002441406</ele>
        <time>2019-10-06T09:52:16.000Z</time>
      </trkpt>
      <trkpt lat="43.66766" lon="6.83407">
        <ele>632.79998779297</ele>
        <time>2019-10-06T09:52:17.000Z</time>
      </trkpt>
      <trkpt lat="43.66753" lon="6.83421">
        <ele>631.79998779297</ele>
        <time>2019-10-06T09:52:19.000Z</time>
      </trkpt>
      <trkpt lat="43.66747" lon="6.83425">
        <ele>631.40002441406</ele>
        <time>2019-10-06T09:52:20.000Z</time>
      </trkpt>
      <trkpt lat="43.6673" lon="6.83422">
        <ele>630.20001220703</ele>
        <time>2019-10-06T09:52:23.000Z</time>
      </trkpt>
      <trkpt lat="43.66723" lon="6.83415">
        <ele>628.40002441406</ele>
        <time>2019-10-06T09:52:25.000Z</time>
      </trkpt>
      <trkpt lat="43.66722" lon="6.83403">
        <ele>626.79998779297</ele>
        <time>2019-10-06T09:52:27.000Z</time>
      </trkpt>
      <trkpt lat="43.66724" lon="6.83383">
        <ele>625.59997558594</ele>
        <time>2019-10-06T09:52:30.000Z</time>
      </trkpt>
      <trkpt lat="43.66724" lon="6.8337">
        <ele>624.20001220703</ele>
        <time>2019-10-06T09:52:32.000Z</time>
      </trkpt>
      <trkpt lat="43.66726" lon="6.83353">
        <ele>622.79998779297</ele>
        <time>2019-10-06T09:52:34.000Z</time>
      </trkpt>
      <trkpt lat="43.66732" lon="6.83335">
        <ele>621.59997558594</ele>
        <time>2019-10-06T09:52:36.000Z</time>
      </trkpt>
      <trkpt lat="43.66735" lon="6.83325">
        <ele>621</ele>
        <time>2019-10-06T09:52:37.000Z</time>
      </trkpt>
      <trkpt lat="43.66737" lon="6.83308">
        <ele>620.40002441406</ele>
        <time>2019-10-06T09:52:39.000Z</time>
      </trkpt>
      <trkpt lat="43.66736" lon="6.83283">
        <ele>619.20001220703</ele>
        <time>2019-10-06T09:52:42.000Z</time>
      </trkpt>
      <trkpt lat="43.66735" lon="6.83267">
        <ele>617.59997558594</ele>
        <time>2019-10-06T09:52:44.000Z</time>
      </trkpt>
      <trkpt lat="43.66736" lon="6.83255">
        <ele>616.59997558594</ele>
        <time>2019-10-06T09:52:46.000Z</time>
      </trkpt>
      <trkpt lat="43.66734" lon="6.83251">
        <ele>616</ele>
        <time>2019-10-06T09:52:47.000Z</time>
      </trkpt>
      <trkpt lat="43.66732" lon="6.83249">
        <ele>615.59997558594</ele>
        <time>2019-10-06T09:52:48.000Z</time>
      </trkpt>
      <trkpt lat="43.66719" lon="6.83249">
        <ele>614.40002441406</ele>
        <time>2019-10-06T09:52:51.000Z</time>
      </trkpt>
      <trkpt lat="43.6671" lon="6.83254">
        <ele>613.79998779297</ele>
        <time>2019-10-06T09:52:53.000Z</time>
      </trkpt>
      <trkpt lat="43.66701" lon="6.83266">
        <ele>613.40002441406</ele>
        <time>2019-10-06T09:52:56.000Z</time>
      </trkpt>
      <trkpt lat="43.66698" lon="6.83269">
        <ele>613.20001220703</ele>
        <time>2019-10-06T09:52:57.000Z</time>
      </trkpt>
      <trkpt lat="43.66676" lon="6.83281">
        <ele>613.40002441406</ele>
        <time>2019-10-06T09:53:04.000Z</time>
      </trkpt>
      <trkpt lat="43.66658" lon="6.8326">
        <ele>612.40002441406</ele>
        <time>2019-10-06T09:53:10.000Z</time>
      </trkpt>
      <trkpt lat="43.66655" lon="6.83254">
        <ele>611.59997558594</ele>
        <time>2019-10-06T09:53:11.000Z</time>
      </trkpt>
      <trkpt lat="43.6665" lon="6.83248">
        <ele>610.40002441406</ele>
        <time>2019-10-06T09:53:12.000Z</time>
      </trkpt>
      <trkpt lat="43.66642" lon="6.83234">
        <ele>609.20001220703</ele>
        <time>2019-10-06T09:53:14.000Z</time>
      </trkpt>
      <trkpt lat="43.66637" lon="6.83218">
        <ele>608.20001220703</ele>
        <time>2019-10-06T09:53:16.000Z</time>
      </trkpt>
      <trkpt lat="43.66634" lon="6.8321">
        <ele>607.79998779297</ele>
        <time>2019-10-06T09:53:17.000Z</time>
      </trkpt>
      <trkpt lat="43.66631" lon="6.83203">
        <ele>607</ele>
        <time>2019-10-06T09:53:18.000Z</time>
      </trkpt>
      <trkpt lat="43.66627" lon="6.83197">
        <ele>606.20001220703</ele>
        <time>2019-10-06T09:53:19.000Z</time>
      </trkpt>
      <trkpt lat="43.66622" lon="6.83192">
        <ele>605.20001220703</ele>
        <time>2019-10-06T09:53:20.000Z</time>
      </trkpt>
      <trkpt lat="43.66612" lon="6.8319">
        <ele>604.40002441406</ele>
        <time>2019-10-06T09:53:22.000Z</time>
      </trkpt>
      <trkpt lat="43.66607" lon="6.83192">
        <ele>604</ele>
        <time>2019-10-06T09:53:23.000Z</time>
      </trkpt>
      <trkpt lat="43.66602" lon="6.83194">
        <ele>603.79998779297</ele>
        <time>2019-10-06T09:53:24.000Z</time>
      </trkpt>
      <trkpt lat="43.66592" lon="6.83197">
        <ele>603.59997558594</ele>
        <time>2019-10-06T09:53:26.000Z</time>
      </trkpt>
      <trkpt lat="43.66558" lon="6.83207">
        <ele>604</ele>
        <time>2019-10-06T09:53:34.000Z</time>
      </trkpt>
      <trkpt lat="43.66546" lon="6.83213">
        <ele>603.79998779297</ele>
        <time>2019-10-06T09:53:37.000Z</time>
      </trkpt>
      <trkpt lat="43.66534" lon="6.83223">
        <ele>603.40002441406</ele>
        <time>2019-10-06T09:53:40.000Z</time>
      </trkpt>
      <trkpt lat="43.66526" lon="6.8323">
        <ele>603</ele>
        <time>2019-10-06T09:53:42.000Z</time>
      </trkpt>
      <trkpt lat="43.66523" lon="6.83234">
        <ele>602.59997558594</ele>
        <time>2019-10-06T09:53:43.000Z</time>
      </trkpt>
      <trkpt lat="43.6652" lon="6.8324">
        <ele>601.59997558594</ele>
        <time>2019-10-06T09:53:44.000Z</time>
      </trkpt>
      <trkpt lat="43.66514" lon="6.83255">
        <ele>600.40002441406</ele>
        <time>2019-10-06T09:53:46.000Z</time>
      </trkpt>
      <trkpt lat="43.66511" lon="6.83263">
        <ele>600</ele>
        <time>2019-10-06T09:53:47.000Z</time>
      </trkpt>
      <trkpt lat="43.66506" lon="6.83284">
        <ele>599.79998779297</ele>
        <time>2019-10-06T09:53:50.000Z</time>
      </trkpt>
      <trkpt lat="43.66499" lon="6.83292">
        <ele>599.20001220703</ele>
        <time>2019-10-06T09:53:52.000Z</time>
      </trkpt>
      <trkpt lat="43.66486" lon="6.83298">
        <ele>598.40002441406</ele>
        <time>2019-10-06T09:53:55.000Z</time>
      </trkpt>
      <trkpt lat="43.66481" lon="6.83298">
        <ele>598.20001220703</ele>
        <time>2019-10-06T09:53:56.000Z</time>
      </trkpt>
      <trkpt lat="43.66465" lon="6.83287">
        <ele>597.79998779297</ele>
        <time>2019-10-06T09:54:00.000Z</time>
      </trkpt>
      <trkpt lat="43.66445" lon="6.8326">
        <ele>599.20001220703</ele>
        <time>2019-10-06T09:54:12.000Z</time>
      </trkpt>
      <trkpt lat="43.66443" lon="6.8326">
        <ele>599.40002441406</ele>
        <time>2019-10-06T09:54:13.000Z</time>
      </trkpt>
      <trkpt lat="43.66438" lon="6.8327">
        <ele>600.40002441406</ele>
        <time>2019-10-06T09:54:17.000Z</time>
      </trkpt>
      <trkpt lat="43.66438" lon="6.83273">
        <ele>600.40002441406</ele>
        <time>2019-10-06T09:54:18.000Z</time>
      </trkpt>
      <trkpt lat="43.66435" lon="6.83294">
        <ele>601</ele>
        <time>2019-10-06T09:54:25.000Z</time>
      </trkpt>
      <trkpt lat="43.66421" lon="6.83316">
        <ele>601.79998779297</ele>
        <time>2019-10-06T09:54:34.000Z</time>
      </trkpt>
      <trkpt lat="43.66417" lon="6.83327">
        <ele>602.79998779297</ele>
        <time>2019-10-06T09:54:39.000Z</time>
      </trkpt>
      <trkpt lat="43.66412" lon="6.83337">
        <ele>603.40002441406</ele>
        <time>2019-10-06T09:54:44.000Z</time>
      </trkpt>
      <trkpt lat="43.66407" lon="6.83345">
        <ele>603.79998779297</ele>
        <time>2019-10-06T09:54:49.000Z</time>
      </trkpt>
      <trkpt lat="43.66403" lon="6.83356">
        <ele>604.20001220703</ele>
        <time>2019-10-06T09:54:55.000Z</time>
      </trkpt>
      <trkpt lat="43.66391" lon="6.83376">
        <ele>604.79998779297</ele>
        <time>2019-10-06T09:55:05.000Z</time>
      </trkpt>
      <trkpt lat="43.66364" lon="6.83382">
        <ele>605.79998779297</ele>
        <time>2019-10-06T09:55:19.000Z</time>
      </trkpt>
      <trkpt lat="43.66362" lon="6.83383">
        <ele>606</ele>
        <time>2019-10-06T09:55:20.000Z</time>
      </trkpt>
      <trkpt lat="43.6634" lon="6.83385">
        <ele>607</ele>
        <time>2019-10-06T09:55:31.000Z</time>
      </trkpt>
      <trkpt lat="43.66333" lon="6.8339">
        <ele>606.79998779297</ele>
        <time>2019-10-06T09:55:35.000Z</time>
      </trkpt>
      <trkpt lat="43.66319" lon="6.83422">
        <ele>607.20001220703</ele>
        <time>2019-10-06T09:55:48.000Z</time>
      </trkpt>
      <trkpt lat="43.66307" lon="6.83446">
        <ele>608</ele>
        <time>2019-10-06T09:55:59.000Z</time>
      </trkpt>
      <trkpt lat="43.66306" lon="6.83448">
        <ele>608</ele>
        <time>2019-10-06T09:56:00.000Z</time>
      </trkpt>
      <trkpt lat="43.66304" lon="6.83448">
        <ele>608.20001220703</ele>
        <time>2019-10-06T09:56:01.000Z</time>
      </trkpt>
      <trkpt lat="43.66294" lon="6.83452">
        <ele>609</ele>
        <time>2019-10-06T09:56:07.000Z</time>
      </trkpt>
      <trkpt lat="43.66291" lon="6.83454">
        <ele>609.20001220703</ele>
        <time>2019-10-06T09:56:09.000Z</time>
      </trkpt>
      <trkpt lat="43.6629" lon="6.83456">
        <ele>609.40002441406</ele>
        <time>2019-10-06T09:56:10.000Z</time>
      </trkpt>
      <trkpt lat="43.66285" lon="6.83466">
        <ele>609.79998779297</ele>
        <time>2019-10-06T09:56:15.000Z</time>
      </trkpt>
      <trkpt lat="43.66262" lon="6.83532">
        <ele>610.20001220703</ele>
        <time>2019-10-06T09:56:38.000Z</time>
      </trkpt>
      <trkpt lat="43.66258" lon="6.83536">
        <ele>610.40002441406</ele>
        <time>2019-10-06T09:56:40.000Z</time>
      </trkpt>
      <trkpt lat="43.66251" lon="6.83553">
        <ele>611.20001220703</ele>
        <time>2019-10-06T09:56:47.000Z</time>
      </trkpt>
      <trkpt lat="43.6625" lon="6.83558">
        <ele>611.59997558594</ele>
        <time>2019-10-06T09:56:49.000Z</time>
      </trkpt>
      <trkpt lat="43.66243" lon="6.83569">
        <ele>612.59997558594</ele>
        <time>2019-10-06T09:56:54.000Z</time>
      </trkpt>
      <trkpt lat="43.66239" lon="6.83574">
        <ele>613.20001220703</ele>
        <time>2019-10-06T09:56:57.000Z</time>
      </trkpt>
      <trkpt lat="43.66235" lon="6.83583">
        <ele>613.79998779297</ele>
        <time>2019-10-06T09:57:02.000Z</time>
      </trkpt>
      <trkpt lat="43.66223" lon="6.83598">
        <ele>615</ele>
        <time>2019-10-06T09:57:13.000Z</time>
      </trkpt>
      <trkpt lat="43.66214" lon="6.83605">
        <ele>616</ele>
        <time>2019-10-06T09:57:19.000Z</time>
      </trkpt>
      <trkpt lat="43.66207" lon="6.83606">
        <ele>616.59997558594</ele>
        <time>2019-10-06T09:57:24.000Z</time>
      </trkpt>
      <trkpt lat="43.662" lon="6.83604">
        <ele>617</ele>
        <time>2019-10-06T09:57:29.000Z</time>
      </trkpt>
      <trkpt lat="43.66196" lon="6.83586">
        <ele>618.20001220703</ele>
        <time>2019-10-06T09:57:38.000Z</time>
      </trkpt>
      <trkpt lat="43.66205" lon="6.83512">
        <ele>618.20001220703</ele>
        <time>2019-10-06T09:57:55.000Z</time>
      </trkpt>
      <trkpt lat="43.66209" lon="6.83436">
        <ele>619</ele>
        <time>2019-10-06T09:58:11.000Z</time>
      </trkpt>
      <trkpt lat="43.66209" lon="6.83431">
        <ele>619.20001220703</ele>
        <time>2019-10-06T09:58:13.000Z</time>
      </trkpt>
      <trkpt lat="43.66213" lon="6.83407">
        <ele>620.40002441406</ele>
        <time>2019-10-06T09:58:23.000Z</time>
      </trkpt>
      <trkpt lat="43.66219" lon="6.83388">
        <ele>621.59997558594</ele>
        <time>2019-10-06T09:58:30.000Z</time>
      </trkpt>
      <trkpt lat="43.66219" lon="6.8338">
        <ele>622.59997558594</ele>
        <time>2019-10-06T09:58:34.000Z</time>
      </trkpt>
      <trkpt lat="43.66218" lon="6.83368">
        <ele>623.79998779297</ele>
        <time>2019-10-06T09:58:40.000Z</time>
      </trkpt>
      <trkpt lat="43.66218" lon="6.83358">
        <ele>624.59997558594</ele>
        <time>2019-10-06T09:58:45.000Z</time>
      </trkpt>
      <trkpt lat="43.66218" lon="6.83356">
        <ele>625</ele>
        <time>2019-10-06T09:58:46.000Z</time>
      </trkpt>
      <trkpt lat="43.66219" lon="6.83344">
        <ele>626</ele>
        <time>2019-10-06T09:58:53.000Z</time>
      </trkpt>
      <trkpt lat="43.6622" lon="6.8333">
        <ele>627</ele>
        <time>2019-10-06T09:59:01.000Z</time>
      </trkpt>
      <trkpt lat="43.66221" lon="6.83315">
        <ele>628.20001220703</ele>
        <time>2019-10-06T09:59:09.000Z</time>
      </trkpt>
      <trkpt lat="43.66222" lon="6.83301">
        <ele>629.40002441406</ele>
        <time>2019-10-06T09:59:17.000Z</time>
      </trkpt>
      <trkpt lat="43.66223" lon="6.83286">
        <ele>630.59997558594</ele>
        <time>2019-10-06T09:59:25.000Z</time>
      </trkpt>
      <trkpt lat="43.66223" lon="6.83274">
        <ele>631.59997558594</ele>
        <time>2019-10-06T09:59:32.000Z</time>
      </trkpt>
      <trkpt lat="43.66222" lon="6.83263">
        <ele>632.79998779297</ele>
        <time>2019-10-06T09:59:38.000Z</time>
      </trkpt>
      <trkpt lat="43.66222" lon="6.83251">
        <ele>633.79998779297</ele>
        <time>2019-10-06T09:59:45.000Z</time>
      </trkpt>
      <trkpt lat="43.66222" lon="6.8324">
        <ele>635</ele>
        <time>2019-10-06T09:59:52.000Z</time>
      </trkpt>
      <trkpt lat="43.66223" lon="6.83228">
        <ele>636</ele>
        <time>2019-10-06T09:59:59.000Z</time>
      </trkpt>
      <trkpt lat="43.66225" lon="6.83223">
        <ele>637.20001220703</ele>
        <time>2019-10-06T10:00:03.000Z</time>
      </trkpt>
      <trkpt lat="43.66226" lon="6.83214">
        <ele>638.40002441406</ele>
        <time>2019-10-06T10:00:08.000Z</time>
      </trkpt>
      <trkpt lat="43.66226" lon="6.83204">
        <ele>639.40002441406</ele>
        <time>2019-10-06T10:00:14.000Z</time>
      </trkpt>
      <trkpt lat="43.66225" lon="6.83196">
        <ele>640</ele>
        <time>2019-10-06T10:00:19.000Z</time>
      </trkpt>
      <trkpt lat="43.66225" lon="6.83193">
        <ele>640.40002441406</ele>
        <time>2019-10-06T10:00:21.000Z</time>
      </trkpt>
      <trkpt lat="43.66225" lon="6.83181">
        <ele>641.40002441406</ele>
        <time>2019-10-06T10:00:28.000Z</time>
      </trkpt>
      <trkpt lat="43.66226" lon="6.83169">
        <ele>642.59997558594</ele>
        <time>2019-10-06T10:00:36.000Z</time>
      </trkpt>
      <trkpt lat="43.66226" lon="6.83158">
        <ele>643.59997558594</ele>
        <time>2019-10-06T10:00:44.000Z</time>
      </trkpt>
      <trkpt lat="43.66227" lon="6.83148">
        <ele>644.79998779297</ele>
        <time>2019-10-06T10:00:50.000Z</time>
      </trkpt>
      <trkpt lat="43.66227" lon="6.83137">
        <ele>645.79998779297</ele>
        <time>2019-10-06T10:00:57.000Z</time>
      </trkpt>
      <trkpt lat="43.66227" lon="6.83121">
        <ele>647</ele>
        <time>2019-10-06T10:01:07.000Z</time>
      </trkpt>
      <trkpt lat="43.66229" lon="6.8311">
        <ele>648.20001220703</ele>
        <time>2019-10-06T10:01:14.000Z</time>
      </trkpt>
      <trkpt lat="43.6623" lon="6.83099">
        <ele>649.20001220703</ele>
        <time>2019-10-06T10:01:22.000Z</time>
      </trkpt>
      <trkpt lat="43.66229" lon="6.83096">
        <ele>649.40002441406</ele>
        <time>2019-10-06T10:01:24.000Z</time>
      </trkpt>
      <trkpt lat="43.66229" lon="6.83088">
        <ele>650.20001220703</ele>
        <time>2019-10-06T10:01:29.000Z</time>
      </trkpt>
      <trkpt lat="43.66229" lon="6.83079">
        <ele>651.20001220703</ele>
        <time>2019-10-06T10:01:35.000Z</time>
      </trkpt>
      <trkpt lat="43.6623" lon="6.83068">
        <ele>652.40002441406</ele>
        <time>2019-10-06T10:01:41.000Z</time>
      </trkpt>
      <trkpt lat="43.66231" lon="6.83055">
        <ele>653.40002441406</ele>
        <time>2019-10-06T10:01:49.000Z</time>
      </trkpt>
      <trkpt lat="43.66232" lon="6.83044">
        <ele>654.40002441406</ele>
        <time>2019-10-06T10:01:55.000Z</time>
      </trkpt>
      <trkpt lat="43.66234" lon="6.83037">
        <ele>654.79998779297</ele>
        <time>2019-10-06T10:01:59.000Z</time>
      </trkpt>
      <trkpt lat="43.66234" lon="6.83033">
        <ele>655</ele>
        <time>2019-10-06T10:02:01.000Z</time>
      </trkpt>
      <trkpt lat="43.66234" lon="6.83029">
        <ele>655.40002441406</ele>
        <time>2019-10-06T10:02:03.000Z</time>
      </trkpt>
      <trkpt lat="43.66235" lon="6.83027">
        <ele>655.59997558594</ele>
        <time>2019-10-06T10:02:04.000Z</time>
      </trkpt>
      <trkpt lat="43.66235" lon="6.83023">
        <ele>655.79998779297</ele>
        <time>2019-10-06T10:02:06.000Z</time>
      </trkpt>
      <trkpt lat="43.66235" lon="6.83018">
        <ele>656</ele>
        <time>2019-10-06T10:02:09.000Z</time>
      </trkpt>
      <trkpt lat="43.66237" lon="6.83006">
        <ele>656.59997558594</ele>
        <time>2019-10-06T10:02:15.000Z</time>
      </trkpt>
      <trkpt lat="43.66238" lon="6.82995">
        <ele>657.40002441406</ele>
        <time>2019-10-06T10:02:21.000Z</time>
      </trkpt>
      <trkpt lat="43.66239" lon="6.82989">
        <ele>657.59997558594</ele>
        <time>2019-10-06T10:02:24.000Z</time>
      </trkpt>
      <trkpt lat="43.66244" lon="6.82969">
        <ele>658.79998779297</ele>
        <time>2019-10-06T10:02:35.000Z</time>
      </trkpt>
      <trkpt lat="43.66247" lon="6.8295">
        <ele>659.79998779297</ele>
        <time>2019-10-06T10:02:45.000Z</time>
      </trkpt>
      <trkpt lat="43.66247" lon="6.82937">
        <ele>661</ele>
        <time>2019-10-06T10:02:52.000Z</time>
      </trkpt>
      <trkpt lat="43.66244" lon="6.82922">
        <ele>662</ele>
        <time>2019-10-06T10:03:00.000Z</time>
      </trkpt>
      <trkpt lat="43.66246" lon="6.82897">
        <ele>663</ele>
        <time>2019-10-06T10:03:12.000Z</time>
      </trkpt>
      <trkpt lat="43.66247" lon="6.82889">
        <ele>664</ele>
        <time>2019-10-06T10:03:16.000Z</time>
      </trkpt>
      <trkpt lat="43.66247" lon="6.82887">
        <ele>664.20001220703</ele>
        <time>2019-10-06T10:03:17.000Z</time>
      </trkpt>
      <trkpt lat="43.66248" lon="6.82881">
        <ele>664.59997558594</ele>
        <time>2019-10-06T10:03:20.000Z</time>
      </trkpt>
      <trkpt lat="43.66248" lon="6.82874">
        <ele>665.40002441406</ele>
        <time>2019-10-06T10:03:24.000Z</time>
      </trkpt>
      <trkpt lat="43.66251" lon="6.82865">
        <ele>666.59997558594</ele>
        <time>2019-10-06T10:03:29.000Z</time>
      </trkpt>
      <trkpt lat="43.66253" lon="6.82853">
        <ele>667.59997558594</ele>
        <time>2019-10-06T10:03:36.000Z</time>
      </trkpt>
      <trkpt lat="43.66254" lon="6.82843">
        <ele>668.59997558594</ele>
        <time>2019-10-06T10:03:41.000Z</time>
      </trkpt>
      <trkpt lat="43.66253" lon="6.82834">
        <ele>669.79998779297</ele>
        <time>2019-10-06T10:03:46.000Z</time>
      </trkpt>
      <trkpt lat="43.66252" lon="6.82833">
        <ele>670.20001220703</ele>
        <time>2019-10-06T10:03:47.000Z</time>
      </trkpt>
      <trkpt lat="43.66252" lon="6.82831">
        <ele>671</ele>
        <time>2019-10-06T10:03:49.000Z</time>
      </trkpt>
      <trkpt lat="43.66246" lon="6.82834">
        <ele>671.79998779297</ele>
        <time>2019-10-06T10:03:58.000Z</time>
      </trkpt>
      <trkpt lat="43.66237" lon="6.82838">
        <ele>671.59997558594</ele>
        <time>2019-10-06T10:04:07.000Z</time>
      </trkpt>
      <trkpt lat="43.66233" lon="6.82836">
        <ele>671.59997558594</ele>
        <time>2019-10-06T10:04:10.000Z</time>
      </trkpt>
      <trkpt lat="43.66227" lon="6.82833">
        <ele>672.20001220703</ele>
        <time>2019-10-06T10:04:15.000Z</time>
      </trkpt>
      <trkpt lat="43.66227" lon="6.82832">
        <ele>672.40002441406</ele>
        <time>2019-10-06T10:04:16.000Z</time>
      </trkpt>
      <trkpt lat="43.66222" lon="6.82825">
        <ele>673</ele>
        <time>2019-10-06T10:04:22.000Z</time>
      </trkpt>
      <trkpt lat="43.66221" lon="6.82824">
        <ele>673</ele>
        <time>2019-10-06T10:04:23.000Z</time>
      </trkpt>
      <trkpt lat="43.66218" lon="6.82824">
        <ele>673.20001220703</ele>
        <time>2019-10-06T10:04:25.000Z</time>
      </trkpt>
      <trkpt lat="43.66207" lon="6.82826">
        <ele>674.40002441406</ele>
        <time>2019-10-06T10:04:33.000Z</time>
      </trkpt>
      <trkpt lat="43.66192" lon="6.82847">
        <ele>674.79998779297</ele>
        <time>2019-10-06T10:04:46.000Z</time>
      </trkpt>
      <trkpt lat="43.66176" lon="6.82869">
        <ele>675</ele>
        <time>2019-10-06T10:04:56.000Z</time>
      </trkpt>
      <trkpt lat="43.66173" lon="6.82871">
        <ele>675</ele>
        <time>2019-10-06T10:04:57.000Z</time>
      </trkpt>
      <trkpt lat="43.66151" lon="6.82888">
        <ele>674.59997558594</ele>
        <time>2019-10-06T10:05:06.000Z</time>
      </trkpt>
      <trkpt lat="43.66149" lon="6.82892">
        <ele>674.40002441406</ele>
        <time>2019-10-06T10:05:07.000Z</time>
      </trkpt>
      <trkpt lat="43.66145" lon="6.829">
        <ele>674</ele>
        <time>2019-10-06T10:05:09.000Z</time>
      </trkpt>
      <trkpt lat="43.66138" lon="6.82914">
        <ele>673.40002441406</ele>
        <time>2019-10-06T10:05:12.000Z</time>
      </trkpt>
      <trkpt lat="43.66125" lon="6.82933">
        <ele>672.40002441406</ele>
        <time>2019-10-06T10:05:19.000Z</time>
      </trkpt>
      <trkpt lat="43.66117" lon="6.82953">
        <ele>672.40002441406</ele>
        <time>2019-10-06T10:05:26.000Z</time>
      </trkpt>
      <trkpt lat="43.66105" lon="6.82978">
        <ele>672</ele>
        <time>2019-10-06T10:05:32.000Z</time>
      </trkpt>
      <trkpt lat="43.66101" lon="6.82987">
        <ele>671.79998779297</ele>
        <time>2019-10-06T10:05:34.000Z</time>
      </trkpt>
      <trkpt lat="43.66098" lon="6.82992">
        <ele>671.20001220703</ele>
        <time>2019-10-06T10:05:35.000Z</time>
      </trkpt>
      <trkpt lat="43.66092" lon="6.83011">
        <ele>670.59997558594</ele>
        <time>2019-10-06T10:05:38.000Z</time>
      </trkpt>
      <trkpt lat="43.6609" lon="6.83018">
        <ele>670.20001220703</ele>
        <time>2019-10-06T10:05:39.000Z</time>
      </trkpt>
      <trkpt lat="43.66086" lon="6.83034">
        <ele>669.20001220703</ele>
        <time>2019-10-06T10:05:42.000Z</time>
      </trkpt>
      <trkpt lat="43.66076" lon="6.83054">
        <ele>668.20001220703</ele>
        <time>2019-10-06T10:05:46.000Z</time>
      </trkpt>
      <trkpt lat="43.66069" lon="6.83065">
        <ele>667.59997558594</ele>
        <time>2019-10-06T10:05:48.000Z</time>
      </trkpt>
      <trkpt lat="43.66066" lon="6.83071">
        <ele>667</ele>
        <time>2019-10-06T10:05:49.000Z</time>
      </trkpt>
      <trkpt lat="43.66061" lon="6.83083">
        <ele>665.59997558594</ele>
        <time>2019-10-06T10:05:51.000Z</time>
      </trkpt>
      <trkpt lat="43.66057" lon="6.83098">
        <ele>664.59997558594</ele>
        <time>2019-10-06T10:05:53.000Z</time>
      </trkpt>
      <trkpt lat="43.66054" lon="6.83106">
        <ele>664.20001220703</ele>
        <time>2019-10-06T10:05:54.000Z</time>
      </trkpt>
      <trkpt lat="43.66048" lon="6.83121">
        <ele>663.20001220703</ele>
        <time>2019-10-06T10:05:56.000Z</time>
      </trkpt>
      <trkpt lat="43.66042" lon="6.83136">
        <ele>662.20001220703</ele>
        <time>2019-10-06T10:05:58.000Z</time>
      </trkpt>
      <trkpt lat="43.66037" lon="6.83149">
        <ele>660.79998779297</ele>
        <time>2019-10-06T10:06:00.000Z</time>
      </trkpt>
      <trkpt lat="43.6603" lon="6.83161">
        <ele>659.40002441406</ele>
        <time>2019-10-06T10:06:02.000Z</time>
      </trkpt>
      <trkpt lat="43.66028" lon="6.83173">
        <ele>657.79998779297</ele>
        <time>2019-10-06T10:06:05.000Z</time>
      </trkpt>
      <trkpt lat="43.6603" lon="6.83189">
        <ele>656.59997558594</ele>
        <time>2019-10-06T10:06:09.000Z</time>
      </trkpt>
      <trkpt lat="43.66024" lon="6.83201">
        <ele>655</ele>
        <time>2019-10-06T10:06:12.000Z</time>
      </trkpt>
      <trkpt lat="43.66015" lon="6.83207">
        <ele>654</ele>
        <time>2019-10-06T10:06:14.000Z</time>
      </trkpt>
      <trkpt lat="43.66011" lon="6.8321">
        <ele>653.59997558594</ele>
        <time>2019-10-06T10:06:15.000Z</time>
      </trkpt>
      <trkpt lat="43.66006" lon="6.83215">
        <ele>653.40002441406</ele>
        <time>2019-10-06T10:06:16.000Z</time>
      </trkpt>
      <trkpt lat="43.66001" lon="6.83221">
        <ele>652.59997558594</ele>
        <time>2019-10-06T10:06:17.000Z</time>
      </trkpt>
      <trkpt lat="43.65995" lon="6.83228">
        <ele>651.59997558594</ele>
        <time>2019-10-06T10:06:18.000Z</time>
      </trkpt>
      <trkpt lat="43.65985" lon="6.83241">
        <ele>649.79998779297</ele>
        <time>2019-10-06T10:06:20.000Z</time>
      </trkpt>
      <trkpt lat="43.65977" lon="6.83253">
        <ele>648.20001220703</ele>
        <time>2019-10-06T10:06:22.000Z</time>
      </trkpt>
      <trkpt lat="43.65968" lon="6.83266">
        <ele>646.40002441406</ele>
        <time>2019-10-06T10:06:24.000Z</time>
      </trkpt>
      <trkpt lat="43.65964" lon="6.83271">
        <ele>645.20001220703</ele>
        <time>2019-10-06T10:06:25.000Z</time>
      </trkpt>
      <trkpt lat="43.6596" lon="6.83276">
        <ele>643.79998779297</ele>
        <time>2019-10-06T10:06:27.000Z</time>
      </trkpt>
      <trkpt lat="43.6594" lon="6.83283">
        <ele>642.79998779297</ele>
        <time>2019-10-06T10:06:34.000Z</time>
      </trkpt>
      <trkpt lat="43.65933" lon="6.83286">
        <ele>642.20001220703</ele>
        <time>2019-10-06T10:06:36.000Z</time>
      </trkpt>
      <trkpt lat="43.65923" lon="6.83291">
        <ele>641.40002441406</ele>
        <time>2019-10-06T10:06:39.000Z</time>
      </trkpt>
      <trkpt lat="43.65906" lon="6.8329">
        <ele>640.40002441406</ele>
        <time>2019-10-06T10:06:44.000Z</time>
      </trkpt>
      <trkpt lat="43.65895" lon="6.8329">
        <ele>639.40002441406</ele>
        <time>2019-10-06T10:06:48.000Z</time>
      </trkpt>
      <trkpt lat="43.65892" lon="6.83289">
        <ele>638.40002441406</ele>
        <time>2019-10-06T10:06:49.000Z</time>
      </trkpt>
      <trkpt lat="43.65889" lon="6.83288">
        <ele>637.59997558594</ele>
        <time>2019-10-06T10:06:50.000Z</time>
      </trkpt>
      <trkpt lat="43.65875" lon="6.83284">
        <ele>636.59997558594</ele>
        <time>2019-10-06T10:06:55.000Z</time>
      </trkpt>
      <trkpt lat="43.65854" lon="6.83276">
        <ele>636.20001220703</ele>
        <time>2019-10-06T10:07:00.000Z</time>
      </trkpt>
      <trkpt lat="43.65842" lon="6.83273">
        <ele>636</ele>
        <time>2019-10-06T10:07:03.000Z</time>
      </trkpt>
      <trkpt lat="43.65828" lon="6.83271">
        <ele>635.40002441406</ele>
        <time>2019-10-06T10:07:06.000Z</time>
      </trkpt>
      <trkpt lat="43.65809" lon="6.83263">
        <ele>635.20001220703</ele>
        <time>2019-10-06T10:07:10.000Z</time>
      </trkpt>
      <trkpt lat="43.65799" lon="6.83258">
        <ele>635</ele>
        <time>2019-10-06T10:07:12.000Z</time>
      </trkpt>
      <trkpt lat="43.65756" lon="6.83233">
        <ele>634.79998779297</ele>
        <time>2019-10-06T10:07:21.000Z</time>
      </trkpt>
      <trkpt lat="43.65737" lon="6.83194">
        <ele>634.59997558594</ele>
        <time>2019-10-06T10:07:31.000Z</time>
      </trkpt>
      <trkpt lat="43.65735" lon="6.8319">
        <ele>634.40002441406</ele>
        <time>2019-10-06T10:07:32.000Z</time>
      </trkpt>
      <trkpt lat="43.65732" lon="6.83178">
        <ele>633.20001220703</ele>
        <time>2019-10-06T10:07:34.000Z</time>
      </trkpt>
      <trkpt lat="43.6573" lon="6.8316">
        <ele>631.79998779297</ele>
        <time>2019-10-06T10:07:37.000Z</time>
      </trkpt>
      <trkpt lat="43.65727" lon="6.83152">
        <ele>630.40002441406</ele>
        <time>2019-10-06T10:07:39.000Z</time>
      </trkpt>
      <trkpt lat="43.65721" lon="6.83151">
        <ele>629</ele>
        <time>2019-10-06T10:07:41.000Z</time>
      </trkpt>
      <trkpt lat="43.65714" lon="6.83157">
        <ele>628</ele>
        <time>2019-10-06T10:07:43.000Z</time>
      </trkpt>
      <trkpt lat="43.65707" lon="6.83167">
        <ele>628</ele>
        <time>2019-10-06T10:07:46.000Z</time>
      </trkpt>
      <trkpt lat="43.65696" lon="6.83176">
        <ele>628</ele>
        <time>2019-10-06T10:07:50.000Z</time>
      </trkpt>
      <trkpt lat="43.65662" lon="6.83203">
        <ele>628.40002441406</ele>
        <time>2019-10-06T10:08:03.000Z</time>
      </trkpt>
      <trkpt lat="43.65657" lon="6.8321">
        <ele>629.20001220703</ele>
        <time>2019-10-06T10:08:06.000Z</time>
      </trkpt>
      <trkpt lat="43.65646" lon="6.83233">
        <ele>630.20001220703</ele>
        <time>2019-10-06T10:08:15.000Z</time>
      </trkpt>
      <trkpt lat="43.65643" lon="6.83237">
        <ele>630.59997558594</ele>
        <time>2019-10-06T10:08:17.000Z</time>
      </trkpt>
      <trkpt lat="43.65626" lon="6.83252">
        <ele>630.79998779297</ele>
        <time>2019-10-06T10:08:25.000Z</time>
      </trkpt>
      <trkpt lat="43.65624" lon="6.83256">
        <ele>631</ele>
        <time>2019-10-06T10:08:26.000Z</time>
      </trkpt>
      <trkpt lat="43.6562" lon="6.83269">
        <ele>631.20001220703</ele>
        <time>2019-10-06T10:08:30.000Z</time>
      </trkpt>
      <trkpt lat="43.65612" lon="6.83288">
        <ele>631.20001220703</ele>
        <time>2019-10-06T10:08:36.000Z</time>
      </trkpt>
      <trkpt lat="43.6561" lon="6.83292">
        <ele>631.20001220703</ele>
        <time>2019-10-06T10:08:37.000Z</time>
      </trkpt>
      <trkpt lat="43.65604" lon="6.83301">
        <ele>631.40002441406</ele>
        <time>2019-10-06T10:08:40.000Z</time>
      </trkpt>
      <trkpt lat="43.65588" lon="6.83315">
        <ele>631.40002441406</ele>
        <time>2019-10-06T10:08:46.000Z</time>
      </trkpt>
      <trkpt lat="43.65578" lon="6.83307">
        <ele>631.20001220703</ele>
        <time>2019-10-06T10:08:50.000Z</time>
      </trkpt>
      <trkpt lat="43.65572" lon="6.83302">
        <ele>631.59997558594</ele>
        <time>2019-10-06T10:08:53.000Z</time>
      </trkpt>
      <trkpt lat="43.6557" lon="6.83297">
        <ele>631.79998779297</ele>
        <time>2019-10-06T10:08:55.000Z</time>
      </trkpt>
      <trkpt lat="43.65569" lon="6.83291">
        <ele>632.59997558594</ele>
        <time>2019-10-06T10:08:58.000Z</time>
      </trkpt>
      <trkpt lat="43.65568" lon="6.83286">
        <ele>633</ele>
        <time>2019-10-06T10:09:00.000Z</time>
      </trkpt>
      <trkpt lat="43.65567" lon="6.83283">
        <ele>633.40002441406</ele>
        <time>2019-10-06T10:09:02.000Z</time>
      </trkpt>
      <trkpt lat="43.65565" lon="6.8328">
        <ele>633.59997558594</ele>
        <time>2019-10-06T10:09:04.000Z</time>
      </trkpt>
      <trkpt lat="43.65564" lon="6.83268">
        <ele>632.79998779297</ele>
        <time>2019-10-06T10:09:16.000Z</time>
      </trkpt>
      <trkpt lat="43.65564" lon="6.83266">
        <ele>632.59997558594</ele>
        <time>2019-10-06T10:09:17.000Z</time>
      </trkpt>
      <trkpt lat="43.65569" lon="6.83257">
        <ele>631.59997558594</ele>
        <time>2019-10-06T10:09:21.000Z</time>
      </trkpt>
      <trkpt lat="43.65573" lon="6.83251">
        <ele>631.20001220703</ele>
        <time>2019-10-06T10:09:23.000Z</time>
      </trkpt>
      <trkpt lat="43.65584" lon="6.83239">
        <ele>630.20001220703</ele>
        <time>2019-10-06T10:09:27.000Z</time>
      </trkpt>
      <trkpt lat="43.65597" lon="6.83222">
        <ele>629.20001220703</ele>
        <time>2019-10-06T10:09:33.000Z</time>
      </trkpt>
      <trkpt lat="43.65596" lon="6.83212">
        <ele>627.79998779297</ele>
        <time>2019-10-06T10:09:36.000Z</time>
      </trkpt>
      <trkpt lat="43.65596" lon="6.83209">
        <ele>627.40002441406</ele>
        <time>2019-10-06T10:09:37.000Z</time>
      </trkpt>
      <trkpt lat="43.65593" lon="6.83206">
        <ele>626.40002441406</ele>
        <time>2019-10-06T10:09:39.000Z</time>
      </trkpt>
      <trkpt lat="43.65588" lon="6.83201">
        <ele>625.20001220703</ele>
        <time>2019-10-06T10:09:41.000Z</time>
      </trkpt>
      <trkpt lat="43.65585" lon="6.83194">
        <ele>623.59997558594</ele>
        <time>2019-10-06T10:09:43.000Z</time>
      </trkpt>
      <trkpt lat="43.65584" lon="6.8319">
        <ele>623</ele>
        <time>2019-10-06T10:09:44.000Z</time>
      </trkpt>
      <trkpt lat="43.65585" lon="6.83186">
        <ele>622.40002441406</ele>
        <time>2019-10-06T10:09:45.000Z</time>
      </trkpt>
      <trkpt lat="43.65589" lon="6.83181">
        <ele>621.20001220703</ele>
        <time>2019-10-06T10:09:47.000Z</time>
      </trkpt>
      <trkpt lat="43.65592" lon="6.83178">
        <ele>620.79998779297</ele>
        <time>2019-10-06T10:09:48.000Z</time>
      </trkpt>
      <trkpt lat="43.65597" lon="6.83174">
        <ele>620</ele>
        <time>2019-10-06T10:09:50.000Z</time>
      </trkpt>
      <trkpt lat="43.65606" lon="6.83163">
        <ele>618.79998779297</ele>
        <time>2019-10-06T10:09:58.000Z</time>
      </trkpt>
      <trkpt lat="43.65609" lon="6.83154">
        <ele>618</ele>
        <time>2019-10-06T10:10:01.000Z</time>
      </trkpt>
      <trkpt lat="43.65609" lon="6.83151">
        <ele>617.59997558594</ele>
        <time>2019-10-06T10:10:02.000Z</time>
      </trkpt>
      <trkpt lat="43.65607" lon="6.83146">
        <ele>616.40002441406</ele>
        <time>2019-10-06T10:10:04.000Z</time>
      </trkpt>
      <trkpt lat="43.65606" lon="6.83144">
        <ele>615.40002441406</ele>
        <time>2019-10-06T10:10:05.000Z</time>
      </trkpt>
      <trkpt lat="43.65604" lon="6.83144">
        <ele>614.79998779297</ele>
        <time>2019-10-06T10:10:06.000Z</time>
      </trkpt>
      <trkpt lat="43.65599" lon="6.83137">
        <ele>613.20001220703</ele>
        <time>2019-10-06T10:10:09.000Z</time>
      </trkpt>
      <trkpt lat="43.65597" lon="6.83132">
        <ele>612.20001220703</ele>
        <time>2019-10-06T10:10:11.000Z</time>
      </trkpt>
      <trkpt lat="43.65592" lon="6.83129">
        <ele>611</ele>
        <time>2019-10-06T10:10:13.000Z</time>
      </trkpt>
      <trkpt lat="43.65587" lon="6.83124">
        <ele>609.59997558594</ele>
        <time>2019-10-06T10:10:15.000Z</time>
      </trkpt>
      <trkpt lat="43.65585" lon="6.83122">
        <ele>608.79998779297</ele>
        <time>2019-10-06T10:10:16.000Z</time>
      </trkpt>
      <trkpt lat="43.65583" lon="6.83121">
        <ele>608.40002441406</ele>
        <time>2019-10-06T10:10:17.000Z</time>
      </trkpt>
      <trkpt lat="43.6558" lon="6.8312">
        <ele>607.79998779297</ele>
        <time>2019-10-06T10:10:18.000Z</time>
      </trkpt>
      <trkpt lat="43.65574" lon="6.83119">
        <ele>607.20001220703</ele>
        <time>2019-10-06T10:10:20.000Z</time>
      </trkpt>
      <trkpt lat="43.65569" lon="6.83116">
        <ele>606.20001220703</ele>
        <time>2019-10-06T10:10:22.000Z</time>
      </trkpt>
      <trkpt lat="43.65565" lon="6.83114">
        <ele>605.40002441406</ele>
        <time>2019-10-06T10:10:23.000Z</time>
      </trkpt>
      <trkpt lat="43.6556" lon="6.83114">
        <ele>604.40002441406</ele>
        <time>2019-10-06T10:10:25.000Z</time>
      </trkpt>
      <trkpt lat="43.65554" lon="6.83113">
        <ele>603.40002441406</ele>
        <time>2019-10-06T10:10:27.000Z</time>
      </trkpt>
      <trkpt lat="43.65547" lon="6.83114">
        <ele>602.20001220703</ele>
        <time>2019-10-06T10:10:29.000Z</time>
      </trkpt>
      <trkpt lat="43.65542" lon="6.83114">
        <ele>601.20001220703</ele>
        <time>2019-10-06T10:10:31.000Z</time>
      </trkpt>
      <trkpt lat="43.65538" lon="6.8311">
        <ele>599.59997558594</ele>
        <time>2019-10-06T10:10:34.000Z</time>
      </trkpt>
      <trkpt lat="43.65534" lon="6.8311">
        <ele>598.59997558594</ele>
        <time>2019-10-06T10:10:38.000Z</time>
      </trkpt>
      <trkpt lat="43.65531" lon="6.8311">
        <ele>598.40002441406</ele>
        <time>2019-10-06T10:10:39.000Z</time>
      </trkpt>
      <trkpt lat="43.65517" lon="6.83109">
        <ele>597.40002441406</ele>
        <time>2019-10-06T10:10:44.000Z</time>
      </trkpt>
      <trkpt lat="43.6551" lon="6.83107">
        <ele>595.59997558594</ele>
        <time>2019-10-06T10:10:46.000Z</time>
      </trkpt>
      <trkpt lat="43.65504" lon="6.83105">
        <ele>594.40002441406</ele>
        <time>2019-10-06T10:10:48.000Z</time>
      </trkpt>
      <trkpt lat="43.65495" lon="6.83105">
        <ele>593</ele>
        <time>2019-10-06T10:10:51.000Z</time>
      </trkpt>
      <trkpt lat="43.65492" lon="6.83106">
        <ele>592.40002441406</ele>
        <time>2019-10-06T10:10:52.000Z</time>
      </trkpt>
      <trkpt lat="43.65489" lon="6.83107">
        <ele>592</ele>
        <time>2019-10-06T10:10:53.000Z</time>
      </trkpt>
      <trkpt lat="43.65488" lon="6.83109">
        <ele>591.59997558594</ele>
        <time>2019-10-06T10:10:54.000Z</time>
      </trkpt>
      <trkpt lat="43.65486" lon="6.83111">
        <ele>591.40002441406</ele>
        <time>2019-10-06T10:10:58.000Z</time>
      </trkpt>
      <trkpt lat="43.65484" lon="6.83111">
        <ele>591.40002441406</ele>
        <time>2019-10-06T10:10:59.000Z</time>
      </trkpt>
      <trkpt lat="43.65482" lon="6.83111">
        <ele>591.20001220703</ele>
        <time>2019-10-06T10:11:00.000Z</time>
      </trkpt>
      <trkpt lat="43.65478" lon="6.83108">
        <ele>590.40002441406</ele>
        <time>2019-10-06T10:11:02.000Z</time>
      </trkpt>
      <trkpt lat="43.65473" lon="6.83105">
        <ele>589.40002441406</ele>
        <time>2019-10-06T10:11:04.000Z</time>
      </trkpt>
      <trkpt lat="43.65468" lon="6.83101">
        <ele>588.40002441406</ele>
        <time>2019-10-06T10:11:06.000Z</time>
      </trkpt>
      <trkpt lat="43.65465" lon="6.83098">
        <ele>587</ele>
        <time>2019-10-06T10:11:07.000Z</time>
      </trkpt>
      <trkpt lat="43.65459" lon="6.83093">
        <ele>584.59997558594</ele>
        <time>2019-10-06T10:11:09.000Z</time>
      </trkpt>
      <trkpt lat="43.65456" lon="6.83093">
        <ele>583.59997558594</ele>
        <time>2019-10-06T10:11:10.000Z</time>
      </trkpt>
      <trkpt lat="43.65451" lon="6.83097">
        <ele>582.40002441406</ele>
        <time>2019-10-06T10:11:12.000Z</time>
      </trkpt>
      <trkpt lat="43.65446" lon="6.83101">
        <ele>582</ele>
        <time>2019-10-06T10:11:14.000Z</time>
      </trkpt>
      <trkpt lat="43.65441" lon="6.83106">
        <ele>581.40002441406</ele>
        <time>2019-10-06T10:11:16.000Z</time>
      </trkpt>
      <trkpt lat="43.65427" lon="6.83122">
        <ele>580.20001220703</ele>
        <time>2019-10-06T10:11:21.000Z</time>
      </trkpt>
      <trkpt lat="43.65393" lon="6.83172">
        <ele>580.79998779297</ele>
        <time>2019-10-06T10:11:39.000Z</time>
      </trkpt>
      <trkpt lat="43.65386" lon="6.83177">
        <ele>580.20001220703</ele>
        <time>2019-10-06T10:11:41.000Z</time>
      </trkpt>
      <trkpt lat="43.65371" lon="6.83191">
        <ele>579</ele>
        <time>2019-10-06T10:11:45.000Z</time>
      </trkpt>
      <trkpt lat="43.65363" lon="6.83202">
        <ele>578</ele>
        <time>2019-10-06T10:11:48.000Z</time>
      </trkpt>
      <trkpt lat="43.65351" lon="6.83224">
        <ele>576.59997558594</ele>
        <time>2019-10-06T10:11:54.000Z</time>
      </trkpt>
      <trkpt lat="43.65343" lon="6.83232">
        <ele>576</ele>
        <time>2019-10-06T10:11:57.000Z</time>
      </trkpt>
      <trkpt lat="43.65337" lon="6.83232">
        <ele>575.59997558594</ele>
        <time>2019-10-06T10:11:59.000Z</time>
      </trkpt>
      <trkpt lat="43.65329" lon="6.83242">
        <ele>574.79998779297</ele>
        <time>2019-10-06T10:12:04.000Z</time>
      </trkpt>
      <trkpt lat="43.65301" lon="6.83266">
        <ele>575</ele>
        <time>2019-10-06T10:12:16.000Z</time>
      </trkpt>
      <trkpt lat="43.65286" lon="6.83274">
        <ele>575.40002441406</ele>
        <time>2019-10-06T10:12:23.000Z</time>
      </trkpt>
      <trkpt lat="43.65262" lon="6.8328">
        <ele>574.79998779297</ele>
        <time>2019-10-06T10:12:30.000Z</time>
      </trkpt>
      <trkpt lat="43.6524" lon="6.83291">
        <ele>574</ele>
        <time>2019-10-06T10:12:37.000Z</time>
      </trkpt>
      <trkpt lat="43.6521" lon="6.83318">
        <ele>572.59997558594</ele>
        <time>2019-10-06T10:12:48.000Z</time>
      </trkpt>
      <trkpt lat="43.65201" lon="6.83317">
        <ele>571.20001220703</ele>
        <time>2019-10-06T10:12:50.000Z</time>
      </trkpt>
      <trkpt lat="43.65194" lon="6.83315">
        <ele>569.59997558594</ele>
        <time>2019-10-06T10:12:52.000Z</time>
      </trkpt>
      <trkpt lat="43.65186" lon="6.83316">
        <ele>567.79998779297</ele>
        <time>2019-10-06T10:12:54.000Z</time>
      </trkpt>
      <trkpt lat="43.65178" lon="6.83316">
        <ele>565.79998779297</ele>
        <time>2019-10-06T10:12:56.000Z</time>
      </trkpt>
      <trkpt lat="43.65171" lon="6.83315">
        <ele>564.20001220703</ele>
        <time>2019-10-06T10:12:58.000Z</time>
      </trkpt>
      <trkpt lat="43.65165" lon="6.8331">
        <ele>562.79998779297</ele>
        <time>2019-10-06T10:13:00.000Z</time>
      </trkpt>
      <trkpt lat="43.65157" lon="6.83308">
        <ele>561.79998779297</ele>
        <time>2019-10-06T10:13:02.000Z</time>
      </trkpt>
      <trkpt lat="43.6515" lon="6.83309">
        <ele>561.20001220703</ele>
        <time>2019-10-06T10:13:04.000Z</time>
      </trkpt>
      <trkpt lat="43.65117" lon="6.83303">
        <ele>560.59997558594</ele>
        <time>2019-10-06T10:13:13.000Z</time>
      </trkpt>
      <trkpt lat="43.65105" lon="6.83298">
        <ele>559.79998779297</ele>
        <time>2019-10-06T10:13:16.000Z</time>
      </trkpt>
      <trkpt lat="43.65102" lon="6.83291">
        <ele>559.40002441406</ele>
        <time>2019-10-06T10:13:18.000Z</time>
      </trkpt>
      <trkpt lat="43.65091" lon="6.83274">
        <ele>557.79998779297</ele>
        <time>2019-10-06T10:13:22.000Z</time>
      </trkpt>
      <trkpt lat="43.65083" lon="6.83266">
        <ele>556.59997558594</ele>
        <time>2019-10-06T10:13:24.000Z</time>
      </trkpt>
      <trkpt lat="43.65073" lon="6.83252">
        <ele>555</ele>
        <time>2019-10-06T10:13:27.000Z</time>
      </trkpt>
      <trkpt lat="43.65068" lon="6.83242">
        <ele>553.79998779297</ele>
        <time>2019-10-06T10:13:29.000Z</time>
      </trkpt>
      <trkpt lat="43.65064" lon="6.83222">
        <ele>552.59997558594</ele>
        <time>2019-10-06T10:13:32.000Z</time>
      </trkpt>
      <trkpt lat="43.65066" lon="6.83209">
        <ele>551.59997558594</ele>
        <time>2019-10-06T10:13:34.000Z</time>
      </trkpt>
      <trkpt lat="43.65066" lon="6.83203">
        <ele>551.20001220703</ele>
        <time>2019-10-06T10:13:35.000Z</time>
      </trkpt>
      <trkpt lat="43.65066" lon="6.83192">
        <ele>549.79998779297</ele>
        <time>2019-10-06T10:13:37.000Z</time>
      </trkpt>
      <trkpt lat="43.65065" lon="6.83188">
        <ele>549.20001220703</ele>
        <time>2019-10-06T10:13:38.000Z</time>
      </trkpt>
      <trkpt lat="43.65062" lon="6.83162">
        <ele>548.59997558594</ele>
        <time>2019-10-06T10:13:45.000Z</time>
      </trkpt>
      <trkpt lat="43.6506" lon="6.83147">
        <ele>548.20001220703</ele>
        <time>2019-10-06T10:13:48.000Z</time>
      </trkpt>
      <trkpt lat="43.6506" lon="6.83136">
        <ele>547</ele>
        <time>2019-10-06T10:13:50.000Z</time>
      </trkpt>
      <trkpt lat="43.65061" lon="6.83126">
        <ele>546.40002441406</ele>
        <time>2019-10-06T10:13:52.000Z</time>
      </trkpt>
      <trkpt lat="43.65059" lon="6.83112">
        <ele>546.40002441406</ele>
        <time>2019-10-06T10:13:54.000Z</time>
      </trkpt>
      <trkpt lat="43.65058" lon="6.83098">
        <ele>546</ele>
        <time>2019-10-06T10:13:56.000Z</time>
      </trkpt>
      <trkpt lat="43.65065" lon="6.83081">
        <ele>544.40002441406</ele>
        <time>2019-10-06T10:13:59.000Z</time>
      </trkpt>
      <trkpt lat="43.65069" lon="6.83079">
        <ele>543.40002441406</ele>
        <time>2019-10-06T10:14:00.000Z</time>
      </trkpt>
      <trkpt lat="43.65078" lon="6.83078">
        <ele>542</ele>
        <time>2019-10-06T10:14:02.000Z</time>
      </trkpt>
      <trkpt lat="43.65087" lon="6.83073">
        <ele>541</ele>
        <time>2019-10-06T10:14:04.000Z</time>
      </trkpt>
      <trkpt lat="43.65092" lon="6.83066">
        <ele>539.40002441406</ele>
        <time>2019-10-06T10:14:06.000Z</time>
      </trkpt>
      <trkpt lat="43.65093" lon="6.83064">
        <ele>539</ele>
        <time>2019-10-06T10:14:07.000Z</time>
      </trkpt>
      <trkpt lat="43.65094" lon="6.83063">
        <ele>538.40002441406</ele>
        <time>2019-10-06T10:14:09.000Z</time>
      </trkpt>
      <trkpt lat="43.65094" lon="6.8306">
        <ele>538.20001220703</ele>
        <time>2019-10-06T10:14:11.000Z</time>
      </trkpt>
      <trkpt lat="43.65095" lon="6.83056">
        <ele>537.40002441406</ele>
        <time>2019-10-06T10:14:25.000Z</time>
      </trkpt>
      <trkpt lat="43.65095" lon="6.83053">
        <ele>537</ele>
        <time>2019-10-06T10:14:26.000Z</time>
      </trkpt>
      <trkpt lat="43.65096" lon="6.8304">
        <ele>536.20001220703</ele>
        <time>2019-10-06T10:14:29.000Z</time>
      </trkpt>
      <trkpt lat="43.65094" lon="6.83023">
        <ele>535.40002441406</ele>
        <time>2019-10-06T10:14:32.000Z</time>
      </trkpt>
      <trkpt lat="43.65093" lon="6.83017">
        <ele>534.79998779297</ele>
        <time>2019-10-06T10:14:33.000Z</time>
      </trkpt>
      <trkpt lat="43.65091" lon="6.83005">
        <ele>533.40002441406</ele>
        <time>2019-10-06T10:14:35.000Z</time>
      </trkpt>
      <trkpt lat="43.65088" lon="6.82993">
        <ele>532.40002441406</ele>
        <time>2019-10-06T10:14:37.000Z</time>
      </trkpt>
      <trkpt lat="43.65086" lon="6.82987">
        <ele>532.20001220703</ele>
        <time>2019-10-06T10:14:38.000Z</time>
      </trkpt>
      <trkpt lat="43.6507" lon="6.82972">
        <ele>532</ele>
        <time>2019-10-06T10:14:44.000Z</time>
      </trkpt>
      <trkpt lat="43.65053" lon="6.82947">
        <ele>531.20001220703</ele>
        <time>2019-10-06T10:14:52.000Z</time>
      </trkpt>
      <trkpt lat="43.65051" lon="6.82942">
        <ele>531</ele>
        <time>2019-10-06T10:14:53.000Z</time>
      </trkpt>
      <trkpt lat="43.65049" lon="6.82934">
        <ele>530.59997558594</ele>
        <time>2019-10-06T10:14:54.000Z</time>
      </trkpt>
      <trkpt lat="43.65046" lon="6.82928">
        <ele>529.59997558594</ele>
        <time>2019-10-06T10:14:55.000Z</time>
      </trkpt>
      <trkpt lat="43.65042" lon="6.82918">
        <ele>528.40002441406</ele>
        <time>2019-10-06T10:14:57.000Z</time>
      </trkpt>
      <trkpt lat="43.65041" lon="6.82913">
        <ele>527.59997558594</ele>
        <time>2019-10-06T10:14:58.000Z</time>
      </trkpt>
      <trkpt lat="43.65043" lon="6.82905">
        <ele>526.20001220703</ele>
        <time>2019-10-06T10:15:00.000Z</time>
      </trkpt>
      <trkpt lat="43.65049" lon="6.82891">
        <ele>525.20001220703</ele>
        <time>2019-10-06T10:15:03.000Z</time>
      </trkpt>
      <trkpt lat="43.65053" lon="6.82878">
        <ele>523.20001220703</ele>
        <time>2019-10-06T10:15:05.000Z</time>
      </trkpt>
      <trkpt lat="43.65054" lon="6.82865">
        <ele>521.20001220703</ele>
        <time>2019-10-06T10:15:07.000Z</time>
      </trkpt>
      <trkpt lat="43.65051" lon="6.82856">
        <ele>520.20001220703</ele>
        <time>2019-10-06T10:15:09.000Z</time>
      </trkpt>
      <trkpt lat="43.65042" lon="6.82852">
        <ele>520</ele>
        <time>2019-10-06T10:15:13.000Z</time>
      </trkpt>
      <trkpt lat="43.65005" lon="6.82828">
        <ele>519</ele>
        <time>2019-10-06T10:15:25.000Z</time>
      </trkpt>
      <trkpt lat="43.64998" lon="6.82819">
        <ele>518.40002441406</ele>
        <time>2019-10-06T10:15:27.000Z</time>
      </trkpt>
      <trkpt lat="43.6499" lon="6.8281">
        <ele>517.59997558594</ele>
        <time>2019-10-06T10:15:29.000Z</time>
      </trkpt>
      <trkpt lat="43.64977" lon="6.828">
        <ele>516.20001220703</ele>
        <time>2019-10-06T10:15:32.000Z</time>
      </trkpt>
      <trkpt lat="43.64965" lon="6.82796">
        <ele>515</ele>
        <time>2019-10-06T10:15:35.000Z</time>
      </trkpt>
      <trkpt lat="43.64955" lon="6.82788">
        <ele>513.79998779297</ele>
        <time>2019-10-06T10:15:38.000Z</time>
      </trkpt>
      <trkpt lat="43.64951" lon="6.82777">
        <ele>512.79998779297</ele>
        <time>2019-10-06T10:15:41.000Z</time>
      </trkpt>
      <trkpt lat="43.6495" lon="6.82768">
        <ele>511.39999389648</ele>
        <time>2019-10-06T10:15:44.000Z</time>
      </trkpt>
      <trkpt lat="43.64947" lon="6.82761">
        <ele>510.39999389648</ele>
        <time>2019-10-06T10:15:47.000Z</time>
      </trkpt>
      <trkpt lat="43.64955" lon="6.82751">
        <ele>509.60000610352</ele>
        <time>2019-10-06T10:15:52.000Z</time>
      </trkpt>
      <trkpt lat="43.64957" lon="6.82749">
        <ele>509.39999389648</ele>
        <time>2019-10-06T10:15:53.000Z</time>
      </trkpt>
      <trkpt lat="43.6497" lon="6.82732">
        <ele>508</ele>
        <time>2019-10-06T10:15:59.000Z</time>
      </trkpt>
      <trkpt lat="43.64983" lon="6.82723">
        <ele>507.39999389648</ele>
        <time>2019-10-06T10:16:15.000Z</time>
      </trkpt>
      <trkpt lat="43.64983" lon="6.82719">
        <ele>507</ele>
        <time>2019-10-06T10:16:16.000Z</time>
      </trkpt>
      <trkpt lat="43.64983" lon="6.82711">
        <ele>506</ele>
        <time>2019-10-06T10:16:18.000Z</time>
      </trkpt>
      <trkpt lat="43.64976" lon="6.82705">
        <ele>504.79998779297</ele>
        <time>2019-10-06T10:16:21.000Z</time>
      </trkpt>
      <trkpt lat="43.6496" lon="6.82692">
        <ele>503.60000610352</ele>
        <time>2019-10-06T10:16:25.000Z</time>
      </trkpt>
      <trkpt lat="43.6495" lon="6.82684">
        <ele>502.39999389648</ele>
        <time>2019-10-06T10:16:27.000Z</time>
      </trkpt>
      <trkpt lat="43.64944" lon="6.82683">
        <ele>501.39999389648</ele>
        <time>2019-10-06T10:16:29.000Z</time>
      </trkpt>
      <trkpt lat="43.64939" lon="6.8268">
        <ele>500.60000610352</ele>
        <time>2019-10-06T10:16:31.000Z</time>
      </trkpt>
      <trkpt lat="43.64936" lon="6.82677">
        <ele>500</ele>
        <time>2019-10-06T10:16:32.000Z</time>
      </trkpt>
      <trkpt lat="43.64934" lon="6.82668">
        <ele>498.79998779297</ele>
        <time>2019-10-06T10:16:34.000Z</time>
      </trkpt>
      <trkpt lat="43.64931" lon="6.8266">
        <ele>497.60000610352</ele>
        <time>2019-10-06T10:16:36.000Z</time>
      </trkpt>
      <trkpt lat="43.6493" lon="6.82656">
        <ele>497</ele>
        <time>2019-10-06T10:16:37.000Z</time>
      </trkpt>
      <trkpt lat="43.64928" lon="6.82653">
        <ele>496.20001220703</ele>
        <time>2019-10-06T10:16:38.000Z</time>
      </trkpt>
      <trkpt lat="43.64924" lon="6.82644">
        <ele>495.20001220703</ele>
        <time>2019-10-06T10:16:40.000Z</time>
      </trkpt>
      <trkpt lat="43.64922" lon="6.82634">
        <ele>494</ele>
        <time>2019-10-06T10:16:42.000Z</time>
      </trkpt>
      <trkpt lat="43.64919" lon="6.82622">
        <ele>493</ele>
        <time>2019-10-06T10:16:44.000Z</time>
      </trkpt>
      <trkpt lat="43.64917" lon="6.82598">
        <ele>491.79998779297</ele>
        <time>2019-10-06T10:16:48.000Z</time>
      </trkpt>
      <trkpt lat="43.64915" lon="6.82592">
        <ele>491.60000610352</ele>
        <time>2019-10-06T10:16:49.000Z</time>
      </trkpt>
      <trkpt lat="43.64913" lon="6.82587">
        <ele>490.79998779297</ele>
        <time>2019-10-06T10:16:50.000Z</time>
      </trkpt>
      <trkpt lat="43.64909" lon="6.8258">
        <ele>489.60000610352</ele>
        <time>2019-10-06T10:16:52.000Z</time>
      </trkpt>
      <trkpt lat="43.64903" lon="6.82576">
        <ele>487.79998779297</ele>
        <time>2019-10-06T10:16:54.000Z</time>
      </trkpt>
      <trkpt lat="43.64896" lon="6.82572">
        <ele>486.60000610352</ele>
        <time>2019-10-06T10:16:56.000Z</time>
      </trkpt>
      <trkpt lat="43.64886" lon="6.82565">
        <ele>485.39999389648</ele>
        <time>2019-10-06T10:16:59.000Z</time>
      </trkpt>
      <trkpt lat="43.64881" lon="6.82552">
        <ele>484.79998779297</ele>
        <time>2019-10-06T10:17:02.000Z</time>
      </trkpt>
      <trkpt lat="43.64888" lon="6.82523">
        <ele>484.60000610352</ele>
        <time>2019-10-06T10:17:09.000Z</time>
      </trkpt>
      <trkpt lat="43.64884" lon="6.82498">
        <ele>484.39999389648</ele>
        <time>2019-10-06T10:17:15.000Z</time>
      </trkpt>
      <trkpt lat="43.64878" lon="6.82485">
        <ele>484.20001220703</ele>
        <time>2019-10-06T10:17:19.000Z</time>
      </trkpt>
      <trkpt lat="43.64869" lon="6.82463">
        <ele>483.20001220703</ele>
        <time>2019-10-06T10:17:24.000Z</time>
      </trkpt>
      <trkpt lat="43.64867" lon="6.82457">
        <ele>483.20001220703</ele>
        <time>2019-10-06T10:17:25.000Z</time>
      </trkpt>
      <trkpt lat="43.6485" lon="6.8241">
        <ele>482.20001220703</ele>
        <time>2019-10-06T10:17:34.000Z</time>
      </trkpt>
      <trkpt lat="43.64821" lon="6.82345">
        <ele>481.39999389648</ele>
        <time>2019-10-06T10:17:47.000Z</time>
      </trkpt>
      <trkpt lat="43.64818" lon="6.82342">
        <ele>481.39999389648</ele>
        <time>2019-10-06T10:17:48.000Z</time>
      </trkpt>
      <trkpt lat="43.64801" lon="6.82356">
        <ele>481.20001220703</ele>
        <time>2019-10-06T10:17:54.000Z</time>
      </trkpt>
      <trkpt lat="43.64763" lon="6.82403">
        <ele>480.39999389648</ele>
        <time>2019-10-06T10:18:08.000Z</time>
      </trkpt>
      <trkpt lat="43.64749" lon="6.82412">
        <ele>479.20001220703</ele>
        <time>2019-10-06T10:18:11.000Z</time>
      </trkpt>
      <trkpt lat="43.64744" lon="6.82415">
        <ele>478.79998779297</ele>
        <time>2019-10-06T10:18:12.000Z</time>
      </trkpt>
      <trkpt lat="43.64733" lon="6.82419">
        <ele>478.39999389648</ele>
        <time>2019-10-06T10:18:14.000Z</time>
      </trkpt>
      <trkpt lat="43.64691" lon="6.82444">
        <ele>478.20001220703</ele>
        <time>2019-10-06T10:18:26.000Z</time>
      </trkpt>
      <trkpt lat="43.64673" lon="6.82454">
        <ele>477</ele>
        <time>2019-10-06T10:18:30.000Z</time>
      </trkpt>
      <trkpt lat="43.64652" lon="6.82482">
        <ele>475.79998779297</ele>
        <time>2019-10-06T10:18:36.000Z</time>
      </trkpt>
      <trkpt lat="43.64632" lon="6.82501">
        <ele>475.79998779297</ele>
        <time>2019-10-06T10:18:41.000Z</time>
      </trkpt>
      <trkpt lat="43.64602" lon="6.82518">
        <ele>476.79998779297</ele>
        <time>2019-10-06T10:18:50.000Z</time>
      </trkpt>
      <trkpt lat="43.64584" lon="6.82537">
        <ele>477.39999389648</ele>
        <time>2019-10-06T10:18:56.000Z</time>
      </trkpt>
      <trkpt lat="43.6458" lon="6.82541">
        <ele>477.20001220703</ele>
        <time>2019-10-06T10:18:57.000Z</time>
      </trkpt>
      <trkpt lat="43.6455" lon="6.82559">
        <ele>475.79998779297</ele>
        <time>2019-10-06T10:19:05.000Z</time>
      </trkpt>
      <trkpt lat="43.64543" lon="6.82566">
        <ele>474.79998779297</ele>
        <time>2019-10-06T10:19:07.000Z</time>
      </trkpt>
      <trkpt lat="43.64533" lon="6.82585">
        <ele>473.39999389648</ele>
        <time>2019-10-06T10:19:10.000Z</time>
      </trkpt>
      <trkpt lat="43.64527" lon="6.82603">
        <ele>471.79998779297</ele>
        <time>2019-10-06T10:19:12.000Z</time>
      </trkpt>
      <trkpt lat="43.64515" lon="6.82623">
        <ele>471</ele>
        <time>2019-10-06T10:19:15.000Z</time>
      </trkpt>
      <trkpt lat="43.645" lon="6.82646">
        <ele>470.79998779297</ele>
        <time>2019-10-06T10:19:20.000Z</time>
      </trkpt>
      <trkpt lat="43.64487" lon="6.82661">
        <ele>469.79998779297</ele>
        <time>2019-10-06T10:19:23.000Z</time>
      </trkpt>
      <trkpt lat="43.64483" lon="6.82666">
        <ele>469.79998779297</ele>
        <time>2019-10-06T10:19:24.000Z</time>
      </trkpt>
      <trkpt lat="43.64476" lon="6.8268">
        <ele>469.60000610352</ele>
        <time>2019-10-06T10:19:27.000Z</time>
      </trkpt>
      <trkpt lat="43.64446" lon="6.82733">
        <ele>469.20001220703</ele>
        <time>2019-10-06T10:19:42.000Z</time>
      </trkpt>
      <trkpt lat="43.64436" lon="6.82744">
        <ele>469</ele>
        <time>2019-10-06T10:19:46.000Z</time>
      </trkpt>
      <trkpt lat="43.64427" lon="6.82765">
        <ele>469.39999389648</ele>
        <time>2019-10-06T10:19:52.000Z</time>
      </trkpt>
      <trkpt lat="43.64415" lon="6.82784">
        <ele>470.39999389648</ele>
        <time>2019-10-06T10:20:00.000Z</time>
      </trkpt>
      <trkpt lat="43.64412" lon="6.82788">
        <ele>470.60000610352</ele>
        <time>2019-10-06T10:20:02.000Z</time>
      </trkpt>
      <trkpt lat="43.64411" lon="6.8279">
        <ele>471</ele>
        <time>2019-10-06T10:20:03.000Z</time>
      </trkpt>
      <trkpt lat="43.64404" lon="6.828">
        <ele>471.39999389648</ele>
        <time>2019-10-06T10:20:07.000Z</time>
      </trkpt>
      <trkpt lat="43.64373" lon="6.82815">
        <ele>470</ele>
        <time>2019-10-06T10:20:14.000Z</time>
      </trkpt>
      <trkpt lat="43.64369" lon="6.82818">
        <ele>469.79998779297</ele>
        <time>2019-10-06T10:20:15.000Z</time>
      </trkpt>
      <trkpt lat="43.64364" lon="6.82821">
        <ele>469.60000610352</ele>
        <time>2019-10-06T10:20:16.000Z</time>
      </trkpt>
      <trkpt lat="43.64349" lon="6.82835">
        <ele>470</ele>
        <time>2019-10-06T10:20:20.000Z</time>
      </trkpt>
      <trkpt lat="43.64333" lon="6.82847">
        <ele>470.39999389648</ele>
        <time>2019-10-06T10:20:24.000Z</time>
      </trkpt>
      <trkpt lat="43.6431" lon="6.82853">
        <ele>469.60000610352</ele>
        <time>2019-10-06T10:20:29.000Z</time>
      </trkpt>
      <trkpt lat="43.64287" lon="6.82855">
        <ele>468.79998779297</ele>
        <time>2019-10-06T10:20:34.000Z</time>
      </trkpt>
      <trkpt lat="43.64281" lon="6.82854">
        <ele>468.39999389648</ele>
        <time>2019-10-06T10:20:35.000Z</time>
      </trkpt>
      <trkpt lat="43.64264" lon="6.82851">
        <ele>467.60000610352</ele>
        <time>2019-10-06T10:20:38.000Z</time>
      </trkpt>
      <trkpt lat="43.64246" lon="6.82852">
        <ele>467.20001220703</ele>
        <time>2019-10-06T10:20:41.000Z</time>
      </trkpt>
      <trkpt lat="43.64207" lon="6.82879">
        <ele>466.39999389648</ele>
        <time>2019-10-06T10:20:48.000Z</time>
      </trkpt>
      <trkpt lat="43.64162" lon="6.82912">
        <ele>465.39999389648</ele>
        <time>2019-10-06T10:20:55.000Z</time>
      </trkpt>
      <trkpt lat="43.64155" lon="6.82915">
        <ele>465.20001220703</ele>
        <time>2019-10-06T10:20:56.000Z</time>
      </trkpt>
      <trkpt lat="43.64125" lon="6.82915">
        <ele>464.20001220703</ele>
        <time>2019-10-06T10:21:00.000Z</time>
      </trkpt>
      <trkpt lat="43.64118" lon="6.82913">
        <ele>464.20001220703</ele>
        <time>2019-10-06T10:21:01.000Z</time>
      </trkpt>
      <trkpt lat="43.64088" lon="6.82909">
        <ele>463.20001220703</ele>
        <time>2019-10-06T10:21:06.000Z</time>
      </trkpt>
      <trkpt lat="43.64084" lon="6.82907">
        <ele>462.79998779297</ele>
        <time>2019-10-06T10:21:07.000Z</time>
      </trkpt>
      <trkpt lat="43.64076" lon="6.82899">
        <ele>462</ele>
        <time>2019-10-06T10:21:09.000Z</time>
      </trkpt>
      <trkpt lat="43.64067" lon="6.82886">
        <ele>460</ele>
        <time>2019-10-06T10:21:11.000Z</time>
      </trkpt>
      <trkpt lat="43.64062" lon="6.82878">
        <ele>459</ele>
        <time>2019-10-06T10:21:12.000Z</time>
      </trkpt>
      <trkpt lat="43.64056" lon="6.8287">
        <ele>457.79998779297</ele>
        <time>2019-10-06T10:21:13.000Z</time>
      </trkpt>
      <trkpt lat="43.64043" lon="6.82852">
        <ele>456</ele>
        <time>2019-10-06T10:21:15.000Z</time>
      </trkpt>
      <trkpt lat="43.64023" lon="6.82827">
        <ele>454.79998779297</ele>
        <time>2019-10-06T10:21:18.000Z</time>
      </trkpt>
      <trkpt lat="43.64004" lon="6.82808">
        <ele>453.79998779297</ele>
        <time>2019-10-06T10:21:21.000Z</time>
      </trkpt>
      <trkpt lat="43.63974" lon="6.8278">
        <ele>454.60000610352</ele>
        <time>2019-10-06T10:21:28.000Z</time>
      </trkpt>
      <trkpt lat="43.63962" lon="6.82775">
        <ele>455.20001220703</ele>
        <time>2019-10-06T10:21:31.000Z</time>
      </trkpt>
      <trkpt lat="43.63958" lon="6.82774">
        <ele>455.39999389648</ele>
        <time>2019-10-06T10:21:32.000Z</time>
      </trkpt>
      <trkpt lat="43.63939" lon="6.82767">
        <ele>456.20001220703</ele>
        <time>2019-10-06T10:21:37.000Z</time>
      </trkpt>
      <trkpt lat="43.63935" lon="6.82765">
        <ele>456.20001220703</ele>
        <time>2019-10-06T10:21:38.000Z</time>
      </trkpt>
      <trkpt lat="43.6392" lon="6.82761">
        <ele>456.39999389648</ele>
        <time>2019-10-06T10:21:42.000Z</time>
      </trkpt>
      <trkpt lat="43.63916" lon="6.82759">
        <ele>456.60000610352</ele>
        <time>2019-10-06T10:21:43.000Z</time>
      </trkpt>
      <trkpt lat="43.63899" lon="6.82747">
        <ele>457.20001220703</ele>
        <time>2019-10-06T10:21:48.000Z</time>
      </trkpt>
      <trkpt lat="43.63868" lon="6.82733">
        <ele>456.39999389648</ele>
        <time>2019-10-06T10:21:55.000Z</time>
      </trkpt>
      <trkpt lat="43.63857" lon="6.82732">
        <ele>456</ele>
        <time>2019-10-06T10:21:57.000Z</time>
      </trkpt>
      <trkpt lat="43.6383" lon="6.82726">
        <ele>454.60000610352</ele>
        <time>2019-10-06T10:22:01.000Z</time>
      </trkpt>
      <trkpt lat="43.63806" lon="6.82719">
        <ele>453</ele>
        <time>2019-10-06T10:22:04.000Z</time>
      </trkpt>
      <trkpt lat="43.6378" lon="6.8271">
        <ele>451.39999389648</ele>
        <time>2019-10-06T10:22:07.000Z</time>
      </trkpt>
      <trkpt lat="43.63762" lon="6.827">
        <ele>449.79998779297</ele>
        <time>2019-10-06T10:22:09.000Z</time>
      </trkpt>
      <trkpt lat="43.63744" lon="6.82688">
        <ele>448.20001220703</ele>
        <time>2019-10-06T10:22:11.000Z</time>
      </trkpt>
      <trkpt lat="43.63713" lon="6.82682">
        <ele>446.79998779297</ele>
        <time>2019-10-06T10:22:14.000Z</time>
      </trkpt>
      <trkpt lat="43.63692" lon="6.82682">
        <ele>445.79998779297</ele>
        <time>2019-10-06T10:22:16.000Z</time>
      </trkpt>
      <trkpt lat="43.63681" lon="6.82684">
        <ele>445.20001220703</ele>
        <time>2019-10-06T10:22:17.000Z</time>
      </trkpt>
      <trkpt lat="43.6367" lon="6.82686">
        <ele>444.60000610352</ele>
        <time>2019-10-06T10:22:18.000Z</time>
      </trkpt>
      <trkpt lat="43.63649" lon="6.82692">
        <ele>443.39999389648</ele>
        <time>2019-10-06T10:22:20.000Z</time>
      </trkpt>
      <trkpt lat="43.63626" lon="6.82699">
        <ele>442</ele>
        <time>2019-10-06T10:22:22.000Z</time>
      </trkpt>
      <trkpt lat="43.63606" lon="6.82704">
        <ele>440.39999389648</ele>
        <time>2019-10-06T10:22:24.000Z</time>
      </trkpt>
      <trkpt lat="43.63588" lon="6.8271">
        <ele>438.79998779297</ele>
        <time>2019-10-06T10:22:26.000Z</time>
      </trkpt>
      <trkpt lat="43.63579" lon="6.82715">
        <ele>437.79998779297</ele>
        <time>2019-10-06T10:22:27.000Z</time>
      </trkpt>
      <trkpt lat="43.63563" lon="6.82729">
        <ele>436</ele>
        <time>2019-10-06T10:22:29.000Z</time>
      </trkpt>
      <trkpt lat="43.6355" lon="6.82749">
        <ele>434.39999389648</ele>
        <time>2019-10-06T10:22:31.000Z</time>
      </trkpt>
      <trkpt lat="43.63544" lon="6.8276">
        <ele>433.60000610352</ele>
        <time>2019-10-06T10:22:32.000Z</time>
      </trkpt>
      <trkpt lat="43.63538" lon="6.8277">
        <ele>432.39999389648</ele>
        <time>2019-10-06T10:22:33.000Z</time>
      </trkpt>
      <trkpt lat="43.63531" lon="6.82779">
        <ele>432</ele>
        <time>2019-10-06T10:22:34.000Z</time>
      </trkpt>
      <trkpt lat="43.63524" lon="6.82786">
        <ele>431.39999389648</ele>
        <time>2019-10-06T10:22:35.000Z</time>
      </trkpt>
      <trkpt lat="43.63518" lon="6.82794">
        <ele>430.20001220703</ele>
        <time>2019-10-06T10:22:36.000Z</time>
      </trkpt>
      <trkpt lat="43.63506" lon="6.82805">
        <ele>429</ele>
        <time>2019-10-06T10:22:38.000Z</time>
      </trkpt>
      <trkpt lat="43.63495" lon="6.82815">
        <ele>427.79998779297</ele>
        <time>2019-10-06T10:22:40.000Z</time>
      </trkpt>
      <trkpt lat="43.63486" lon="6.82824">
        <ele>426.79998779297</ele>
        <time>2019-10-06T10:22:42.000Z</time>
      </trkpt>
      <trkpt lat="43.63483" lon="6.82828">
        <ele>426.39999389648</ele>
        <time>2019-10-06T10:22:43.000Z</time>
      </trkpt>
      <trkpt lat="43.63476" lon="6.82828">
        <ele>425.79998779297</ele>
        <time>2019-10-06T10:22:45.000Z</time>
      </trkpt>
      <trkpt lat="43.63473" lon="6.82825">
        <ele>425.60000610352</ele>
        <time>2019-10-06T10:22:46.000Z</time>
      </trkpt>
      <trkpt lat="43.63466" lon="6.82808">
        <ele>423.60000610352</ele>
        <time>2019-10-06T10:22:49.000Z</time>
      </trkpt>
      <trkpt lat="43.63463" lon="6.828">
        <ele>422.20001220703</ele>
        <time>2019-10-06T10:22:50.000Z</time>
      </trkpt>
      <trkpt lat="43.63461" lon="6.82792">
        <ele>420.79998779297</ele>
        <time>2019-10-06T10:22:51.000Z</time>
      </trkpt>
      <trkpt lat="43.63459" lon="6.82783">
        <ele>419.60000610352</ele>
        <time>2019-10-06T10:22:52.000Z</time>
      </trkpt>
      <trkpt lat="43.63458" lon="6.82774">
        <ele>418.20001220703</ele>
        <time>2019-10-06T10:22:53.000Z</time>
      </trkpt>
      <trkpt lat="43.63457" lon="6.82767">
        <ele>417</ele>
        <time>2019-10-06T10:22:54.000Z</time>
      </trkpt>
      <trkpt lat="43.63455" lon="6.8276">
        <ele>416</ele>
        <time>2019-10-06T10:22:55.000Z</time>
      </trkpt>
      <trkpt lat="43.63453" lon="6.82755">
        <ele>415.20001220703</ele>
        <time>2019-10-06T10:22:56.000Z</time>
      </trkpt>
      <trkpt lat="43.6345" lon="6.8275">
        <ele>414.20001220703</ele>
        <time>2019-10-06T10:22:57.000Z</time>
      </trkpt>
      <trkpt lat="43.63446" lon="6.82746">
        <ele>412.60000610352</ele>
        <time>2019-10-06T10:22:58.000Z</time>
      </trkpt>
      <trkpt lat="43.63441" lon="6.82743">
        <ele>411.60000610352</ele>
        <time>2019-10-06T10:22:59.000Z</time>
      </trkpt>
      <trkpt lat="43.6343" lon="6.82743">
        <ele>410</ele>
        <time>2019-10-06T10:23:01.000Z</time>
      </trkpt>
      <trkpt lat="43.63417" lon="6.8275">
        <ele>408.60000610352</ele>
        <time>2019-10-06T10:23:04.000Z</time>
      </trkpt>
      <trkpt lat="43.63409" lon="6.82758">
        <ele>408</ele>
        <time>2019-10-06T10:23:06.000Z</time>
      </trkpt>
      <trkpt lat="43.63388" lon="6.82777">
        <ele>407.39999389648</ele>
        <time>2019-10-06T10:23:12.000Z</time>
      </trkpt>
      <trkpt lat="43.63366" lon="6.82809">
        <ele>408.20001220703</ele>
        <time>2019-10-06T10:23:21.000Z</time>
      </trkpt>
      <trkpt lat="43.6336" lon="6.8282">
        <ele>408.39999389648</ele>
        <time>2019-10-06T10:23:24.000Z</time>
      </trkpt>
      <trkpt lat="43.63328" lon="6.8287">
        <ele>409.60000610352</ele>
        <time>2019-10-06T10:23:38.000Z</time>
      </trkpt>
      <trkpt lat="43.63316" lon="6.8289">
        <ele>411.20001220703</ele>
        <time>2019-10-06T10:23:47.000Z</time>
      </trkpt>
      <trkpt lat="43.633" lon="6.82919">
        <ele>412.60000610352</ele>
        <time>2019-10-06T10:23:58.000Z</time>
      </trkpt>
      <trkpt lat="43.63298" lon="6.82921">
        <ele>413</ele>
        <time>2019-10-06T10:23:59.000Z</time>
      </trkpt>
      <trkpt lat="43.63296" lon="6.82925">
        <ele>413.39999389648</ele>
        <time>2019-10-06T10:24:01.000Z</time>
      </trkpt>
      <trkpt lat="43.63296" lon="6.82927">
        <ele>413.79998779297</ele>
        <time>2019-10-06T10:24:02.000Z</time>
      </trkpt>
      <trkpt lat="43.63293" lon="6.82934">
        <ele>414</ele>
        <time>2019-10-06T10:24:05.000Z</time>
      </trkpt>
      <trkpt lat="43.63291" lon="6.8294">
        <ele>414.20001220703</ele>
        <time>2019-10-06T10:24:08.000Z</time>
      </trkpt>
      <trkpt lat="43.63286" lon="6.82967">
        <ele>414.60000610352</ele>
        <time>2019-10-06T10:24:19.000Z</time>
      </trkpt>
      <trkpt lat="43.63282" lon="6.82994">
        <ele>415.20001220703</ele>
        <time>2019-10-06T10:24:29.000Z</time>
      </trkpt>
      <trkpt lat="43.63275" lon="6.82997">
        <ele>415</ele>
        <time>2019-10-06T10:24:33.000Z</time>
      </trkpt>
      <trkpt lat="43.63256" lon="6.83006">
        <ele>416.39999389648</ele>
        <time>2019-10-06T10:24:42.000Z</time>
      </trkpt>
      <trkpt lat="43.63248" lon="6.83008">
        <ele>417.39999389648</ele>
        <time>2019-10-06T10:24:47.000Z</time>
      </trkpt>
      <trkpt lat="43.63244" lon="6.83009">
        <ele>417.60000610352</ele>
        <time>2019-10-06T10:24:50.000Z</time>
      </trkpt>
      <trkpt lat="43.63237" lon="6.83012">
        <ele>418.39999389648</ele>
        <time>2019-10-06T10:24:54.000Z</time>
      </trkpt>
      <trkpt lat="43.63229" lon="6.83016">
        <ele>418.79998779297</ele>
        <time>2019-10-06T10:24:58.000Z</time>
      </trkpt>
      <trkpt lat="43.63179" lon="6.83052">
        <ele>420</ele>
        <time>2019-10-06T10:25:17.000Z</time>
      </trkpt>
      <trkpt lat="43.63149" lon="6.8308">
        <ele>419.60000610352</ele>
        <time>2019-10-06T10:25:27.000Z</time>
      </trkpt>
      <trkpt lat="43.63109" lon="6.83124">
        <ele>418.20001220703</ele>
        <time>2019-10-06T10:25:41.000Z</time>
      </trkpt>
      <trkpt lat="43.631" lon="6.83133">
        <ele>417.20001220703</ele>
        <time>2019-10-06T10:25:44.000Z</time>
      </trkpt>
      <trkpt lat="43.63096" lon="6.83132">
        <ele>417</ele>
        <time>2019-10-06T10:25:45.000Z</time>
      </trkpt>
      <trkpt lat="43.63083" lon="6.83121">
        <ele>415.79998779297</ele>
        <time>2019-10-06T10:25:50.000Z</time>
      </trkpt>
      <trkpt lat="43.63071" lon="6.83113">
        <ele>415.20001220703</ele>
        <time>2019-10-06T10:25:54.000Z</time>
      </trkpt>
      <trkpt lat="43.63067" lon="6.8311">
        <ele>414.79998779297</ele>
        <time>2019-10-06T10:25:55.000Z</time>
      </trkpt>
      <trkpt lat="43.6305" lon="6.83084">
        <ele>413.39999389648</ele>
        <time>2019-10-06T10:26:01.000Z</time>
      </trkpt>
      <trkpt lat="43.63045" lon="6.83076">
        <ele>412.39999389648</ele>
        <time>2019-10-06T10:26:03.000Z</time>
      </trkpt>
      <trkpt lat="43.6304" lon="6.83066">
        <ele>411.39999389648</ele>
        <time>2019-10-06T10:26:06.000Z</time>
      </trkpt>
      <trkpt lat="43.63037" lon="6.83057">
        <ele>410.20001220703</ele>
        <time>2019-10-06T10:26:09.000Z</time>
      </trkpt>
      <trkpt lat="43.63036" lon="6.83054">
        <ele>409.79998779297</ele>
        <time>2019-10-06T10:26:10.000Z</time>
      </trkpt>
      <trkpt lat="43.6303" lon="6.83045">
        <ele>408.79998779297</ele>
        <time>2019-10-06T10:26:13.000Z</time>
      </trkpt>
      <trkpt lat="43.63024" lon="6.83032">
        <ele>407.39999389648</ele>
        <time>2019-10-06T10:26:16.000Z</time>
      </trkpt>
      <trkpt lat="43.6302" lon="6.83026">
        <ele>406.39999389648</ele>
        <time>2019-10-06T10:26:19.000Z</time>
      </trkpt>
      <trkpt lat="43.63021" lon="6.8302">
        <ele>406.20001220703</ele>
        <time>2019-10-06T10:26:22.000Z</time>
      </trkpt>
      <trkpt lat="43.63013" lon="6.83001">
        <ele>404.79998779297</ele>
        <time>2019-10-06T10:26:30.000Z</time>
      </trkpt>
      <trkpt lat="43.63008" lon="6.82998">
        <ele>403.60000610352</ele>
        <time>2019-10-06T10:26:32.000Z</time>
      </trkpt>
      <trkpt lat="43.63002" lon="6.82994">
        <ele>402</ele>
        <time>2019-10-06T10:26:34.000Z</time>
      </trkpt>
      <trkpt lat="43.62998" lon="6.8299">
        <ele>400.39999389648</ele>
        <time>2019-10-06T10:26:36.000Z</time>
      </trkpt>
      <trkpt lat="43.62994" lon="6.82988">
        <ele>399.20001220703</ele>
        <time>2019-10-06T10:26:38.000Z</time>
      </trkpt>
      <trkpt lat="43.62991" lon="6.82983">
        <ele>398</ele>
        <time>2019-10-06T10:26:40.000Z</time>
      </trkpt>
      <trkpt lat="43.62987" lon="6.82969">
        <ele>397</ele>
        <time>2019-10-06T10:26:43.000Z</time>
      </trkpt>
      <trkpt lat="43.62981" lon="6.82953">
        <ele>396.39999389648</ele>
        <time>2019-10-06T10:26:46.000Z</time>
      </trkpt>
      <trkpt lat="43.62978" lon="6.82933">
        <ele>396.79998779297</ele>
        <time>2019-10-06T10:26:52.000Z</time>
      </trkpt>
      <trkpt lat="43.62964" lon="6.82914">
        <ele>395.79998779297</ele>
        <time>2019-10-06T10:26:59.000Z</time>
      </trkpt>
      <trkpt lat="43.62959" lon="6.82897">
        <ele>394.79998779297</ele>
        <time>2019-10-06T10:27:03.000Z</time>
      </trkpt>
      <trkpt lat="43.62959" lon="6.82894">
        <ele>394.79998779297</ele>
        <time>2019-10-06T10:27:04.000Z</time>
      </trkpt>
      <trkpt lat="43.6296" lon="6.82887">
        <ele>395</ele>
        <time>2019-10-06T10:27:06.000Z</time>
      </trkpt>
      <trkpt lat="43.62964" lon="6.82873">
        <ele>395.39999389648</ele>
        <time>2019-10-06T10:27:10.000Z</time>
      </trkpt>
      <trkpt lat="43.62963" lon="6.82851">
        <ele>394.60000610352</ele>
        <time>2019-10-06T10:27:15.000Z</time>
      </trkpt>
      <trkpt lat="43.62963" lon="6.82832">
        <ele>393.79998779297</ele>
        <time>2019-10-06T10:27:18.000Z</time>
      </trkpt>
      <trkpt lat="43.62967" lon="6.82817">
        <ele>393.60000610352</ele>
        <time>2019-10-06T10:27:22.000Z</time>
      </trkpt>
      <trkpt lat="43.6297" lon="6.82814">
        <ele>393.79998779297</ele>
        <time>2019-10-06T10:27:24.000Z</time>
      </trkpt>
      <trkpt lat="43.62977" lon="6.82803">
        <ele>395</ele>
        <time>2019-10-06T10:27:31.000Z</time>
      </trkpt>
      <trkpt lat="43.62985" lon="6.82787">
        <ele>396.20001220703</ele>
        <time>2019-10-06T10:27:40.000Z</time>
      </trkpt>
      <trkpt lat="43.62987" lon="6.82778">
        <ele>396.60000610352</ele>
        <time>2019-10-06T10:27:44.000Z</time>
      </trkpt>
      <trkpt lat="43.62983" lon="6.82767">
        <ele>396</ele>
        <time>2019-10-06T10:27:48.000Z</time>
      </trkpt>
      <trkpt lat="43.62982" lon="6.82762">
        <ele>395.20001220703</ele>
        <time>2019-10-06T10:27:50.000Z</time>
      </trkpt>
      <trkpt lat="43.62982" lon="6.8276">
        <ele>394.79998779297</ele>
        <time>2019-10-06T10:27:51.000Z</time>
      </trkpt>
      <trkpt lat="43.62983" lon="6.82754">
        <ele>393.79998779297</ele>
        <time>2019-10-06T10:27:53.000Z</time>
      </trkpt>
      <trkpt lat="43.62986" lon="6.82745">
        <ele>392.39999389648</ele>
        <time>2019-10-06T10:27:56.000Z</time>
      </trkpt>
      <trkpt lat="43.62983" lon="6.82732">
        <ele>391.20001220703</ele>
        <time>2019-10-06T10:27:59.000Z</time>
      </trkpt>
      <trkpt lat="43.62979" lon="6.8272">
        <ele>390</ele>
        <time>2019-10-06T10:28:03.000Z</time>
      </trkpt>
      <trkpt lat="43.62975" lon="6.82707">
        <ele>388.60000610352</ele>
        <time>2019-10-06T10:28:07.000Z</time>
      </trkpt>
      <trkpt lat="43.62972" lon="6.82703">
        <ele>386.79998779297</ele>
        <time>2019-10-06T10:28:09.000Z</time>
      </trkpt>
      <trkpt lat="43.62971" lon="6.82702">
        <ele>385.39999389648</ele>
        <time>2019-10-06T10:28:11.000Z</time>
      </trkpt>
      <trkpt lat="43.6297" lon="6.82702">
        <ele>385.20001220703</ele>
        <time>2019-10-06T10:28:12.000Z</time>
      </trkpt>
      <trkpt lat="43.62967" lon="6.82702">
        <ele>384</ele>
        <time>2019-10-06T10:28:14.000Z</time>
      </trkpt>
      <trkpt lat="43.62964" lon="6.82701">
        <ele>382.79998779297</ele>
        <time>2019-10-06T10:28:16.000Z</time>
      </trkpt>
      <trkpt lat="43.62962" lon="6.82697">
        <ele>381.20001220703</ele>
        <time>2019-10-06T10:28:18.000Z</time>
      </trkpt>
      <trkpt lat="43.62959" lon="6.82695">
        <ele>380.20001220703</ele>
        <time>2019-10-06T10:28:20.000Z</time>
      </trkpt>
      <trkpt lat="43.62959" lon="6.82694">
        <ele>379.60000610352</ele>
        <time>2019-10-06T10:28:21.000Z</time>
      </trkpt>
      <trkpt lat="43.62955" lon="6.82693">
        <ele>378.39999389648</ele>
        <time>2019-10-06T10:28:24.000Z</time>
      </trkpt>
      <trkpt lat="43.62951" lon="6.82685">
        <ele>377.39999389648</ele>
        <time>2019-10-06T10:28:28.000Z</time>
      </trkpt>
      <trkpt lat="43.62946" lon="6.82681">
        <ele>376.79998779297</ele>
        <time>2019-10-06T10:28:53.000Z</time>
      </trkpt>
      <trkpt lat="43.62946" lon="6.82681">
        <ele>376.60000610352</ele>
        <time>2019-10-06T10:28:54.000Z</time>
      </trkpt>
      <trkpt lat="43.62942" lon="6.82682">
        <ele>375.60000610352</ele>
        <time>2019-10-06T10:29:01.000Z</time>
      </trkpt>
      <trkpt lat="43.62937" lon="6.82681">
        <ele>374.79998779297</ele>
        <time>2019-10-06T10:29:05.000Z</time>
      </trkpt>
      <trkpt lat="43.62936" lon="6.82682">
        <ele>374.39999389648</ele>
        <time>2019-10-06T10:29:06.000Z</time>
      </trkpt>
      <trkpt lat="43.62935" lon="6.82682">
        <ele>374</ele>
        <time>2019-10-06T10:29:07.000Z</time>
      </trkpt>
      <trkpt lat="43.62934" lon="6.82683">
        <ele>373.39999389648</ele>
        <time>2019-10-06T10:29:08.000Z</time>
      </trkpt>
      <trkpt lat="43.62932" lon="6.82684">
        <ele>372.39999389648</ele>
        <time>2019-10-06T10:29:10.000Z</time>
      </trkpt>
      <trkpt lat="43.62931" lon="6.82684">
        <ele>372</ele>
        <time>2019-10-06T10:29:11.000Z</time>
      </trkpt>
      <trkpt lat="43.62927" lon="6.82687">
        <ele>371.20001220703</ele>
        <time>2019-10-06T10:29:14.000Z</time>
      </trkpt>
      <trkpt lat="43.62926" lon="6.8271">
        <ele>370.60000610352</ele>
        <time>2019-10-06T10:29:26.000Z</time>
      </trkpt>
      <trkpt lat="43.62924" lon="6.82713">
        <ele>369.79998779297</ele>
        <time>2019-10-06T10:29:28.000Z</time>
      </trkpt>
      <trkpt lat="43.62918" lon="6.82714">
        <ele>368.20001220703</ele>
        <time>2019-10-06T10:29:31.000Z</time>
      </trkpt>
      <trkpt lat="43.62915" lon="6.82715">
        <ele>366.79998779297</ele>
        <time>2019-10-06T10:29:33.000Z</time>
      </trkpt>
      <trkpt lat="43.62909" lon="6.82715">
        <ele>365.60000610352</ele>
        <time>2019-10-06T10:29:36.000Z</time>
      </trkpt>
      <trkpt lat="43.62906" lon="6.82714">
        <ele>364.20001220703</ele>
        <time>2019-10-06T10:29:38.000Z</time>
      </trkpt>
      <trkpt lat="43.62903" lon="6.82709">
        <ele>362.79998779297</ele>
        <time>2019-10-06T10:29:41.000Z</time>
      </trkpt>
      <trkpt lat="43.62898" lon="6.82709">
        <ele>361.39999389648</ele>
        <time>2019-10-06T10:29:44.000Z</time>
      </trkpt>
      <trkpt lat="43.62896" lon="6.8271">
        <ele>360.79998779297</ele>
        <time>2019-10-06T10:29:45.000Z</time>
      </trkpt>
      <trkpt lat="43.62894" lon="6.82712">
        <ele>360.20001220703</ele>
        <time>2019-10-06T10:29:46.000Z</time>
      </trkpt>
      <trkpt lat="43.62892" lon="6.82714">
        <ele>358.79998779297</ele>
        <time>2019-10-06T10:29:48.000Z</time>
      </trkpt>
      <trkpt lat="43.62889" lon="6.82716">
        <ele>357.79998779297</ele>
        <time>2019-10-06T10:29:53.000Z</time>
      </trkpt>
      <trkpt lat="43.62886" lon="6.82719">
        <ele>356.60000610352</ele>
        <time>2019-10-06T10:29:59.000Z</time>
      </trkpt>
      <trkpt lat="43.62884" lon="6.82722">
        <ele>356</ele>
        <time>2019-10-06T10:30:03.000Z</time>
      </trkpt>
      <trkpt lat="43.62885" lon="6.82727">
        <ele>355.39999389648</ele>
        <time>2019-10-06T10:30:06.000Z</time>
      </trkpt>
      <trkpt lat="43.62884" lon="6.82731">
        <ele>354.39999389648</ele>
        <time>2019-10-06T10:30:10.000Z</time>
      </trkpt>
      <trkpt lat="43.62881" lon="6.82734">
        <ele>353.20001220703</ele>
        <time>2019-10-06T10:30:15.000Z</time>
      </trkpt>
      <trkpt lat="43.62879" lon="6.82736">
        <ele>352</ele>
        <time>2019-10-06T10:30:19.000Z</time>
      </trkpt>
      <trkpt lat="43.62875" lon="6.82733">
        <ele>350.60000610352</ele>
        <time>2019-10-06T10:30:24.000Z</time>
      </trkpt>
      <trkpt lat="43.62872" lon="6.8273">
        <ele>349.60000610352</ele>
        <time>2019-10-06T10:30:28.000Z</time>
      </trkpt>
      <trkpt lat="43.62871" lon="6.82729">
        <ele>348.39999389648</ele>
        <time>2019-10-06T10:30:30.000Z</time>
      </trkpt>
      <trkpt lat="43.62869" lon="6.82725">
        <ele>347.39999389648</ele>
        <time>2019-10-06T10:30:33.000Z</time>
      </trkpt>
      <trkpt lat="43.62867" lon="6.82723">
        <ele>346.20001220703</ele>
        <time>2019-10-06T10:30:36.000Z</time>
      </trkpt>
      <trkpt lat="43.62865" lon="6.82718">
        <ele>345.20001220703</ele>
        <time>2019-10-06T10:30:40.000Z</time>
      </trkpt>
      <trkpt lat="43.62863" lon="6.82717">
        <ele>344.20001220703</ele>
        <time>2019-10-06T10:30:44.000Z</time>
      </trkpt>
      <trkpt lat="43.6286" lon="6.82715">
        <ele>343</ele>
        <time>2019-10-06T10:30:48.000Z</time>
      </trkpt>
      <trkpt lat="43.62859" lon="6.82715">
        <ele>342.60000610352</ele>
        <time>2019-10-06T10:30:50.000Z</time>
      </trkpt>
      <trkpt lat="43.62857" lon="6.82715">
        <ele>341.39999389648</ele>
        <time>2019-10-06T10:30:53.000Z</time>
      </trkpt>
      <trkpt lat="43.62855" lon="6.82715">
        <ele>340.20001220703</ele>
        <time>2019-10-06T10:30:56.000Z</time>
      </trkpt>
      <trkpt lat="43.62853" lon="6.82712">
        <ele>339.20001220703</ele>
        <time>2019-10-06T10:30:59.000Z</time>
      </trkpt>
      <trkpt lat="43.62851" lon="6.82713">
        <ele>338.20001220703</ele>
        <time>2019-10-06T10:31:04.000Z</time>
      </trkpt>
      <trkpt lat="43.62849" lon="6.82716">
        <ele>337</ele>
        <time>2019-10-06T10:31:09.000Z</time>
      </trkpt>
      <trkpt lat="43.62846" lon="6.8272">
        <ele>335.60000610352</ele>
        <time>2019-10-06T10:31:13.000Z</time>
      </trkpt>
      <trkpt lat="43.62841" lon="6.82727">
        <ele>334.20001220703</ele>
        <time>2019-10-06T10:31:17.000Z</time>
      </trkpt>
      <trkpt lat="43.62839" lon="6.82732">
        <ele>332.79998779297</ele>
        <time>2019-10-06T10:31:19.000Z</time>
      </trkpt>
      <trkpt lat="43.62839" lon="6.82745">
        <ele>331.79998779297</ele>
        <time>2019-10-06T10:31:24.000Z</time>
      </trkpt>
      <trkpt lat="43.62838" lon="6.82758">
        <ele>330.60000610352</ele>
        <time>2019-10-06T10:31:30.000Z</time>
      </trkpt>
      <trkpt lat="43.62836" lon="6.82812">
        <ele>329.39999389648</ele>
        <time>2019-10-06T10:31:56.000Z</time>
      </trkpt>
      <trkpt lat="43.62834" lon="6.82818">
        <ele>327.79998779297</ele>
        <time>2019-10-06T10:31:59.000Z</time>
      </trkpt>
      <trkpt lat="43.62833" lon="6.82824">
        <ele>326.60000610352</ele>
        <time>2019-10-06T10:32:01.000Z</time>
      </trkpt>
      <trkpt lat="43.6283" lon="6.82836">
        <ele>325.60000610352</ele>
        <time>2019-10-06T10:32:06.000Z</time>
      </trkpt>
      <trkpt lat="43.62829" lon="6.82838">
        <ele>325.39999389648</ele>
        <time>2019-10-06T10:32:07.000Z</time>
      </trkpt>
      <trkpt lat="43.62824" lon="6.82848">
        <ele>324</ele>
        <time>2019-10-06T10:32:10.000Z</time>
      </trkpt>
      <trkpt lat="43.62822" lon="6.82852">
        <ele>323.60000610352</ele>
        <time>2019-10-06T10:32:11.000Z</time>
      </trkpt>
      <trkpt lat="43.62815" lon="6.82862">
        <ele>323</ele>
        <time>2019-10-06T10:32:14.000Z</time>
      </trkpt>
      <trkpt lat="43.62813" lon="6.82872">
        <ele>323.39999389648</ele>
        <time>2019-10-06T10:32:17.000Z</time>
      </trkpt>
      <trkpt lat="43.62811" lon="6.82887">
        <ele>324</ele>
        <time>2019-10-06T10:32:22.000Z</time>
      </trkpt>
      <trkpt lat="43.6281" lon="6.82895">
        <ele>324.60000610352</ele>
        <time>2019-10-06T10:32:25.000Z</time>
      </trkpt>
      <trkpt lat="43.6281" lon="6.82898">
        <ele>325</ele>
        <time>2019-10-06T10:32:26.000Z</time>
      </trkpt>
      <trkpt lat="43.62808" lon="6.82913">
        <ele>326.20001220703</ele>
        <time>2019-10-06T10:32:31.000Z</time>
      </trkpt>
      <trkpt lat="43.62804" lon="6.82929">
        <ele>325</ele>
        <time>2019-10-06T10:32:38.000Z</time>
      </trkpt>
      <trkpt lat="43.62802" lon="6.82933">
        <ele>324</ele>
        <time>2019-10-06T10:32:40.000Z</time>
      </trkpt>
      <trkpt lat="43.62801" lon="6.82939">
        <ele>322.39999389648</ele>
        <time>2019-10-06T10:32:42.000Z</time>
      </trkpt>
      <trkpt lat="43.628" lon="6.82945">
        <ele>321.20001220703</ele>
        <time>2019-10-06T10:32:45.000Z</time>
      </trkpt>
      <trkpt lat="43.62801" lon="6.82955">
        <ele>320.39999389648</ele>
        <time>2019-10-06T10:32:48.000Z</time>
      </trkpt>
      <trkpt lat="43.62802" lon="6.82959">
        <ele>320</ele>
        <time>2019-10-06T10:32:49.000Z</time>
      </trkpt>
      <trkpt lat="43.62804" lon="6.82967">
        <ele>319.20001220703</ele>
        <time>2019-10-06T10:32:51.000Z</time>
      </trkpt>
      <trkpt lat="43.62804" lon="6.82973">
        <ele>318.39999389648</ele>
        <time>2019-10-06T10:32:53.000Z</time>
      </trkpt>
      <trkpt lat="43.62801" lon="6.82987">
        <ele>316.60000610352</ele>
        <time>2019-10-06T10:32:57.000Z</time>
      </trkpt>
      <trkpt lat="43.62803" lon="6.82994">
        <ele>315.60000610352</ele>
        <time>2019-10-06T10:32:59.000Z</time>
      </trkpt>
      <trkpt lat="43.62809" lon="6.83003">
        <ele>314.60000610352</ele>
        <time>2019-10-06T10:33:03.000Z</time>
      </trkpt>
      <trkpt lat="43.6281" lon="6.83007">
        <ele>314.60000610352</ele>
        <time>2019-10-06T10:33:05.000Z</time>
      </trkpt>
      <trkpt lat="43.62809" lon="6.8301">
        <ele>314.20001220703</ele>
        <time>2019-10-06T10:33:06.000Z</time>
      </trkpt>
      <trkpt lat="43.62809" lon="6.83022">
        <ele>312.79998779297</ele>
        <time>2019-10-06T10:33:09.000Z</time>
      </trkpt>
      <trkpt lat="43.6281" lon="6.83029">
        <ele>311.39999389648</ele>
        <time>2019-10-06T10:33:11.000Z</time>
      </trkpt>
      <trkpt lat="43.62812" lon="6.83038">
        <ele>310.20001220703</ele>
        <time>2019-10-06T10:33:14.000Z</time>
      </trkpt>
      <trkpt lat="43.62813" lon="6.83041">
        <ele>310</ele>
        <time>2019-10-06T10:33:15.000Z</time>
      </trkpt>
      <trkpt lat="43.62809" lon="6.83046">
        <ele>308.60000610352</ele>
        <time>2019-10-06T10:33:18.000Z</time>
      </trkpt>
      <trkpt lat="43.62806" lon="6.83049">
        <ele>308.20001220703</ele>
        <time>2019-10-06T10:33:19.000Z</time>
      </trkpt>
      <trkpt lat="43.62804" lon="6.8305">
        <ele>307.39999389648</ele>
        <time>2019-10-06T10:33:20.000Z</time>
      </trkpt>
      <trkpt lat="43.62799" lon="6.83052">
        <ele>306.39999389648</ele>
        <time>2019-10-06T10:33:22.000Z</time>
      </trkpt>
      <trkpt lat="43.62794" lon="6.8305">
        <ele>305.20001220703</ele>
        <time>2019-10-06T10:33:24.000Z</time>
      </trkpt>
      <trkpt lat="43.62791" lon="6.8305">
        <ele>304.39999389648</ele>
        <time>2019-10-06T10:33:26.000Z</time>
      </trkpt>
      <trkpt lat="43.6279" lon="6.83053">
        <ele>303.60000610352</ele>
        <time>2019-10-06T10:33:27.000Z</time>
      </trkpt>
      <trkpt lat="43.62789" lon="6.83057">
        <ele>302.20001220703</ele>
        <time>2019-10-06T10:33:29.000Z</time>
      </trkpt>
      <trkpt lat="43.6279" lon="6.83061">
        <ele>301</ele>
        <time>2019-10-06T10:33:31.000Z</time>
      </trkpt>
      <trkpt lat="43.6279" lon="6.83064">
        <ele>299.79998779297</ele>
        <time>2019-10-06T10:33:33.000Z</time>
      </trkpt>
      <trkpt lat="43.62788" lon="6.83067">
        <ele>298.39999389648</ele>
        <time>2019-10-06T10:33:36.000Z</time>
      </trkpt>
      <trkpt lat="43.62784" lon="6.83071">
        <ele>297.39999389648</ele>
        <time>2019-10-06T10:33:38.000Z</time>
      </trkpt>
      <trkpt lat="43.62782" lon="6.83074">
        <ele>296.20001220703</ele>
        <time>2019-10-06T10:33:40.000Z</time>
      </trkpt>
      <trkpt lat="43.62779" lon="6.83079">
        <ele>294.79998779297</ele>
        <time>2019-10-06T10:33:42.000Z</time>
      </trkpt>
      <trkpt lat="43.62779" lon="6.83084">
        <ele>293</ele>
        <time>2019-10-06T10:33:44.000Z</time>
      </trkpt>
      <trkpt lat="43.6278" lon="6.83091">
        <ele>291.60000610352</ele>
        <time>2019-10-06T10:33:46.000Z</time>
      </trkpt>
      <trkpt lat="43.62781" lon="6.83095">
        <ele>291.20001220703</ele>
        <time>2019-10-06T10:33:47.000Z</time>
      </trkpt>
      <trkpt lat="43.62782" lon="6.83102">
        <ele>290.20001220703</ele>
        <time>2019-10-06T10:33:49.000Z</time>
      </trkpt>
      <trkpt lat="43.62782" lon="6.8311">
        <ele>289</ele>
        <time>2019-10-06T10:33:51.000Z</time>
      </trkpt>
      <trkpt lat="43.62782" lon="6.83121">
        <ele>287.20001220703</ele>
        <time>2019-10-06T10:33:53.000Z</time>
      </trkpt>
      <trkpt lat="43.62781" lon="6.83133">
        <ele>285.60000610352</ele>
        <time>2019-10-06T10:33:55.000Z</time>
      </trkpt>
      <trkpt lat="43.62777" lon="6.83142">
        <ele>285</ele>
        <time>2019-10-06T10:33:57.000Z</time>
      </trkpt>
      <trkpt lat="43.62774" lon="6.83147">
        <ele>284.39999389648</ele>
        <time>2019-10-06T10:33:58.000Z</time>
      </trkpt>
      <trkpt lat="43.62767" lon="6.83162">
        <ele>283.20001220703</ele>
        <time>2019-10-06T10:34:01.000Z</time>
      </trkpt>
      <trkpt lat="43.62758" lon="6.83179">
        <ele>282</ele>
        <time>2019-10-06T10:34:06.000Z</time>
      </trkpt>
      <trkpt lat="43.62751" lon="6.83181">
        <ele>280.60000610352</ele>
        <time>2019-10-06T10:34:08.000Z</time>
      </trkpt>
      <trkpt lat="43.62749" lon="6.83181">
        <ele>280</ele>
        <time>2019-10-06T10:34:09.000Z</time>
      </trkpt>
      <trkpt lat="43.62747" lon="6.83183">
        <ele>279.60000610352</ele>
        <time>2019-10-06T10:34:10.000Z</time>
      </trkpt>
      <trkpt lat="43.62747" lon="6.8319">
        <ele>278.60000610352</ele>
        <time>2019-10-06T10:34:15.000Z</time>
      </trkpt>
      <trkpt lat="43.62747" lon="6.83195">
        <ele>278.39999389648</ele>
        <time>2019-10-06T10:34:17.000Z</time>
      </trkpt>
      <trkpt lat="43.62751" lon="6.83221">
        <ele>278.20001220703</ele>
        <time>2019-10-06T10:34:25.000Z</time>
      </trkpt>
      <trkpt lat="43.62753" lon="6.83229">
        <ele>278.20001220703</ele>
        <time>2019-10-06T10:34:27.000Z</time>
      </trkpt>
      <trkpt lat="43.62759" lon="6.83251">
        <ele>278.20001220703</ele>
        <time>2019-10-06T10:34:32.000Z</time>
      </trkpt>
      <trkpt lat="43.62781" lon="6.83319">
        <ele>278.60000610352</ele>
        <time>2019-10-06T10:34:47.000Z</time>
      </trkpt>
      <trkpt lat="43.62798" lon="6.83358">
        <ele>278.39999389648</ele>
        <time>2019-10-06T10:34:55.000Z</time>
      </trkpt>
      <trkpt lat="43.62833" lon="6.8341">
        <ele>279</ele>
        <time>2019-10-06T10:35:10.000Z</time>
      </trkpt>
      <trkpt lat="43.62883" lon="6.83447">
        <ele>278</ele>
        <time>2019-10-06T10:35:25.000Z</time>
      </trkpt>
      <trkpt lat="43.62918" lon="6.83498">
        <ele>278.20001220703</ele>
        <time>2019-10-06T10:35:36.000Z</time>
      </trkpt>
      <trkpt lat="43.62937" lon="6.83524">
        <ele>278.39999389648</ele>
        <time>2019-10-06T10:35:42.000Z</time>
      </trkpt>
      <trkpt lat="43.62955" lon="6.83544">
        <ele>278.20001220703</ele>
        <time>2019-10-06T10:35:47.000Z</time>
      </trkpt>
      <trkpt lat="43.62963" lon="6.83551">
        <ele>278.20001220703</ele>
        <time>2019-10-06T10:35:49.000Z</time>
      </trkpt>
      <trkpt lat="43.6297" lon="6.83559">
        <ele>278</ele>
        <time>2019-10-06T10:35:51.000Z</time>
      </trkpt>
      <trkpt lat="43.62973" lon="6.83562">
        <ele>278</ele>
        <time>2019-10-06T10:35:52.000Z</time>
      </trkpt>
      <trkpt lat="43.63005" lon="6.83598">
        <ele>278.60000610352</ele>
        <time>2019-10-06T10:36:01.000Z</time>
      </trkpt>
      <trkpt lat="43.63014" lon="6.83613">
        <ele>279</ele>
        <time>2019-10-06T10:36:05.000Z</time>
      </trkpt>
      <trkpt lat="43.63041" lon="6.83635">
        <ele>278</ele>
        <time>2019-10-06T10:36:13.000Z</time>
      </trkpt>
      <trkpt lat="43.63081" lon="6.83683">
        <ele>278</ele>
        <time>2019-10-06T10:36:27.000Z</time>
      </trkpt>
      <trkpt lat="43.63093" lon="6.83701">
        <ele>278.20001220703</ele>
        <time>2019-10-06T10:36:31.000Z</time>
      </trkpt>
      <trkpt lat="43.63121" lon="6.83722">
        <ele>278.39999389648</ele>
        <time>2019-10-06T10:36:38.000Z</time>
      </trkpt>
      <trkpt lat="43.63146" lon="6.83763">
        <ele>278.20001220703</ele>
        <time>2019-10-06T10:36:47.000Z</time>
      </trkpt>
      <trkpt lat="43.63146" lon="6.83794">
        <ele>277</ele>
        <time>2019-10-06T10:36:51.000Z</time>
      </trkpt>
      <trkpt lat="43.63156" lon="6.83815">
        <ele>276</ele>
        <time>2019-10-06T10:36:54.000Z</time>
      </trkpt>
      <trkpt lat="43.63159" lon="6.8382">
        <ele>275.79998779297</ele>
        <time>2019-10-06T10:36:55.000Z</time>
      </trkpt>
      <trkpt lat="43.63165" lon="6.83831">
        <ele>275.79998779297</ele>
        <time>2019-10-06T10:36:57.000Z</time>
      </trkpt>
      <trkpt lat="43.6316" lon="6.83816">
        <ele>277</ele>
        <time>2019-10-06T10:37:06.000Z</time>
      </trkpt>
      <trkpt lat="43.63164" lon="6.83813">
        <ele>278</ele>
        <time>2019-10-06T10:37:12.000Z</time>
      </trkpt>
      <trkpt lat="43.63165" lon="6.83814">
        <ele>278</ele>
        <time>2019-10-06T10:37:13.000Z</time>
      </trkpt>
      <trkpt lat="43.63176" lon="6.83817">
        <ele>278</ele>
        <time>2019-10-06T10:37:17.000Z</time>
      </trkpt>
      <trkpt lat="43.63179" lon="6.83818">
        <ele>278.20001220703</ele>
        <time>2019-10-06T10:37:18.000Z</time>
      </trkpt>
      <trkpt lat="43.63222" lon="6.83842">
        <ele>278.20001220703</ele>
        <time>2019-10-06T10:37:31.000Z</time>
      </trkpt>
      <trkpt lat="43.63252" lon="6.83896">
        <ele>278.39999389648</ele>
        <time>2019-10-06T10:37:43.000Z</time>
      </trkpt>
      <trkpt lat="43.63268" lon="6.83929">
        <ele>278.39999389648</ele>
        <time>2019-10-06T10:37:51.000Z</time>
      </trkpt>
      <trkpt lat="43.63292" lon="6.83991">
        <ele>278</ele>
        <time>2019-10-06T10:38:05.000Z</time>
      </trkpt>
      <trkpt lat="43.63268" lon="6.8406">
        <ele>277.79998779297</ele>
        <time>2019-10-06T10:38:19.000Z</time>
      </trkpt>
      <trkpt lat="43.63292" lon="6.84127">
        <ele>278</ele>
        <time>2019-10-06T10:38:34.000Z</time>
      </trkpt>
      <trkpt lat="43.63315" lon="6.84162">
        <ele>278</ele>
        <time>2019-10-06T10:38:43.000Z</time>
      </trkpt>
      <trkpt lat="43.63312" lon="6.84165">
        <ele>277.20001220703</ele>
        <time>2019-10-06T10:38:45.000Z</time>
      </trkpt>
      <trkpt lat="43.63304" lon="6.84162">
        <ele>275.79998779297</ele>
        <time>2019-10-06T10:38:47.000Z</time>
      </trkpt>
      <trkpt lat="43.63297" lon="6.84159">
        <ele>274.39999389648</ele>
        <time>2019-10-06T10:38:49.000Z</time>
      </trkpt>
      <trkpt lat="43.63282" lon="6.84169">
        <ele>273.39999389648</ele>
        <time>2019-10-06T10:38:52.000Z</time>
      </trkpt>
      <trkpt lat="43.63251" lon="6.84172">
        <ele>274.60000610352</ele>
        <time>2019-10-06T10:38:58.000Z</time>
      </trkpt>
      <trkpt lat="43.63234" lon="6.84171">
        <ele>275.60000610352</ele>
        <time>2019-10-06T10:39:02.000Z</time>
      </trkpt>
      <trkpt lat="43.63217" lon="6.84174">
        <ele>276.79998779297</ele>
        <time>2019-10-06T10:39:07.000Z</time>
      </trkpt>
      <trkpt lat="43.63197" lon="6.84187">
        <ele>278</ele>
        <time>2019-10-06T10:39:14.000Z</time>
      </trkpt>
      <trkpt lat="43.63159" lon="6.84211">
        <ele>278.60000610352</ele>
        <time>2019-10-06T10:39:28.000Z</time>
      </trkpt>
      <trkpt lat="43.63141" lon="6.84231">
        <ele>279.39999389648</ele>
        <time>2019-10-06T10:39:36.000Z</time>
      </trkpt>
      <trkpt lat="43.63139" lon="6.84236">
        <ele>280.39999389648</ele>
        <time>2019-10-06T10:39:39.000Z</time>
      </trkpt>
      <trkpt lat="43.63137" lon="6.8424">
        <ele>281.39999389648</ele>
        <time>2019-10-06T10:39:41.000Z</time>
      </trkpt>
      <trkpt lat="43.63135" lon="6.84242">
        <ele>281.60000610352</ele>
        <time>2019-10-06T10:39:42.000Z</time>
      </trkpt>
      <trkpt lat="43.63121" lon="6.84235">
        <ele>282.20001220703</ele>
        <time>2019-10-06T10:39:49.000Z</time>
      </trkpt>
      <trkpt lat="43.63109" lon="6.84222">
        <ele>281.60000610352</ele>
        <time>2019-10-06T10:39:53.000Z</time>
      </trkpt>
      <trkpt lat="43.63097" lon="6.84209">
        <ele>280.39999389648</ele>
        <time>2019-10-06T10:39:57.000Z</time>
      </trkpt>
      <trkpt lat="43.63089" lon="6.84206">
        <ele>280.20001220703</ele>
        <time>2019-10-06T10:40:00.000Z</time>
      </trkpt>
      <trkpt lat="43.63084" lon="6.84209">
        <ele>280.79998779297</ele>
        <time>2019-10-06T10:40:04.000Z</time>
      </trkpt>
      <trkpt lat="43.63085" lon="6.84213">
        <ele>281.39999389648</ele>
        <time>2019-10-06T10:40:07.000Z</time>
      </trkpt>
      <trkpt lat="43.63086" lon="6.84216">
        <ele>281.79998779297</ele>
        <time>2019-10-06T10:40:09.000Z</time>
      </trkpt>
      <trkpt lat="43.6309" lon="6.84224">
        <ele>283</ele>
        <time>2019-10-06T10:40:14.000Z</time>
      </trkpt>
      <trkpt lat="43.63093" lon="6.84229">
        <ele>284</ele>
        <time>2019-10-06T10:40:18.000Z</time>
      </trkpt>
      <trkpt lat="43.63096" lon="6.84233">
        <ele>285</ele>
        <time>2019-10-06T10:40:25.000Z</time>
      </trkpt>
      <trkpt lat="43.63096" lon="6.84234">
        <ele>286.39999389648</ele>
        <time>2019-10-06T10:40:41.000Z</time>
      </trkpt>
      <trkpt lat="43.63096" lon="6.84234">
        <ele>287.60000610352</ele>
        <time>2019-10-06T10:40:51.000Z</time>
      </trkpt>
      <trkpt lat="43.63097" lon="6.84236">
        <ele>288.79998779297</ele>
        <time>2019-10-06T10:41:00.000Z</time>
      </trkpt>
      <trkpt lat="43.63102" lon="6.8424">
        <ele>288.79998779297</ele>
        <time>2019-10-06T10:41:05.000Z</time>
      </trkpt>
      <trkpt lat="43.63137" lon="6.84294">
        <ele>288</ele>
        <time>2019-10-06T10:41:22.000Z</time>
      </trkpt>
      <trkpt lat="43.6313" lon="6.84307">
        <ele>287.79998779297</ele>
        <time>2019-10-06T10:41:25.000Z</time>
      </trkpt>
      <trkpt lat="43.63125" lon="6.84315">
        <ele>287.79998779297</ele>
        <time>2019-10-06T10:41:27.000Z</time>
      </trkpt>
      <trkpt lat="43.63119" lon="6.84325">
        <ele>287.60000610352</ele>
        <time>2019-10-06T10:41:29.000Z</time>
      </trkpt>
      <trkpt lat="43.63105" lon="6.84338">
        <ele>288.20001220703</ele>
        <time>2019-10-06T10:41:33.000Z</time>
      </trkpt>
      <trkpt lat="43.63095" lon="6.84345">
        <ele>288.20001220703</ele>
        <time>2019-10-06T10:41:36.000Z</time>
      </trkpt>
      <trkpt lat="43.6307" lon="6.84361">
        <ele>286.79998779297</ele>
        <time>2019-10-06T10:41:41.000Z</time>
      </trkpt>
      <trkpt lat="43.63048" lon="6.84375">
        <ele>286</ele>
        <time>2019-10-06T10:41:45.000Z</time>
      </trkpt>
      <trkpt lat="43.63044" lon="6.8438">
        <ele>285.79998779297</ele>
        <time>2019-10-06T10:41:46.000Z</time>
      </trkpt>
      <trkpt lat="43.63047" lon="6.84401">
        <ele>284.20001220703</ele>
        <time>2019-10-06T10:41:49.000Z</time>
      </trkpt>
      <trkpt lat="43.63055" lon="6.84417">
        <ele>282.79998779297</ele>
        <time>2019-10-06T10:41:52.000Z</time>
      </trkpt>
      <trkpt lat="43.63056" lon="6.8442">
        <ele>282.20001220703</ele>
        <time>2019-10-06T10:41:53.000Z</time>
      </trkpt>
      <trkpt lat="43.63055" lon="6.84423">
        <ele>281.60000610352</ele>
        <time>2019-10-06T10:41:55.000Z</time>
      </trkpt>
      <trkpt lat="43.63054" lon="6.84422">
        <ele>281.20001220703</ele>
        <time>2019-10-06T10:42:00.000Z</time>
      </trkpt>
      <trkpt lat="43.63055" lon="6.84422">
        <ele>280.79998779297</ele>
        <time>2019-10-06T10:42:09.000Z</time>
      </trkpt>
      <trkpt lat="43.63055" lon="6.84422">
        <ele>280.79998779297</ele>
        <time>2019-10-06T10:42:12.000Z</time>
      </trkpt>
      <trkpt lat="43.63055" lon="6.84422">
        <ele>280.60000610352</ele>
        <time>2019-10-06T10:42:15.000Z</time>
      </trkpt>
      <trkpt lat="43.63055" lon="6.84422">
        <ele>280.60000610352</ele>
        <time>2019-10-06T10:42:16.000Z</time>
      </trkpt>
      <trkpt lat="43.63055" lon="6.84422">
        <ele>280.60000610352</ele>
        <time>2019-10-06T10:42:32.000Z</time>
      </trkpt>
      <trkpt lat="43.63055" lon="6.84422">
        <ele>280.79998779297</ele>
        <time>2019-10-06T10:42:51.000Z</time>
      </trkpt>
      <trkpt lat="43.63055" lon="6.84422">
        <ele>280.79998779297</ele>
        <time>2019-10-06T10:42:52.000Z</time>
      </trkpt>
      <trkpt lat="43.63055" lon="6.84422">
        <ele>280.60000610352</ele>
        <time>2019-10-06T10:42:54.000Z</time>
      </trkpt>
      <trkpt lat="43.63055" lon="6.84422">
        <ele>280.60000610352</ele>
        <time>2019-10-06T10:42:58.000Z</time>
      </trkpt>
      <trkpt lat="43.63055" lon="6.84422">
        <ele>280.60000610352</ele>
        <time>2019-10-06T10:43:07.000Z</time>
      </trkpt>
      <trkpt lat="43.63055" lon="6.84422">
        <ele>280.60000610352</ele>
        <time>2019-10-06T10:43:40.000Z</time>
      </trkpt>
      <trkpt lat="43.63055" lon="6.84422">
        <ele>280.79998779297</ele>
        <time>2019-10-06T10:43:47.000Z</time>
      </trkpt>
      <trkpt lat="43.63055" lon="6.84422">
        <ele>280.79998779297</ele>
        <time>2019-10-06T10:44:01.000Z</time>
      </trkpt>
      <trkpt lat="43.63055" lon="6.84422">
        <ele>280.79998779297</ele>
        <time>2019-10-06T10:45:05.000Z</time>
      </trkpt>
      <trkpt lat="43.63055" lon="6.84422">
        <ele>280.79998779297</ele>
        <time>2019-10-06T10:45:18.000Z</time>
      </trkpt>
      <trkpt lat="43.63055" lon="6.84422">
        <ele>281</ele>
        <time>2019-10-06T10:45:19.000Z</time>
      </trkpt>
      <trkpt lat="43.63056" lon="6.84423">
        <ele>281</ele>
        <time>2019-10-06T10:45:20.000Z</time>
      </trkpt>
      <trkpt lat="43.63057" lon="6.84425">
        <ele>281</ele>
        <time>2019-10-06T10:45:21.000Z</time>
      </trkpt>
      <trkpt lat="43.63068" lon="6.84438">
        <ele>280.39999389648</ele>
        <time>2019-10-06T10:45:25.000Z</time>
      </trkpt>
      <trkpt lat="43.63071" lon="6.84443">
        <ele>280.20001220703</ele>
        <time>2019-10-06T10:45:26.000Z</time>
      </trkpt>
      <trkpt lat="43.63079" lon="6.84454">
        <ele>279.39999389648</ele>
        <time>2019-10-06T10:45:28.000Z</time>
      </trkpt>
      <trkpt lat="43.63084" lon="6.84458">
        <ele>279</ele>
        <time>2019-10-06T10:45:29.000Z</time>
      </trkpt>
      <trkpt lat="43.63106" lon="6.84449">
        <ele>278</ele>
        <time>2019-10-06T10:45:36.000Z</time>
      </trkpt>
      <trkpt lat="43.6311" lon="6.84454">
        <ele>278</ele>
        <time>2019-10-06T10:45:39.000Z</time>
      </trkpt>
      <trkpt lat="43.63126" lon="6.84481">
        <ele>277.60000610352</ele>
        <time>2019-10-06T10:45:46.000Z</time>
      </trkpt>
      <trkpt lat="43.63133" lon="6.84488">
        <ele>277.60000610352</ele>
        <time>2019-10-06T10:45:48.000Z</time>
      </trkpt>
      <trkpt lat="43.63162" lon="6.84514">
        <ele>277.79998779297</ele>
        <time>2019-10-06T10:45:56.000Z</time>
      </trkpt>
      <trkpt lat="43.6318" lon="6.84527">
        <ele>278.20001220703</ele>
        <time>2019-10-06T10:46:01.000Z</time>
      </trkpt>
      <trkpt lat="43.63194" lon="6.84535">
        <ele>277.79998779297</ele>
        <time>2019-10-06T10:46:05.000Z</time>
      </trkpt>
      <trkpt lat="43.63208" lon="6.84547">
        <ele>277.79998779297</ele>
        <time>2019-10-06T10:46:09.000Z</time>
      </trkpt>
      <trkpt lat="43.63238" lon="6.84594">
        <ele>277.39999389648</ele>
        <time>2019-10-06T10:46:20.000Z</time>
      </trkpt>
      <trkpt lat="43.63246" lon="6.84626">
        <ele>277.79998779297</ele>
        <time>2019-10-06T10:46:26.000Z</time>
      </trkpt>
      <trkpt lat="43.63237" lon="6.84649">
        <ele>278</ele>
        <time>2019-10-06T10:46:31.000Z</time>
      </trkpt>
      <trkpt lat="43.63234" lon="6.84652">
        <ele>278</ele>
        <time>2019-10-06T10:46:32.000Z</time>
      </trkpt>
      <trkpt lat="43.6321" lon="6.8468">
        <ele>277.79998779297</ele>
        <time>2019-10-06T10:46:39.000Z</time>
      </trkpt>
      <trkpt lat="43.63201" lon="6.84695">
        <ele>278</ele>
        <time>2019-10-06T10:46:42.000Z</time>
      </trkpt>
      <trkpt lat="43.6319" lon="6.84722">
        <ele>277.60000610352</ele>
        <time>2019-10-06T10:46:47.000Z</time>
      </trkpt>
      <trkpt lat="43.63187" lon="6.84741">
        <ele>277.60000610352</ele>
        <time>2019-10-06T10:46:50.000Z</time>
      </trkpt>
      <trkpt lat="43.6319" lon="6.84765">
        <ele>277.79998779297</ele>
        <time>2019-10-06T10:46:54.000Z</time>
      </trkpt>
      <trkpt lat="43.63206" lon="6.8482">
        <ele>277.79998779297</ele>
        <time>2019-10-06T10:47:03.000Z</time>
      </trkpt>
      <trkpt lat="43.63226" lon="6.84867">
        <ele>277.79998779297</ele>
        <time>2019-10-06T10:47:12.000Z</time>
      </trkpt>
      <trkpt lat="43.63256" lon="6.84913">
        <ele>277.60000610352</ele>
        <time>2019-10-06T10:47:22.000Z</time>
      </trkpt>
      <trkpt lat="43.63267" lon="6.84926">
        <ele>277.60000610352</ele>
        <time>2019-10-06T10:47:25.000Z</time>
      </trkpt>
      <trkpt lat="43.63299" lon="6.84989">
        <ele>278.20001220703</ele>
        <time>2019-10-06T10:47:37.000Z</time>
      </trkpt>
      <trkpt lat="43.63301" lon="6.84999">
        <ele>278</ele>
        <time>2019-10-06T10:47:39.000Z</time>
      </trkpt>
      <trkpt lat="43.63287" lon="6.85">
        <ele>277.60000610352</ele>
        <time>2019-10-06T10:47:45.000Z</time>
      </trkpt>
      <trkpt lat="43.63273" lon="6.84995">
        <ele>276.20001220703</ele>
        <time>2019-10-06T10:47:48.000Z</time>
      </trkpt>
      <trkpt lat="43.63244" lon="6.84985">
        <ele>274.79998779297</ele>
        <time>2019-10-06T10:47:51.000Z</time>
      </trkpt>
      <trkpt lat="43.63236" lon="6.84979">
        <ele>273.60000610352</ele>
        <time>2019-10-06T10:47:53.000Z</time>
      </trkpt>
      <trkpt lat="43.63217" lon="6.84957">
        <ele>272.20001220703</ele>
        <time>2019-10-06T10:47:56.000Z</time>
      </trkpt>
      <trkpt lat="43.63205" lon="6.84945">
        <ele>271.20001220703</ele>
        <time>2019-10-06T10:47:58.000Z</time>
      </trkpt>
      <trkpt lat="43.632" lon="6.84938">
        <ele>271</ele>
        <time>2019-10-06T10:47:59.000Z</time>
      </trkpt>
      <trkpt lat="43.63184" lon="6.84917">
        <ele>269.79998779297</ele>
        <time>2019-10-06T10:48:02.000Z</time>
      </trkpt>
      <trkpt lat="43.63142" lon="6.84874">
        <ele>268.79998779297</ele>
        <time>2019-10-06T10:48:10.000Z</time>
      </trkpt>
      <trkpt lat="43.63126" lon="6.84857">
        <ele>267.60000610352</ele>
        <time>2019-10-06T10:48:13.000Z</time>
      </trkpt>
      <trkpt lat="43.6309" lon="6.8484">
        <ele>266.20001220703</ele>
        <time>2019-10-06T10:48:18.000Z</time>
      </trkpt>
      <trkpt lat="43.63072" lon="6.84835">
        <ele>265</ele>
        <time>2019-10-06T10:48:20.000Z</time>
      </trkpt>
      <trkpt lat="43.63053" lon="6.84833">
        <ele>264</ele>
        <time>2019-10-06T10:48:22.000Z</time>
      </trkpt>
      <trkpt lat="43.63034" lon="6.84833">
        <ele>262.39999389648</ele>
        <time>2019-10-06T10:48:24.000Z</time>
      </trkpt>
      <trkpt lat="43.62999" lon="6.84844">
        <ele>261.39999389648</ele>
        <time>2019-10-06T10:48:28.000Z</time>
      </trkpt>
      <trkpt lat="43.62982" lon="6.84852">
        <ele>260.60000610352</ele>
        <time>2019-10-06T10:48:30.000Z</time>
      </trkpt>
      <trkpt lat="43.62974" lon="6.84858">
        <ele>260</ele>
        <time>2019-10-06T10:48:31.000Z</time>
      </trkpt>
      <trkpt lat="43.62967" lon="6.84865">
        <ele>259.79998779297</ele>
        <time>2019-10-06T10:48:32.000Z</time>
      </trkpt>
      <trkpt lat="43.62955" lon="6.84879">
        <ele>259.79998779297</ele>
        <time>2019-10-06T10:48:34.000Z</time>
      </trkpt>
      <trkpt lat="43.62931" lon="6.84915">
        <ele>261.39999389648</ele>
        <time>2019-10-06T10:48:40.000Z</time>
      </trkpt>
      <trkpt lat="43.6291" lon="6.84945">
        <ele>262.39999389648</ele>
        <time>2019-10-06T10:48:46.000Z</time>
      </trkpt>
      <trkpt lat="43.62899" lon="6.84956">
        <ele>262.60000610352</ele>
        <time>2019-10-06T10:48:49.000Z</time>
      </trkpt>
      <trkpt lat="43.62887" lon="6.84973">
        <ele>263.20001220703</ele>
        <time>2019-10-06T10:48:53.000Z</time>
      </trkpt>
      <trkpt lat="43.6288" lon="6.84988">
        <ele>263.39999389648</ele>
        <time>2019-10-06T10:48:57.000Z</time>
      </trkpt>
      <trkpt lat="43.62875" lon="6.85005">
        <ele>264.39999389648</ele>
        <time>2019-10-06T10:49:02.000Z</time>
      </trkpt>
      <trkpt lat="43.62871" lon="6.85021">
        <ele>265.79998779297</ele>
        <time>2019-10-06T10:49:07.000Z</time>
      </trkpt>
      <trkpt lat="43.62866" lon="6.85034">
        <ele>267</ele>
        <time>2019-10-06T10:49:12.000Z</time>
      </trkpt>
      <trkpt lat="43.62861" lon="6.85043">
        <ele>268</ele>
        <time>2019-10-06T10:49:16.000Z</time>
      </trkpt>
      <trkpt lat="43.6286" lon="6.85046">
        <ele>268.20001220703</ele>
        <time>2019-10-06T10:49:17.000Z</time>
      </trkpt>
      <trkpt lat="43.62855" lon="6.85055">
        <ele>268.79998779297</ele>
        <time>2019-10-06T10:49:21.000Z</time>
      </trkpt>
      <trkpt lat="43.62852" lon="6.8506">
        <ele>269</ele>
        <time>2019-10-06T10:49:23.000Z</time>
      </trkpt>
      <trkpt lat="43.62851" lon="6.85063">
        <ele>269.20001220703</ele>
        <time>2019-10-06T10:49:24.000Z</time>
      </trkpt>
      <trkpt lat="43.62842" lon="6.85082">
        <ele>270.20001220703</ele>
        <time>2019-10-06T10:49:31.000Z</time>
      </trkpt>
      <trkpt lat="43.62841" lon="6.85084">
        <ele>270.39999389648</ele>
        <time>2019-10-06T10:49:32.000Z</time>
      </trkpt>
      <trkpt lat="43.62836" lon="6.85104">
        <ele>271.39999389648</ele>
        <time>2019-10-06T10:49:39.000Z</time>
      </trkpt>
      <trkpt lat="43.62832" lon="6.85124">
        <ele>272.20001220703</ele>
        <time>2019-10-06T10:49:46.000Z</time>
      </trkpt>
      <trkpt lat="43.62831" lon="6.85131">
        <ele>272.60000610352</ele>
        <time>2019-10-06T10:49:49.000Z</time>
      </trkpt>
      <trkpt lat="43.62828" lon="6.85142">
        <ele>273.79998779297</ele>
        <time>2019-10-06T10:49:54.000Z</time>
      </trkpt>
      <trkpt lat="43.62828" lon="6.85146">
        <ele>274</ele>
        <time>2019-10-06T10:49:56.000Z</time>
      </trkpt>
      <trkpt lat="43.62824" lon="6.85159">
        <ele>274.79998779297</ele>
        <time>2019-10-06T10:50:02.000Z</time>
      </trkpt>
      <trkpt lat="43.62819" lon="6.85171">
        <ele>275.79998779297</ele>
        <time>2019-10-06T10:50:08.000Z</time>
      </trkpt>
      <trkpt lat="43.62819" lon="6.85173">
        <ele>276</ele>
        <time>2019-10-06T10:50:09.000Z</time>
      </trkpt>
      <trkpt lat="43.62814" lon="6.85192">
        <ele>277.39999389648</ele>
        <time>2019-10-06T10:50:18.000Z</time>
      </trkpt>
      <trkpt lat="43.62815" lon="6.85212">
        <ele>278.39999389648</ele>
        <time>2019-10-06T10:50:27.000Z</time>
      </trkpt>
      <trkpt lat="43.62812" lon="6.85236">
        <ele>279.39999389648</ele>
        <time>2019-10-06T10:50:37.000Z</time>
      </trkpt>
      <trkpt lat="43.6281" lon="6.85246">
        <ele>280.60000610352</ele>
        <time>2019-10-06T10:50:42.000Z</time>
      </trkpt>
      <trkpt lat="43.62809" lon="6.85256">
        <ele>281.60000610352</ele>
        <time>2019-10-06T10:50:47.000Z</time>
      </trkpt>
      <trkpt lat="43.62809" lon="6.85258">
        <ele>281.60000610352</ele>
        <time>2019-10-06T10:50:48.000Z</time>
      </trkpt>
      <trkpt lat="43.62808" lon="6.85272">
        <ele>282.79998779297</ele>
        <time>2019-10-06T10:50:54.000Z</time>
      </trkpt>
      <trkpt lat="43.62808" lon="6.85274">
        <ele>283</ele>
        <time>2019-10-06T10:50:55.000Z</time>
      </trkpt>
      <trkpt lat="43.62806" lon="6.85295">
        <ele>284</ele>
        <time>2019-10-06T10:51:04.000Z</time>
      </trkpt>
      <trkpt lat="43.62804" lon="6.85306">
        <ele>284.60000610352</ele>
        <time>2019-10-06T10:51:09.000Z</time>
      </trkpt>
      <trkpt lat="43.62803" lon="6.85313">
        <ele>285</ele>
        <time>2019-10-06T10:51:12.000Z</time>
      </trkpt>
      <trkpt lat="43.62798" lon="6.85324">
        <ele>285.60000610352</ele>
        <time>2019-10-06T10:51:17.000Z</time>
      </trkpt>
      <trkpt lat="43.62796" lon="6.85327">
        <ele>285.60000610352</ele>
        <time>2019-10-06T10:51:18.000Z</time>
      </trkpt>
      <trkpt lat="43.62787" lon="6.85335">
        <ele>285.20001220703</ele>
        <time>2019-10-06T10:51:21.000Z</time>
      </trkpt>
      <trkpt lat="43.62779" lon="6.85338">
        <ele>284.79998779297</ele>
        <time>2019-10-06T10:51:23.000Z</time>
      </trkpt>
      <trkpt lat="43.6277" lon="6.85343">
        <ele>284</ele>
        <time>2019-10-06T10:51:25.000Z</time>
      </trkpt>
      <trkpt lat="43.62766" lon="6.85347">
        <ele>283.79998779297</ele>
        <time>2019-10-06T10:51:26.000Z</time>
      </trkpt>
      <trkpt lat="43.62753" lon="6.85363">
        <ele>283</ele>
        <time>2019-10-06T10:51:29.000Z</time>
      </trkpt>
      <trkpt lat="43.62748" lon="6.85368">
        <ele>282.79998779297</ele>
        <time>2019-10-06T10:51:30.000Z</time>
      </trkpt>
      <trkpt lat="43.62722" lon="6.85397">
        <ele>284</ele>
        <time>2019-10-06T10:51:39.000Z</time>
      </trkpt>
      <trkpt lat="43.62713" lon="6.85407">
        <ele>285.20001220703</ele>
        <time>2019-10-06T10:51:44.000Z</time>
      </trkpt>
      <trkpt lat="43.62704" lon="6.85419">
        <ele>286</ele>
        <time>2019-10-06T10:51:50.000Z</time>
      </trkpt>
      <trkpt lat="43.62679" lon="6.85441">
        <ele>285.39999389648</ele>
        <time>2019-10-06T10:51:58.000Z</time>
      </trkpt>
      <trkpt lat="43.62658" lon="6.85471">
        <ele>284.39999389648</ele>
        <time>2019-10-06T10:52:04.000Z</time>
      </trkpt>
      <trkpt lat="43.62654" lon="6.85475">
        <ele>284.39999389648</ele>
        <time>2019-10-06T10:52:05.000Z</time>
      </trkpt>
      <trkpt lat="43.6265" lon="6.85478">
        <ele>284</ele>
        <time>2019-10-06T10:52:06.000Z</time>
      </trkpt>
      <trkpt lat="43.62635" lon="6.85456">
        <ele>282.60000610352</ele>
        <time>2019-10-06T10:52:13.000Z</time>
      </trkpt>
      <trkpt lat="43.62635" lon="6.85449">
        <ele>281</ele>
        <time>2019-10-06T10:52:15.000Z</time>
      </trkpt>
      <trkpt lat="43.62634" lon="6.85447">
        <ele>280.79998779297</ele>
        <time>2019-10-06T10:52:16.000Z</time>
      </trkpt>
      <trkpt lat="43.62632" lon="6.85445">
        <ele>280.39999389648</ele>
        <time>2019-10-06T10:52:18.000Z</time>
      </trkpt>
      <trkpt lat="43.62631" lon="6.85443">
        <ele>280</ele>
        <time>2019-10-06T10:52:19.000Z</time>
      </trkpt>
      <trkpt lat="43.62632" lon="6.85438">
        <ele>278.79998779297</ele>
        <time>2019-10-06T10:52:22.000Z</time>
      </trkpt>
      <trkpt lat="43.62632" lon="6.85434">
        <ele>277.60000610352</ele>
        <time>2019-10-06T10:52:25.000Z</time>
      </trkpt>
      <trkpt lat="43.62631" lon="6.8543">
        <ele>277.20001220703</ele>
        <time>2019-10-06T10:52:27.000Z</time>
      </trkpt>
      <trkpt lat="43.6263" lon="6.85427">
        <ele>276.39999389648</ele>
        <time>2019-10-06T10:52:29.000Z</time>
      </trkpt>
      <trkpt lat="43.6263" lon="6.85426">
        <ele>275.79998779297</ele>
        <time>2019-10-06T10:52:32.000Z</time>
      </trkpt>
      <trkpt lat="43.6263" lon="6.85426">
        <ele>275.79998779297</ele>
        <time>2019-10-06T10:52:42.000Z</time>
      </trkpt>
      <trkpt lat="43.6263" lon="6.85426">
        <ele>275.79998779297</ele>
        <time>2019-10-06T10:52:46.000Z</time>
      </trkpt>
      <trkpt lat="43.6263" lon="6.85424">
        <ele>275.79998779297</ele>
        <time>2019-10-06T10:52:52.000Z</time>
      </trkpt>
      <trkpt lat="43.6263" lon="6.85423">
        <ele>275.39999389648</ele>
        <time>2019-10-06T10:52:53.000Z</time>
      </trkpt>
      <trkpt lat="43.62629" lon="6.85421">
        <ele>274.79998779297</ele>
        <time>2019-10-06T10:52:54.000Z</time>
      </trkpt>
      <trkpt lat="43.62625" lon="6.85419">
        <ele>274.20001220703</ele>
        <time>2019-10-06T10:52:56.000Z</time>
      </trkpt>
      <trkpt lat="43.62618" lon="6.85412">
        <ele>273</ele>
        <time>2019-10-06T10:52:59.000Z</time>
      </trkpt>
      <trkpt lat="43.62617" lon="6.85409">
        <ele>272.20001220703</ele>
        <time>2019-10-06T10:53:00.000Z</time>
      </trkpt>
      <trkpt lat="43.62617" lon="6.85406">
        <ele>271.60000610352</ele>
        <time>2019-10-06T10:53:01.000Z</time>
      </trkpt>
      <trkpt lat="43.62614" lon="6.85401">
        <ele>270.39999389648</ele>
        <time>2019-10-06T10:53:03.000Z</time>
      </trkpt>
      <trkpt lat="43.6261" lon="6.85397">
        <ele>269.20001220703</ele>
        <time>2019-10-06T10:53:05.000Z</time>
      </trkpt>
      <trkpt lat="43.62609" lon="6.85391">
        <ele>268</ele>
        <time>2019-10-06T10:53:07.000Z</time>
      </trkpt>
      <trkpt lat="43.62609" lon="6.85382">
        <ele>267</ele>
        <time>2019-10-06T10:53:10.000Z</time>
      </trkpt>
      <trkpt lat="43.62606" lon="6.85377">
        <ele>266.20001220703</ele>
        <time>2019-10-06T10:53:12.000Z</time>
      </trkpt>
      <trkpt lat="43.62605" lon="6.85374">
        <ele>265.60000610352</ele>
        <time>2019-10-06T10:53:13.000Z</time>
      </trkpt>
      <trkpt lat="43.62601" lon="6.85364">
        <ele>264.60000610352</ele>
        <time>2019-10-06T10:53:16.000Z</time>
      </trkpt>
      <trkpt lat="43.62599" lon="6.85358">
        <ele>263.20001220703</ele>
        <time>2019-10-06T10:53:18.000Z</time>
      </trkpt>
      <trkpt lat="43.62599" lon="6.85347">
        <ele>262</ele>
        <time>2019-10-06T10:53:22.000Z</time>
      </trkpt>
      <trkpt lat="43.62599" lon="6.85337">
        <ele>260.79998779297</ele>
        <time>2019-10-06T10:53:33.000Z</time>
      </trkpt>
      <trkpt lat="43.626" lon="6.85335">
        <ele>260.79998779297</ele>
        <time>2019-10-06T10:53:34.000Z</time>
      </trkpt>
      <trkpt lat="43.62601" lon="6.85326">
        <ele>259.39999389648</ele>
        <time>2019-10-06T10:53:37.000Z</time>
      </trkpt>
      <trkpt lat="43.62601" lon="6.85317">
        <ele>258.20001220703</ele>
        <time>2019-10-06T10:53:39.000Z</time>
      </trkpt>
      <trkpt lat="43.626" lon="6.85308">
        <ele>256.20001220703</ele>
        <time>2019-10-06T10:53:41.000Z</time>
      </trkpt>
      <trkpt lat="43.62602" lon="6.85299">
        <ele>254.39999389648</ele>
        <time>2019-10-06T10:53:43.000Z</time>
      </trkpt>
      <trkpt lat="43.62602" lon="6.85295">
        <ele>253.39999389648</ele>
        <time>2019-10-06T10:53:44.000Z</time>
      </trkpt>
      <trkpt lat="43.626" lon="6.85293">
        <ele>252.80000305176</ele>
        <time>2019-10-06T10:53:45.000Z</time>
      </trkpt>
      <trkpt lat="43.62596" lon="6.85288">
        <ele>252</ele>
        <time>2019-10-06T10:53:47.000Z</time>
      </trkpt>
      <trkpt lat="43.62592" lon="6.85281">
        <ele>250.80000305176</ele>
        <time>2019-10-06T10:53:49.000Z</time>
      </trkpt>
      <trkpt lat="43.62589" lon="6.85273">
        <ele>249.60000610352</ele>
        <time>2019-10-06T10:53:51.000Z</time>
      </trkpt>
      <trkpt lat="43.62587" lon="6.8527">
        <ele>248.60000610352</ele>
        <time>2019-10-06T10:53:52.000Z</time>
      </trkpt>
      <trkpt lat="43.62586" lon="6.85267">
        <ele>247.60000610352</ele>
        <time>2019-10-06T10:53:53.000Z</time>
      </trkpt>
      <trkpt lat="43.62585" lon="6.85261">
        <ele>246.39999389648</ele>
        <time>2019-10-06T10:53:55.000Z</time>
      </trkpt>
      <trkpt lat="43.62585" lon="6.85255">
        <ele>245</ele>
        <time>2019-10-06T10:53:57.000Z</time>
      </trkpt>
      <trkpt lat="43.62585" lon="6.85247">
        <ele>243.39999389648</ele>
        <time>2019-10-06T10:53:59.000Z</time>
      </trkpt>
      <trkpt lat="43.62585" lon="6.85245">
        <ele>242.39999389648</ele>
        <time>2019-10-06T10:54:00.000Z</time>
      </trkpt>
      <trkpt lat="43.62584" lon="6.85241">
        <ele>240.60000610352</ele>
        <time>2019-10-06T10:54:02.000Z</time>
      </trkpt>
      <trkpt lat="43.62583" lon="6.85238">
        <ele>239.39999389648</ele>
        <time>2019-10-06T10:54:05.000Z</time>
      </trkpt>
      <trkpt lat="43.62583" lon="6.85234">
        <ele>238.19999694824</ele>
        <time>2019-10-06T10:54:11.000Z</time>
      </trkpt>
      <trkpt lat="43.62582" lon="6.85233">
        <ele>237.19999694824</ele>
        <time>2019-10-06T10:54:14.000Z</time>
      </trkpt>
      <trkpt lat="43.62582" lon="6.85231">
        <ele>236.60000610352</ele>
        <time>2019-10-06T10:54:15.000Z</time>
      </trkpt>
      <trkpt lat="43.62579" lon="6.85232">
        <ele>236</ele>
        <time>2019-10-06T10:54:26.000Z</time>
      </trkpt>
      <trkpt lat="43.62532" lon="6.8527">
        <ele>237.19999694824</ele>
        <time>2019-10-06T10:54:49.000Z</time>
      </trkpt>
      <trkpt lat="43.62523" lon="6.85277">
        <ele>237.80000305176</ele>
        <time>2019-10-06T10:54:53.000Z</time>
      </trkpt>
      <trkpt lat="43.62513" lon="6.85286">
        <ele>238.60000610352</ele>
        <time>2019-10-06T10:54:58.000Z</time>
      </trkpt>
      <trkpt lat="43.62508" lon="6.8529">
        <ele>238.60000610352</ele>
        <time>2019-10-06T10:55:00.000Z</time>
      </trkpt>
      <trkpt lat="43.62498" lon="6.853">
        <ele>239</ele>
        <time>2019-10-06T10:55:05.000Z</time>
      </trkpt>
      <trkpt lat="43.62478" lon="6.85339">
        <ele>240</ele>
        <time>2019-10-06T10:55:20.000Z</time>
      </trkpt>
      <trkpt lat="43.62467" lon="6.85393">
        <ele>240.60000610352</ele>
        <time>2019-10-06T10:55:38.000Z</time>
      </trkpt>
      <trkpt lat="43.62466" lon="6.85414">
        <ele>241.19999694824</ele>
        <time>2019-10-06T10:55:45.000Z</time>
      </trkpt>
      <trkpt lat="43.62467" lon="6.85433">
        <ele>241.80000305176</ele>
        <time>2019-10-06T10:55:52.000Z</time>
      </trkpt>
      <trkpt lat="43.62475" lon="6.85465">
        <ele>242.60000610352</ele>
        <time>2019-10-06T10:56:02.000Z</time>
      </trkpt>
      <trkpt lat="43.62479" lon="6.85473">
        <ele>242.60000610352</ele>
        <time>2019-10-06T10:56:05.000Z</time>
      </trkpt>
      <trkpt lat="43.62479" lon="6.85477">
        <ele>242.80000305176</ele>
        <time>2019-10-06T10:56:06.000Z</time>
      </trkpt>
      <trkpt lat="43.62479" lon="6.8548">
        <ele>242.80000305176</ele>
        <time>2019-10-06T10:56:07.000Z</time>
      </trkpt>
      <trkpt lat="43.62469" lon="6.85489">
        <ele>243</ele>
        <time>2019-10-06T10:56:12.000Z</time>
      </trkpt>
      <trkpt lat="43.62417" lon="6.85509">
        <ele>242.80000305176</ele>
        <time>2019-10-06T10:56:31.000Z</time>
      </trkpt>
      <trkpt lat="43.62402" lon="6.85518">
        <ele>242.19999694824</ele>
        <time>2019-10-06T10:56:36.000Z</time>
      </trkpt>
      <trkpt lat="43.62397" lon="6.85515">
        <ele>241.80000305176</ele>
        <time>2019-10-06T10:56:38.000Z</time>
      </trkpt>
      <trkpt lat="43.62396" lon="6.8551">
        <ele>241.39999389648</ele>
        <time>2019-10-06T10:56:39.000Z</time>
      </trkpt>
      <trkpt lat="43.62395" lon="6.85505">
        <ele>240.80000305176</ele>
        <time>2019-10-06T10:56:40.000Z</time>
      </trkpt>
      <trkpt lat="43.62395" lon="6.855">
        <ele>240</ele>
        <time>2019-10-06T10:56:41.000Z</time>
      </trkpt>
      <trkpt lat="43.62394" lon="6.85496">
        <ele>239</ele>
        <time>2019-10-06T10:56:42.000Z</time>
      </trkpt>
      <trkpt lat="43.6239" lon="6.85492">
        <ele>236.80000305176</ele>
        <time>2019-10-06T10:56:44.000Z</time>
      </trkpt>
      <trkpt lat="43.62384" lon="6.85494">
        <ele>235.60000610352</ele>
        <time>2019-10-06T10:56:46.000Z</time>
      </trkpt>
      <trkpt lat="43.62377" lon="6.85494">
        <ele>234.19999694824</ele>
        <time>2019-10-06T10:56:50.000Z</time>
      </trkpt>
      <trkpt lat="43.62376" lon="6.85488">
        <ele>232.80000305176</ele>
        <time>2019-10-06T10:56:52.000Z</time>
      </trkpt>
      <trkpt lat="43.62374" lon="6.85479">
        <ele>231.39999389648</ele>
        <time>2019-10-06T10:56:54.000Z</time>
      </trkpt>
      <trkpt lat="43.62373" lon="6.85473">
        <ele>230.60000610352</ele>
        <time>2019-10-06T10:56:55.000Z</time>
      </trkpt>
      <trkpt lat="43.62371" lon="6.85466">
        <ele>230</ele>
        <time>2019-10-06T10:56:56.000Z</time>
      </trkpt>
      <trkpt lat="43.6237" lon="6.8546">
        <ele>229.19999694824</ele>
        <time>2019-10-06T10:56:57.000Z</time>
      </trkpt>
      <trkpt lat="43.62367" lon="6.85454">
        <ele>228.19999694824</ele>
        <time>2019-10-06T10:56:58.000Z</time>
      </trkpt>
      <trkpt lat="43.62364" lon="6.8544">
        <ele>227.19999694824</ele>
        <time>2019-10-06T10:57:00.000Z</time>
      </trkpt>
      <trkpt lat="43.62362" lon="6.85426">
        <ele>225.39999389648</ele>
        <time>2019-10-06T10:57:02.000Z</time>
      </trkpt>
      <trkpt lat="43.62359" lon="6.8541">
        <ele>224.39999389648</ele>
        <time>2019-10-06T10:57:04.000Z</time>
      </trkpt>
      <trkpt lat="43.62357" lon="6.85396">
        <ele>223.19999694824</ele>
        <time>2019-10-06T10:57:06.000Z</time>
      </trkpt>
      <trkpt lat="43.62353" lon="6.85383">
        <ele>222</ele>
        <time>2019-10-06T10:57:08.000Z</time>
      </trkpt>
      <trkpt lat="43.62347" lon="6.85373">
        <ele>220.60000610352</ele>
        <time>2019-10-06T10:57:10.000Z</time>
      </trkpt>
      <trkpt lat="43.62345" lon="6.8537">
        <ele>219.60000610352</ele>
        <time>2019-10-06T10:57:11.000Z</time>
      </trkpt>
      <trkpt lat="43.62344" lon="6.85364">
        <ele>217.80000305176</ele>
        <time>2019-10-06T10:57:13.000Z</time>
      </trkpt>
      <trkpt lat="43.62344" lon="6.85359">
        <ele>216.60000610352</ele>
        <time>2019-10-06T10:57:15.000Z</time>
      </trkpt>
      <trkpt lat="43.62343" lon="6.85356">
        <ele>215.39999389648</ele>
        <time>2019-10-06T10:57:17.000Z</time>
      </trkpt>
      <trkpt lat="43.62336" lon="6.85353">
        <ele>214.19999694824</ele>
        <time>2019-10-06T10:57:20.000Z</time>
      </trkpt>
      <trkpt lat="43.6233" lon="6.85349">
        <ele>213</ele>
        <time>2019-10-06T10:57:22.000Z</time>
      </trkpt>
      <trkpt lat="43.62323" lon="6.85347">
        <ele>211.80000305176</ele>
        <time>2019-10-06T10:57:24.000Z</time>
      </trkpt>
      <trkpt lat="43.62309" lon="6.85339">
        <ele>210.60000610352</ele>
        <time>2019-10-06T10:57:29.000Z</time>
      </trkpt>
      <trkpt lat="43.62304" lon="6.85335">
        <ele>209.39999389648</ele>
        <time>2019-10-06T10:57:31.000Z</time>
      </trkpt>
      <trkpt lat="43.62293" lon="6.85323">
        <ele>209.19999694824</ele>
        <time>2019-10-06T10:57:37.000Z</time>
      </trkpt>
      <trkpt lat="43.62281" lon="6.85309">
        <ele>208.60000610352</ele>
        <time>2019-10-06T10:57:41.000Z</time>
      </trkpt>
      <trkpt lat="43.62267" lon="6.85303">
        <ele>208.39999389648</ele>
        <time>2019-10-06T10:57:44.000Z</time>
      </trkpt>
      <trkpt lat="43.62222" lon="6.85266">
        <ele>209.60000610352</ele>
        <time>2019-10-06T10:57:59.000Z</time>
      </trkpt>
      <trkpt lat="43.6221" lon="6.8525">
        <ele>210.80000305176</ele>
        <time>2019-10-06T10:58:04.000Z</time>
      </trkpt>
      <trkpt lat="43.62205" lon="6.85242">
        <ele>211.19999694824</ele>
        <time>2019-10-06T10:58:07.000Z</time>
      </trkpt>
      <trkpt lat="43.62169" lon="6.85208">
        <ele>209.60000610352</ele>
        <time>2019-10-06T10:58:20.000Z</time>
      </trkpt>
      <trkpt lat="43.62158" lon="6.85209">
        <ele>208.60000610352</ele>
        <time>2019-10-06T10:58:23.000Z</time>
      </trkpt>
      <trkpt lat="43.62152" lon="6.85214">
        <ele>207.60000610352</ele>
        <time>2019-10-06T10:58:25.000Z</time>
      </trkpt>
      <trkpt lat="43.62147" lon="6.85221">
        <ele>206.39999389648</ele>
        <time>2019-10-06T10:58:27.000Z</time>
      </trkpt>
      <trkpt lat="43.62141" lon="6.8523">
        <ele>205.19999694824</ele>
        <time>2019-10-06T10:58:30.000Z</time>
      </trkpt>
      <trkpt lat="43.62128" lon="6.85242">
        <ele>204.60000610352</ele>
        <time>2019-10-06T10:58:35.000Z</time>
      </trkpt>
      <trkpt lat="43.62123" lon="6.85247">
        <ele>204.19999694824</ele>
        <time>2019-10-06T10:58:37.000Z</time>
      </trkpt>
      <trkpt lat="43.62117" lon="6.85254">
        <ele>203.80000305176</ele>
        <time>2019-10-06T10:58:40.000Z</time>
      </trkpt>
      <trkpt lat="43.62111" lon="6.85246">
        <ele>204.80000305176</ele>
        <time>2019-10-06T10:59:11.000Z</time>
      </trkpt>
      <trkpt lat="43.62094" lon="6.85242">
        <ele>205</ele>
        <time>2019-10-06T10:59:20.000Z</time>
      </trkpt>
      <trkpt lat="43.62088" lon="6.85242">
        <ele>205</ele>
        <time>2019-10-06T10:59:22.000Z</time>
      </trkpt>
      <trkpt lat="43.62078" lon="6.85244">
        <ele>205</ele>
        <time>2019-10-06T10:59:25.000Z</time>
      </trkpt>
      <trkpt lat="43.62052" lon="6.85233">
        <ele>202.80000305176</ele>
        <time>2019-10-06T10:59:33.000Z</time>
      </trkpt>
      <trkpt lat="43.62041" lon="6.85224">
        <ele>201.39999389648</ele>
        <time>2019-10-06T10:59:36.000Z</time>
      </trkpt>
      <trkpt lat="43.62037" lon="6.85221">
        <ele>201</ele>
        <time>2019-10-06T10:59:37.000Z</time>
      </trkpt>
      <trkpt lat="43.62031" lon="6.85211">
        <ele>200.19999694824</ele>
        <time>2019-10-06T10:59:39.000Z</time>
      </trkpt>
      <trkpt lat="43.62028" lon="6.85199">
        <ele>199.39999389648</ele>
        <time>2019-10-06T10:59:41.000Z</time>
      </trkpt>
      <trkpt lat="43.62026" lon="6.85193">
        <ele>199</ele>
        <time>2019-10-06T10:59:42.000Z</time>
      </trkpt>
      <trkpt lat="43.62022" lon="6.85181">
        <ele>198</ele>
        <time>2019-10-06T10:59:44.000Z</time>
      </trkpt>
      <trkpt lat="43.6202" lon="6.85175">
        <ele>197.39999389648</ele>
        <time>2019-10-06T10:59:45.000Z</time>
      </trkpt>
      <trkpt lat="43.6201" lon="6.85158">
        <ele>196.80000305176</ele>
        <time>2019-10-06T10:59:49.000Z</time>
      </trkpt>
      <trkpt lat="43.62008" lon="6.85149">
        <ele>196.80000305176</ele>
        <time>2019-10-06T10:59:51.000Z</time>
      </trkpt>
      <trkpt lat="43.62007" lon="6.85144">
        <ele>196.39999389648</ele>
        <time>2019-10-06T10:59:52.000Z</time>
      </trkpt>
      <trkpt lat="43.62005" lon="6.85139">
        <ele>196.39999389648</ele>
        <time>2019-10-06T10:59:53.000Z</time>
      </trkpt>
      <trkpt lat="43.62" lon="6.85133">
        <ele>196.80000305176</ele>
        <time>2019-10-06T10:59:55.000Z</time>
      </trkpt>
      <trkpt lat="43.61976" lon="6.85093">
        <ele>198.80000305176</ele>
        <time>2019-10-06T11:00:08.000Z</time>
      </trkpt>
      <trkpt lat="43.61935" lon="6.85082">
        <ele>199.19999694824</ele>
        <time>2019-10-06T11:00:19.000Z</time>
      </trkpt>
      <trkpt lat="43.61925" lon="6.85081">
        <ele>198.80000305176</ele>
        <time>2019-10-06T11:00:21.000Z</time>
      </trkpt>
      <trkpt lat="43.6192" lon="6.8508">
        <ele>198.80000305176</ele>
        <time>2019-10-06T11:00:22.000Z</time>
      </trkpt>
      <trkpt lat="43.61911" lon="6.85079">
        <ele>198.60000610352</ele>
        <time>2019-10-06T11:00:24.000Z</time>
      </trkpt>
      <trkpt lat="43.61903" lon="6.85073">
        <ele>197.39999389648</ele>
        <time>2019-10-06T11:00:26.000Z</time>
      </trkpt>
      <trkpt lat="43.61898" lon="6.85065">
        <ele>195.80000305176</ele>
        <time>2019-10-06T11:00:28.000Z</time>
      </trkpt>
      <trkpt lat="43.61892" lon="6.85058">
        <ele>194.19999694824</ele>
        <time>2019-10-06T11:00:30.000Z</time>
      </trkpt>
      <trkpt lat="43.61884" lon="6.8504">
        <ele>192.60000610352</ele>
        <time>2019-10-06T11:00:34.000Z</time>
      </trkpt>
      <trkpt lat="43.61879" lon="6.8503">
        <ele>191.39999389648</ele>
        <time>2019-10-06T11:00:36.000Z</time>
      </trkpt>
      <trkpt lat="43.61872" lon="6.85023">
        <ele>190.19999694824</ele>
        <time>2019-10-06T11:00:38.000Z</time>
      </trkpt>
      <trkpt lat="43.61868" lon="6.8502">
        <ele>189.39999389648</ele>
        <time>2019-10-06T11:00:39.000Z</time>
      </trkpt>
      <trkpt lat="43.61864" lon="6.85018">
        <ele>188.60000610352</ele>
        <time>2019-10-06T11:00:40.000Z</time>
      </trkpt>
      <trkpt lat="43.61861" lon="6.85017">
        <ele>187.80000305176</ele>
        <time>2019-10-06T11:00:41.000Z</time>
      </trkpt>
      <trkpt lat="43.61857" lon="6.85016">
        <ele>187.39999389648</ele>
        <time>2019-10-06T11:00:42.000Z</time>
      </trkpt>
      <trkpt lat="43.61854" lon="6.85016">
        <ele>186.80000305176</ele>
        <time>2019-10-06T11:00:43.000Z</time>
      </trkpt>
      <trkpt lat="43.61846" lon="6.85016">
        <ele>185.60000610352</ele>
        <time>2019-10-06T11:00:45.000Z</time>
      </trkpt>
      <trkpt lat="43.61841" lon="6.85016">
        <ele>185.19999694824</ele>
        <time>2019-10-06T11:00:46.000Z</time>
      </trkpt>
      <trkpt lat="43.61837" lon="6.85018">
        <ele>184</ele>
        <time>2019-10-06T11:00:47.000Z</time>
      </trkpt>
      <trkpt lat="43.61833" lon="6.85019">
        <ele>182.80000305176</ele>
        <time>2019-10-06T11:00:48.000Z</time>
      </trkpt>
      <trkpt lat="43.61827" lon="6.8502">
        <ele>181.60000610352</ele>
        <time>2019-10-06T11:00:50.000Z</time>
      </trkpt>
      <trkpt lat="43.61813" lon="6.85021">
        <ele>180.19999694824</ele>
        <time>2019-10-06T11:00:54.000Z</time>
      </trkpt>
      <trkpt lat="43.61806" lon="6.8502">
        <ele>178.80000305176</ele>
        <time>2019-10-06T11:00:56.000Z</time>
      </trkpt>
      <trkpt lat="43.61803" lon="6.85019">
        <ele>177.39999389648</ele>
        <time>2019-10-06T11:00:58.000Z</time>
      </trkpt>
      <trkpt lat="43.618" lon="6.85018">
        <ele>176.39999389648</ele>
        <time>2019-10-06T11:01:02.000Z</time>
      </trkpt>
      <trkpt lat="43.61793" lon="6.85014">
        <ele>175.60000610352</ele>
        <time>2019-10-06T11:01:13.000Z</time>
      </trkpt>
      <trkpt lat="43.6179" lon="6.85015">
        <ele>175.19999694824</ele>
        <time>2019-10-06T11:01:17.000Z</time>
      </trkpt>
      <trkpt lat="43.61787" lon="6.85015">
        <ele>174</ele>
        <time>2019-10-06T11:01:22.000Z</time>
      </trkpt>
      <trkpt lat="43.61783" lon="6.85014">
        <ele>173</ele>
        <time>2019-10-06T11:01:27.000Z</time>
      </trkpt>
      <trkpt lat="43.6178" lon="6.85013">
        <ele>172.80000305176</ele>
        <time>2019-10-06T11:01:28.000Z</time>
      </trkpt>
      <trkpt lat="43.61766" lon="6.85006">
        <ele>171.80000305176</ele>
        <time>2019-10-06T11:01:32.000Z</time>
      </trkpt>
      <trkpt lat="43.61756" lon="6.85017">
        <ele>170.60000610352</ele>
        <time>2019-10-06T11:01:35.000Z</time>
      </trkpt>
      <trkpt lat="43.6172" lon="6.85017">
        <ele>170.19999694824</ele>
        <time>2019-10-06T11:01:45.000Z</time>
      </trkpt>
      <trkpt lat="43.61687" lon="6.84983">
        <ele>169.80000305176</ele>
        <time>2019-10-06T11:01:56.000Z</time>
      </trkpt>
      <trkpt lat="43.61683" lon="6.8498">
        <ele>169.60000610352</ele>
        <time>2019-10-06T11:01:57.000Z</time>
      </trkpt>
      <trkpt lat="43.6166" lon="6.84966">
        <ele>168.60000610352</ele>
        <time>2019-10-06T11:02:02.000Z</time>
      </trkpt>
      <trkpt lat="43.61655" lon="6.84963">
        <ele>168.39999389648</ele>
        <time>2019-10-06T11:02:03.000Z</time>
      </trkpt>
      <trkpt lat="43.61644" lon="6.84958">
        <ele>166.80000305176</ele>
        <time>2019-10-06T11:02:06.000Z</time>
      </trkpt>
      <trkpt lat="43.61634" lon="6.84954">
        <ele>165.39999389648</ele>
        <time>2019-10-06T11:02:08.000Z</time>
      </trkpt>
      <trkpt lat="43.61628" lon="6.84953">
        <ele>164.80000305176</ele>
        <time>2019-10-06T11:02:09.000Z</time>
      </trkpt>
      <trkpt lat="43.61616" lon="6.8495">
        <ele>164.19999694824</ele>
        <time>2019-10-06T11:02:11.000Z</time>
      </trkpt>
      <trkpt lat="43.6161" lon="6.84949">
        <ele>164</ele>
        <time>2019-10-06T11:02:12.000Z</time>
      </trkpt>
      <trkpt lat="43.61594" lon="6.84946">
        <ele>163</ele>
        <time>2019-10-06T11:02:15.000Z</time>
      </trkpt>
      <trkpt lat="43.61583" lon="6.84942">
        <ele>161.60000610352</ele>
        <time>2019-10-06T11:02:17.000Z</time>
      </trkpt>
      <trkpt lat="43.61572" lon="6.84939">
        <ele>160.19999694824</ele>
        <time>2019-10-06T11:02:19.000Z</time>
      </trkpt>
      <trkpt lat="43.6156" lon="6.84935">
        <ele>159.39999389648</ele>
        <time>2019-10-06T11:02:21.000Z</time>
      </trkpt>
      <trkpt lat="43.61554" lon="6.84934">
        <ele>158.80000305176</ele>
        <time>2019-10-06T11:02:22.000Z</time>
      </trkpt>
      <trkpt lat="43.61541" lon="6.84931">
        <ele>157.80000305176</ele>
        <time>2019-10-06T11:02:24.000Z</time>
      </trkpt>
      <trkpt lat="43.61521" lon="6.84923">
        <ele>156.60000610352</ele>
        <time>2019-10-06T11:02:27.000Z</time>
      </trkpt>
      <trkpt lat="43.61514" lon="6.84916">
        <ele>156.39999389648</ele>
        <time>2019-10-06T11:02:29.000Z</time>
      </trkpt>
      <trkpt lat="43.615" lon="6.849">
        <ele>157.60000610352</ele>
        <time>2019-10-06T11:02:36.000Z</time>
      </trkpt>
      <trkpt lat="43.61495" lon="6.84895">
        <ele>158.39999389648</ele>
        <time>2019-10-06T11:02:39.000Z</time>
      </trkpt>
      <trkpt lat="43.61493" lon="6.84888">
        <ele>158.80000305176</ele>
        <time>2019-10-06T11:02:41.000Z</time>
      </trkpt>
      <trkpt lat="43.61489" lon="6.84874">
        <ele>160</ele>
        <time>2019-10-06T11:02:46.000Z</time>
      </trkpt>
      <trkpt lat="43.61488" lon="6.84872">
        <ele>160.19999694824</ele>
        <time>2019-10-06T11:02:47.000Z</time>
      </trkpt>
      <trkpt lat="43.61483" lon="6.84861">
        <ele>161.19999694824</ele>
        <time>2019-10-06T11:02:51.000Z</time>
      </trkpt>
      <trkpt lat="43.61479" lon="6.8485">
        <ele>161.80000305176</ele>
        <time>2019-10-06T11:02:55.000Z</time>
      </trkpt>
      <trkpt lat="43.61477" lon="6.84841">
        <ele>162.19999694824</ele>
        <time>2019-10-06T11:02:58.000Z</time>
      </trkpt>
      <trkpt lat="43.61477" lon="6.84801">
        <ele>163</ele>
        <time>2019-10-06T11:03:10.000Z</time>
      </trkpt>
      <trkpt lat="43.6148" lon="6.84777">
        <ele>163.39999389648</ele>
        <time>2019-10-06T11:03:16.000Z</time>
      </trkpt>
      <trkpt lat="43.61487" lon="6.84753">
        <ele>164.39999389648</ele>
        <time>2019-10-06T11:03:23.000Z</time>
      </trkpt>
      <trkpt lat="43.6149" lon="6.84737">
        <ele>165.39999389648</ele>
        <time>2019-10-06T11:03:28.000Z</time>
      </trkpt>
      <trkpt lat="43.61489" lon="6.84725">
        <ele>166</ele>
        <time>2019-10-06T11:03:32.000Z</time>
      </trkpt>
      <trkpt lat="43.61485" lon="6.84708">
        <ele>163.80000305176</ele>
        <time>2019-10-06T11:03:36.000Z</time>
      </trkpt>
      <trkpt lat="43.61484" lon="6.84703">
        <ele>162.80000305176</ele>
        <time>2019-10-06T11:03:37.000Z</time>
      </trkpt>
      <trkpt lat="43.61481" lon="6.8469">
        <ele>161.60000610352</ele>
        <time>2019-10-06T11:03:39.000Z</time>
      </trkpt>
      <trkpt lat="43.61479" lon="6.84684">
        <ele>161.39999389648</ele>
        <time>2019-10-06T11:03:40.000Z</time>
      </trkpt>
      <trkpt lat="43.61474" lon="6.84672">
        <ele>159.80000305176</ele>
        <time>2019-10-06T11:03:42.000Z</time>
      </trkpt>
      <trkpt lat="43.61468" lon="6.84663">
        <ele>158.60000610352</ele>
        <time>2019-10-06T11:03:44.000Z</time>
      </trkpt>
      <trkpt lat="43.6146" lon="6.84657">
        <ele>157.39999389648</ele>
        <time>2019-10-06T11:03:46.000Z</time>
      </trkpt>
      <trkpt lat="43.61449" lon="6.84654">
        <ele>156.39999389648</ele>
        <time>2019-10-06T11:03:48.000Z</time>
      </trkpt>
      <trkpt lat="43.61444" lon="6.84651">
        <ele>155.39999389648</ele>
        <time>2019-10-06T11:03:50.000Z</time>
      </trkpt>
      <trkpt lat="43.61441" lon="6.84647">
        <ele>153.80000305176</ele>
        <time>2019-10-06T11:03:52.000Z</time>
      </trkpt>
      <trkpt lat="43.61438" lon="6.84643">
        <ele>152.80000305176</ele>
        <time>2019-10-06T11:03:54.000Z</time>
      </trkpt>
      <trkpt lat="43.61435" lon="6.84642">
        <ele>152.60000610352</ele>
        <time>2019-10-06T11:03:58.000Z</time>
      </trkpt>
      <trkpt lat="43.61434" lon="6.84642">
        <ele>152.60000610352</ele>
        <time>2019-10-06T11:04:00.000Z</time>
      </trkpt>
      <trkpt lat="43.61434" lon="6.84642">
        <ele>151.39999389648</ele>
        <time>2019-10-06T11:04:11.000Z</time>
      </trkpt>
      <trkpt lat="43.61433" lon="6.8464">
        <ele>150.39999389648</ele>
        <time>2019-10-06T11:04:16.000Z</time>
      </trkpt>
      <trkpt lat="43.61425" lon="6.84634">
        <ele>149.39999389648</ele>
        <time>2019-10-06T11:04:19.000Z</time>
      </trkpt>
      <trkpt lat="43.61414" lon="6.84625">
        <ele>147.60000610352</ele>
        <time>2019-10-06T11:04:22.000Z</time>
      </trkpt>
      <trkpt lat="43.61409" lon="6.84621">
        <ele>147</ele>
        <time>2019-10-06T11:04:23.000Z</time>
      </trkpt>
      <trkpt lat="43.61406" lon="6.84617">
        <ele>146.39999389648</ele>
        <time>2019-10-06T11:04:24.000Z</time>
      </trkpt>
      <trkpt lat="43.61396" lon="6.84602">
        <ele>145</ele>
        <time>2019-10-06T11:04:27.000Z</time>
      </trkpt>
      <trkpt lat="43.6139" lon="6.84594">
        <ele>143.80000305176</ele>
        <time>2019-10-06T11:04:29.000Z</time>
      </trkpt>
      <trkpt lat="43.61387" lon="6.84588">
        <ele>142.80000305176</ele>
        <time>2019-10-06T11:04:31.000Z</time>
      </trkpt>
      <trkpt lat="43.61383" lon="6.84581">
        <ele>141.60000610352</ele>
        <time>2019-10-06T11:04:34.000Z</time>
      </trkpt>
      <trkpt lat="43.6138" lon="6.84572">
        <ele>140</ele>
        <time>2019-10-06T11:04:38.000Z</time>
      </trkpt>
      <trkpt lat="43.61378" lon="6.84566">
        <ele>138.80000305176</ele>
        <time>2019-10-06T11:04:41.000Z</time>
      </trkpt>
      <trkpt lat="43.61374" lon="6.84556">
        <ele>137.80000305176</ele>
        <time>2019-10-06T11:04:45.000Z</time>
      </trkpt>
      <trkpt lat="43.61371" lon="6.84546">
        <ele>136.60000610352</ele>
        <time>2019-10-06T11:04:49.000Z</time>
      </trkpt>
      <trkpt lat="43.61367" lon="6.84538">
        <ele>135.39999389648</ele>
        <time>2019-10-06T11:04:54.000Z</time>
      </trkpt>
      <trkpt lat="43.61364" lon="6.84535">
        <ele>134.19999694824</ele>
        <time>2019-10-06T11:04:58.000Z</time>
      </trkpt>
      <trkpt lat="43.61359" lon="6.8453">
        <ele>132.80000305176</ele>
        <time>2019-10-06T11:05:04.000Z</time>
      </trkpt>
      <trkpt lat="43.61352" lon="6.84521">
        <ele>131.60000610352</ele>
        <time>2019-10-06T11:05:08.000Z</time>
      </trkpt>
      <trkpt lat="43.6135" lon="6.8452">
        <ele>130.80000305176</ele>
        <time>2019-10-06T11:05:09.000Z</time>
      </trkpt>
      <trkpt lat="43.61348" lon="6.84519">
        <ele>130.19999694824</ele>
        <time>2019-10-06T11:05:10.000Z</time>
      </trkpt>
      <trkpt lat="43.61341" lon="6.84513">
        <ele>129</ele>
        <time>2019-10-06T11:05:13.000Z</time>
      </trkpt>
      <trkpt lat="43.6134" lon="6.84512">
        <ele>128.19999694824</ele>
        <time>2019-10-06T11:05:14.000Z</time>
      </trkpt>
      <trkpt lat="43.61338" lon="6.84511">
        <ele>127.59999847412</ele>
        <time>2019-10-06T11:05:15.000Z</time>
      </trkpt>
      <trkpt lat="43.61334" lon="6.84508">
        <ele>126.59999847412</ele>
        <time>2019-10-06T11:05:17.000Z</time>
      </trkpt>
      <trkpt lat="43.61328" lon="6.84504">
        <ele>125.59999847412</ele>
        <time>2019-10-06T11:05:24.000Z</time>
      </trkpt>
      <trkpt lat="43.61326" lon="6.84501">
        <ele>124.19999694824</ele>
        <time>2019-10-06T11:05:28.000Z</time>
      </trkpt>
      <trkpt lat="43.61322" lon="6.84497">
        <ele>123</ele>
        <time>2019-10-06T11:05:32.000Z</time>
      </trkpt>
      <trkpt lat="43.61318" lon="6.84492">
        <ele>121.80000305176</ele>
        <time>2019-10-06T11:05:36.000Z</time>
      </trkpt>
      <trkpt lat="43.61315" lon="6.8449">
        <ele>120.40000152588</ele>
        <time>2019-10-06T11:05:39.000Z</time>
      </trkpt>
      <trkpt lat="43.61313" lon="6.84484">
        <ele>120.19999694824</ele>
        <time>2019-10-06T11:05:46.000Z</time>
      </trkpt>
      <trkpt lat="43.61309" lon="6.8447">
        <ele>119.40000152588</ele>
        <time>2019-10-06T11:05:51.000Z</time>
      </trkpt>
      <trkpt lat="43.61302" lon="6.84453">
        <ele>119.59999847412</ele>
        <time>2019-10-06T11:05:57.000Z</time>
      </trkpt>
      <trkpt lat="43.61302" lon="6.8444">
        <ele>120</ele>
        <time>2019-10-06T11:06:02.000Z</time>
      </trkpt>
      <trkpt lat="43.61301" lon="6.84433">
        <ele>120.19999694824</ele>
        <time>2019-10-06T11:06:05.000Z</time>
      </trkpt>
      <trkpt lat="43.61296" lon="6.84429">
        <ele>120.40000152588</ele>
        <time>2019-10-06T11:06:08.000Z</time>
      </trkpt>
      <trkpt lat="43.61285" lon="6.84417">
        <ele>120.80000305176</ele>
        <time>2019-10-06T11:06:15.000Z</time>
      </trkpt>
      <trkpt lat="43.61275" lon="6.84411">
        <ele>120.40000152588</ele>
        <time>2019-10-06T11:06:20.000Z</time>
      </trkpt>
      <trkpt lat="43.61268" lon="6.84417">
        <ele>121.19999694824</ele>
        <time>2019-10-06T11:06:26.000Z</time>
      </trkpt>
      <trkpt lat="43.61262" lon="6.8442">
        <ele>121.80000305176</ele>
        <time>2019-10-06T11:06:30.000Z</time>
      </trkpt>
      <trkpt lat="43.61258" lon="6.84422">
        <ele>122.80000305176</ele>
        <time>2019-10-06T11:06:34.000Z</time>
      </trkpt>
      <trkpt lat="43.61251" lon="6.84424">
        <ele>124</ele>
        <time>2019-10-06T11:06:40.000Z</time>
      </trkpt>
      <trkpt lat="43.61246" lon="6.84425">
        <ele>124.59999847412</ele>
        <time>2019-10-06T11:06:44.000Z</time>
      </trkpt>
      <trkpt lat="43.61239" lon="6.84427">
        <ele>125.19999694824</ele>
        <time>2019-10-06T11:06:49.000Z</time>
      </trkpt>
      <trkpt lat="43.61229" lon="6.84428">
        <ele>125.59999847412</ele>
        <time>2019-10-06T11:06:55.000Z</time>
      </trkpt>
      <trkpt lat="43.61222" lon="6.84428">
        <ele>126.19999694824</ele>
        <time>2019-10-06T11:07:00.000Z</time>
      </trkpt>
      <trkpt lat="43.61209" lon="6.84428">
        <ele>127.40000152588</ele>
        <time>2019-10-06T11:07:08.000Z</time>
      </trkpt>
      <trkpt lat="43.612" lon="6.84428">
        <ele>128.80000305176</ele>
        <time>2019-10-06T11:07:13.000Z</time>
      </trkpt>
      <trkpt lat="43.61194" lon="6.84429">
        <ele>130</ele>
        <time>2019-10-06T11:07:17.000Z</time>
      </trkpt>
      <trkpt lat="43.61163" lon="6.8444">
        <ele>129.19999694824</ele>
        <time>2019-10-06T11:07:28.000Z</time>
      </trkpt>
      <trkpt lat="43.61158" lon="6.84441">
        <ele>129.19999694824</ele>
        <time>2019-10-06T11:07:29.000Z</time>
      </trkpt>
      <trkpt lat="43.61153" lon="6.84444">
        <ele>129</ele>
        <time>2019-10-06T11:07:30.000Z</time>
      </trkpt>
      <trkpt lat="43.61136" lon="6.84452">
        <ele>128</ele>
        <time>2019-10-06T11:07:33.000Z</time>
      </trkpt>
      <trkpt lat="43.61131" lon="6.84454">
        <ele>127.59999847412</ele>
        <time>2019-10-06T11:07:34.000Z</time>
      </trkpt>
      <trkpt lat="43.61115" lon="6.84468">
        <ele>126.80000305176</ele>
        <time>2019-10-06T11:07:37.000Z</time>
      </trkpt>
      <trkpt lat="43.61109" lon="6.84474">
        <ele>126.59999847412</ele>
        <time>2019-10-06T11:07:38.000Z</time>
      </trkpt>
      <trkpt lat="43.61083" lon="6.84495">
        <ele>125</ele>
        <time>2019-10-06T11:07:42.000Z</time>
      </trkpt>
      <trkpt lat="43.61046" lon="6.84489">
        <ele>124</ele>
        <time>2019-10-06T11:07:46.000Z</time>
      </trkpt>
      <trkpt lat="43.61038" lon="6.84485">
        <ele>123.80000305176</ele>
        <time>2019-10-06T11:07:47.000Z</time>
      </trkpt>
      <trkpt lat="43.60987" lon="6.84479">
        <ele>122.80000305176</ele>
        <time>2019-10-06T11:07:54.000Z</time>
      </trkpt>
      <trkpt lat="43.60975" lon="6.84481">
        <ele>122.59999847412</ele>
        <time>2019-10-06T11:07:56.000Z</time>
      </trkpt>
      <trkpt lat="43.60951" lon="6.84488">
        <ele>121.59999847412</ele>
        <time>2019-10-06T11:08:00.000Z</time>
      </trkpt>
      <trkpt lat="43.6094" lon="6.84492">
        <ele>121.40000152588</ele>
        <time>2019-10-06T11:08:02.000Z</time>
      </trkpt>
      <trkpt lat="43.60935" lon="6.84494">
        <ele>121.19999694824</ele>
        <time>2019-10-06T11:08:03.000Z</time>
      </trkpt>
      <trkpt lat="43.6093" lon="6.84496">
        <ele>121.19999694824</ele>
        <time>2019-10-06T11:08:04.000Z</time>
      </trkpt>
      <trkpt lat="43.60908" lon="6.84501">
        <ele>121.40000152588</ele>
        <time>2019-10-06T11:08:08.000Z</time>
      </trkpt>
      <trkpt lat="43.60899" lon="6.84505">
        <ele>121.59999847412</ele>
        <time>2019-10-06T11:08:10.000Z</time>
      </trkpt>
      <trkpt lat="43.60885" lon="6.84512">
        <ele>122</ele>
        <time>2019-10-06T11:08:13.000Z</time>
      </trkpt>
      <trkpt lat="43.60866" lon="6.84522">
        <ele>123</ele>
        <time>2019-10-06T11:08:18.000Z</time>
      </trkpt>
      <trkpt lat="43.60831" lon="6.84535">
        <ele>124</ele>
        <time>2019-10-06T11:08:28.000Z</time>
      </trkpt>
      <trkpt lat="43.60808" lon="6.84543">
        <ele>125</ele>
        <time>2019-10-06T11:08:35.000Z</time>
      </trkpt>
      <trkpt lat="43.60781" lon="6.84548">
        <ele>125</ele>
        <time>2019-10-06T11:08:43.000Z</time>
      </trkpt>
      <trkpt lat="43.60753" lon="6.84551">
        <ele>124.80000305176</ele>
        <time>2019-10-06T11:08:50.000Z</time>
      </trkpt>
      <trkpt lat="43.60745" lon="6.84553">
        <ele>124.80000305176</ele>
        <time>2019-10-06T11:08:52.000Z</time>
      </trkpt>
      <trkpt lat="43.60724" lon="6.8455">
        <ele>124.59999847412</ele>
        <time>2019-10-06T11:08:57.000Z</time>
      </trkpt>
      <trkpt lat="43.60698" lon="6.84536">
        <ele>124.80000305176</ele>
        <time>2019-10-06T11:09:04.000Z</time>
      </trkpt>
      <trkpt lat="43.60657" lon="6.84487">
        <ele>125.40000152588</ele>
        <time>2019-10-06T11:09:18.000Z</time>
      </trkpt>
      <trkpt lat="43.60617" lon="6.84453">
        <ele>126.40000152588</ele>
        <time>2019-10-06T11:09:31.000Z</time>
      </trkpt>
      <trkpt lat="43.60604" lon="6.8444">
        <ele>127.80000305176</ele>
        <time>2019-10-06T11:09:37.000Z</time>
      </trkpt>
      <trkpt lat="43.60581" lon="6.84425">
        <ele>128.80000305176</ele>
        <time>2019-10-06T11:09:46.000Z</time>
      </trkpt>
      <trkpt lat="43.60536" lon="6.8445">
        <ele>128.80000305176</ele>
        <time>2019-10-06T11:09:59.000Z</time>
      </trkpt>
      <trkpt lat="43.60504" lon="6.84412">
        <ele>129.80000305176</ele>
        <time>2019-10-06T11:10:15.000Z</time>
      </trkpt>
      <trkpt lat="43.60502" lon="6.84405">
        <ele>130.19999694824</ele>
        <time>2019-10-06T11:10:17.000Z</time>
      </trkpt>
      <trkpt lat="43.60492" lon="6.84377">
        <ele>131.19999694824</ele>
        <time>2019-10-06T11:10:26.000Z</time>
      </trkpt>
      <trkpt lat="43.60479" lon="6.84358">
        <ele>132.19999694824</ele>
        <time>2019-10-06T11:10:34.000Z</time>
      </trkpt>
      <trkpt lat="43.60467" lon="6.84342">
        <ele>133.39999389648</ele>
        <time>2019-10-06T11:10:42.000Z</time>
      </trkpt>
      <trkpt lat="43.60463" lon="6.84323">
        <ele>134.39999389648</ele>
        <time>2019-10-06T11:10:50.000Z</time>
      </trkpt>
      <trkpt lat="43.60462" lon="6.84304">
        <ele>135.60000610352</ele>
        <time>2019-10-06T11:10:58.000Z</time>
      </trkpt>
      <trkpt lat="43.60462" lon="6.84289">
        <ele>136.80000305176</ele>
        <time>2019-10-06T11:11:04.000Z</time>
      </trkpt>
      <trkpt lat="43.60461" lon="6.84269">
        <ele>137.80000305176</ele>
        <time>2019-10-06T11:11:12.000Z</time>
      </trkpt>
      <trkpt lat="43.60451" lon="6.8425">
        <ele>138.80000305176</ele>
        <time>2019-10-06T11:11:22.000Z</time>
      </trkpt>
      <trkpt lat="43.60437" lon="6.84243">
        <ele>140</ele>
        <time>2019-10-06T11:11:30.000Z</time>
      </trkpt>
      <trkpt lat="43.60422" lon="6.84237">
        <ele>141.19999694824</ele>
        <time>2019-10-06T11:11:39.000Z</time>
      </trkpt>
      <trkpt lat="43.60406" lon="6.84236">
        <ele>142.19999694824</ele>
        <time>2019-10-06T11:11:48.000Z</time>
      </trkpt>
      <trkpt lat="43.60392" lon="6.84233">
        <ele>143.39999389648</ele>
        <time>2019-10-06T11:11:56.000Z</time>
      </trkpt>
      <trkpt lat="43.60374" lon="6.84232">
        <ele>144.80000305176</ele>
        <time>2019-10-06T11:12:06.000Z</time>
      </trkpt>
      <trkpt lat="43.60358" lon="6.8423">
        <ele>145.80000305176</ele>
        <time>2019-10-06T11:12:15.000Z</time>
      </trkpt>
      <trkpt lat="43.6034" lon="6.84228">
        <ele>147</ele>
        <time>2019-10-06T11:12:25.000Z</time>
      </trkpt>
      <trkpt lat="43.60322" lon="6.84229">
        <ele>148</ele>
        <time>2019-10-06T11:12:35.000Z</time>
      </trkpt>
      <trkpt lat="43.60307" lon="6.84231">
        <ele>149</ele>
        <time>2019-10-06T11:12:44.000Z</time>
      </trkpt>
      <trkpt lat="43.60288" lon="6.84232">
        <ele>150.19999694824</ele>
        <time>2019-10-06T11:12:55.000Z</time>
      </trkpt>
      <trkpt lat="43.60273" lon="6.84233">
        <ele>151.19999694824</ele>
        <time>2019-10-06T11:13:04.000Z</time>
      </trkpt>
      <trkpt lat="43.6027" lon="6.84234">
        <ele>151.60000610352</ele>
        <time>2019-10-06T11:13:06.000Z</time>
      </trkpt>
      <trkpt lat="43.60255" lon="6.84238">
        <ele>152.60000610352</ele>
        <time>2019-10-06T11:13:15.000Z</time>
      </trkpt>
      <trkpt lat="43.60239" lon="6.84244">
        <ele>153.80000305176</ele>
        <time>2019-10-06T11:13:25.000Z</time>
      </trkpt>
      <trkpt lat="43.60221" lon="6.84249">
        <ele>154.80000305176</ele>
        <time>2019-10-06T11:13:35.000Z</time>
      </trkpt>
      <trkpt lat="43.60194" lon="6.84247">
        <ele>153.60000610352</ele>
        <time>2019-10-06T11:13:44.000Z</time>
      </trkpt>
      <trkpt lat="43.60184" lon="6.84246">
        <ele>152.39999389648</ele>
        <time>2019-10-06T11:13:46.000Z</time>
      </trkpt>
      <trkpt lat="43.60173" lon="6.84243">
        <ele>151</ele>
        <time>2019-10-06T11:13:48.000Z</time>
      </trkpt>
      <trkpt lat="43.6016" lon="6.84241">
        <ele>149.80000305176</ele>
        <time>2019-10-06T11:13:50.000Z</time>
      </trkpt>
      <trkpt lat="43.60148" lon="6.84239">
        <ele>147.80000305176</ele>
        <time>2019-10-06T11:13:52.000Z</time>
      </trkpt>
      <trkpt lat="43.60142" lon="6.8424">
        <ele>146.19999694824</ele>
        <time>2019-10-06T11:13:53.000Z</time>
      </trkpt>
      <trkpt lat="43.60138" lon="6.84241">
        <ele>144.60000610352</ele>
        <time>2019-10-06T11:13:54.000Z</time>
      </trkpt>
      <trkpt lat="43.60134" lon="6.84244">
        <ele>143.39999389648</ele>
        <time>2019-10-06T11:13:55.000Z</time>
      </trkpt>
      <trkpt lat="43.60133" lon="6.84253">
        <ele>142.19999694824</ele>
        <time>2019-10-06T11:13:57.000Z</time>
      </trkpt>
      <trkpt lat="43.60134" lon="6.84268">
        <ele>140.39999389648</ele>
        <time>2019-10-06T11:13:59.000Z</time>
      </trkpt>
      <trkpt lat="43.60135" lon="6.84277">
        <ele>139.39999389648</ele>
        <time>2019-10-06T11:14:00.000Z</time>
      </trkpt>
      <trkpt lat="43.60135" lon="6.84296">
        <ele>137.19999694824</ele>
        <time>2019-10-06T11:14:02.000Z</time>
      </trkpt>
      <trkpt lat="43.60134" lon="6.84305">
        <ele>136.39999389648</ele>
        <time>2019-10-06T11:14:03.000Z</time>
      </trkpt>
      <trkpt lat="43.60133" lon="6.84314">
        <ele>135.39999389648</ele>
        <time>2019-10-06T11:14:04.000Z</time>
      </trkpt>
      <trkpt lat="43.6013" lon="6.84322">
        <ele>134.39999389648</ele>
        <time>2019-10-06T11:14:05.000Z</time>
      </trkpt>
      <trkpt lat="43.60127" lon="6.84329">
        <ele>133.19999694824</ele>
        <time>2019-10-06T11:14:06.000Z</time>
      </trkpt>
      <trkpt lat="43.60123" lon="6.84335">
        <ele>132.19999694824</ele>
        <time>2019-10-06T11:14:07.000Z</time>
      </trkpt>
      <trkpt lat="43.60118" lon="6.8434">
        <ele>131.19999694824</ele>
        <time>2019-10-06T11:14:08.000Z</time>
      </trkpt>
      <trkpt lat="43.60115" lon="6.84345">
        <ele>130</ele>
        <time>2019-10-06T11:14:09.000Z</time>
      </trkpt>
      <trkpt lat="43.60109" lon="6.84352">
        <ele>128.19999694824</ele>
        <time>2019-10-06T11:14:11.000Z</time>
      </trkpt>
      <trkpt lat="43.60105" lon="6.84358">
        <ele>127</ele>
        <time>2019-10-06T11:14:13.000Z</time>
      </trkpt>
      <trkpt lat="43.60102" lon="6.84385">
        <ele>128</ele>
        <time>2019-10-06T11:14:25.000Z</time>
      </trkpt>
      <trkpt lat="43.60105" lon="6.84408">
        <ele>129.19999694824</ele>
        <time>2019-10-06T11:14:35.000Z</time>
      </trkpt>
      <trkpt lat="43.60109" lon="6.84435">
        <ele>130.39999389648</ele>
        <time>2019-10-06T11:14:47.000Z</time>
      </trkpt>
      <trkpt lat="43.60113" lon="6.84451">
        <ele>131.60000610352</ele>
        <time>2019-10-06T11:14:55.000Z</time>
      </trkpt>
      <trkpt lat="43.60115" lon="6.8446">
        <ele>132.60000610352</ele>
        <time>2019-10-06T11:15:00.000Z</time>
      </trkpt>
      <trkpt lat="43.60113" lon="6.84471">
        <ele>134</ele>
        <time>2019-10-06T11:15:06.000Z</time>
      </trkpt>
      <trkpt lat="43.60112" lon="6.84481">
        <ele>135</ele>
        <time>2019-10-06T11:15:11.000Z</time>
      </trkpt>
      <trkpt lat="43.60107" lon="6.84488">
        <ele>136</ele>
        <time>2019-10-06T11:15:17.000Z</time>
      </trkpt>
      <trkpt lat="43.60101" lon="6.8449">
        <ele>137</ele>
        <time>2019-10-06T11:15:22.000Z</time>
      </trkpt>
      <trkpt lat="43.60093" lon="6.8449">
        <ele>138.19999694824</ele>
        <time>2019-10-06T11:15:28.000Z</time>
      </trkpt>
      <trkpt lat="43.60087" lon="6.8449">
        <ele>139.39999389648</ele>
        <time>2019-10-06T11:15:33.000Z</time>
      </trkpt>
      <trkpt lat="43.60079" lon="6.84491">
        <ele>140.39999389648</ele>
        <time>2019-10-06T11:15:39.000Z</time>
      </trkpt>
      <trkpt lat="43.60073" lon="6.84492">
        <ele>141.39999389648</ele>
        <time>2019-10-06T11:15:45.000Z</time>
      </trkpt>
      <trkpt lat="43.60064" lon="6.84491">
        <ele>142.80000305176</ele>
        <time>2019-10-06T11:15:53.000Z</time>
      </trkpt>
      <trkpt lat="43.60057" lon="6.84488">
        <ele>144</ele>
        <time>2019-10-06T11:16:00.000Z</time>
      </trkpt>
      <trkpt lat="43.60049" lon="6.84483">
        <ele>145</ele>
        <time>2019-10-06T11:16:08.000Z</time>
      </trkpt>
      <trkpt lat="43.60043" lon="6.8448">
        <ele>146</ele>
        <time>2019-10-06T11:16:14.000Z</time>
      </trkpt>
      <trkpt lat="43.60039" lon="6.84477">
        <ele>147</ele>
        <time>2019-10-06T11:16:38.000Z</time>
      </trkpt>
      <trkpt lat="43.60036" lon="6.84475">
        <ele>148.39999389648</ele>
        <time>2019-10-06T11:16:44.000Z</time>
      </trkpt>
      <trkpt lat="43.60032" lon="6.8447">
        <ele>149.39999389648</ele>
        <time>2019-10-06T11:16:49.000Z</time>
      </trkpt>
      <trkpt lat="43.60028" lon="6.84467">
        <ele>150</ele>
        <time>2019-10-06T11:16:53.000Z</time>
      </trkpt>
      <trkpt lat="43.60025" lon="6.84466">
        <ele>150.60000610352</ele>
        <time>2019-10-06T11:16:55.000Z</time>
      </trkpt>
      <trkpt lat="43.60018" lon="6.84462">
        <ele>151.80000305176</ele>
        <time>2019-10-06T11:17:01.000Z</time>
      </trkpt>
      <trkpt lat="43.60013" lon="6.84458">
        <ele>152.80000305176</ele>
        <time>2019-10-06T11:17:06.000Z</time>
      </trkpt>
      <trkpt lat="43.60012" lon="6.84457">
        <ele>153</ele>
        <time>2019-10-06T11:17:07.000Z</time>
      </trkpt>
      <trkpt lat="43.60007" lon="6.84454">
        <ele>154</ele>
        <time>2019-10-06T11:17:11.000Z</time>
      </trkpt>
      <trkpt lat="43.6" lon="6.84447">
        <ele>155.19999694824</ele>
        <time>2019-10-06T11:17:18.000Z</time>
      </trkpt>
      <trkpt lat="43.59993" lon="6.84442">
        <ele>156.19999694824</ele>
        <time>2019-10-06T11:17:23.000Z</time>
      </trkpt>
      <trkpt lat="43.59987" lon="6.84435">
        <ele>157.39999389648</ele>
        <time>2019-10-06T11:17:30.000Z</time>
      </trkpt>
      <trkpt lat="43.59981" lon="6.84428">
        <ele>158.60000610352</ele>
        <time>2019-10-06T11:17:36.000Z</time>
      </trkpt>
      <trkpt lat="43.59975" lon="6.84421">
        <ele>159.39999389648</ele>
        <time>2019-10-06T11:17:42.000Z</time>
      </trkpt>
      <trkpt lat="43.59969" lon="6.84411">
        <ele>160.60000610352</ele>
        <time>2019-10-06T11:17:50.000Z</time>
      </trkpt>
      <trkpt lat="43.59966" lon="6.84406">
        <ele>161.60000610352</ele>
        <time>2019-10-06T11:17:57.000Z</time>
      </trkpt>
      <trkpt lat="43.59963" lon="6.84401">
        <ele>162.19999694824</ele>
        <time>2019-10-06T11:18:07.000Z</time>
      </trkpt>
      <trkpt lat="43.5996" lon="6.84395">
        <ele>163</ele>
        <time>2019-10-06T11:18:19.000Z</time>
      </trkpt>
      <trkpt lat="43.59955" lon="6.84381">
        <ele>164</ele>
        <time>2019-10-06T11:18:30.000Z</time>
      </trkpt>
      <trkpt lat="43.5995" lon="6.8437">
        <ele>165.19999694824</ele>
        <time>2019-10-06T11:18:39.000Z</time>
      </trkpt>
      <trkpt lat="43.59947" lon="6.84364">
        <ele>166</ele>
        <time>2019-10-06T11:18:44.000Z</time>
      </trkpt>
      <trkpt lat="43.59946" lon="6.84362">
        <ele>166.39999389648</ele>
        <time>2019-10-06T11:18:46.000Z</time>
      </trkpt>
      <trkpt lat="43.59942" lon="6.84353">
        <ele>167.39999389648</ele>
        <time>2019-10-06T11:18:54.000Z</time>
      </trkpt>
      <trkpt lat="43.5994" lon="6.84346">
        <ele>168.60000610352</ele>
        <time>2019-10-06T11:19:00.000Z</time>
      </trkpt>
      <trkpt lat="43.59937" lon="6.84337">
        <ele>169.60000610352</ele>
        <time>2019-10-06T11:19:07.000Z</time>
      </trkpt>
      <trkpt lat="43.59932" lon="6.84324">
        <ele>170.80000305176</ele>
        <time>2019-10-06T11:19:17.000Z</time>
      </trkpt>
      <trkpt lat="43.59929" lon="6.84313">
        <ele>172</ele>
        <time>2019-10-06T11:19:26.000Z</time>
      </trkpt>
      <trkpt lat="43.59926" lon="6.84304">
        <ele>173.19999694824</ele>
        <time>2019-10-06T11:19:33.000Z</time>
      </trkpt>
      <trkpt lat="43.59924" lon="6.84295">
        <ele>173.80000305176</ele>
        <time>2019-10-06T11:19:40.000Z</time>
      </trkpt>
      <trkpt lat="43.59923" lon="6.8429">
        <ele>173.80000305176</ele>
        <time>2019-10-06T11:19:44.000Z</time>
      </trkpt>
      <trkpt lat="43.59923" lon="6.84289">
        <ele>173.80000305176</ele>
        <time>2019-10-06T11:19:45.000Z</time>
      </trkpt>
      <trkpt lat="43.59923" lon="6.84281">
        <ele>174.19999694824</ele>
        <time>2019-10-06T11:19:51.000Z</time>
      </trkpt>
      <trkpt lat="43.59922" lon="6.8428">
        <ele>174.19999694824</ele>
        <time>2019-10-06T11:19:52.000Z</time>
      </trkpt>
      <trkpt lat="43.59918" lon="6.84268">
        <ele>175.60000610352</ele>
        <time>2019-10-06T11:20:02.000Z</time>
      </trkpt>
      <trkpt lat="43.59912" lon="6.84263">
        <ele>176.19999694824</ele>
        <time>2019-10-06T11:20:14.000Z</time>
      </trkpt>
      <trkpt lat="43.59911" lon="6.84261">
        <ele>176.60000610352</ele>
        <time>2019-10-06T11:20:16.000Z</time>
      </trkpt>
      <trkpt lat="43.59904" lon="6.84253">
        <ele>177</ele>
        <time>2019-10-06T11:20:24.000Z</time>
      </trkpt>
      <trkpt lat="43.599" lon="6.84247">
        <ele>177.60000610352</ele>
        <time>2019-10-06T11:20:30.000Z</time>
      </trkpt>
      <trkpt lat="43.59894" lon="6.84236">
        <ele>178.60000610352</ele>
        <time>2019-10-06T11:20:40.000Z</time>
      </trkpt>
      <trkpt lat="43.5989" lon="6.84227">
        <ele>180</ele>
        <time>2019-10-06T11:20:46.000Z</time>
      </trkpt>
      <trkpt lat="43.59888" lon="6.84222">
        <ele>180.80000305176</ele>
        <time>2019-10-06T11:20:56.000Z</time>
      </trkpt>
      <trkpt lat="43.59888" lon="6.8422">
        <ele>181</ele>
        <time>2019-10-06T11:20:58.000Z</time>
      </trkpt>
      <trkpt lat="43.59884" lon="6.84214">
        <ele>181.80000305176</ele>
        <time>2019-10-06T11:21:04.000Z</time>
      </trkpt>
      <trkpt lat="43.59883" lon="6.84211">
        <ele>182.19999694824</ele>
        <time>2019-10-06T11:21:07.000Z</time>
      </trkpt>
      <trkpt lat="43.59879" lon="6.84205">
        <ele>183.19999694824</ele>
        <time>2019-10-06T11:21:14.000Z</time>
      </trkpt>
      <trkpt lat="43.59876" lon="6.84199">
        <ele>184.39999389648</ele>
        <time>2019-10-06T11:21:20.000Z</time>
      </trkpt>
      <trkpt lat="43.59873" lon="6.8419">
        <ele>185.60000610352</ele>
        <time>2019-10-06T11:21:28.000Z</time>
      </trkpt>
      <trkpt lat="43.5987" lon="6.84183">
        <ele>186.80000305176</ele>
        <time>2019-10-06T11:21:35.000Z</time>
      </trkpt>
      <trkpt lat="43.59868" lon="6.84179">
        <ele>188</ele>
        <time>2019-10-06T11:21:40.000Z</time>
      </trkpt>
      <trkpt lat="43.59866" lon="6.84174">
        <ele>189</ele>
        <time>2019-10-06T11:21:47.000Z</time>
      </trkpt>
      <trkpt lat="43.59866" lon="6.84171">
        <ele>189.60000610352</ele>
        <time>2019-10-06T11:21:51.000Z</time>
      </trkpt>
      <trkpt lat="43.59866" lon="6.84171">
        <ele>189.60000610352</ele>
        <time>2019-10-06T11:21:52.000Z</time>
      </trkpt>
      <trkpt lat="43.59866" lon="6.84171">
        <ele>190</ele>
        <time>2019-10-06T11:21:56.000Z</time>
      </trkpt>
      <trkpt lat="43.59863" lon="6.84166">
        <ele>191</ele>
        <time>2019-10-06T11:22:06.000Z</time>
      </trkpt>
      <trkpt lat="43.59861" lon="6.84159">
        <ele>192.19999694824</ele>
        <time>2019-10-06T11:22:17.000Z</time>
      </trkpt>
      <trkpt lat="43.5986" lon="6.84154">
        <ele>192.80000305176</ele>
        <time>2019-10-06T11:22:31.000Z</time>
      </trkpt>
      <trkpt lat="43.59859" lon="6.84153">
        <ele>193.19999694824</ele>
        <time>2019-10-06T11:22:34.000Z</time>
      </trkpt>
      <trkpt lat="43.59858" lon="6.8415">
        <ele>193.80000305176</ele>
        <time>2019-10-06T11:22:48.000Z</time>
      </trkpt>
      <trkpt lat="43.59857" lon="6.84148">
        <ele>194.39999389648</ele>
        <time>2019-10-06T11:22:51.000Z</time>
      </trkpt>
      <trkpt lat="43.59855" lon="6.84144">
        <ele>195.39999389648</ele>
        <time>2019-10-06T11:22:59.000Z</time>
      </trkpt>
      <trkpt lat="43.59855" lon="6.84141">
        <ele>196.39999389648</ele>
        <time>2019-10-06T11:23:08.000Z</time>
      </trkpt>
      <trkpt lat="43.59853" lon="6.84137">
        <ele>197.60000610352</ele>
        <time>2019-10-06T11:23:14.000Z</time>
      </trkpt>
      <trkpt lat="43.5985" lon="6.84132">
        <ele>198.80000305176</ele>
        <time>2019-10-06T11:23:22.000Z</time>
      </trkpt>
      <trkpt lat="43.59848" lon="6.84126">
        <ele>200</ele>
        <time>2019-10-06T11:23:30.000Z</time>
      </trkpt>
      <trkpt lat="43.59846" lon="6.8412">
        <ele>201</ele>
        <time>2019-10-06T11:23:37.000Z</time>
      </trkpt>
      <trkpt lat="43.59846" lon="6.84114">
        <ele>202</ele>
        <time>2019-10-06T11:24:20.000Z</time>
      </trkpt>
      <trkpt lat="43.59845" lon="6.84112">
        <ele>202.19999694824</ele>
        <time>2019-10-06T11:24:24.000Z</time>
      </trkpt>
      <trkpt lat="43.59845" lon="6.84111">
        <ele>202.19999694824</ele>
        <time>2019-10-06T11:24:32.000Z</time>
      </trkpt>
      <trkpt lat="43.59843" lon="6.8411">
        <ele>202.60000610352</ele>
        <time>2019-10-06T11:24:35.000Z</time>
      </trkpt>
      <trkpt lat="43.59839" lon="6.84107">
        <ele>203.19999694824</ele>
        <time>2019-10-06T11:24:40.000Z</time>
      </trkpt>
      <trkpt lat="43.59837" lon="6.84105">
        <ele>204</ele>
        <time>2019-10-06T11:24:43.000Z</time>
      </trkpt>
      <trkpt lat="43.59837" lon="6.84104">
        <ele>204.19999694824</ele>
        <time>2019-10-06T11:24:45.000Z</time>
      </trkpt>
      <trkpt lat="43.59834" lon="6.841">
        <ele>205.39999389648</ele>
        <time>2019-10-06T11:24:51.000Z</time>
      </trkpt>
      <trkpt lat="43.59832" lon="6.84095">
        <ele>206.19999694824</ele>
        <time>2019-10-06T11:24:57.000Z</time>
      </trkpt>
      <trkpt lat="43.59831" lon="6.84094">
        <ele>206.60000610352</ele>
        <time>2019-10-06T11:24:59.000Z</time>
      </trkpt>
      <trkpt lat="43.59827" lon="6.84089">
        <ele>207.60000610352</ele>
        <time>2019-10-06T11:25:07.000Z</time>
      </trkpt>
      <trkpt lat="43.59824" lon="6.84085">
        <ele>208.80000305176</ele>
        <time>2019-10-06T11:25:15.000Z</time>
      </trkpt>
      <trkpt lat="43.59823" lon="6.84084">
        <ele>209</ele>
        <time>2019-10-06T11:25:17.000Z</time>
      </trkpt>
      <trkpt lat="43.59822" lon="6.84083">
        <ele>209.39999389648</ele>
        <time>2019-10-06T11:25:19.000Z</time>
      </trkpt>
      <trkpt lat="43.59821" lon="6.84081">
        <ele>209.80000305176</ele>
        <time>2019-10-06T11:25:22.000Z</time>
      </trkpt>
      <trkpt lat="43.59818" lon="6.84075">
        <ele>211</ele>
        <time>2019-10-06T11:25:29.000Z</time>
      </trkpt>
      <trkpt lat="43.59817" lon="6.84073">
        <ele>211.19999694824</ele>
        <time>2019-10-06T11:25:32.000Z</time>
      </trkpt>
      <trkpt lat="43.59813" lon="6.84067">
        <ele>212.19999694824</ele>
        <time>2019-10-06T11:25:40.000Z</time>
      </trkpt>
      <trkpt lat="43.59811" lon="6.84061">
        <ele>213.19999694824</ele>
        <time>2019-10-06T11:25:47.000Z</time>
      </trkpt>
      <trkpt lat="43.59808" lon="6.84056">
        <ele>214.19999694824</ele>
        <time>2019-10-06T11:25:55.000Z</time>
      </trkpt>
      <trkpt lat="43.59805" lon="6.84049">
        <ele>215.39999389648</ele>
        <time>2019-10-06T11:26:03.000Z</time>
      </trkpt>
      <trkpt lat="43.59803" lon="6.84036">
        <ele>216.60000610352</ele>
        <time>2019-10-06T11:26:15.000Z</time>
      </trkpt>
      <trkpt lat="43.59802" lon="6.84028">
        <ele>217.80000305176</ele>
        <time>2019-10-06T11:26:24.000Z</time>
      </trkpt>
      <trkpt lat="43.59798" lon="6.84024">
        <ele>218.80000305176</ele>
        <time>2019-10-06T11:26:32.000Z</time>
      </trkpt>
      <trkpt lat="43.59795" lon="6.8402">
        <ele>220</ele>
        <time>2019-10-06T11:26:40.000Z</time>
      </trkpt>
      <trkpt lat="43.59793" lon="6.84014">
        <ele>221</ele>
        <time>2019-10-06T11:26:49.000Z</time>
      </trkpt>
      <trkpt lat="43.59791" lon="6.8401">
        <ele>222</ele>
        <time>2019-10-06T11:26:56.000Z</time>
      </trkpt>
      <trkpt lat="43.59789" lon="6.84006">
        <ele>223.19999694824</ele>
        <time>2019-10-06T11:27:04.000Z</time>
      </trkpt>
      <trkpt lat="43.59785" lon="6.84002">
        <ele>224.19999694824</ele>
        <time>2019-10-06T11:27:12.000Z</time>
      </trkpt>
      <trkpt lat="43.59781" lon="6.83994">
        <ele>225.19999694824</ele>
        <time>2019-10-06T11:27:20.000Z</time>
      </trkpt>
      <trkpt lat="43.5978" lon="6.83992">
        <ele>225.39999389648</ele>
        <time>2019-10-06T11:27:22.000Z</time>
      </trkpt>
      <trkpt lat="43.59778" lon="6.83987">
        <ele>226.39999389648</ele>
        <time>2019-10-06T11:27:27.000Z</time>
      </trkpt>
      <trkpt lat="43.59776" lon="6.83983">
        <ele>227</ele>
        <time>2019-10-06T11:27:33.000Z</time>
      </trkpt>
      <trkpt lat="43.59774" lon="6.83974">
        <ele>227.19999694824</ele>
        <time>2019-10-06T11:27:40.000Z</time>
      </trkpt>
      <trkpt lat="43.59773" lon="6.83969">
        <ele>227.39999389648</ele>
        <time>2019-10-06T11:27:43.000Z</time>
      </trkpt>
      <trkpt lat="43.59765" lon="6.83954">
        <ele>228.60000610352</ele>
        <time>2019-10-06T11:27:58.000Z</time>
      </trkpt>
      <trkpt lat="43.59762" lon="6.83951">
        <ele>228.60000610352</ele>
        <time>2019-10-06T11:28:01.000Z</time>
      </trkpt>
      <trkpt lat="43.59755" lon="6.83948">
        <ele>229.39999389648</ele>
        <time>2019-10-06T11:28:08.000Z</time>
      </trkpt>
      <trkpt lat="43.59754" lon="6.83948">
        <ele>229.60000610352</ele>
        <time>2019-10-06T11:28:09.000Z</time>
      </trkpt>
      <trkpt lat="43.59744" lon="6.83947">
        <ele>230.19999694824</ele>
        <time>2019-10-06T11:28:21.000Z</time>
      </trkpt>
      <trkpt lat="43.59741" lon="6.83947">
        <ele>230.39999389648</ele>
        <time>2019-10-06T11:28:25.000Z</time>
      </trkpt>
      <trkpt lat="43.59739" lon="6.83948">
        <ele>230.80000305176</ele>
        <time>2019-10-06T11:28:27.000Z</time>
      </trkpt>
      <trkpt lat="43.59733" lon="6.83949">
        <ele>231.60000610352</ele>
        <time>2019-10-06T11:28:34.000Z</time>
      </trkpt>
      <trkpt lat="43.59726" lon="6.8395">
        <ele>232.39999389648</ele>
        <time>2019-10-06T11:28:44.000Z</time>
      </trkpt>
      <trkpt lat="43.59725" lon="6.83951">
        <ele>232.60000610352</ele>
        <time>2019-10-06T11:28:46.000Z</time>
      </trkpt>
      <trkpt lat="43.59722" lon="6.83953">
        <ele>233.39999389648</ele>
        <time>2019-10-06T11:28:55.000Z</time>
      </trkpt>
      <trkpt lat="43.59719" lon="6.83956">
        <ele>233.80000305176</ele>
        <time>2019-10-06T11:29:06.000Z</time>
      </trkpt>
      <trkpt lat="43.59713" lon="6.83959">
        <ele>234.80000305176</ele>
        <time>2019-10-06T11:29:14.000Z</time>
      </trkpt>
      <trkpt lat="43.59703" lon="6.83967">
        <ele>235.80000305176</ele>
        <time>2019-10-06T11:29:28.000Z</time>
      </trkpt>
      <trkpt lat="43.59701" lon="6.8397">
        <ele>236.80000305176</ele>
        <time>2019-10-06T11:29:46.000Z</time>
      </trkpt>
      <trkpt lat="43.59701" lon="6.8397">
        <ele>236.60000610352</ele>
        <time>2019-10-06T11:30:16.000Z</time>
      </trkpt>
      <trkpt lat="43.59701" lon="6.8397">
        <ele>236.60000610352</ele>
        <time>2019-10-06T11:30:17.000Z</time>
      </trkpt>
      <trkpt lat="43.59701" lon="6.8397">
        <ele>236.60000610352</ele>
        <time>2019-10-06T11:30:18.000Z</time>
      </trkpt>
      <trkpt lat="43.597" lon="6.83972">
        <ele>237</ele>
        <time>2019-10-06T11:30:30.000Z</time>
      </trkpt>
      <trkpt lat="43.597" lon="6.83972">
        <ele>237.19999694824</ele>
        <time>2019-10-06T11:30:32.000Z</time>
      </trkpt>
      <trkpt lat="43.597" lon="6.83972">
        <ele>237.39999389648</ele>
        <time>2019-10-06T11:30:33.000Z</time>
      </trkpt>
      <trkpt lat="43.597" lon="6.83972">
        <ele>237.39999389648</ele>
        <time>2019-10-06T11:30:35.000Z</time>
      </trkpt>
      <trkpt lat="43.59699" lon="6.83972">
        <ele>237.39999389648</ele>
        <time>2019-10-06T11:30:40.000Z</time>
      </trkpt>
      <trkpt lat="43.59699" lon="6.83972">
        <ele>237.60000610352</ele>
        <time>2019-10-06T11:30:43.000Z</time>
      </trkpt>
      <trkpt lat="43.59698" lon="6.83973">
        <ele>238</ele>
        <time>2019-10-06T11:30:49.000Z</time>
      </trkpt>
      <trkpt lat="43.59697" lon="6.83973">
        <ele>238</ele>
        <time>2019-10-06T11:30:50.000Z</time>
      </trkpt>
      <trkpt lat="43.59693" lon="6.83977">
        <ele>239</ele>
        <time>2019-10-06T11:30:57.000Z</time>
      </trkpt>
      <trkpt lat="43.59691" lon="6.8398">
        <ele>239.60000610352</ele>
        <time>2019-10-06T11:31:02.000Z</time>
      </trkpt>
      <trkpt lat="43.59689" lon="6.83983">
        <ele>240.19999694824</ele>
        <time>2019-10-06T11:31:05.000Z</time>
      </trkpt>
      <trkpt lat="43.59684" lon="6.83987">
        <ele>241.39999389648</ele>
        <time>2019-10-06T11:31:14.000Z</time>
      </trkpt>
      <trkpt lat="43.59681" lon="6.8399">
        <ele>242.39999389648</ele>
        <time>2019-10-06T11:31:33.000Z</time>
      </trkpt>
      <trkpt lat="43.59678" lon="6.83992">
        <ele>242.80000305176</ele>
        <time>2019-10-06T11:31:37.000Z</time>
      </trkpt>
      <trkpt lat="43.59675" lon="6.83994">
        <ele>243.39999389648</ele>
        <time>2019-10-06T11:31:42.000Z</time>
      </trkpt>
      <trkpt lat="43.5967" lon="6.83998">
        <ele>244.60000610352</ele>
        <time>2019-10-06T11:31:52.000Z</time>
      </trkpt>
      <trkpt lat="43.59665" lon="6.84003">
        <ele>245.60000610352</ele>
        <time>2019-10-06T11:32:01.000Z</time>
      </trkpt>
      <trkpt lat="43.5966" lon="6.84009">
        <ele>247</ele>
        <time>2019-10-06T11:32:11.000Z</time>
      </trkpt>
      <trkpt lat="43.59656" lon="6.84013">
        <ele>248</ele>
        <time>2019-10-06T11:32:20.000Z</time>
      </trkpt>
      <trkpt lat="43.59651" lon="6.84018">
        <ele>249</ele>
        <time>2019-10-06T11:32:29.000Z</time>
      </trkpt>
      <trkpt lat="43.59651" lon="6.84017">
        <ele>249.19999694824</ele>
        <time>2019-10-06T11:32:45.000Z</time>
      </trkpt>
      <trkpt lat="43.59651" lon="6.84017">
        <ele>249.19999694824</ele>
        <time>2019-10-06T11:32:50.000Z</time>
      </trkpt>
      <trkpt lat="43.5965" lon="6.84022">
        <ele>249.80000305176</ele>
        <time>2019-10-06T11:33:02.000Z</time>
      </trkpt>
      <trkpt lat="43.59649" lon="6.84024">
        <ele>249.80000305176</ele>
        <time>2019-10-06T11:33:04.000Z</time>
      </trkpt>
      <trkpt lat="43.59648" lon="6.84026">
        <ele>250.19999694824</ele>
        <time>2019-10-06T11:33:06.000Z</time>
      </trkpt>
      <trkpt lat="43.59644" lon="6.84033">
        <ele>251.19999694824</ele>
        <time>2019-10-06T11:33:15.000Z</time>
      </trkpt>
      <trkpt lat="43.59644" lon="6.84034">
        <ele>251.19999694824</ele>
        <time>2019-10-06T11:33:16.000Z</time>
      </trkpt>
      <trkpt lat="43.5964" lon="6.84039">
        <ele>252.60000610352</ele>
        <time>2019-10-06T11:33:24.000Z</time>
      </trkpt>
      <trkpt lat="43.59637" lon="6.84045">
        <ele>253.60000610352</ele>
        <time>2019-10-06T11:33:31.000Z</time>
      </trkpt>
      <trkpt lat="43.59633" lon="6.8405">
        <ele>254.60000610352</ele>
        <time>2019-10-06T11:33:41.000Z</time>
      </trkpt>
      <trkpt lat="43.59628" lon="6.84055">
        <ele>255.60000610352</ele>
        <time>2019-10-06T11:33:50.000Z</time>
      </trkpt>
      <trkpt lat="43.59628" lon="6.84055">
        <ele>255.80000305176</ele>
        <time>2019-10-06T11:33:51.000Z</time>
      </trkpt>
      <trkpt lat="43.59625" lon="6.84058">
        <ele>256.60000610352</ele>
        <time>2019-10-06T11:33:56.000Z</time>
      </trkpt>
      <trkpt lat="43.59623" lon="6.8406">
        <ele>257</ele>
        <time>2019-10-06T11:33:59.000Z</time>
      </trkpt>
      <trkpt lat="43.59617" lon="6.84065">
        <ele>257.79998779297</ele>
        <time>2019-10-06T11:34:08.000Z</time>
      </trkpt>
      <trkpt lat="43.59616" lon="6.84065">
        <ele>258</ele>
        <time>2019-10-06T11:34:09.000Z</time>
      </trkpt>
      <trkpt lat="43.59607" lon="6.8407">
        <ele>259.39999389648</ele>
        <time>2019-10-06T11:34:21.000Z</time>
      </trkpt>
      <trkpt lat="43.59596" lon="6.84073">
        <ele>260.39999389648</ele>
        <time>2019-10-06T11:34:34.000Z</time>
      </trkpt>
      <trkpt lat="43.59593" lon="6.84072">
        <ele>260.79998779297</ele>
        <time>2019-10-06T11:34:53.000Z</time>
      </trkpt>
      <trkpt lat="43.5959" lon="6.84074">
        <ele>261.39999389648</ele>
        <time>2019-10-06T11:35:01.000Z</time>
      </trkpt>
      <trkpt lat="43.59584" lon="6.84078">
        <ele>262.60000610352</ele>
        <time>2019-10-06T11:35:10.000Z</time>
      </trkpt>
      <trkpt lat="43.59578" lon="6.84083">
        <ele>263.79998779297</ele>
        <time>2019-10-06T11:35:21.000Z</time>
      </trkpt>
      <trkpt lat="43.59572" lon="6.84084">
        <ele>264.79998779297</ele>
        <time>2019-10-06T11:35:29.000Z</time>
      </trkpt>
      <trkpt lat="43.59558" lon="6.84088">
        <ele>266.20001220703</ele>
        <time>2019-10-06T11:35:46.000Z</time>
      </trkpt>
      <trkpt lat="43.59553" lon="6.84091">
        <ele>267.20001220703</ele>
        <time>2019-10-06T11:35:54.000Z</time>
      </trkpt>
      <trkpt lat="43.59546" lon="6.84089">
        <ele>268.39999389648</ele>
        <time>2019-10-06T11:36:05.000Z</time>
      </trkpt>
      <trkpt lat="43.59542" lon="6.84089">
        <ele>269</ele>
        <time>2019-10-06T11:36:10.000Z</time>
      </trkpt>
      <trkpt lat="43.5954" lon="6.84089">
        <ele>269.39999389648</ele>
        <time>2019-10-06T11:36:17.000Z</time>
      </trkpt>
      <trkpt lat="43.59539" lon="6.84089">
        <ele>269.79998779297</ele>
        <time>2019-10-06T11:36:33.000Z</time>
      </trkpt>
      <trkpt lat="43.59536" lon="6.8409">
        <ele>270.39999389648</ele>
        <time>2019-10-06T11:36:40.000Z</time>
      </trkpt>
      <trkpt lat="43.59535" lon="6.84091">
        <ele>270.39999389648</ele>
        <time>2019-10-06T11:36:41.000Z</time>
      </trkpt>
      <trkpt lat="43.5953" lon="6.84095">
        <ele>271.60000610352</ele>
        <time>2019-10-06T11:36:48.000Z</time>
      </trkpt>
      <trkpt lat="43.59525" lon="6.84098">
        <ele>272.79998779297</ele>
        <time>2019-10-06T11:36:56.000Z</time>
      </trkpt>
      <trkpt lat="43.59522" lon="6.84104">
        <ele>273.60000610352</ele>
        <time>2019-10-06T11:37:04.000Z</time>
      </trkpt>
      <trkpt lat="43.59522" lon="6.84105">
        <ele>273.79998779297</ele>
        <time>2019-10-06T11:37:05.000Z</time>
      </trkpt>
      <trkpt lat="43.59521" lon="6.84106">
        <ele>274</ele>
        <time>2019-10-06T11:37:06.000Z</time>
      </trkpt>
      <trkpt lat="43.59518" lon="6.84111">
        <ele>275</ele>
        <time>2019-10-06T11:37:13.000Z</time>
      </trkpt>
      <trkpt lat="43.59518" lon="6.84111">
        <ele>275</ele>
        <time>2019-10-06T11:37:14.000Z</time>
      </trkpt>
      <trkpt lat="43.59515" lon="6.84116">
        <ele>276</ele>
        <time>2019-10-06T11:37:20.000Z</time>
      </trkpt>
      <trkpt lat="43.59508" lon="6.84124">
        <ele>277</ele>
        <time>2019-10-06T11:37:33.000Z</time>
      </trkpt>
      <trkpt lat="43.59499" lon="6.84131">
        <ele>278.20001220703</ele>
        <time>2019-10-06T11:37:43.000Z</time>
      </trkpt>
      <trkpt lat="43.59492" lon="6.84133">
        <ele>279.39999389648</ele>
        <time>2019-10-06T11:37:50.000Z</time>
      </trkpt>
      <trkpt lat="43.59486" lon="6.84133">
        <ele>280.60000610352</ele>
        <time>2019-10-06T11:37:56.000Z</time>
      </trkpt>
      <trkpt lat="43.59475" lon="6.84136">
        <ele>281.60000610352</ele>
        <time>2019-10-06T11:38:07.000Z</time>
      </trkpt>
      <trkpt lat="43.59465" lon="6.84138">
        <ele>282.60000610352</ele>
        <time>2019-10-06T11:38:18.000Z</time>
      </trkpt>
      <trkpt lat="43.5946" lon="6.8414">
        <ele>283.20001220703</ele>
        <time>2019-10-06T11:38:47.000Z</time>
      </trkpt>
      <trkpt lat="43.59457" lon="6.84143">
        <ele>283.79998779297</ele>
        <time>2019-10-06T11:38:51.000Z</time>
      </trkpt>
      <trkpt lat="43.59455" lon="6.84142">
        <ele>284.20001220703</ele>
        <time>2019-10-06T11:38:54.000Z</time>
      </trkpt>
      <trkpt lat="43.59453" lon="6.84141">
        <ele>284.39999389648</ele>
        <time>2019-10-06T11:38:56.000Z</time>
      </trkpt>
      <trkpt lat="43.59449" lon="6.84143">
        <ele>284.79998779297</ele>
        <time>2019-10-06T11:39:00.000Z</time>
      </trkpt>
      <trkpt lat="43.59447" lon="6.84144">
        <ele>285</ele>
        <time>2019-10-06T11:39:02.000Z</time>
      </trkpt>
      <trkpt lat="43.59437" lon="6.84149">
        <ele>286</ele>
        <time>2019-10-06T11:39:10.000Z</time>
      </trkpt>
      <trkpt lat="43.5943" lon="6.84152">
        <ele>287</ele>
        <time>2019-10-06T11:39:17.000Z</time>
      </trkpt>
      <trkpt lat="43.59424" lon="6.84153">
        <ele>288</ele>
        <time>2019-10-06T11:39:23.000Z</time>
      </trkpt>
      <trkpt lat="43.59419" lon="6.84159">
        <ele>289.20001220703</ele>
        <time>2019-10-06T11:39:30.000Z</time>
      </trkpt>
      <trkpt lat="43.59409" lon="6.84163">
        <ele>290</ele>
        <time>2019-10-06T11:39:38.000Z</time>
      </trkpt>
      <trkpt lat="43.59408" lon="6.84164">
        <ele>290.39999389648</ele>
        <time>2019-10-06T11:39:39.000Z</time>
      </trkpt>
      <trkpt lat="43.59355" lon="6.84184">
        <ele>291.20001220703</ele>
        <time>2019-10-06T11:40:06.000Z</time>
      </trkpt>
      <trkpt lat="43.59352" lon="6.84185">
        <ele>291.39999389648</ele>
        <time>2019-10-06T11:40:08.000Z</time>
      </trkpt>
      <trkpt lat="43.59341" lon="6.84186">
        <ele>292.39999389648</ele>
        <time>2019-10-06T11:40:17.000Z</time>
      </trkpt>
      <trkpt lat="43.59326" lon="6.84186">
        <ele>293.39999389648</ele>
        <time>2019-10-06T11:40:28.000Z</time>
      </trkpt>
      <trkpt lat="43.59315" lon="6.84185">
        <ele>294.60000610352</ele>
        <time>2019-10-06T11:40:37.000Z</time>
      </trkpt>
      <trkpt lat="43.593" lon="6.84177">
        <ele>295.60000610352</ele>
        <time>2019-10-06T11:40:49.000Z</time>
      </trkpt>
      <trkpt lat="43.5928" lon="6.84157">
        <ele>294.60000610352</ele>
        <time>2019-10-06T11:40:57.000Z</time>
      </trkpt>
      <trkpt lat="43.59271" lon="6.84148">
        <ele>293.20001220703</ele>
        <time>2019-10-06T11:40:59.000Z</time>
      </trkpt>
      <trkpt lat="43.59266" lon="6.84143">
        <ele>292.79998779297</ele>
        <time>2019-10-06T11:41:00.000Z</time>
      </trkpt>
      <trkpt lat="43.59261" lon="6.84139">
        <ele>292.20001220703</ele>
        <time>2019-10-06T11:41:01.000Z</time>
      </trkpt>
      <trkpt lat="43.59256" lon="6.84135">
        <ele>292</ele>
        <time>2019-10-06T11:41:02.000Z</time>
      </trkpt>
      <trkpt lat="43.5924" lon="6.84125">
        <ele>291</ele>
        <time>2019-10-06T11:41:05.000Z</time>
      </trkpt>
      <trkpt lat="43.59229" lon="6.84121">
        <ele>290.79998779297</ele>
        <time>2019-10-06T11:41:07.000Z</time>
      </trkpt>
      <trkpt lat="43.59217" lon="6.84119">
        <ele>291</ele>
        <time>2019-10-06T11:41:11.000Z</time>
      </trkpt>
      <trkpt lat="43.59199" lon="6.8412">
        <ele>292.39999389648</ele>
        <time>2019-10-06T11:41:22.000Z</time>
      </trkpt>
      <trkpt lat="43.59186" lon="6.84111">
        <ele>292.39999389648</ele>
        <time>2019-10-06T11:41:28.000Z</time>
      </trkpt>
      <trkpt lat="43.59149" lon="6.8409">
        <ele>291.60000610352</ele>
        <time>2019-10-06T11:41:42.000Z</time>
      </trkpt>
      <trkpt lat="43.59147" lon="6.84088">
        <ele>291.60000610352</ele>
        <time>2019-10-06T11:41:43.000Z</time>
      </trkpt>
      <trkpt lat="43.59136" lon="6.84077">
        <ele>291.60000610352</ele>
        <time>2019-10-06T11:41:47.000Z</time>
      </trkpt>
      <trkpt lat="43.59122" lon="6.84075">
        <ele>292.60000610352</ele>
        <time>2019-10-06T11:41:55.000Z</time>
      </trkpt>
      <trkpt lat="43.5911" lon="6.84069">
        <ele>293.60000610352</ele>
        <time>2019-10-06T11:42:05.000Z</time>
      </trkpt>
      <trkpt lat="43.59102" lon="6.84058">
        <ele>293</ele>
        <time>2019-10-06T11:42:13.000Z</time>
      </trkpt>
      <trkpt lat="43.59098" lon="6.84038">
        <ele>292.79998779297</ele>
        <time>2019-10-06T11:42:18.000Z</time>
      </trkpt>
      <trkpt lat="43.59098" lon="6.84034">
        <ele>292.79998779297</ele>
        <time>2019-10-06T11:42:19.000Z</time>
      </trkpt>
      <trkpt lat="43.591" lon="6.84011">
        <ele>291.60000610352</ele>
        <time>2019-10-06T11:42:24.000Z</time>
      </trkpt>
      <trkpt lat="43.59099" lon="6.84004">
        <ele>291.20001220703</ele>
        <time>2019-10-06T11:42:25.000Z</time>
      </trkpt>
      <trkpt lat="43.591" lon="6.83998">
        <ele>290.60000610352</ele>
        <time>2019-10-06T11:42:26.000Z</time>
      </trkpt>
      <trkpt lat="43.59102" lon="6.83981">
        <ele>289.20001220703</ele>
        <time>2019-10-06T11:42:28.000Z</time>
      </trkpt>
      <trkpt lat="43.59104" lon="6.83957">
        <ele>287.79998779297</ele>
        <time>2019-10-06T11:42:31.000Z</time>
      </trkpt>
      <trkpt lat="43.59103" lon="6.83949">
        <ele>287.39999389648</ele>
        <time>2019-10-06T11:42:32.000Z</time>
      </trkpt>
      <trkpt lat="43.591" lon="6.83917">
        <ele>286.60000610352</ele>
        <time>2019-10-06T11:42:36.000Z</time>
      </trkpt>
      <trkpt lat="43.59099" lon="6.83889">
        <ele>285.39999389648</ele>
        <time>2019-10-06T11:42:40.000Z</time>
      </trkpt>
      <trkpt lat="43.59099" lon="6.83876">
        <ele>285.39999389648</ele>
        <time>2019-10-06T11:42:42.000Z</time>
      </trkpt>
      <trkpt lat="43.59089" lon="6.83843">
        <ele>284.79998779297</ele>
        <time>2019-10-06T11:42:47.000Z</time>
      </trkpt>
      <trkpt lat="43.5909" lon="6.83824">
        <ele>284.39999389648</ele>
        <time>2019-10-06T11:42:50.000Z</time>
      </trkpt>
      <trkpt lat="43.59094" lon="6.83813">
        <ele>284.20001220703</ele>
        <time>2019-10-06T11:42:52.000Z</time>
      </trkpt>
      <trkpt lat="43.59095" lon="6.83794">
        <ele>284.20001220703</ele>
        <time>2019-10-06T11:42:56.000Z</time>
      </trkpt>
      <trkpt lat="43.59101" lon="6.83719">
        <ele>283.20001220703</ele>
        <time>2019-10-06T11:43:12.000Z</time>
      </trkpt>
      <trkpt lat="43.59105" lon="6.83714">
        <ele>282.79998779297</ele>
        <time>2019-10-06T11:43:13.000Z</time>
      </trkpt>
      <trkpt lat="43.59119" lon="6.8369">
        <ele>281.79998779297</ele>
        <time>2019-10-06T11:43:17.000Z</time>
      </trkpt>
      <trkpt lat="43.59117" lon="6.83647">
        <ele>281.60000610352</ele>
        <time>2019-10-06T11:43:23.000Z</time>
      </trkpt>
      <trkpt lat="43.59115" lon="6.83639">
        <ele>282.39999389648</ele>
        <time>2019-10-06T11:43:27.000Z</time>
      </trkpt>
      <trkpt lat="43.59115" lon="6.83634">
        <ele>282.79998779297</ele>
        <time>2019-10-06T11:43:29.000Z</time>
      </trkpt>
      <trkpt lat="43.5913" lon="6.83615">
        <ele>282.79998779297</ele>
        <time>2019-10-06T11:43:39.000Z</time>
      </trkpt>
      <trkpt lat="43.59147" lon="6.83582">
        <ele>283.79998779297</ele>
        <time>2019-10-06T11:43:49.000Z</time>
      </trkpt>
      <trkpt lat="43.59149" lon="6.83575">
        <ele>284.39999389648</ele>
        <time>2019-10-06T11:43:52.000Z</time>
      </trkpt>
      <trkpt lat="43.59151" lon="6.83568">
        <ele>285</ele>
        <time>2019-10-06T11:43:55.000Z</time>
      </trkpt>
      <trkpt lat="43.59153" lon="6.8356">
        <ele>285.39999389648</ele>
        <time>2019-10-06T11:43:58.000Z</time>
      </trkpt>
      <trkpt lat="43.59156" lon="6.83553">
        <ele>286</ele>
        <time>2019-10-06T11:44:03.000Z</time>
      </trkpt>
      <trkpt lat="43.59163" lon="6.83532">
        <ele>286</ele>
        <time>2019-10-06T11:44:11.000Z</time>
      </trkpt>
      <trkpt lat="43.59167" lon="6.83521">
        <ele>285.60000610352</ele>
        <time>2019-10-06T11:44:14.000Z</time>
      </trkpt>
      <trkpt lat="43.59191" lon="6.8347">
        <ele>284.39999389648</ele>
        <time>2019-10-06T11:44:30.000Z</time>
      </trkpt>
      <trkpt lat="43.59203" lon="6.83439">
        <ele>284</ele>
        <time>2019-10-06T11:44:35.000Z</time>
      </trkpt>
      <trkpt lat="43.59206" lon="6.8342">
        <ele>283.60000610352</ele>
        <time>2019-10-06T11:44:38.000Z</time>
      </trkpt>
      <trkpt lat="43.5921" lon="6.8341">
        <ele>283.20001220703</ele>
        <time>2019-10-06T11:44:40.000Z</time>
      </trkpt>
      <trkpt lat="43.59225" lon="6.83393">
        <ele>282</ele>
        <time>2019-10-06T11:44:44.000Z</time>
      </trkpt>
      <trkpt lat="43.59231" lon="6.83388">
        <ele>281.39999389648</ele>
        <time>2019-10-06T11:44:45.000Z</time>
      </trkpt>
      <trkpt lat="43.59236" lon="6.83383">
        <ele>280.39999389648</ele>
        <time>2019-10-06T11:44:46.000Z</time>
      </trkpt>
      <trkpt lat="43.59241" lon="6.83375">
        <ele>279.20001220703</ele>
        <time>2019-10-06T11:44:47.000Z</time>
      </trkpt>
      <trkpt lat="43.59244" lon="6.83368">
        <ele>278.20001220703</ele>
        <time>2019-10-06T11:44:48.000Z</time>
      </trkpt>
      <trkpt lat="43.59243" lon="6.83335">
        <ele>277</ele>
        <time>2019-10-06T11:44:52.000Z</time>
      </trkpt>
      <trkpt lat="43.59232" lon="6.83312">
        <ele>275.79998779297</ele>
        <time>2019-10-06T11:44:55.000Z</time>
      </trkpt>
      <trkpt lat="43.59223" lon="6.83303">
        <ele>275.60000610352</ele>
        <time>2019-10-06T11:44:57.000Z</time>
      </trkpt>
      <trkpt lat="43.59218" lon="6.833">
        <ele>275.60000610352</ele>
        <time>2019-10-06T11:44:58.000Z</time>
      </trkpt>
      <trkpt lat="43.59171" lon="6.83261">
        <ele>275.20001220703</ele>
        <time>2019-10-06T11:45:11.000Z</time>
      </trkpt>
      <trkpt lat="43.59125" lon="6.83223">
        <ele>274.60000610352</ele>
        <time>2019-10-06T11:45:24.000Z</time>
      </trkpt>
      <trkpt lat="43.59115" lon="6.83214">
        <ele>274.20001220703</ele>
        <time>2019-10-06T11:45:27.000Z</time>
      </trkpt>
      <trkpt lat="43.59108" lon="6.83207">
        <ele>274.20001220703</ele>
        <time>2019-10-06T11:45:29.000Z</time>
      </trkpt>
      <trkpt lat="43.59097" lon="6.832">
        <ele>274.20001220703</ele>
        <time>2019-10-06T11:45:32.000Z</time>
      </trkpt>
      <trkpt lat="43.59072" lon="6.83189">
        <ele>274.20001220703</ele>
        <time>2019-10-06T11:45:38.000Z</time>
      </trkpt>
      <trkpt lat="43.59062" lon="6.83188">
        <ele>273.60000610352</ele>
        <time>2019-10-06T11:45:40.000Z</time>
      </trkpt>
      <trkpt lat="43.59055" lon="6.83183">
        <ele>273.20001220703</ele>
        <time>2019-10-06T11:45:42.000Z</time>
      </trkpt>
      <trkpt lat="43.5901" lon="6.83156">
        <ele>274.39999389648</ele>
        <time>2019-10-06T11:45:55.000Z</time>
      </trkpt>
      <trkpt lat="43.59004" lon="6.83156">
        <ele>274.60000610352</ele>
        <time>2019-10-06T11:45:57.000Z</time>
      </trkpt>
      <trkpt lat="43.59001" lon="6.83155">
        <ele>274.60000610352</ele>
        <time>2019-10-06T11:45:58.000Z</time>
      </trkpt>
      <trkpt lat="43.58992" lon="6.83157">
        <ele>275</ele>
        <time>2019-10-06T11:46:02.000Z</time>
      </trkpt>
      <trkpt lat="43.58986" lon="6.83157">
        <ele>275.60000610352</ele>
        <time>2019-10-06T11:46:05.000Z</time>
      </trkpt>
      <trkpt lat="43.58983" lon="6.83153">
        <ele>275.60000610352</ele>
        <time>2019-10-06T11:46:07.000Z</time>
      </trkpt>
      <trkpt lat="43.5898" lon="6.8314">
        <ele>275.79998779297</ele>
        <time>2019-10-06T11:46:12.000Z</time>
      </trkpt>
      <trkpt lat="43.58978" lon="6.8312">
        <ele>277</ele>
        <time>2019-10-06T11:46:20.000Z</time>
      </trkpt>
      <trkpt lat="43.58951" lon="6.83108">
        <ele>277.79998779297</ele>
        <time>2019-10-06T11:46:36.000Z</time>
      </trkpt>
      <trkpt lat="43.5894" lon="6.83108">
        <ele>278.20001220703</ele>
        <time>2019-10-06T11:46:42.000Z</time>
      </trkpt>
      <trkpt lat="43.58927" lon="6.8311">
        <ele>278.60000610352</ele>
        <time>2019-10-06T11:46:47.000Z</time>
      </trkpt>
      <trkpt lat="43.58924" lon="6.83112">
        <ele>278.79998779297</ele>
        <time>2019-10-06T11:46:48.000Z</time>
      </trkpt>
      <trkpt lat="43.5892" lon="6.83114">
        <ele>278.79998779297</ele>
        <time>2019-10-06T11:46:50.000Z</time>
      </trkpt>
      <trkpt lat="43.58916" lon="6.83117">
        <ele>279.20001220703</ele>
        <time>2019-10-06T11:46:52.000Z</time>
      </trkpt>
      <trkpt lat="43.58914" lon="6.83118">
        <ele>279.20001220703</ele>
        <time>2019-10-06T11:46:53.000Z</time>
      </trkpt>
      <trkpt lat="43.58905" lon="6.83119">
        <ele>279.39999389648</ele>
        <time>2019-10-06T11:46:58.000Z</time>
      </trkpt>
      <trkpt lat="43.58902" lon="6.8311">
        <ele>279.60000610352</ele>
        <time>2019-10-06T11:47:02.000Z</time>
      </trkpt>
      <trkpt lat="43.58901" lon="6.83087">
        <ele>280.39999389648</ele>
        <time>2019-10-06T11:47:10.000Z</time>
      </trkpt>
      <trkpt lat="43.58899" lon="6.83074">
        <ele>281.39999389648</ele>
        <time>2019-10-06T11:47:16.000Z</time>
      </trkpt>
      <trkpt lat="43.58895" lon="6.83052">
        <ele>282.39999389648</ele>
        <time>2019-10-06T11:47:25.000Z</time>
      </trkpt>
      <trkpt lat="43.58894" lon="6.83034">
        <ele>283.60000610352</ele>
        <time>2019-10-06T11:47:32.000Z</time>
      </trkpt>
      <trkpt lat="43.58893" lon="6.83021">
        <ele>284.60000610352</ele>
        <time>2019-10-06T11:47:39.000Z</time>
      </trkpt>
      <trkpt lat="43.58893" lon="6.83001">
        <ele>285.60000610352</ele>
        <time>2019-10-06T11:47:49.000Z</time>
      </trkpt>
      <trkpt lat="43.58894" lon="6.82984">
        <ele>286.39999389648</ele>
        <time>2019-10-06T11:47:57.000Z</time>
      </trkpt>
      <trkpt lat="43.58894" lon="6.82976">
        <ele>286.60000610352</ele>
        <time>2019-10-06T11:48:00.000Z</time>
      </trkpt>
      <trkpt lat="43.58894" lon="6.82973">
        <ele>286.79998779297</ele>
        <time>2019-10-06T11:48:01.000Z</time>
      </trkpt>
      <trkpt lat="43.58893" lon="6.82968">
        <ele>286.79998779297</ele>
        <time>2019-10-06T11:48:03.000Z</time>
      </trkpt>
      <trkpt lat="43.58893" lon="6.82954">
        <ele>286.20001220703</ele>
        <time>2019-10-06T11:48:10.000Z</time>
      </trkpt>
      <trkpt lat="43.58897" lon="6.82947">
        <ele>285.39999389648</ele>
        <time>2019-10-06T11:48:12.000Z</time>
      </trkpt>
      <trkpt lat="43.58904" lon="6.82939">
        <ele>284</ele>
        <time>2019-10-06T11:48:14.000Z</time>
      </trkpt>
      <trkpt lat="43.58906" lon="6.82935">
        <ele>282</ele>
        <time>2019-10-06T11:48:15.000Z</time>
      </trkpt>
      <trkpt lat="43.58909" lon="6.82931">
        <ele>280.60000610352</ele>
        <time>2019-10-06T11:48:16.000Z</time>
      </trkpt>
      <trkpt lat="43.58911" lon="6.82928">
        <ele>279.60000610352</ele>
        <time>2019-10-06T11:48:17.000Z</time>
      </trkpt>
      <trkpt lat="43.58913" lon="6.82924">
        <ele>277.79998779297</ele>
        <time>2019-10-06T11:48:19.000Z</time>
      </trkpt>
      <trkpt lat="43.58914" lon="6.82923">
        <ele>276.79998779297</ele>
        <time>2019-10-06T11:48:21.000Z</time>
      </trkpt>
      <trkpt lat="43.58914" lon="6.82923">
        <ele>276.60000610352</ele>
        <time>2019-10-06T11:48:22.000Z</time>
      </trkpt>
      <trkpt lat="43.58915" lon="6.82916">
        <ele>275.79998779297</ele>
        <time>2019-10-06T11:48:25.000Z</time>
      </trkpt>
      <trkpt lat="43.58914" lon="6.82912">
        <ele>275.20001220703</ele>
        <time>2019-10-06T11:48:26.000Z</time>
      </trkpt>
      <trkpt lat="43.58911" lon="6.82902">
        <ele>274</ele>
        <time>2019-10-06T11:48:29.000Z</time>
      </trkpt>
      <trkpt lat="43.58907" lon="6.82895">
        <ele>272</ele>
        <time>2019-10-06T11:48:31.000Z</time>
      </trkpt>
      <trkpt lat="43.58904" lon="6.82893">
        <ele>271</ele>
        <time>2019-10-06T11:48:32.000Z</time>
      </trkpt>
      <trkpt lat="43.58897" lon="6.82888">
        <ele>269.60000610352</ele>
        <time>2019-10-06T11:48:34.000Z</time>
      </trkpt>
      <trkpt lat="43.58888" lon="6.82881">
        <ele>267.39999389648</ele>
        <time>2019-10-06T11:48:36.000Z</time>
      </trkpt>
      <trkpt lat="43.58879" lon="6.82875">
        <ele>265.79998779297</ele>
        <time>2019-10-06T11:48:38.000Z</time>
      </trkpt>
      <trkpt lat="43.5887" lon="6.82873">
        <ele>264.60000610352</ele>
        <time>2019-10-06T11:48:40.000Z</time>
      </trkpt>
      <trkpt lat="43.58852" lon="6.82869">
        <ele>263.20001220703</ele>
        <time>2019-10-06T11:48:45.000Z</time>
      </trkpt>
      <trkpt lat="43.58841" lon="6.82866">
        <ele>262.79998779297</ele>
        <time>2019-10-06T11:48:48.000Z</time>
      </trkpt>
      <trkpt lat="43.58832" lon="6.82859">
        <ele>261.79998779297</ele>
        <time>2019-10-06T11:48:51.000Z</time>
      </trkpt>
      <trkpt lat="43.58826" lon="6.82849">
        <ele>260.79998779297</ele>
        <time>2019-10-06T11:48:54.000Z</time>
      </trkpt>
      <trkpt lat="43.58807" lon="6.82798">
        <ele>259.39999389648</ele>
        <time>2019-10-06T11:49:11.000Z</time>
      </trkpt>
      <trkpt lat="43.58804" lon="6.82791">
        <ele>258.39999389648</ele>
        <time>2019-10-06T11:49:13.000Z</time>
      </trkpt>
      <trkpt lat="43.58801" lon="6.82786">
        <ele>257.20001220703</ele>
        <time>2019-10-06T11:49:15.000Z</time>
      </trkpt>
      <trkpt lat="43.58797" lon="6.82777">
        <ele>256</ele>
        <time>2019-10-06T11:49:18.000Z</time>
      </trkpt>
      <trkpt lat="43.58793" lon="6.82773">
        <ele>254.39999389648</ele>
        <time>2019-10-06T11:49:20.000Z</time>
      </trkpt>
      <trkpt lat="43.58789" lon="6.82765">
        <ele>253</ele>
        <time>2019-10-06T11:49:22.000Z</time>
      </trkpt>
      <trkpt lat="43.58786" lon="6.82756">
        <ele>251.60000610352</ele>
        <time>2019-10-06T11:49:24.000Z</time>
      </trkpt>
      <trkpt lat="43.58784" lon="6.8275">
        <ele>250.60000610352</ele>
        <time>2019-10-06T11:49:25.000Z</time>
      </trkpt>
      <trkpt lat="43.58782" lon="6.82746">
        <ele>249.19999694824</ele>
        <time>2019-10-06T11:49:26.000Z</time>
      </trkpt>
      <trkpt lat="43.5878" lon="6.82738">
        <ele>247.80000305176</ele>
        <time>2019-10-06T11:49:28.000Z</time>
      </trkpt>
      <trkpt lat="43.58777" lon="6.82732">
        <ele>246.60000610352</ele>
        <time>2019-10-06T11:49:30.000Z</time>
      </trkpt>
      <trkpt lat="43.58773" lon="6.82723">
        <ele>245</ele>
        <time>2019-10-06T11:49:33.000Z</time>
      </trkpt>
      <trkpt lat="43.58773" lon="6.82721">
        <ele>244</ele>
        <time>2019-10-06T11:49:34.000Z</time>
      </trkpt>
      <trkpt lat="43.58772" lon="6.82719">
        <ele>243</ele>
        <time>2019-10-06T11:49:35.000Z</time>
      </trkpt>
      <trkpt lat="43.58772" lon="6.82718">
        <ele>242.60000610352</ele>
        <time>2019-10-06T11:49:36.000Z</time>
      </trkpt>
      <trkpt lat="43.58772" lon="6.82716">
        <ele>242.39999389648</ele>
        <time>2019-10-06T11:49:37.000Z</time>
      </trkpt>
      <trkpt lat="43.58772" lon="6.82715">
        <ele>242.19999694824</ele>
        <time>2019-10-06T11:49:38.000Z</time>
      </trkpt>
      <trkpt lat="43.58771" lon="6.82714">
        <ele>242</ele>
        <time>2019-10-06T11:49:39.000Z</time>
      </trkpt>
      <trkpt lat="43.58771" lon="6.82712">
        <ele>241.80000305176</ele>
        <time>2019-10-06T11:49:40.000Z</time>
      </trkpt>
      <trkpt lat="43.5877" lon="6.82703">
        <ele>240.60000610352</ele>
        <time>2019-10-06T11:49:45.000Z</time>
      </trkpt>
      <trkpt lat="43.58768" lon="6.82695">
        <ele>239.60000610352</ele>
        <time>2019-10-06T11:49:48.000Z</time>
      </trkpt>
      <trkpt lat="43.58768" lon="6.82691">
        <ele>238.80000305176</ele>
        <time>2019-10-06T11:49:50.000Z</time>
      </trkpt>
      <trkpt lat="43.58769" lon="6.82686">
        <ele>237.80000305176</ele>
        <time>2019-10-06T11:49:52.000Z</time>
      </trkpt>
      <trkpt lat="43.58769" lon="6.82684">
        <ele>237.19999694824</ele>
        <time>2019-10-06T11:49:53.000Z</time>
      </trkpt>
      <trkpt lat="43.58767" lon="6.82675">
        <ele>235.80000305176</ele>
        <time>2019-10-06T11:49:56.000Z</time>
      </trkpt>
      <trkpt lat="43.58761" lon="6.82665">
        <ele>234.39999389648</ele>
        <time>2019-10-06T11:49:59.000Z</time>
      </trkpt>
      <trkpt lat="43.58754" lon="6.82654">
        <ele>233.39999389648</ele>
        <time>2019-10-06T11:50:03.000Z</time>
      </trkpt>
      <trkpt lat="43.58751" lon="6.8265">
        <ele>232.60000610352</ele>
        <time>2019-10-06T11:50:05.000Z</time>
      </trkpt>
      <trkpt lat="43.5875" lon="6.82647">
        <ele>232.39999389648</ele>
        <time>2019-10-06T11:50:06.000Z</time>
      </trkpt>
      <trkpt lat="43.58748" lon="6.82642">
        <ele>231.60000610352</ele>
        <time>2019-10-06T11:50:08.000Z</time>
      </trkpt>
      <trkpt lat="43.58747" lon="6.8264">
        <ele>231.19999694824</ele>
        <time>2019-10-06T11:50:09.000Z</time>
      </trkpt>
      <trkpt lat="43.58746" lon="6.82637">
        <ele>229.80000305176</ele>
        <time>2019-10-06T11:50:11.000Z</time>
      </trkpt>
      <trkpt lat="43.58743" lon="6.82628">
        <ele>228.80000305176</ele>
        <time>2019-10-06T11:50:19.000Z</time>
      </trkpt>
      <trkpt lat="43.5874" lon="6.82618">
        <ele>227.39999389648</ele>
        <time>2019-10-06T11:50:23.000Z</time>
      </trkpt>
      <trkpt lat="43.58744" lon="6.82617">
        <ele>226.39999389648</ele>
        <time>2019-10-06T11:50:26.000Z</time>
      </trkpt>
      <trkpt lat="43.58749" lon="6.82618">
        <ele>224.80000305176</ele>
        <time>2019-10-06T11:50:29.000Z</time>
      </trkpt>
      <trkpt lat="43.58753" lon="6.82618">
        <ele>223.60000610352</ele>
        <time>2019-10-06T11:50:33.000Z</time>
      </trkpt>
      <trkpt lat="43.58758" lon="6.8262">
        <ele>222.60000610352</ele>
        <time>2019-10-06T11:50:41.000Z</time>
      </trkpt>
      <trkpt lat="43.58763" lon="6.82621">
        <ele>221.80000305176</ele>
        <time>2019-10-06T11:50:46.000Z</time>
      </trkpt>
      <trkpt lat="43.58765" lon="6.8262">
        <ele>221.60000610352</ele>
        <time>2019-10-06T11:50:48.000Z</time>
      </trkpt>
      <trkpt lat="43.58769" lon="6.82618">
        <ele>220.60000610352</ele>
        <time>2019-10-06T11:50:53.000Z</time>
      </trkpt>
      <trkpt lat="43.58772" lon="6.82615">
        <ele>219.39999389648</ele>
        <time>2019-10-06T11:50:56.000Z</time>
      </trkpt>
      <trkpt lat="43.58773" lon="6.82614">
        <ele>219.19999694824</ele>
        <time>2019-10-06T11:50:58.000Z</time>
      </trkpt>
      <trkpt lat="43.58773" lon="6.82612">
        <ele>218.60000610352</ele>
        <time>2019-10-06T11:51:02.000Z</time>
      </trkpt>
      <trkpt lat="43.58769" lon="6.82603">
        <ele>218.39999389648</ele>
        <time>2019-10-06T11:51:06.000Z</time>
      </trkpt>
      <trkpt lat="43.58765" lon="6.82596">
        <ele>217.80000305176</ele>
        <time>2019-10-06T11:51:09.000Z</time>
      </trkpt>
      <trkpt lat="43.58762" lon="6.8259">
        <ele>217.39999389648</ele>
        <time>2019-10-06T11:51:11.000Z</time>
      </trkpt>
      <trkpt lat="43.58761" lon="6.82587">
        <ele>217.19999694824</ele>
        <time>2019-10-06T11:51:12.000Z</time>
      </trkpt>
      <trkpt lat="43.58759" lon="6.8258">
        <ele>216.19999694824</ele>
        <time>2019-10-06T11:51:14.000Z</time>
      </trkpt>
      <trkpt lat="43.58753" lon="6.82573">
        <ele>215</ele>
        <time>2019-10-06T11:51:16.000Z</time>
      </trkpt>
      <trkpt lat="43.58748" lon="6.82569">
        <ele>213.39999389648</ele>
        <time>2019-10-06T11:51:18.000Z</time>
      </trkpt>
      <trkpt lat="43.58744" lon="6.82564">
        <ele>212.19999694824</ele>
        <time>2019-10-06T11:51:20.000Z</time>
      </trkpt>
      <trkpt lat="43.58743" lon="6.82561">
        <ele>212</ele>
        <time>2019-10-06T11:51:21.000Z</time>
      </trkpt>
      <trkpt lat="43.58742" lon="6.82554">
        <ele>211</ele>
        <time>2019-10-06T11:51:23.000Z</time>
      </trkpt>
      <trkpt lat="43.58744" lon="6.82545">
        <ele>210.19999694824</ele>
        <time>2019-10-06T11:51:26.000Z</time>
      </trkpt>
      <trkpt lat="43.58745" lon="6.82542">
        <ele>210</ele>
        <time>2019-10-06T11:51:27.000Z</time>
      </trkpt>
      <trkpt lat="43.58747" lon="6.8254">
        <ele>209.80000305176</ele>
        <time>2019-10-06T11:51:28.000Z</time>
      </trkpt>
      <trkpt lat="43.58756" lon="6.82539">
        <ele>209.39999389648</ele>
        <time>2019-10-06T11:51:32.000Z</time>
      </trkpt>
      <trkpt lat="43.58761" lon="6.82542">
        <ele>209</ele>
        <time>2019-10-06T11:51:34.000Z</time>
      </trkpt>
      <trkpt lat="43.58764" lon="6.82544">
        <ele>208.80000305176</ele>
        <time>2019-10-06T11:51:35.000Z</time>
      </trkpt>
      <trkpt lat="43.58768" lon="6.82545">
        <ele>208.60000610352</ele>
        <time>2019-10-06T11:51:36.000Z</time>
      </trkpt>
      <trkpt lat="43.58773" lon="6.82543">
        <ele>207.39999389648</ele>
        <time>2019-10-06T11:51:38.000Z</time>
      </trkpt>
      <trkpt lat="43.58776" lon="6.82539">
        <ele>206.39999389648</ele>
        <time>2019-10-06T11:51:43.000Z</time>
      </trkpt>
      <trkpt lat="43.58778" lon="6.82517">
        <ele>207.19999694824</ele>
        <time>2019-10-06T11:52:10.000Z</time>
      </trkpt>
      <trkpt lat="43.58776" lon="6.82511">
        <ele>207.80000305176</ele>
        <time>2019-10-06T11:52:14.000Z</time>
      </trkpt>
      <trkpt lat="43.58776" lon="6.82507">
        <ele>208.19999694824</ele>
        <time>2019-10-06T11:52:24.000Z</time>
      </trkpt>
      <trkpt lat="43.58778" lon="6.82503">
        <ele>208.39999389648</ele>
        <time>2019-10-06T11:52:30.000Z</time>
      </trkpt>
      <trkpt lat="43.58779" lon="6.82501">
        <ele>208.39999389648</ele>
        <time>2019-10-06T11:52:32.000Z</time>
      </trkpt>
      <trkpt lat="43.5878" lon="6.82499">
        <ele>208.80000305176</ele>
        <time>2019-10-06T11:52:35.000Z</time>
      </trkpt>
      <trkpt lat="43.58783" lon="6.82494">
        <ele>210.19999694824</ele>
        <time>2019-10-06T11:52:42.000Z</time>
      </trkpt>
      <trkpt lat="43.58788" lon="6.82484">
        <ele>211.19999694824</ele>
        <time>2019-10-06T11:52:55.000Z</time>
      </trkpt>
      <trkpt lat="43.58791" lon="6.8248">
        <ele>212.19999694824</ele>
        <time>2019-10-06T11:53:05.000Z</time>
      </trkpt>
      <trkpt lat="43.58796" lon="6.82476">
        <ele>213.19999694824</ele>
        <time>2019-10-06T11:53:15.000Z</time>
      </trkpt>
      <trkpt lat="43.58802" lon="6.82467">
        <ele>214.39999389648</ele>
        <time>2019-10-06T11:53:30.000Z</time>
      </trkpt>
      <trkpt lat="43.58806" lon="6.82462">
        <ele>215.60000610352</ele>
        <time>2019-10-06T11:53:37.000Z</time>
      </trkpt>
      <trkpt lat="43.58812" lon="6.82451">
        <ele>216.60000610352</ele>
        <time>2019-10-06T11:53:49.000Z</time>
      </trkpt>
      <trkpt lat="43.58821" lon="6.82434">
        <ele>217.60000610352</ele>
        <time>2019-10-06T11:54:03.000Z</time>
      </trkpt>
      <trkpt lat="43.58822" lon="6.82415">
        <ele>219</ele>
        <time>2019-10-06T11:54:15.000Z</time>
      </trkpt>
      <trkpt lat="43.58825" lon="6.82383">
        <ele>220</ele>
        <time>2019-10-06T11:54:33.000Z</time>
      </trkpt>
      <trkpt lat="43.58825" lon="6.82366">
        <ele>221</ele>
        <time>2019-10-06T11:54:40.000Z</time>
      </trkpt>
      <trkpt lat="43.58827" lon="6.82348">
        <ele>222.19999694824</ele>
        <time>2019-10-06T11:54:50.000Z</time>
      </trkpt>
      <trkpt lat="43.58826" lon="6.82331">
        <ele>223.39999389648</ele>
        <time>2019-10-06T11:54:59.000Z</time>
      </trkpt>
      <trkpt lat="43.58826" lon="6.82314">
        <ele>224.39999389648</ele>
        <time>2019-10-06T11:55:07.000Z</time>
      </trkpt>
      <trkpt lat="43.58824" lon="6.82296">
        <ele>225.80000305176</ele>
        <time>2019-10-06T11:55:15.000Z</time>
      </trkpt>
      <trkpt lat="43.58822" lon="6.82275">
        <ele>226.80000305176</ele>
        <time>2019-10-06T11:55:23.000Z</time>
      </trkpt>
      <trkpt lat="43.58821" lon="6.82257">
        <ele>227.80000305176</ele>
        <time>2019-10-06T11:55:30.000Z</time>
      </trkpt>
      <trkpt lat="43.58818" lon="6.82242">
        <ele>229</ele>
        <time>2019-10-06T11:55:36.000Z</time>
      </trkpt>
      <trkpt lat="43.58815" lon="6.82226">
        <ele>230.19999694824</ele>
        <time>2019-10-06T11:55:42.000Z</time>
      </trkpt>
      <trkpt lat="43.58812" lon="6.8221">
        <ele>230.80000305176</ele>
        <time>2019-10-06T11:55:48.000Z</time>
      </trkpt>
      <trkpt lat="43.58812" lon="6.82204">
        <ele>231</ele>
        <time>2019-10-06T11:55:50.000Z</time>
      </trkpt>
      <trkpt lat="43.58812" lon="6.82196">
        <ele>231.19999694824</ele>
        <time>2019-10-06T11:55:53.000Z</time>
      </trkpt>
      <trkpt lat="43.58823" lon="6.82156">
        <ele>232.19999694824</ele>
        <time>2019-10-06T11:56:05.000Z</time>
      </trkpt>
      <trkpt lat="43.58824" lon="6.82149">
        <ele>232.19999694824</ele>
        <time>2019-10-06T11:56:07.000Z</time>
      </trkpt>
      <trkpt lat="43.58827" lon="6.82123">
        <ele>233</ele>
        <time>2019-10-06T11:56:15.000Z</time>
      </trkpt>
      <trkpt lat="43.58826" lon="6.82114">
        <ele>233.19999694824</ele>
        <time>2019-10-06T11:56:18.000Z</time>
      </trkpt>
      <trkpt lat="43.58821" lon="6.82107">
        <ele>233.60000610352</ele>
        <time>2019-10-06T11:56:21.000Z</time>
      </trkpt>
      <trkpt lat="43.58798" lon="6.82073">
        <ele>233.60000610352</ele>
        <time>2019-10-06T11:56:35.000Z</time>
      </trkpt>
      <trkpt lat="43.58764" lon="6.82051">
        <ele>234.39999389648</ele>
        <time>2019-10-06T11:56:51.000Z</time>
      </trkpt>
      <trkpt lat="43.58747" lon="6.82051">
        <ele>235.60000610352</ele>
        <time>2019-10-06T11:57:00.000Z</time>
      </trkpt>
      <trkpt lat="43.58731" lon="6.82056">
        <ele>236.60000610352</ele>
        <time>2019-10-06T11:57:08.000Z</time>
      </trkpt>
      <trkpt lat="43.58717" lon="6.82061">
        <ele>237.19999694824</ele>
        <time>2019-10-06T11:57:15.000Z</time>
      </trkpt>
      <trkpt lat="43.58713" lon="6.82065">
        <ele>237.60000610352</ele>
        <time>2019-10-06T11:57:18.000Z</time>
      </trkpt>
      <trkpt lat="43.58696" lon="6.8208">
        <ele>238.80000305176</ele>
        <time>2019-10-06T11:57:28.000Z</time>
      </trkpt>
      <trkpt lat="43.58682" lon="6.82092">
        <ele>239.80000305176</ele>
        <time>2019-10-06T11:57:37.000Z</time>
      </trkpt>
      <trkpt lat="43.58674" lon="6.82095">
        <ele>240.60000610352</ele>
        <time>2019-10-06T11:57:42.000Z</time>
      </trkpt>
      <trkpt lat="43.58664" lon="6.82098">
        <ele>241</ele>
        <time>2019-10-06T11:57:47.000Z</time>
      </trkpt>
      <trkpt lat="43.58652" lon="6.82102">
        <ele>242</ele>
        <time>2019-10-06T11:57:54.000Z</time>
      </trkpt>
      <trkpt lat="43.58636" lon="6.82107">
        <ele>243</ele>
        <time>2019-10-06T11:58:03.000Z</time>
      </trkpt>
      <trkpt lat="43.58618" lon="6.82101">
        <ele>244.19999694824</ele>
        <time>2019-10-06T11:58:15.000Z</time>
      </trkpt>
      <trkpt lat="43.58616" lon="6.82097">
        <ele>244.39999389648</ele>
        <time>2019-10-06T11:58:18.000Z</time>
      </trkpt>
      <trkpt lat="43.58613" lon="6.82086">
        <ele>245.19999694824</ele>
        <time>2019-10-06T11:58:24.000Z</time>
      </trkpt>
      <trkpt lat="43.58612" lon="6.82075">
        <ele>246.39999389648</ele>
        <time>2019-10-06T11:58:31.000Z</time>
      </trkpt>
      <trkpt lat="43.58613" lon="6.82059">
        <ele>247.60000610352</ele>
        <time>2019-10-06T11:58:41.000Z</time>
      </trkpt>
      <trkpt lat="43.58614" lon="6.8205">
        <ele>248.60000610352</ele>
        <time>2019-10-06T11:58:46.000Z</time>
      </trkpt>
      <trkpt lat="43.58613" lon="6.82048">
        <ele>248.60000610352</ele>
        <time>2019-10-06T11:58:47.000Z</time>
      </trkpt>
      <trkpt lat="43.58607" lon="6.82049">
        <ele>249.19999694824</ele>
        <time>2019-10-06T11:58:52.000Z</time>
      </trkpt>
      <trkpt lat="43.58598" lon="6.82061">
        <ele>249.60000610352</ele>
        <time>2019-10-06T11:59:00.000Z</time>
      </trkpt>
      <trkpt lat="43.58582" lon="6.82087">
        <ele>250.60000610352</ele>
        <time>2019-10-06T11:59:14.000Z</time>
      </trkpt>
      <trkpt lat="43.58563" lon="6.82089">
        <ele>251.80000305176</ele>
        <time>2019-10-06T11:59:24.000Z</time>
      </trkpt>
      <trkpt lat="43.58539" lon="6.82091">
        <ele>252.80000305176</ele>
        <time>2019-10-06T11:59:37.000Z</time>
      </trkpt>
      <trkpt lat="43.58522" lon="6.82109">
        <ele>253.80000305176</ele>
        <time>2019-10-06T11:59:49.000Z</time>
      </trkpt>
      <trkpt lat="43.58517" lon="6.8212">
        <ele>254.19999694824</ele>
        <time>2019-10-06T11:59:54.000Z</time>
      </trkpt>
      <trkpt lat="43.58521" lon="6.82135">
        <ele>254.39999389648</ele>
        <time>2019-10-06T12:00:00.000Z</time>
      </trkpt>
      <trkpt lat="43.58521" lon="6.82138">
        <ele>254.39999389648</ele>
        <time>2019-10-06T12:00:01.000Z</time>
      </trkpt>
      <trkpt lat="43.58526" lon="6.82149">
        <ele>254.80000305176</ele>
        <time>2019-10-06T12:00:06.000Z</time>
      </trkpt>
      <trkpt lat="43.58528" lon="6.82154">
        <ele>255</ele>
        <time>2019-10-06T12:00:08.000Z</time>
      </trkpt>
      <trkpt lat="43.58535" lon="6.8218">
        <ele>256</ele>
        <time>2019-10-06T12:00:18.000Z</time>
      </trkpt>
      <trkpt lat="43.58529" lon="6.82208">
        <ele>257</ele>
        <time>2019-10-06T12:00:30.000Z</time>
      </trkpt>
      <trkpt lat="43.58516" lon="6.82236">
        <ele>258</ele>
        <time>2019-10-06T12:00:42.000Z</time>
      </trkpt>
      <trkpt lat="43.58514" lon="6.82237">
        <ele>258.20001220703</ele>
        <time>2019-10-06T12:00:43.000Z</time>
      </trkpt>
      <trkpt lat="43.58498" lon="6.82251">
        <ele>259</ele>
        <time>2019-10-06T12:00:53.000Z</time>
      </trkpt>
      <trkpt lat="43.58485" lon="6.82263">
        <ele>260.20001220703</ele>
        <time>2019-10-06T12:01:02.000Z</time>
      </trkpt>
      <trkpt lat="43.58476" lon="6.82285">
        <ele>261.20001220703</ele>
        <time>2019-10-06T12:01:13.000Z</time>
      </trkpt>
      <trkpt lat="43.5848" lon="6.82312">
        <ele>262.20001220703</ele>
        <time>2019-10-06T12:01:25.000Z</time>
      </trkpt>
      <trkpt lat="43.58478" lon="6.8234">
        <ele>263</ele>
        <time>2019-10-06T12:01:36.000Z</time>
      </trkpt>
      <trkpt lat="43.58477" lon="6.82347">
        <ele>263.20001220703</ele>
        <time>2019-10-06T12:01:39.000Z</time>
      </trkpt>
      <trkpt lat="43.58471" lon="6.82363">
        <ele>263.79998779297</ele>
        <time>2019-10-06T12:01:46.000Z</time>
      </trkpt>
      <trkpt lat="43.58463" lon="6.82381">
        <ele>264.39999389648</ele>
        <time>2019-10-06T12:01:55.000Z</time>
      </trkpt>
      <trkpt lat="43.58445" lon="6.82384">
        <ele>265</ele>
        <time>2019-10-06T12:02:05.000Z</time>
      </trkpt>
      <trkpt lat="43.5844" lon="6.82376">
        <ele>265</ele>
        <time>2019-10-06T12:02:09.000Z</time>
      </trkpt>
      <trkpt lat="43.58434" lon="6.82364">
        <ele>265.20001220703</ele>
        <time>2019-10-06T12:02:14.000Z</time>
      </trkpt>
      <trkpt lat="43.5843" lon="6.82359">
        <ele>265.39999389648</ele>
        <time>2019-10-06T12:02:16.000Z</time>
      </trkpt>
      <trkpt lat="43.58412" lon="6.82344">
        <ele>265.39999389648</ele>
        <time>2019-10-06T12:02:24.000Z</time>
      </trkpt>
      <trkpt lat="43.58358" lon="6.82336">
        <ele>264.60000610352</ele>
        <time>2019-10-06T12:02:43.000Z</time>
      </trkpt>
      <trkpt lat="43.58345" lon="6.82337">
        <ele>264.39999389648</ele>
        <time>2019-10-06T12:02:46.000Z</time>
      </trkpt>
      <trkpt lat="43.58341" lon="6.82337">
        <ele>264.20001220703</ele>
        <time>2019-10-06T12:02:47.000Z</time>
      </trkpt>
      <trkpt lat="43.58308" lon="6.82344">
        <ele>263.39999389648</ele>
        <time>2019-10-06T12:02:55.000Z</time>
      </trkpt>
      <trkpt lat="43.58303" lon="6.82346">
        <ele>263.20001220703</ele>
        <time>2019-10-06T12:02:56.000Z</time>
      </trkpt>
      <trkpt lat="43.58298" lon="6.82348">
        <ele>263</ele>
        <time>2019-10-06T12:02:57.000Z</time>
      </trkpt>
      <trkpt lat="43.58277" lon="6.8235">
        <ele>262.60000610352</ele>
        <time>2019-10-06T12:03:01.000Z</time>
      </trkpt>
      <trkpt lat="43.58256" lon="6.82364">
        <ele>262.20001220703</ele>
        <time>2019-10-06T12:03:05.000Z</time>
      </trkpt>
      <trkpt lat="43.58251" lon="6.82369">
        <ele>262</ele>
        <time>2019-10-06T12:03:06.000Z</time>
      </trkpt>
      <trkpt lat="43.58246" lon="6.82373">
        <ele>262</ele>
        <time>2019-10-06T12:03:07.000Z</time>
      </trkpt>
      <trkpt lat="43.58221" lon="6.8239">
        <ele>261.39999389648</ele>
        <time>2019-10-06T12:03:12.000Z</time>
      </trkpt>
      <trkpt lat="43.5821" lon="6.82397">
        <ele>261</ele>
        <time>2019-10-06T12:03:14.000Z</time>
      </trkpt>
      <trkpt lat="43.58177" lon="6.8241">
        <ele>260.39999389648</ele>
        <time>2019-10-06T12:03:20.000Z</time>
      </trkpt>
      <trkpt lat="43.58161" lon="6.82396">
        <ele>259.60000610352</ele>
        <time>2019-10-06T12:03:23.000Z</time>
      </trkpt>
      <trkpt lat="43.58157" lon="6.8238">
        <ele>258.79998779297</ele>
        <time>2019-10-06T12:03:25.000Z</time>
      </trkpt>
      <trkpt lat="43.58155" lon="6.82372">
        <ele>258.60000610352</ele>
        <time>2019-10-06T12:03:26.000Z</time>
      </trkpt>
      <trkpt lat="43.58154" lon="6.82364">
        <ele>258.60000610352</ele>
        <time>2019-10-06T12:03:27.000Z</time>
      </trkpt>
      <trkpt lat="43.58151" lon="6.82328">
        <ele>257.60000610352</ele>
        <time>2019-10-06T12:03:31.000Z</time>
      </trkpt>
      <trkpt lat="43.58152" lon="6.82319">
        <ele>257.39999389648</ele>
        <time>2019-10-06T12:03:32.000Z</time>
      </trkpt>
      <trkpt lat="43.58164" lon="6.82286">
        <ele>256.39999389648</ele>
        <time>2019-10-06T12:03:36.000Z</time>
      </trkpt>
      <trkpt lat="43.58167" lon="6.82277">
        <ele>256.39999389648</ele>
        <time>2019-10-06T12:03:37.000Z</time>
      </trkpt>
      <trkpt lat="43.58169" lon="6.82269">
        <ele>256.20001220703</ele>
        <time>2019-10-06T12:03:38.000Z</time>
      </trkpt>
      <trkpt lat="43.58168" lon="6.8226">
        <ele>256.20001220703</ele>
        <time>2019-10-06T12:03:39.000Z</time>
      </trkpt>
      <trkpt lat="43.58154" lon="6.82245">
        <ele>255.60000610352</ele>
        <time>2019-10-06T12:03:42.000Z</time>
      </trkpt>
      <trkpt lat="43.5814" lon="6.82245">
        <ele>255.39999389648</ele>
        <time>2019-10-06T12:03:44.000Z</time>
      </trkpt>
      <trkpt lat="43.58106" lon="6.8225">
        <ele>254.19999694824</ele>
        <time>2019-10-06T12:03:49.000Z</time>
      </trkpt>
      <trkpt lat="43.58081" lon="6.82243">
        <ele>253.39999389648</ele>
        <time>2019-10-06T12:03:53.000Z</time>
      </trkpt>
      <trkpt lat="43.58068" lon="6.82238">
        <ele>253.19999694824</ele>
        <time>2019-10-06T12:03:55.000Z</time>
      </trkpt>
      <trkpt lat="43.5805" lon="6.82227">
        <ele>252.80000305176</ele>
        <time>2019-10-06T12:03:58.000Z</time>
      </trkpt>
      <trkpt lat="43.58027" lon="6.82211">
        <ele>252</ele>
        <time>2019-10-06T12:04:02.000Z</time>
      </trkpt>
      <trkpt lat="43.58015" lon="6.82203">
        <ele>251.60000610352</ele>
        <time>2019-10-06T12:04:04.000Z</time>
      </trkpt>
      <trkpt lat="43.5799" lon="6.82189">
        <ele>251</ele>
        <time>2019-10-06T12:04:08.000Z</time>
      </trkpt>
      <trkpt lat="43.57983" lon="6.82186">
        <ele>250.80000305176</ele>
        <time>2019-10-06T12:04:09.000Z</time>
      </trkpt>
      <trkpt lat="43.57932" lon="6.8216">
        <ele>249.80000305176</ele>
        <time>2019-10-06T12:04:17.000Z</time>
      </trkpt>
      <trkpt lat="43.57904" lon="6.82218">
        <ele>249.60000610352</ele>
        <time>2019-10-06T12:04:28.000Z</time>
      </trkpt>
      <trkpt lat="43.57903" lon="6.82224">
        <ele>249.80000305176</ele>
        <time>2019-10-06T12:04:29.000Z</time>
      </trkpt>
      <trkpt lat="43.57872" lon="6.82256">
        <ele>250.80000305176</ele>
        <time>2019-10-06T12:04:42.000Z</time>
      </trkpt>
      <trkpt lat="43.57869" lon="6.82256">
        <ele>250.80000305176</ele>
        <time>2019-10-06T12:04:43.000Z</time>
      </trkpt>
      <trkpt lat="43.57857" lon="6.82258">
        <ele>251.39999389648</ele>
        <time>2019-10-06T12:04:48.000Z</time>
      </trkpt>
      <trkpt lat="43.57853" lon="6.82257">
        <ele>251.39999389648</ele>
        <time>2019-10-06T12:04:50.000Z</time>
      </trkpt>
      <trkpt lat="43.57845" lon="6.82256">
        <ele>251.80000305176</ele>
        <time>2019-10-06T12:04:53.000Z</time>
      </trkpt>
      <trkpt lat="43.5784" lon="6.82257">
        <ele>252</ele>
        <time>2019-10-06T12:04:55.000Z</time>
      </trkpt>
      <trkpt lat="43.57806" lon="6.82284">
        <ele>251.19999694824</ele>
        <time>2019-10-06T12:05:05.000Z</time>
      </trkpt>
      <trkpt lat="43.57782" lon="6.8232">
        <ele>251</ele>
        <time>2019-10-06T12:05:13.000Z</time>
      </trkpt>
      <trkpt lat="43.57761" lon="6.82361">
        <ele>249.80000305176</ele>
        <time>2019-10-06T12:05:20.000Z</time>
      </trkpt>
      <trkpt lat="43.57755" lon="6.82372">
        <ele>249.39999389648</ele>
        <time>2019-10-06T12:05:22.000Z</time>
      </trkpt>
      <trkpt lat="43.57738" lon="6.82395">
        <ele>249.39999389648</ele>
        <time>2019-10-06T12:05:27.000Z</time>
      </trkpt>
      <trkpt lat="43.57716" lon="6.82419">
        <ele>250.60000610352</ele>
        <time>2019-10-06T12:05:37.000Z</time>
      </trkpt>
      <trkpt lat="43.57715" lon="6.82422">
        <ele>251</ele>
        <time>2019-10-06T12:05:38.000Z</time>
      </trkpt>
      <trkpt lat="43.57707" lon="6.82444">
        <ele>252</ele>
        <time>2019-10-06T12:05:46.000Z</time>
      </trkpt>
      <trkpt lat="43.57695" lon="6.8248">
        <ele>252.19999694824</ele>
        <time>2019-10-06T12:05:55.000Z</time>
      </trkpt>
      <trkpt lat="43.57691" lon="6.82504">
        <ele>251.19999694824</ele>
        <time>2019-10-06T12:05:59.000Z</time>
      </trkpt>
      <trkpt lat="43.57691" lon="6.8251">
        <ele>251</ele>
        <time>2019-10-06T12:06:00.000Z</time>
      </trkpt>
      <trkpt lat="43.57688" lon="6.82529">
        <ele>252</ele>
        <time>2019-10-06T12:06:07.000Z</time>
      </trkpt>
      <trkpt lat="43.57683" lon="6.82546">
        <ele>253.19999694824</ele>
        <time>2019-10-06T12:06:14.000Z</time>
      </trkpt>
      <trkpt lat="43.5765" lon="6.82591">
        <ele>254.19999694824</ele>
        <time>2019-10-06T12:06:31.000Z</time>
      </trkpt>
      <trkpt lat="43.57638" lon="6.82605">
        <ele>254.39999389648</ele>
        <time>2019-10-06T12:06:36.000Z</time>
      </trkpt>
      <trkpt lat="43.57631" lon="6.82614">
        <ele>254.39999389648</ele>
        <time>2019-10-06T12:06:39.000Z</time>
      </trkpt>
      <trkpt lat="43.57602" lon="6.82668">
        <ele>255.19999694824</ele>
        <time>2019-10-06T12:06:55.000Z</time>
      </trkpt>
      <trkpt lat="43.576" lon="6.82671">
        <ele>255.19999694824</ele>
        <time>2019-10-06T12:06:56.000Z</time>
      </trkpt>
      <trkpt lat="43.57596" lon="6.82678">
        <ele>255.39999389648</ele>
        <time>2019-10-06T12:06:58.000Z</time>
      </trkpt>
      <trkpt lat="43.57594" lon="6.82681">
        <ele>255.39999389648</ele>
        <time>2019-10-06T12:06:59.000Z</time>
      </trkpt>
      <trkpt lat="43.57592" lon="6.82685">
        <ele>255.60000610352</ele>
        <time>2019-10-06T12:07:00.000Z</time>
      </trkpt>
      <trkpt lat="43.57588" lon="6.82692">
        <ele>255.60000610352</ele>
        <time>2019-10-06T12:07:02.000Z</time>
      </trkpt>
      <trkpt lat="43.57579" lon="6.82706">
        <ele>256</ele>
        <time>2019-10-06T12:07:06.000Z</time>
      </trkpt>
      <trkpt lat="43.57575" lon="6.82714">
        <ele>256</ele>
        <time>2019-10-06T12:07:08.000Z</time>
      </trkpt>
      <trkpt lat="43.57573" lon="6.82717">
        <ele>256</ele>
        <time>2019-10-06T12:07:09.000Z</time>
      </trkpt>
      <trkpt lat="43.57571" lon="6.82721">
        <ele>256</ele>
        <time>2019-10-06T12:07:10.000Z</time>
      </trkpt>
      <trkpt lat="43.57565" lon="6.82732">
        <ele>256.20001220703</ele>
        <time>2019-10-06T12:07:13.000Z</time>
      </trkpt>
      <trkpt lat="43.57529" lon="6.82789">
        <ele>256.79998779297</ele>
        <time>2019-10-06T12:07:30.000Z</time>
      </trkpt>
      <trkpt lat="43.57517" lon="6.82815">
        <ele>257.20001220703</ele>
        <time>2019-10-06T12:07:37.000Z</time>
      </trkpt>
      <trkpt lat="43.57496" lon="6.82855">
        <ele>258.20001220703</ele>
        <time>2019-10-06T12:07:49.000Z</time>
      </trkpt>
      <trkpt lat="43.57484" lon="6.82867">
        <ele>259.60000610352</ele>
        <time>2019-10-06T12:07:56.000Z</time>
      </trkpt>
      <trkpt lat="43.57479" lon="6.82873">
        <ele>260</ele>
        <time>2019-10-06T12:07:59.000Z</time>
      </trkpt>
      <trkpt lat="43.57471" lon="6.82877">
        <ele>260.39999389648</ele>
        <time>2019-10-06T12:08:03.000Z</time>
      </trkpt>
      <trkpt lat="43.57466" lon="6.82879">
        <ele>260.60000610352</ele>
        <time>2019-10-06T12:08:05.000Z</time>
      </trkpt>
      <trkpt lat="43.57459" lon="6.82882">
        <ele>260.60000610352</ele>
        <time>2019-10-06T12:08:08.000Z</time>
      </trkpt>
      <trkpt lat="43.57451" lon="6.82916">
        <ele>261.79998779297</ele>
        <time>2019-10-06T12:08:20.000Z</time>
      </trkpt>
      <trkpt lat="43.57449" lon="6.82919">
        <ele>261.79998779297</ele>
        <time>2019-10-06T12:08:21.000Z</time>
      </trkpt>
      <trkpt lat="43.57401" lon="6.82959">
        <ele>262.20001220703</ele>
        <time>2019-10-06T12:08:43.000Z</time>
      </trkpt>
      <trkpt lat="43.57362" lon="6.82973">
        <ele>262.60000610352</ele>
        <time>2019-10-06T12:09:00.000Z</time>
      </trkpt>
      <trkpt lat="43.57356" lon="6.82985">
        <ele>263.20001220703</ele>
        <time>2019-10-06T12:09:06.000Z</time>
      </trkpt>
      <trkpt lat="43.5735" lon="6.82989">
        <ele>264</ele>
        <time>2019-10-06T12:09:10.000Z</time>
      </trkpt>
      <trkpt lat="43.57339" lon="6.82995">
        <ele>265</ele>
        <time>2019-10-06T12:09:18.000Z</time>
      </trkpt>
      <trkpt lat="43.5733" lon="6.82994">
        <ele>265.79998779297</ele>
        <time>2019-10-06T12:09:24.000Z</time>
      </trkpt>
      <trkpt lat="43.57327" lon="6.82993">
        <ele>266</ele>
        <time>2019-10-06T12:09:26.000Z</time>
      </trkpt>
      <trkpt lat="43.57316" lon="6.82982">
        <ele>267.20001220703</ele>
        <time>2019-10-06T12:09:36.000Z</time>
      </trkpt>
      <trkpt lat="43.57314" lon="6.82973">
        <ele>268.20001220703</ele>
        <time>2019-10-06T12:09:42.000Z</time>
      </trkpt>
      <trkpt lat="43.57308" lon="6.82958">
        <ele>269.20001220703</ele>
        <time>2019-10-06T12:09:51.000Z</time>
      </trkpt>
      <trkpt lat="43.57303" lon="6.82941">
        <ele>270.39999389648</ele>
        <time>2019-10-06T12:10:00.000Z</time>
      </trkpt>
      <trkpt lat="43.57298" lon="6.82924">
        <ele>271.39999389648</ele>
        <time>2019-10-06T12:10:09.000Z</time>
      </trkpt>
      <trkpt lat="43.57291" lon="6.82906">
        <ele>272.79998779297</ele>
        <time>2019-10-06T12:10:19.000Z</time>
      </trkpt>
      <trkpt lat="43.57283" lon="6.82888">
        <ele>273.79998779297</ele>
        <time>2019-10-06T12:10:29.000Z</time>
      </trkpt>
      <trkpt lat="43.57274" lon="6.82867">
        <ele>274.79998779297</ele>
        <time>2019-10-06T12:10:40.000Z</time>
      </trkpt>
      <trkpt lat="43.57266" lon="6.82846">
        <ele>276</ele>
        <time>2019-10-06T12:10:51.000Z</time>
      </trkpt>
      <trkpt lat="43.5726" lon="6.82833">
        <ele>277</ele>
        <time>2019-10-06T12:10:58.000Z</time>
      </trkpt>
      <trkpt lat="43.57259" lon="6.82831">
        <ele>277.20001220703</ele>
        <time>2019-10-06T12:10:59.000Z</time>
      </trkpt>
      <trkpt lat="43.5725" lon="6.8282">
        <ele>278.20001220703</ele>
        <time>2019-10-06T12:11:08.000Z</time>
      </trkpt>
      <trkpt lat="43.57238" lon="6.82808">
        <ele>279.39999389648</ele>
        <time>2019-10-06T12:11:18.000Z</time>
      </trkpt>
      <trkpt lat="43.57228" lon="6.82797">
        <ele>280.39999389648</ele>
        <time>2019-10-06T12:11:27.000Z</time>
      </trkpt>
      <trkpt lat="43.57217" lon="6.82783">
        <ele>281.39999389648</ele>
        <time>2019-10-06T12:11:37.000Z</time>
      </trkpt>
      <trkpt lat="43.57201" lon="6.82771">
        <ele>282.39999389648</ele>
        <time>2019-10-06T12:11:49.000Z</time>
      </trkpt>
      <trkpt lat="43.57151" lon="6.8279">
        <ele>283.39999389648</ele>
        <time>2019-10-06T12:12:15.000Z</time>
      </trkpt>
      <trkpt lat="43.57145" lon="6.82793">
        <ele>283.79998779297</ele>
        <time>2019-10-06T12:12:35.000Z</time>
      </trkpt>
      <trkpt lat="43.57143" lon="6.82795">
        <ele>283.79998779297</ele>
        <time>2019-10-06T12:12:39.000Z</time>
      </trkpt>
      <trkpt lat="43.57111" lon="6.82815">
        <ele>284.20001220703</ele>
        <time>2019-10-06T12:12:58.000Z</time>
      </trkpt>
      <trkpt lat="43.57102" lon="6.82819">
        <ele>284.60000610352</ele>
        <time>2019-10-06T12:13:03.000Z</time>
      </trkpt>
      <trkpt lat="43.57075" lon="6.82829">
        <ele>285.60000610352</ele>
        <time>2019-10-06T12:13:17.000Z</time>
      </trkpt>
      <trkpt lat="43.57056" lon="6.82838">
        <ele>286.60000610352</ele>
        <time>2019-10-06T12:13:28.000Z</time>
      </trkpt>
      <trkpt lat="43.57035" lon="6.82851">
        <ele>287.60000610352</ele>
        <time>2019-10-06T12:13:40.000Z</time>
      </trkpt>
      <trkpt lat="43.57034" lon="6.82853">
        <ele>287.60000610352</ele>
        <time>2019-10-06T12:13:41.000Z</time>
      </trkpt>
      <trkpt lat="43.57007" lon="6.82866">
        <ele>288.60000610352</ele>
        <time>2019-10-06T12:13:58.000Z</time>
      </trkpt>
      <trkpt lat="43.57" lon="6.82869">
        <ele>289.79998779297</ele>
        <time>2019-10-06T12:14:03.000Z</time>
      </trkpt>
      <trkpt lat="43.56995" lon="6.82871">
        <ele>290.20001220703</ele>
        <time>2019-10-06T12:14:06.000Z</time>
      </trkpt>
      <trkpt lat="43.56991" lon="6.82874">
        <ele>290.60000610352</ele>
        <time>2019-10-06T12:14:09.000Z</time>
      </trkpt>
      <trkpt lat="43.5699" lon="6.82875">
        <ele>290.79998779297</ele>
        <time>2019-10-06T12:14:10.000Z</time>
      </trkpt>
      <trkpt lat="43.56984" lon="6.82883">
        <ele>291.79998779297</ele>
        <time>2019-10-06T12:14:16.000Z</time>
      </trkpt>
      <trkpt lat="43.56983" lon="6.82884">
        <ele>292</ele>
        <time>2019-10-06T12:14:17.000Z</time>
      </trkpt>
      <trkpt lat="43.56977" lon="6.82888">
        <ele>293</ele>
        <time>2019-10-06T12:14:23.000Z</time>
      </trkpt>
      <trkpt lat="43.56967" lon="6.82896">
        <ele>294</ele>
        <time>2019-10-06T12:14:31.000Z</time>
      </trkpt>
      <trkpt lat="43.56967" lon="6.82897">
        <ele>294</ele>
        <time>2019-10-06T12:14:32.000Z</time>
      </trkpt>
      <trkpt lat="43.56955" lon="6.82908">
        <ele>294.79998779297</ele>
        <time>2019-10-06T12:14:58.000Z</time>
      </trkpt>
      <trkpt lat="43.56954" lon="6.82909">
        <ele>294.79998779297</ele>
        <time>2019-10-06T12:14:59.000Z</time>
      </trkpt>
      <trkpt lat="43.56946" lon="6.82918">
        <ele>295</ele>
        <time>2019-10-06T12:15:06.000Z</time>
      </trkpt>
      <trkpt lat="43.56936" lon="6.82928">
        <ele>295.20001220703</ele>
        <time>2019-10-06T12:15:14.000Z</time>
      </trkpt>
      <trkpt lat="43.56924" lon="6.8294">
        <ele>295.60000610352</ele>
        <time>2019-10-06T12:15:24.000Z</time>
      </trkpt>
      <trkpt lat="43.56915" lon="6.82949">
        <ele>296.20001220703</ele>
        <time>2019-10-06T12:15:32.000Z</time>
      </trkpt>
      <trkpt lat="43.56906" lon="6.82962">
        <ele>297.20001220703</ele>
        <time>2019-10-06T12:15:43.000Z</time>
      </trkpt>
      <trkpt lat="43.56902" lon="6.8297">
        <ele>298.60000610352</ele>
        <time>2019-10-06T12:15:48.000Z</time>
      </trkpt>
      <trkpt lat="43.56898" lon="6.82984">
        <ele>299.20001220703</ele>
        <time>2019-10-06T12:15:55.000Z</time>
      </trkpt>
      <trkpt lat="43.56893" lon="6.82998">
        <ele>299.79998779297</ele>
        <time>2019-10-06T12:16:03.000Z</time>
      </trkpt>
      <trkpt lat="43.56872" lon="6.83026">
        <ele>301</ele>
        <time>2019-10-06T12:16:21.000Z</time>
      </trkpt>
      <trkpt lat="43.56862" lon="6.83043">
        <ele>302</ele>
        <time>2019-10-06T12:16:31.000Z</time>
      </trkpt>
      <trkpt lat="43.56851" lon="6.83057">
        <ele>303</ele>
        <time>2019-10-06T12:16:41.000Z</time>
      </trkpt>
      <trkpt lat="43.56842" lon="6.83064">
        <ele>304</ele>
        <time>2019-10-06T12:16:48.000Z</time>
      </trkpt>
      <trkpt lat="43.56837" lon="6.8307">
        <ele>304.39999389648</ele>
        <time>2019-10-06T12:16:52.000Z</time>
      </trkpt>
      <trkpt lat="43.56823" lon="6.83082">
        <ele>305</ele>
        <time>2019-10-06T12:17:02.000Z</time>
      </trkpt>
      <trkpt lat="43.56804" lon="6.83094">
        <ele>306</ele>
        <time>2019-10-06T12:17:14.000Z</time>
      </trkpt>
      <trkpt lat="43.56763" lon="6.83144">
        <ele>306.79998779297</ele>
        <time>2019-10-06T12:17:39.000Z</time>
      </trkpt>
      <trkpt lat="43.56757" lon="6.83151">
        <ele>307</ele>
        <time>2019-10-06T12:17:42.000Z</time>
      </trkpt>
      <trkpt lat="43.56711" lon="6.83191">
        <ele>307.20001220703</ele>
        <time>2019-10-06T12:18:03.000Z</time>
      </trkpt>
      <trkpt lat="43.56693" lon="6.83206">
        <ele>306</ele>
        <time>2019-10-06T12:18:09.000Z</time>
      </trkpt>
      <trkpt lat="43.5668" lon="6.83211">
        <ele>305.79998779297</ele>
        <time>2019-10-06T12:18:12.000Z</time>
      </trkpt>
      <trkpt lat="43.56664" lon="6.83236">
        <ele>304.39999389648</ele>
        <time>2019-10-06T12:18:17.000Z</time>
      </trkpt>
      <trkpt lat="43.5666" lon="6.83252">
        <ele>303.79998779297</ele>
        <time>2019-10-06T12:18:19.000Z</time>
      </trkpt>
      <trkpt lat="43.56658" lon="6.8326">
        <ele>303.39999389648</ele>
        <time>2019-10-06T12:18:20.000Z</time>
      </trkpt>
      <trkpt lat="43.56655" lon="6.83268">
        <ele>302.79998779297</ele>
        <time>2019-10-06T12:18:21.000Z</time>
      </trkpt>
      <trkpt lat="43.56642" lon="6.83287">
        <ele>302.20001220703</ele>
        <time>2019-10-06T12:18:24.000Z</time>
      </trkpt>
      <trkpt lat="43.5663" lon="6.83296">
        <ele>302</ele>
        <time>2019-10-06T12:18:26.000Z</time>
      </trkpt>
      <trkpt lat="43.56619" lon="6.83303">
        <ele>301.60000610352</ele>
        <time>2019-10-06T12:18:28.000Z</time>
      </trkpt>
      <trkpt lat="43.56613" lon="6.83306">
        <ele>301.20001220703</ele>
        <time>2019-10-06T12:18:29.000Z</time>
      </trkpt>
      <trkpt lat="43.56606" lon="6.83308">
        <ele>300.79998779297</ele>
        <time>2019-10-06T12:18:30.000Z</time>
      </trkpt>
      <trkpt lat="43.56587" lon="6.83316">
        <ele>299.79998779297</ele>
        <time>2019-10-06T12:18:33.000Z</time>
      </trkpt>
      <trkpt lat="43.56558" lon="6.8333">
        <ele>298.79998779297</ele>
        <time>2019-10-06T12:18:38.000Z</time>
      </trkpt>
      <trkpt lat="43.56553" lon="6.83335">
        <ele>298.79998779297</ele>
        <time>2019-10-06T12:18:39.000Z</time>
      </trkpt>
      <trkpt lat="43.56545" lon="6.83345">
        <ele>298.60000610352</ele>
        <time>2019-10-06T12:18:41.000Z</time>
      </trkpt>
      <trkpt lat="43.56542" lon="6.8335">
        <ele>298.60000610352</ele>
        <time>2019-10-06T12:18:42.000Z</time>
      </trkpt>
      <trkpt lat="43.56497" lon="6.83393">
        <ele>298.20001220703</ele>
        <time>2019-10-06T12:18:55.000Z</time>
      </trkpt>
      <trkpt lat="43.56492" lon="6.83402">
        <ele>298.20001220703</ele>
        <time>2019-10-06T12:18:57.000Z</time>
      </trkpt>
      <trkpt lat="43.56486" lon="6.83416">
        <ele>297.79998779297</ele>
        <time>2019-10-06T12:19:00.000Z</time>
      </trkpt>
      <trkpt lat="43.56459" lon="6.83476">
        <ele>298.79998779297</ele>
        <time>2019-10-06T12:19:19.000Z</time>
      </trkpt>
      <trkpt lat="43.56455" lon="6.83498">
        <ele>299.79998779297</ele>
        <time>2019-10-06T12:19:28.000Z</time>
      </trkpt>
      <trkpt lat="43.56453" lon="6.83506">
        <ele>300.20001220703</ele>
        <time>2019-10-06T12:19:31.000Z</time>
      </trkpt>
      <trkpt lat="43.56452" lon="6.83516">
        <ele>300.39999389648</ele>
        <time>2019-10-06T12:19:36.000Z</time>
      </trkpt>
      <trkpt lat="43.56451" lon="6.83527">
        <ele>301</ele>
        <time>2019-10-06T12:19:41.000Z</time>
      </trkpt>
      <trkpt lat="43.56439" lon="6.83558">
        <ele>302</ele>
        <time>2019-10-06T12:19:55.000Z</time>
      </trkpt>
      <trkpt lat="43.56438" lon="6.83562">
        <ele>302.20001220703</ele>
        <time>2019-10-06T12:19:57.000Z</time>
      </trkpt>
      <trkpt lat="43.56435" lon="6.83569">
        <ele>302.60000610352</ele>
        <time>2019-10-06T12:20:00.000Z</time>
      </trkpt>
      <trkpt lat="43.56432" lon="6.83576">
        <ele>303</ele>
        <time>2019-10-06T12:20:04.000Z</time>
      </trkpt>
      <trkpt lat="43.56425" lon="6.83593">
        <ele>303.60000610352</ele>
        <time>2019-10-06T12:20:16.000Z</time>
      </trkpt>
      <trkpt lat="43.56425" lon="6.83593">
        <ele>303.39999389648</ele>
        <time>2019-10-06T12:20:36.000Z</time>
      </trkpt>
      <trkpt lat="43.56425" lon="6.83593">
        <ele>303.39999389648</ele>
        <time>2019-10-06T12:21:00.000Z</time>
      </trkpt>
      <trkpt lat="43.56425" lon="6.83593">
        <ele>303.39999389648</ele>
        <time>2019-10-06T12:21:13.000Z</time>
      </trkpt>
      <trkpt lat="43.56425" lon="6.83593">
        <ele>303.39999389648</ele>
        <time>2019-10-06T12:21:27.000Z</time>
      </trkpt>
      <trkpt lat="43.56424" lon="6.83597">
        <ele>303.79998779297</ele>
        <time>2019-10-06T12:22:04.000Z</time>
      </trkpt>
      <trkpt lat="43.56423" lon="6.83607">
        <ele>304.20001220703</ele>
        <time>2019-10-06T12:22:08.000Z</time>
      </trkpt>
      <trkpt lat="43.56421" lon="6.83627">
        <ele>305</ele>
        <time>2019-10-06T12:22:15.000Z</time>
      </trkpt>
      <trkpt lat="43.56419" lon="6.83659">
        <ele>305.79998779297</ele>
        <time>2019-10-06T12:22:26.000Z</time>
      </trkpt>
      <trkpt lat="43.56418" lon="6.83661">
        <ele>306</ele>
        <time>2019-10-06T12:22:27.000Z</time>
      </trkpt>
      <trkpt lat="43.56411" lon="6.83678">
        <ele>306.39999389648</ele>
        <time>2019-10-06T12:22:34.000Z</time>
      </trkpt>
      <trkpt lat="43.56406" lon="6.83693">
        <ele>307.20001220703</ele>
        <time>2019-10-06T12:22:40.000Z</time>
      </trkpt>
      <trkpt lat="43.56405" lon="6.83713">
        <ele>308</ele>
        <time>2019-10-06T12:22:47.000Z</time>
      </trkpt>
      <trkpt lat="43.56404" lon="6.83716">
        <ele>308</ele>
        <time>2019-10-06T12:22:48.000Z</time>
      </trkpt>
      <trkpt lat="43.56404" lon="6.83718">
        <ele>308.20001220703</ele>
        <time>2019-10-06T12:22:49.000Z</time>
      </trkpt>
      <trkpt lat="43.56398" lon="6.83735">
        <ele>308.60000610352</ele>
        <time>2019-10-06T12:22:56.000Z</time>
      </trkpt>
      <trkpt lat="43.56392" lon="6.83748">
        <ele>308.60000610352</ele>
        <time>2019-10-06T12:23:01.000Z</time>
      </trkpt>
      <trkpt lat="43.5639" lon="6.83753">
        <ele>309</ele>
        <time>2019-10-06T12:23:03.000Z</time>
      </trkpt>
      <trkpt lat="43.56384" lon="6.83769">
        <ele>310.20001220703</ele>
        <time>2019-10-06T12:23:10.000Z</time>
      </trkpt>
      <trkpt lat="43.56378" lon="6.83782">
        <ele>311.20001220703</ele>
        <time>2019-10-06T12:23:17.000Z</time>
      </trkpt>
      <trkpt lat="43.56354" lon="6.83829">
        <ele>312</ele>
        <time>2019-10-06T12:23:40.000Z</time>
      </trkpt>
      <trkpt lat="43.56353" lon="6.83845">
        <ele>312.20001220703</ele>
        <time>2019-10-06T12:23:45.000Z</time>
      </trkpt>
      <trkpt lat="43.56346" lon="6.83871">
        <ele>312</ele>
        <time>2019-10-06T12:23:55.000Z</time>
      </trkpt>
      <trkpt lat="43.56341" lon="6.83887">
        <ele>312.20001220703</ele>
        <time>2019-10-06T12:24:01.000Z</time>
      </trkpt>
      <trkpt lat="43.56337" lon="6.839">
        <ele>312.20001220703</ele>
        <time>2019-10-06T12:24:05.000Z</time>
      </trkpt>
      <trkpt lat="43.56333" lon="6.83923">
        <ele>313.20001220703</ele>
        <time>2019-10-06T12:24:14.000Z</time>
      </trkpt>
      <trkpt lat="43.56335" lon="6.8394">
        <ele>314.20001220703</ele>
        <time>2019-10-06T12:24:21.000Z</time>
      </trkpt>
      <trkpt lat="43.56339" lon="6.8395">
        <ele>315</ele>
        <time>2019-10-06T12:24:26.000Z</time>
      </trkpt>
      <trkpt lat="43.56341" lon="6.83958">
        <ele>315.39999389648</ele>
        <time>2019-10-06T12:24:30.000Z</time>
      </trkpt>
      <trkpt lat="43.56344" lon="6.83987">
        <ele>316</ele>
        <time>2019-10-06T12:24:42.000Z</time>
      </trkpt>
      <trkpt lat="43.56342" lon="6.84001">
        <ele>316.39999389648</ele>
        <time>2019-10-06T12:24:48.000Z</time>
      </trkpt>
      <trkpt lat="43.56333" lon="6.84031">
        <ele>317.39999389648</ele>
        <time>2019-10-06T12:25:01.000Z</time>
      </trkpt>
      <trkpt lat="43.56327" lon="6.84052">
        <ele>318.39999389648</ele>
        <time>2019-10-06T12:25:11.000Z</time>
      </trkpt>
      <trkpt lat="43.56316" lon="6.84096">
        <ele>319.60000610352</ele>
        <time>2019-10-06T12:25:35.000Z</time>
      </trkpt>
      <trkpt lat="43.56313" lon="6.84104">
        <ele>320.79998779297</ele>
        <time>2019-10-06T12:25:43.000Z</time>
      </trkpt>
      <trkpt lat="43.56313" lon="6.84105">
        <ele>321</ele>
        <time>2019-10-06T12:26:03.000Z</time>
      </trkpt>
      <trkpt lat="43.56313" lon="6.84105">
        <ele>321</ele>
        <time>2019-10-06T12:26:21.000Z</time>
      </trkpt>
      <trkpt lat="43.56311" lon="6.84111">
        <ele>321.60000610352</ele>
        <time>2019-10-06T12:26:32.000Z</time>
      </trkpt>
      <trkpt lat="43.56309" lon="6.84118">
        <ele>322.60000610352</ele>
        <time>2019-10-06T12:26:40.000Z</time>
      </trkpt>
      <trkpt lat="43.56307" lon="6.84124">
        <ele>323.60000610352</ele>
        <time>2019-10-06T12:26:46.000Z</time>
      </trkpt>
      <trkpt lat="43.56302" lon="6.84134">
        <ele>324.79998779297</ele>
        <time>2019-10-06T12:26:56.000Z</time>
      </trkpt>
      <trkpt lat="43.563" lon="6.84143">
        <ele>325.79998779297</ele>
        <time>2019-10-06T12:27:04.000Z</time>
      </trkpt>
      <trkpt lat="43.56298" lon="6.84146">
        <ele>326.20001220703</ele>
        <time>2019-10-06T12:27:07.000Z</time>
      </trkpt>
      <trkpt lat="43.56296" lon="6.84149">
        <ele>326.60000610352</ele>
        <time>2019-10-06T12:27:10.000Z</time>
      </trkpt>
      <trkpt lat="43.56295" lon="6.84151">
        <ele>326.79998779297</ele>
        <time>2019-10-06T12:27:12.000Z</time>
      </trkpt>
      <trkpt lat="43.56293" lon="6.84153">
        <ele>327.20001220703</ele>
        <time>2019-10-06T12:27:15.000Z</time>
      </trkpt>
      <trkpt lat="43.56289" lon="6.84158">
        <ele>327.60000610352</ele>
        <time>2019-10-06T12:27:21.000Z</time>
      </trkpt>
      <trkpt lat="43.56287" lon="6.8416">
        <ele>328</ele>
        <time>2019-10-06T12:27:24.000Z</time>
      </trkpt>
      <trkpt lat="43.56283" lon="6.84162">
        <ele>328.60000610352</ele>
        <time>2019-10-06T12:27:29.000Z</time>
      </trkpt>
      <trkpt lat="43.56281" lon="6.84163">
        <ele>329</ele>
        <time>2019-10-06T12:27:32.000Z</time>
      </trkpt>
      <trkpt lat="43.56277" lon="6.84165">
        <ele>330.20001220703</ele>
        <time>2019-10-06T12:27:39.000Z</time>
      </trkpt>
      <trkpt lat="43.56272" lon="6.8417">
        <ele>330.79998779297</ele>
        <time>2019-10-06T12:27:54.000Z</time>
      </trkpt>
      <trkpt lat="43.56271" lon="6.84171">
        <ele>331</ele>
        <time>2019-10-06T12:27:56.000Z</time>
      </trkpt>
      <trkpt lat="43.56271" lon="6.84173">
        <ele>331.20001220703</ele>
        <time>2019-10-06T12:27:58.000Z</time>
      </trkpt>
      <trkpt lat="43.56267" lon="6.84178">
        <ele>332.20001220703</ele>
        <time>2019-10-06T12:28:05.000Z</time>
      </trkpt>
      <trkpt lat="43.56264" lon="6.84182">
        <ele>333.39999389648</ele>
        <time>2019-10-06T12:28:12.000Z</time>
      </trkpt>
      <trkpt lat="43.56262" lon="6.84187">
        <ele>334.60000610352</ele>
        <time>2019-10-06T12:28:20.000Z</time>
      </trkpt>
      <trkpt lat="43.5626" lon="6.84191">
        <ele>335.60000610352</ele>
        <time>2019-10-06T12:28:29.000Z</time>
      </trkpt>
      <trkpt lat="43.56257" lon="6.84197">
        <ele>336.79998779297</ele>
        <time>2019-10-06T12:28:43.000Z</time>
      </trkpt>
      <trkpt lat="43.56255" lon="6.84205">
        <ele>337.79998779297</ele>
        <time>2019-10-06T12:28:51.000Z</time>
      </trkpt>
      <trkpt lat="43.56254" lon="6.84208">
        <ele>338.20001220703</ele>
        <time>2019-10-06T12:28:53.000Z</time>
      </trkpt>
      <trkpt lat="43.56254" lon="6.84211">
        <ele>339</ele>
        <time>2019-10-06T12:28:57.000Z</time>
      </trkpt>
      <trkpt lat="43.56255" lon="6.84218">
        <ele>340</ele>
        <time>2019-10-06T12:29:06.000Z</time>
      </trkpt>
      <trkpt lat="43.5626" lon="6.84226">
        <ele>341</ele>
        <time>2019-10-06T12:29:16.000Z</time>
      </trkpt>
      <trkpt lat="43.56262" lon="6.84229">
        <ele>341.20001220703</ele>
        <time>2019-10-06T12:29:19.000Z</time>
      </trkpt>
      <trkpt lat="43.56269" lon="6.84239">
        <ele>342.20001220703</ele>
        <time>2019-10-06T12:29:30.000Z</time>
      </trkpt>
      <trkpt lat="43.5627" lon="6.8424">
        <ele>342.20001220703</ele>
        <time>2019-10-06T12:29:31.000Z</time>
      </trkpt>
      <trkpt lat="43.56272" lon="6.84247">
        <ele>343.20001220703</ele>
        <time>2019-10-06T12:29:39.000Z</time>
      </trkpt>
      <trkpt lat="43.56273" lon="6.84251">
        <ele>343.79998779297</ele>
        <time>2019-10-06T12:29:44.000Z</time>
      </trkpt>
      <trkpt lat="43.56272" lon="6.84255">
        <ele>344.20001220703</ele>
        <time>2019-10-06T12:29:48.000Z</time>
      </trkpt>
      <trkpt lat="43.56267" lon="6.84258">
        <ele>345.20001220703</ele>
        <time>2019-10-06T12:29:55.000Z</time>
      </trkpt>
      <trkpt lat="43.56266" lon="6.84258">
        <ele>345.60000610352</ele>
        <time>2019-10-06T12:29:57.000Z</time>
      </trkpt>
      <trkpt lat="43.5626" lon="6.84256">
        <ele>346.39999389648</ele>
        <time>2019-10-06T12:30:04.000Z</time>
      </trkpt>
      <trkpt lat="43.56249" lon="6.8425">
        <ele>347.39999389648</ele>
        <time>2019-10-06T12:30:17.000Z</time>
      </trkpt>
      <trkpt lat="43.56239" lon="6.84249">
        <ele>348.39999389648</ele>
        <time>2019-10-06T12:30:29.000Z</time>
      </trkpt>
      <trkpt lat="43.56236" lon="6.8425">
        <ele>348.60000610352</ele>
        <time>2019-10-06T12:30:32.000Z</time>
      </trkpt>
      <trkpt lat="43.56232" lon="6.84253">
        <ele>349.20001220703</ele>
        <time>2019-10-06T12:30:36.000Z</time>
      </trkpt>
      <trkpt lat="43.56229" lon="6.84258">
        <ele>349.39999389648</ele>
        <time>2019-10-06T12:30:41.000Z</time>
      </trkpt>
      <trkpt lat="43.56227" lon="6.84259">
        <ele>349.39999389648</ele>
        <time>2019-10-06T12:30:43.000Z</time>
      </trkpt>
      <trkpt lat="43.56221" lon="6.84267">
        <ele>350.60000610352</ele>
        <time>2019-10-06T12:30:53.000Z</time>
      </trkpt>
      <trkpt lat="43.56214" lon="6.84273">
        <ele>351.79998779297</ele>
        <time>2019-10-06T12:31:02.000Z</time>
      </trkpt>
      <trkpt lat="43.56213" lon="6.84274">
        <ele>352</ele>
        <time>2019-10-06T12:31:05.000Z</time>
      </trkpt>
      <trkpt lat="43.56213" lon="6.84274">
        <ele>352</ele>
        <time>2019-10-06T12:31:08.000Z</time>
      </trkpt>
      <trkpt lat="43.56213" lon="6.84274">
        <ele>352.20001220703</ele>
        <time>2019-10-06T12:31:18.000Z</time>
      </trkpt>
      <trkpt lat="43.56206" lon="6.84281">
        <ele>352.79998779297</ele>
        <time>2019-10-06T12:31:27.000Z</time>
      </trkpt>
      <trkpt lat="43.56203" lon="6.84285">
        <ele>353.39999389648</ele>
        <time>2019-10-06T12:31:33.000Z</time>
      </trkpt>
      <trkpt lat="43.56202" lon="6.84286">
        <ele>353.79998779297</ele>
        <time>2019-10-06T12:31:35.000Z</time>
      </trkpt>
      <trkpt lat="43.56198" lon="6.84293">
        <ele>354.79998779297</ele>
        <time>2019-10-06T12:31:45.000Z</time>
      </trkpt>
      <trkpt lat="43.56195" lon="6.843">
        <ele>356</ele>
        <time>2019-10-06T12:31:53.000Z</time>
      </trkpt>
      <trkpt lat="43.56194" lon="6.84308">
        <ele>357.39999389648</ele>
        <time>2019-10-06T12:32:02.000Z</time>
      </trkpt>
      <trkpt lat="43.56193" lon="6.84315">
        <ele>358.39999389648</ele>
        <time>2019-10-06T12:32:11.000Z</time>
      </trkpt>
      <trkpt lat="43.56193" lon="6.84319">
        <ele>359.39999389648</ele>
        <time>2019-10-06T12:32:17.000Z</time>
      </trkpt>
      <trkpt lat="43.56193" lon="6.84334">
        <ele>360.79998779297</ele>
        <time>2019-10-06T12:32:31.000Z</time>
      </trkpt>
      <trkpt lat="43.56191" lon="6.84341">
        <ele>361.79998779297</ele>
        <time>2019-10-06T12:32:38.000Z</time>
      </trkpt>
      <trkpt lat="43.56187" lon="6.84346">
        <ele>363</ele>
        <time>2019-10-06T12:32:46.000Z</time>
      </trkpt>
      <trkpt lat="43.56184" lon="6.84346">
        <ele>363.39999389648</ele>
        <time>2019-10-06T12:32:50.000Z</time>
      </trkpt>
      <trkpt lat="43.56181" lon="6.84345">
        <ele>363.60000610352</ele>
        <time>2019-10-06T12:32:53.000Z</time>
      </trkpt>
      <trkpt lat="43.56179" lon="6.84344">
        <ele>364</ele>
        <time>2019-10-06T12:32:55.000Z</time>
      </trkpt>
      <trkpt lat="43.56177" lon="6.84343">
        <ele>364.39999389648</ele>
        <time>2019-10-06T12:32:58.000Z</time>
      </trkpt>
      <trkpt lat="43.56173" lon="6.84344">
        <ele>365</ele>
        <time>2019-10-06T12:33:03.000Z</time>
      </trkpt>
      <trkpt lat="43.56168" lon="6.84346">
        <ele>365.20001220703</ele>
        <time>2019-10-06T12:33:11.000Z</time>
      </trkpt>
      <trkpt lat="43.56164" lon="6.84348">
        <ele>365.39999389648</ele>
        <time>2019-10-06T12:33:15.000Z</time>
      </trkpt>
      <trkpt lat="43.56161" lon="6.84349">
        <ele>365.79998779297</ele>
        <time>2019-10-06T12:33:18.000Z</time>
      </trkpt>
      <trkpt lat="43.5616" lon="6.8435">
        <ele>366.20001220703</ele>
        <time>2019-10-06T12:33:20.000Z</time>
      </trkpt>
      <trkpt lat="43.56157" lon="6.8435">
        <ele>366.20001220703</ele>
        <time>2019-10-06T12:33:24.000Z</time>
      </trkpt>
      <trkpt lat="43.56149" lon="6.84351">
        <ele>367.20001220703</ele>
        <time>2019-10-06T12:33:34.000Z</time>
      </trkpt>
      <trkpt lat="43.56144" lon="6.84353">
        <ele>368.20001220703</ele>
        <time>2019-10-06T12:33:41.000Z</time>
      </trkpt>
      <trkpt lat="43.56143" lon="6.84353">
        <ele>368.39999389648</ele>
        <time>2019-10-06T12:33:42.000Z</time>
      </trkpt>
      <trkpt lat="43.56134" lon="6.84351">
        <ele>369.39999389648</ele>
        <time>2019-10-06T12:33:53.000Z</time>
      </trkpt>
      <trkpt lat="43.56128" lon="6.84353">
        <ele>370.39999389648</ele>
        <time>2019-10-06T12:34:01.000Z</time>
      </trkpt>
      <trkpt lat="43.56126" lon="6.84357">
        <ele>370.60000610352</ele>
        <time>2019-10-06T12:34:08.000Z</time>
      </trkpt>
      <trkpt lat="43.56148" lon="6.84368">
        <ele>371.39999389648</ele>
        <time>2019-10-06T12:34:25.000Z</time>
      </trkpt>
      <trkpt lat="43.56157" lon="6.84377">
        <ele>372.20001220703</ele>
        <time>2019-10-06T12:34:33.000Z</time>
      </trkpt>
      <trkpt lat="43.56161" lon="6.84385">
        <ele>372.39999389648</ele>
        <time>2019-10-06T12:34:38.000Z</time>
      </trkpt>
      <trkpt lat="43.56172" lon="6.84419">
        <ele>373.39999389648</ele>
        <time>2019-10-06T12:34:55.000Z</time>
      </trkpt>
      <trkpt lat="43.56177" lon="6.84428">
        <ele>374.39999389648</ele>
        <time>2019-10-06T12:35:02.000Z</time>
      </trkpt>
      <trkpt lat="43.56185" lon="6.84436">
        <ele>375.60000610352</ele>
        <time>2019-10-06T12:35:10.000Z</time>
      </trkpt>
      <trkpt lat="43.56194" lon="6.84437">
        <ele>376.60000610352</ele>
        <time>2019-10-06T12:35:17.000Z</time>
      </trkpt>
      <trkpt lat="43.56201" lon="6.84441">
        <ele>377.39999389648</ele>
        <time>2019-10-06T12:35:23.000Z</time>
      </trkpt>
      <trkpt lat="43.56201" lon="6.84443">
        <ele>377.60000610352</ele>
        <time>2019-10-06T12:35:24.000Z</time>
      </trkpt>
      <trkpt lat="43.56198" lon="6.84448">
        <ele>378</ele>
        <time>2019-10-06T12:35:29.000Z</time>
      </trkpt>
      <trkpt lat="43.56188" lon="6.84446">
        <ele>378.60000610352</ele>
        <time>2019-10-06T12:35:38.000Z</time>
      </trkpt>
      <trkpt lat="43.56168" lon="6.84433">
        <ele>379.60000610352</ele>
        <time>2019-10-06T12:35:54.000Z</time>
      </trkpt>
      <trkpt lat="43.56155" lon="6.84425">
        <ele>380.20001220703</ele>
        <time>2019-10-06T12:36:02.000Z</time>
      </trkpt>
      <trkpt lat="43.56148" lon="6.84421">
        <ele>380.79998779297</ele>
        <time>2019-10-06T12:36:07.000Z</time>
      </trkpt>
      <trkpt lat="43.56138" lon="6.84419">
        <ele>382</ele>
        <time>2019-10-06T12:36:14.000Z</time>
      </trkpt>
      <trkpt lat="43.5613" lon="6.84416">
        <ele>383.20001220703</ele>
        <time>2019-10-06T12:36:20.000Z</time>
      </trkpt>
      <trkpt lat="43.56117" lon="6.84414">
        <ele>384.20001220703</ele>
        <time>2019-10-06T12:36:28.000Z</time>
      </trkpt>
      <trkpt lat="43.56105" lon="6.84418">
        <ele>385.20001220703</ele>
        <time>2019-10-06T12:36:36.000Z</time>
      </trkpt>
      <trkpt lat="43.56088" lon="6.84426">
        <ele>386.20001220703</ele>
        <time>2019-10-06T12:36:47.000Z</time>
      </trkpt>
      <trkpt lat="43.5608" lon="6.84428">
        <ele>386.79998779297</ele>
        <time>2019-10-06T12:36:52.000Z</time>
      </trkpt>
      <trkpt lat="43.56074" lon="6.84434">
        <ele>387.39999389648</ele>
        <time>2019-10-06T12:36:57.000Z</time>
      </trkpt>
      <trkpt lat="43.56073" lon="6.84438">
        <ele>387.79998779297</ele>
        <time>2019-10-06T12:36:59.000Z</time>
      </trkpt>
      <trkpt lat="43.56076" lon="6.84442">
        <ele>388.60000610352</ele>
        <time>2019-10-06T12:37:02.000Z</time>
      </trkpt>
      <trkpt lat="43.56088" lon="6.84439">
        <ele>389.39999389648</ele>
        <time>2019-10-06T12:37:12.000Z</time>
      </trkpt>
      <trkpt lat="43.56091" lon="6.84439">
        <ele>389.60000610352</ele>
        <time>2019-10-06T12:37:14.000Z</time>
      </trkpt>
      <trkpt lat="43.56103" lon="6.84438">
        <ele>390.60000610352</ele>
        <time>2019-10-06T12:37:23.000Z</time>
      </trkpt>
      <trkpt lat="43.5611" lon="6.8444">
        <ele>391.60000610352</ele>
        <time>2019-10-06T12:37:29.000Z</time>
      </trkpt>
      <trkpt lat="43.56111" lon="6.84441">
        <ele>391.79998779297</ele>
        <time>2019-10-06T12:37:30.000Z</time>
      </trkpt>
      <trkpt lat="43.5613" lon="6.84461">
        <ele>392.60000610352</ele>
        <time>2019-10-06T12:37:47.000Z</time>
      </trkpt>
      <trkpt lat="43.5614" lon="6.84472">
        <ele>393.79998779297</ele>
        <time>2019-10-06T12:37:56.000Z</time>
      </trkpt>
      <trkpt lat="43.56145" lon="6.84482">
        <ele>394.79998779297</ele>
        <time>2019-10-06T12:38:04.000Z</time>
      </trkpt>
      <trkpt lat="43.56148" lon="6.84501">
        <ele>395.60000610352</ele>
        <time>2019-10-06T12:38:15.000Z</time>
      </trkpt>
      <trkpt lat="43.56146" lon="6.84504">
        <ele>396</ele>
        <time>2019-10-06T12:38:17.000Z</time>
      </trkpt>
      <trkpt lat="43.56145" lon="6.84508">
        <ele>396.20001220703</ele>
        <time>2019-10-06T12:38:20.000Z</time>
      </trkpt>
      <trkpt lat="43.56139" lon="6.84521">
        <ele>397</ele>
        <time>2019-10-06T12:38:28.000Z</time>
      </trkpt>
      <trkpt lat="43.56141" lon="6.84561">
        <ele>398.20001220703</ele>
        <time>2019-10-06T12:38:49.000Z</time>
      </trkpt>
      <trkpt lat="43.56152" lon="6.84579">
        <ele>399.39999389648</ele>
        <time>2019-10-06T12:39:02.000Z</time>
      </trkpt>
      <trkpt lat="43.56156" lon="6.84596">
        <ele>400.39999389648</ele>
        <time>2019-10-06T12:39:13.000Z</time>
      </trkpt>
      <trkpt lat="43.56152" lon="6.8461">
        <ele>401.60000610352</ele>
        <time>2019-10-06T12:39:22.000Z</time>
      </trkpt>
      <trkpt lat="43.5614" lon="6.84621">
        <ele>402.39999389648</ele>
        <time>2019-10-06T12:39:32.000Z</time>
      </trkpt>
      <trkpt lat="43.56138" lon="6.84622">
        <ele>402.60000610352</ele>
        <time>2019-10-06T12:39:33.000Z</time>
      </trkpt>
      <trkpt lat="43.56125" lon="6.84633">
        <ele>403.60000610352</ele>
        <time>2019-10-06T12:39:44.000Z</time>
      </trkpt>
      <trkpt lat="43.56112" lon="6.84657">
        <ele>404.60000610352</ele>
        <time>2019-10-06T12:39:58.000Z</time>
      </trkpt>
      <trkpt lat="43.56107" lon="6.8467">
        <ele>405.79998779297</ele>
        <time>2019-10-06T12:40:05.000Z</time>
      </trkpt>
      <trkpt lat="43.56096" lon="6.84695">
        <ele>406.79998779297</ele>
        <time>2019-10-06T12:40:18.000Z</time>
      </trkpt>
      <trkpt lat="43.56093" lon="6.84705">
        <ele>407.79998779297</ele>
        <time>2019-10-06T12:40:25.000Z</time>
      </trkpt>
      <trkpt lat="43.56093" lon="6.84707">
        <ele>407.79998779297</ele>
        <time>2019-10-06T12:40:26.000Z</time>
      </trkpt>
      <trkpt lat="43.56089" lon="6.8473">
        <ele>408.79998779297</ele>
        <time>2019-10-06T12:40:40.000Z</time>
      </trkpt>
      <trkpt lat="43.56081" lon="6.84741">
        <ele>410</ele>
        <time>2019-10-06T12:40:49.000Z</time>
      </trkpt>
      <trkpt lat="43.56068" lon="6.84748">
        <ele>411</ele>
        <time>2019-10-06T12:40:59.000Z</time>
      </trkpt>
      <trkpt lat="43.56063" lon="6.8475">
        <ele>411.39999389648</ele>
        <time>2019-10-06T12:41:03.000Z</time>
      </trkpt>
      <trkpt lat="43.56056" lon="6.84752">
        <ele>412.20001220703</ele>
        <time>2019-10-06T12:41:09.000Z</time>
      </trkpt>
      <trkpt lat="43.5605" lon="6.84755">
        <ele>412.60000610352</ele>
        <time>2019-10-06T12:41:13.000Z</time>
      </trkpt>
      <trkpt lat="43.56045" lon="6.84759">
        <ele>413.20001220703</ele>
        <time>2019-10-06T12:41:18.000Z</time>
      </trkpt>
      <trkpt lat="43.56041" lon="6.84764">
        <ele>414</ele>
        <time>2019-10-06T12:41:23.000Z</time>
      </trkpt>
      <trkpt lat="43.5604" lon="6.84773">
        <ele>414</ele>
        <time>2019-10-06T12:41:27.000Z</time>
      </trkpt>
      <trkpt lat="43.56041" lon="6.84775">
        <ele>414</ele>
        <time>2019-10-06T12:41:28.000Z</time>
      </trkpt>
      <trkpt lat="43.56042" lon="6.84778">
        <ele>414.20001220703</ele>
        <time>2019-10-06T12:41:31.000Z</time>
      </trkpt>
      <trkpt lat="43.56048" lon="6.84783">
        <ele>415</ele>
        <time>2019-10-06T12:41:38.000Z</time>
      </trkpt>
      <trkpt lat="43.56051" lon="6.84785">
        <ele>415.20001220703</ele>
        <time>2019-10-06T12:41:40.000Z</time>
      </trkpt>
      <trkpt lat="43.56068" lon="6.84805">
        <ele>416.39999389648</ele>
        <time>2019-10-06T12:41:55.000Z</time>
      </trkpt>
      <trkpt lat="43.56068" lon="6.84812">
        <ele>416.60000610352</ele>
        <time>2019-10-06T12:41:59.000Z</time>
      </trkpt>
      <trkpt lat="43.56069" lon="6.8482">
        <ele>416.79998779297</ele>
        <time>2019-10-06T12:42:06.000Z</time>
      </trkpt>
      <trkpt lat="43.56069" lon="6.8482">
        <ele>416.79998779297</ele>
        <time>2019-10-06T12:42:16.000Z</time>
      </trkpt>
      <trkpt lat="43.56069" lon="6.84828">
        <ele>417.39999389648</ele>
        <time>2019-10-06T12:42:24.000Z</time>
      </trkpt>
      <trkpt lat="43.56069" lon="6.84843">
        <ele>418.39999389648</ele>
        <time>2019-10-06T12:42:33.000Z</time>
      </trkpt>
      <trkpt lat="43.56077" lon="6.84865">
        <ele>419.39999389648</ele>
        <time>2019-10-06T12:42:46.000Z</time>
      </trkpt>
      <trkpt lat="43.56115" lon="6.84858">
        <ele>419.60000610352</ele>
        <time>2019-10-06T12:43:10.000Z</time>
      </trkpt>
      <trkpt lat="43.56124" lon="6.84859">
        <ele>420.20001220703</ele>
        <time>2019-10-06T12:43:15.000Z</time>
      </trkpt>
      <trkpt lat="43.56135" lon="6.84866">
        <ele>421.20001220703</ele>
        <time>2019-10-06T12:43:23.000Z</time>
      </trkpt>
      <trkpt lat="43.56146" lon="6.84877">
        <ele>422</ele>
        <time>2019-10-06T12:43:32.000Z</time>
      </trkpt>
      <trkpt lat="43.56156" lon="6.84902">
        <ele>423.20001220703</ele>
        <time>2019-10-06T12:43:47.000Z</time>
      </trkpt>
      <trkpt lat="43.56161" lon="6.84915">
        <ele>424.20001220703</ele>
        <time>2019-10-06T12:43:55.000Z</time>
      </trkpt>
      <trkpt lat="43.56169" lon="6.84934">
        <ele>425.60000610352</ele>
        <time>2019-10-06T12:44:05.000Z</time>
      </trkpt>
      <trkpt lat="43.56173" lon="6.84952">
        <ele>426.60000610352</ele>
        <time>2019-10-06T12:44:14.000Z</time>
      </trkpt>
      <trkpt lat="43.56177" lon="6.84969">
        <ele>427.39999389648</ele>
        <time>2019-10-06T12:44:23.000Z</time>
      </trkpt>
      <trkpt lat="43.56177" lon="6.8497">
        <ele>427.60000610352</ele>
        <time>2019-10-06T12:44:24.000Z</time>
      </trkpt>
      <trkpt lat="43.56178" lon="6.84983">
        <ele>428.60000610352</ele>
        <time>2019-10-06T12:44:31.000Z</time>
      </trkpt>
      <trkpt lat="43.56178" lon="6.84987">
        <ele>428.79998779297</ele>
        <time>2019-10-06T12:44:33.000Z</time>
      </trkpt>
      <trkpt lat="43.56175" lon="6.85002">
        <ele>429.60000610352</ele>
        <time>2019-10-06T12:44:42.000Z</time>
      </trkpt>
      <trkpt lat="43.5616" lon="6.85034">
        <ele>430.60000610352</ele>
        <time>2019-10-06T12:45:00.000Z</time>
      </trkpt>
      <trkpt lat="43.56158" lon="6.85046">
        <ele>431.79998779297</ele>
        <time>2019-10-06T12:45:07.000Z</time>
      </trkpt>
      <trkpt lat="43.56153" lon="6.85063">
        <ele>432.79998779297</ele>
        <time>2019-10-06T12:45:18.000Z</time>
      </trkpt>
      <trkpt lat="43.56149" lon="6.85081">
        <ele>433.39999389648</ele>
        <time>2019-10-06T12:45:30.000Z</time>
      </trkpt>
      <trkpt lat="43.56148" lon="6.85088">
        <ele>434</ele>
        <time>2019-10-06T12:45:33.000Z</time>
      </trkpt>
      <trkpt lat="43.56147" lon="6.85106">
        <ele>434.79998779297</ele>
        <time>2019-10-06T12:45:54.000Z</time>
      </trkpt>
      <trkpt lat="43.56151" lon="6.85121">
        <ele>434.79998779297</ele>
        <time>2019-10-06T12:46:02.000Z</time>
      </trkpt>
      <trkpt lat="43.56155" lon="6.85125">
        <ele>435.79998779297</ele>
        <time>2019-10-06T12:46:07.000Z</time>
      </trkpt>
      <trkpt lat="43.56156" lon="6.85126">
        <ele>436</ele>
        <time>2019-10-06T12:46:08.000Z</time>
      </trkpt>
      <trkpt lat="43.56167" lon="6.8513">
        <ele>437.20001220703</ele>
        <time>2019-10-06T12:46:16.000Z</time>
      </trkpt>
      <trkpt lat="43.56184" lon="6.85132">
        <ele>438.20001220703</ele>
        <time>2019-10-06T12:46:28.000Z</time>
      </trkpt>
      <trkpt lat="43.56199" lon="6.85129">
        <ele>439.20001220703</ele>
        <time>2019-10-06T12:46:38.000Z</time>
      </trkpt>
      <trkpt lat="43.56218" lon="6.8512">
        <ele>440.20001220703</ele>
        <time>2019-10-06T12:46:52.000Z</time>
      </trkpt>
      <trkpt lat="43.56229" lon="6.85109">
        <ele>441</ele>
        <time>2019-10-06T12:47:02.000Z</time>
      </trkpt>
      <trkpt lat="43.56247" lon="6.85096">
        <ele>442</ele>
        <time>2019-10-06T12:47:15.000Z</time>
      </trkpt>
      <trkpt lat="43.56264" lon="6.85089">
        <ele>443</ele>
        <time>2019-10-06T12:47:25.000Z</time>
      </trkpt>
      <trkpt lat="43.56266" lon="6.85089">
        <ele>443</ele>
        <time>2019-10-06T12:47:26.000Z</time>
      </trkpt>
      <trkpt lat="43.56289" lon="6.85093">
        <ele>444</ele>
        <time>2019-10-06T12:47:39.000Z</time>
      </trkpt>
      <trkpt lat="43.56303" lon="6.85107">
        <ele>445.20001220703</ele>
        <time>2019-10-06T12:47:50.000Z</time>
      </trkpt>
      <trkpt lat="43.56312" lon="6.85125">
        <ele>446.20001220703</ele>
        <time>2019-10-06T12:48:00.000Z</time>
      </trkpt>
      <trkpt lat="43.56326" lon="6.85149">
        <ele>447.20001220703</ele>
        <time>2019-10-06T12:48:14.000Z</time>
      </trkpt>
      <trkpt lat="43.56335" lon="6.85154">
        <ele>448.39999389648</ele>
        <time>2019-10-06T12:48:21.000Z</time>
      </trkpt>
      <trkpt lat="43.56367" lon="6.85181">
        <ele>449.39999389648</ele>
        <time>2019-10-06T12:48:41.000Z</time>
      </trkpt>
      <trkpt lat="43.56367" lon="6.85183">
        <ele>449.60000610352</ele>
        <time>2019-10-06T12:48:42.000Z</time>
      </trkpt>
      <trkpt lat="43.56363" lon="6.85187">
        <ele>450</ele>
        <time>2019-10-06T12:48:46.000Z</time>
      </trkpt>
      <trkpt lat="43.56359" lon="6.85189">
        <ele>450.39999389648</ele>
        <time>2019-10-06T12:48:49.000Z</time>
      </trkpt>
      <trkpt lat="43.56348" lon="6.85192">
        <ele>451.60000610352</ele>
        <time>2019-10-06T12:48:57.000Z</time>
      </trkpt>
      <trkpt lat="43.56339" lon="6.85193">
        <ele>452.79998779297</ele>
        <time>2019-10-06T12:49:03.000Z</time>
      </trkpt>
      <trkpt lat="43.56329" lon="6.85193">
        <ele>453.79998779297</ele>
        <time>2019-10-06T12:49:09.000Z</time>
      </trkpt>
      <trkpt lat="43.56318" lon="6.85192">
        <ele>454.79998779297</ele>
        <time>2019-10-06T12:49:16.000Z</time>
      </trkpt>
      <trkpt lat="43.56314" lon="6.85191">
        <ele>455</ele>
        <time>2019-10-06T12:49:18.000Z</time>
      </trkpt>
      <trkpt lat="43.56303" lon="6.85188">
        <ele>455.60000610352</ele>
        <time>2019-10-06T12:49:25.000Z</time>
      </trkpt>
      <trkpt lat="43.56297" lon="6.85187">
        <ele>456</ele>
        <time>2019-10-06T12:49:29.000Z</time>
      </trkpt>
      <trkpt lat="43.56275" lon="6.85184">
        <ele>457</ele>
        <time>2019-10-06T12:49:42.000Z</time>
      </trkpt>
      <trkpt lat="43.56253" lon="6.85189">
        <ele>458.20001220703</ele>
        <time>2019-10-06T12:49:55.000Z</time>
      </trkpt>
      <trkpt lat="43.56223" lon="6.85213">
        <ele>459</ele>
        <time>2019-10-06T12:50:13.000Z</time>
      </trkpt>
      <trkpt lat="43.5622" lon="6.85216">
        <ele>459.20001220703</ele>
        <time>2019-10-06T12:50:15.000Z</time>
      </trkpt>
      <trkpt lat="43.56209" lon="6.85223">
        <ele>459.79998779297</ele>
        <time>2019-10-06T12:50:21.000Z</time>
      </trkpt>
      <trkpt lat="43.56196" lon="6.85232">
        <ele>460.20001220703</ele>
        <time>2019-10-06T12:50:29.000Z</time>
      </trkpt>
      <trkpt lat="43.56191" lon="6.85237">
        <ele>460.60000610352</ele>
        <time>2019-10-06T12:50:33.000Z</time>
      </trkpt>
      <trkpt lat="43.56181" lon="6.85245">
        <ele>461</ele>
        <time>2019-10-06T12:50:39.000Z</time>
      </trkpt>
      <trkpt lat="43.5614" lon="6.85273">
        <ele>460.20001220703</ele>
        <time>2019-10-06T12:50:58.000Z</time>
      </trkpt>
      <trkpt lat="43.56137" lon="6.85272">
        <ele>460.20001220703</ele>
        <time>2019-10-06T12:50:59.000Z</time>
      </trkpt>
      <trkpt lat="43.56131" lon="6.85268">
        <ele>460</ele>
        <time>2019-10-06T12:51:01.000Z</time>
      </trkpt>
      <trkpt lat="43.56127" lon="6.85265">
        <ele>459.79998779297</ele>
        <time>2019-10-06T12:51:02.000Z</time>
      </trkpt>
      <trkpt lat="43.56112" lon="6.85248">
        <ele>458.79998779297</ele>
        <time>2019-10-06T12:51:06.000Z</time>
      </trkpt>
      <trkpt lat="43.56087" lon="6.85226">
        <ele>457.60000610352</ele>
        <time>2019-10-06T12:51:12.000Z</time>
      </trkpt>
      <trkpt lat="43.56072" lon="6.85214">
        <ele>457</ele>
        <time>2019-10-06T12:51:16.000Z</time>
      </trkpt>
      <trkpt lat="43.56059" lon="6.85206">
        <ele>456.60000610352</ele>
        <time>2019-10-06T12:51:20.000Z</time>
      </trkpt>
      <trkpt lat="43.56019" lon="6.85174">
        <ele>457</ele>
        <time>2019-10-06T12:51:37.000Z</time>
      </trkpt>
      <trkpt lat="43.56015" lon="6.85164">
        <ele>457.60000610352</ele>
        <time>2019-10-06T12:51:42.000Z</time>
      </trkpt>
      <trkpt lat="43.56009" lon="6.85153">
        <ele>459</ele>
        <time>2019-10-06T12:51:49.000Z</time>
      </trkpt>
      <trkpt lat="43.56008" lon="6.85151">
        <ele>459</ele>
        <time>2019-10-06T12:51:50.000Z</time>
      </trkpt>
      <trkpt lat="43.56004" lon="6.85142">
        <ele>460</ele>
        <time>2019-10-06T12:51:55.000Z</time>
      </trkpt>
      <trkpt lat="43.55996" lon="6.85128">
        <ele>460.60000610352</ele>
        <time>2019-10-06T12:52:03.000Z</time>
      </trkpt>
      <trkpt lat="43.55991" lon="6.85118">
        <ele>461</ele>
        <time>2019-10-06T12:52:08.000Z</time>
      </trkpt>
      <trkpt lat="43.55979" lon="6.85092">
        <ele>461.39999389648</ele>
        <time>2019-10-06T12:52:21.000Z</time>
      </trkpt>
      <trkpt lat="43.55965" lon="6.85069">
        <ele>462</ele>
        <time>2019-10-06T12:52:34.000Z</time>
      </trkpt>
      <trkpt lat="43.55956" lon="6.85054">
        <ele>462.79998779297</ele>
        <time>2019-10-06T12:52:42.000Z</time>
      </trkpt>
      <trkpt lat="43.5593" lon="6.85024">
        <ele>461.39999389648</ele>
        <time>2019-10-06T12:52:54.000Z</time>
      </trkpt>
      <trkpt lat="43.55928" lon="6.8502">
        <ele>461</ele>
        <time>2019-10-06T12:52:55.000Z</time>
      </trkpt>
      <trkpt lat="43.55922" lon="6.85009">
        <ele>459.79998779297</ele>
        <time>2019-10-06T12:52:58.000Z</time>
      </trkpt>
      <trkpt lat="43.55915" lon="6.84998">
        <ele>458.20001220703</ele>
        <time>2019-10-06T12:53:01.000Z</time>
      </trkpt>
      <trkpt lat="43.5591" lon="6.84989">
        <ele>457</ele>
        <time>2019-10-06T12:53:03.000Z</time>
      </trkpt>
      <trkpt lat="43.55908" lon="6.84984">
        <ele>456.39999389648</ele>
        <time>2019-10-06T12:53:04.000Z</time>
      </trkpt>
      <trkpt lat="43.55905" lon="6.84979">
        <ele>455.79998779297</ele>
        <time>2019-10-06T12:53:05.000Z</time>
      </trkpt>
      <trkpt lat="43.559" lon="6.84971">
        <ele>454.20001220703</ele>
        <time>2019-10-06T12:53:07.000Z</time>
      </trkpt>
      <trkpt lat="43.55895" lon="6.84962">
        <ele>453</ele>
        <time>2019-10-06T12:53:09.000Z</time>
      </trkpt>
      <trkpt lat="43.55893" lon="6.84959">
        <ele>452.39999389648</ele>
        <time>2019-10-06T12:53:10.000Z</time>
      </trkpt>
      <trkpt lat="43.55887" lon="6.84952">
        <ele>451.79998779297</ele>
        <time>2019-10-06T12:53:12.000Z</time>
      </trkpt>
      <trkpt lat="43.5588" lon="6.84945">
        <ele>450.60000610352</ele>
        <time>2019-10-06T12:53:14.000Z</time>
      </trkpt>
      <trkpt lat="43.55874" lon="6.84943">
        <ele>449.20001220703</ele>
        <time>2019-10-06T12:53:16.000Z</time>
      </trkpt>
      <trkpt lat="43.55872" lon="6.84943">
        <ele>448.20001220703</ele>
        <time>2019-10-06T12:53:19.000Z</time>
      </trkpt>
      <trkpt lat="43.55872" lon="6.84943">
        <ele>447.79998779297</ele>
        <time>2019-10-06T12:53:29.000Z</time>
      </trkpt>
      <trkpt lat="43.55872" lon="6.84943">
        <ele>447.79998779297</ele>
        <time>2019-10-06T12:53:31.000Z</time>
      </trkpt>
      <trkpt lat="43.55871" lon="6.84943">
        <ele>447.79998779297</ele>
        <time>2019-10-06T12:53:35.000Z</time>
      </trkpt>
      <trkpt lat="43.55863" lon="6.84947">
        <ele>446.79998779297</ele>
        <time>2019-10-06T12:53:39.000Z</time>
      </trkpt>
      <trkpt lat="43.55858" lon="6.8495">
        <ele>445.79998779297</ele>
        <time>2019-10-06T12:53:41.000Z</time>
      </trkpt>
      <trkpt lat="43.55846" lon="6.84956">
        <ele>444.60000610352</ele>
        <time>2019-10-06T12:53:44.000Z</time>
      </trkpt>
      <trkpt lat="43.55836" lon="6.84955">
        <ele>443.20001220703</ele>
        <time>2019-10-06T12:53:46.000Z</time>
      </trkpt>
      <trkpt lat="43.55826" lon="6.8495">
        <ele>442.20001220703</ele>
        <time>2019-10-06T12:53:48.000Z</time>
      </trkpt>
      <trkpt lat="43.55822" lon="6.84949">
        <ele>441.79998779297</ele>
        <time>2019-10-06T12:53:49.000Z</time>
      </trkpt>
      <trkpt lat="43.55812" lon="6.8496">
        <ele>441</ele>
        <time>2019-10-06T12:53:54.000Z</time>
      </trkpt>
      <trkpt lat="43.5581" lon="6.84964">
        <ele>440.79998779297</ele>
        <time>2019-10-06T12:53:55.000Z</time>
      </trkpt>
      <trkpt lat="43.55801" lon="6.84973">
        <ele>440.39999389648</ele>
        <time>2019-10-06T12:53:58.000Z</time>
      </trkpt>
      <trkpt lat="43.55795" lon="6.8498">
        <ele>440.20001220703</ele>
        <time>2019-10-06T12:54:00.000Z</time>
      </trkpt>
      <trkpt lat="43.55788" lon="6.84994">
        <ele>439.60000610352</ele>
        <time>2019-10-06T12:54:03.000Z</time>
      </trkpt>
      <trkpt lat="43.55787" lon="6.85">
        <ele>439.39999389648</ele>
        <time>2019-10-06T12:54:04.000Z</time>
      </trkpt>
      <trkpt lat="43.55784" lon="6.85011">
        <ele>439</ele>
        <time>2019-10-06T12:54:06.000Z</time>
      </trkpt>
      <trkpt lat="43.55778" lon="6.85037">
        <ele>438.20001220703</ele>
        <time>2019-10-06T12:54:11.000Z</time>
      </trkpt>
      <trkpt lat="43.55772" lon="6.85088">
        <ele>437.20001220703</ele>
        <time>2019-10-06T12:54:23.000Z</time>
      </trkpt>
      <trkpt lat="43.55771" lon="6.85096">
        <ele>437</ele>
        <time>2019-10-06T12:54:24.000Z</time>
      </trkpt>
      <trkpt lat="43.55763" lon="6.85127">
        <ele>436.79998779297</ele>
        <time>2019-10-06T12:54:30.000Z</time>
      </trkpt>
      <trkpt lat="43.55746" lon="6.85173">
        <ele>436</ele>
        <time>2019-10-06T12:54:40.000Z</time>
      </trkpt>
      <trkpt lat="43.55743" lon="6.85179">
        <ele>435.60000610352</ele>
        <time>2019-10-06T12:54:41.000Z</time>
      </trkpt>
      <trkpt lat="43.5574" lon="6.85193">
        <ele>434.39999389648</ele>
        <time>2019-10-06T12:54:43.000Z</time>
      </trkpt>
      <trkpt lat="43.55737" lon="6.85208">
        <ele>432.79998779297</ele>
        <time>2019-10-06T12:54:45.000Z</time>
      </trkpt>
      <trkpt lat="43.55735" lon="6.85214">
        <ele>432</ele>
        <time>2019-10-06T12:54:46.000Z</time>
      </trkpt>
      <trkpt lat="43.55732" lon="6.85219">
        <ele>431.39999389648</ele>
        <time>2019-10-06T12:54:47.000Z</time>
      </trkpt>
      <trkpt lat="43.55724" lon="6.85224">
        <ele>430.20001220703</ele>
        <time>2019-10-06T12:54:49.000Z</time>
      </trkpt>
      <trkpt lat="43.55714" lon="6.85227">
        <ele>428.79998779297</ele>
        <time>2019-10-06T12:54:51.000Z</time>
      </trkpt>
      <trkpt lat="43.55705" lon="6.85233">
        <ele>427.79998779297</ele>
        <time>2019-10-06T12:54:53.000Z</time>
      </trkpt>
      <trkpt lat="43.557" lon="6.85237">
        <ele>427.20001220703</ele>
        <time>2019-10-06T12:54:54.000Z</time>
      </trkpt>
      <trkpt lat="43.5569" lon="6.85243">
        <ele>426.39999389648</ele>
        <time>2019-10-06T12:54:56.000Z</time>
      </trkpt>
      <trkpt lat="43.55679" lon="6.85249">
        <ele>426</ele>
        <time>2019-10-06T12:54:58.000Z</time>
      </trkpt>
      <trkpt lat="43.55668" lon="6.85254">
        <ele>425.60000610352</ele>
        <time>2019-10-06T12:55:00.000Z</time>
      </trkpt>
      <trkpt lat="43.55663" lon="6.85257">
        <ele>425.20001220703</ele>
        <time>2019-10-06T12:55:01.000Z</time>
      </trkpt>
      <trkpt lat="43.55649" lon="6.85267">
        <ele>424</ele>
        <time>2019-10-06T12:55:04.000Z</time>
      </trkpt>
      <trkpt lat="43.55644" lon="6.8527">
        <ele>423.79998779297</ele>
        <time>2019-10-06T12:55:05.000Z</time>
      </trkpt>
      <trkpt lat="43.55623" lon="6.85304">
        <ele>423.39999389648</ele>
        <time>2019-10-06T12:55:12.000Z</time>
      </trkpt>
      <trkpt lat="43.55585" lon="6.85331">
        <ele>423.79998779297</ele>
        <time>2019-10-06T12:55:25.000Z</time>
      </trkpt>
      <trkpt lat="43.55561" lon="6.85329">
        <ele>424.39999389648</ele>
        <time>2019-10-06T12:55:34.000Z</time>
      </trkpt>
      <trkpt lat="43.55544" lon="6.85329">
        <ele>425</ele>
        <time>2019-10-06T12:55:41.000Z</time>
      </trkpt>
      <trkpt lat="43.55537" lon="6.85331">
        <ele>425.60000610352</ele>
        <time>2019-10-06T12:55:45.000Z</time>
      </trkpt>
      <trkpt lat="43.55535" lon="6.85332">
        <ele>425.60000610352</ele>
        <time>2019-10-06T12:55:46.000Z</time>
      </trkpt>
      <trkpt lat="43.55534" lon="6.85332">
        <ele>426</ele>
        <time>2019-10-06T12:55:47.000Z</time>
      </trkpt>
      <trkpt lat="43.55533" lon="6.85332">
        <ele>426</ele>
        <time>2019-10-06T12:55:48.000Z</time>
      </trkpt>
      <trkpt lat="43.55524" lon="6.85338">
        <ele>427.20001220703</ele>
        <time>2019-10-06T12:55:55.000Z</time>
      </trkpt>
      <trkpt lat="43.55519" lon="6.8534">
        <ele>427.60000610352</ele>
        <time>2019-10-06T12:55:59.000Z</time>
      </trkpt>
      <trkpt lat="43.55516" lon="6.85341">
        <ele>428.20001220703</ele>
        <time>2019-10-06T12:56:02.000Z</time>
      </trkpt>
      <trkpt lat="43.55498" lon="6.85352">
        <ele>429</ele>
        <time>2019-10-06T12:56:14.000Z</time>
      </trkpt>
      <trkpt lat="43.55493" lon="6.85355">
        <ele>429.20001220703</ele>
        <time>2019-10-06T12:56:18.000Z</time>
      </trkpt>
      <trkpt lat="43.55484" lon="6.8537">
        <ele>429.39999389648</ele>
        <time>2019-10-06T12:56:27.000Z</time>
      </trkpt>
      <trkpt lat="43.55473" lon="6.85383">
        <ele>430.39999389648</ele>
        <time>2019-10-06T12:56:36.000Z</time>
      </trkpt>
      <trkpt lat="43.55465" lon="6.8539">
        <ele>431.20001220703</ele>
        <time>2019-10-06T12:56:43.000Z</time>
      </trkpt>
      <trkpt lat="43.55458" lon="6.85394">
        <ele>431.60000610352</ele>
        <time>2019-10-06T12:56:47.000Z</time>
      </trkpt>
      <trkpt lat="43.55448" lon="6.85398">
        <ele>432.60000610352</ele>
        <time>2019-10-06T12:56:54.000Z</time>
      </trkpt>
      <trkpt lat="43.55447" lon="6.85398">
        <ele>432.60000610352</ele>
        <time>2019-10-06T12:56:55.000Z</time>
      </trkpt>
      <trkpt lat="43.55434" lon="6.85399">
        <ele>432.60000610352</ele>
        <time>2019-10-06T12:57:03.000Z</time>
      </trkpt>
      <trkpt lat="43.55423" lon="6.85387">
        <ele>432.20001220703</ele>
        <time>2019-10-06T12:57:10.000Z</time>
      </trkpt>
      <trkpt lat="43.55391" lon="6.85382">
        <ele>432</ele>
        <time>2019-10-06T12:57:24.000Z</time>
      </trkpt>
      <trkpt lat="43.55381" lon="6.85384">
        <ele>431.60000610352</ele>
        <time>2019-10-06T12:57:27.000Z</time>
      </trkpt>
      <trkpt lat="43.55364" lon="6.85416">
        <ele>432.79998779297</ele>
        <time>2019-10-06T12:57:39.000Z</time>
      </trkpt>
      <trkpt lat="43.55355" lon="6.85427">
        <ele>433.20001220703</ele>
        <time>2019-10-06T12:57:46.000Z</time>
      </trkpt>
      <trkpt lat="43.55351" lon="6.85426">
        <ele>434</ele>
        <time>2019-10-06T12:57:48.000Z</time>
      </trkpt>
      <trkpt lat="43.55342" lon="6.85422">
        <ele>434.79998779297</ele>
        <time>2019-10-06T12:57:53.000Z</time>
      </trkpt>
      <trkpt lat="43.55289" lon="6.854">
        <ele>433.39999389648</ele>
        <time>2019-10-06T12:58:10.000Z</time>
      </trkpt>
      <trkpt lat="43.55278" lon="6.85401">
        <ele>433</ele>
        <time>2019-10-06T12:58:13.000Z</time>
      </trkpt>
      <trkpt lat="43.55264" lon="6.85403">
        <ele>432.39999389648</ele>
        <time>2019-10-06T12:58:17.000Z</time>
      </trkpt>
      <trkpt lat="43.55255" lon="6.85405">
        <ele>432.20001220703</ele>
        <time>2019-10-06T12:58:19.000Z</time>
      </trkpt>
      <trkpt lat="43.55246" lon="6.85407">
        <ele>432</ele>
        <time>2019-10-06T12:58:21.000Z</time>
      </trkpt>
      <trkpt lat="43.55204" lon="6.85412">
        <ele>433.79998779297</ele>
        <time>2019-10-06T12:58:39.000Z</time>
      </trkpt>
      <trkpt lat="43.55197" lon="6.85413">
        <ele>434.20001220703</ele>
        <time>2019-10-06T12:58:43.000Z</time>
      </trkpt>
      <trkpt lat="43.55189" lon="6.85413">
        <ele>435</ele>
        <time>2019-10-06T12:58:48.000Z</time>
      </trkpt>
      <trkpt lat="43.55178" lon="6.85413">
        <ele>436</ele>
        <time>2019-10-06T12:58:55.000Z</time>
      </trkpt>
      <trkpt lat="43.55175" lon="6.85414">
        <ele>436.20001220703</ele>
        <time>2019-10-06T12:58:57.000Z</time>
      </trkpt>
      <trkpt lat="43.55169" lon="6.85422">
        <ele>437</ele>
        <time>2019-10-06T12:59:04.000Z</time>
      </trkpt>
      <trkpt lat="43.5517" lon="6.85424">
        <ele>437.20001220703</ele>
        <time>2019-10-06T12:59:16.000Z</time>
      </trkpt>
      <trkpt lat="43.55169" lon="6.85432">
        <ele>437.60000610352</ele>
        <time>2019-10-06T12:59:24.000Z</time>
      </trkpt>
      <trkpt lat="43.5517" lon="6.85435">
        <ele>437.79998779297</ele>
        <time>2019-10-06T12:59:25.000Z</time>
      </trkpt>
      <trkpt lat="43.5517" lon="6.85439">
        <ele>437.79998779297</ele>
        <time>2019-10-06T12:59:27.000Z</time>
      </trkpt>
      <trkpt lat="43.55172" lon="6.85459">
        <ele>439</ele>
        <time>2019-10-06T12:59:37.000Z</time>
      </trkpt>
      <trkpt lat="43.55174" lon="6.85464">
        <ele>439.20001220703</ele>
        <time>2019-10-06T12:59:40.000Z</time>
      </trkpt>
      <trkpt lat="43.55174" lon="6.85479">
        <ele>440</ele>
        <time>2019-10-06T12:59:47.000Z</time>
      </trkpt>
      <trkpt lat="43.55178" lon="6.85499">
        <ele>441</ele>
        <time>2019-10-06T12:59:56.000Z</time>
      </trkpt>
      <trkpt lat="43.55177" lon="6.85538">
        <ele>441</ele>
        <time>2019-10-06T13:00:10.000Z</time>
      </trkpt>
      <trkpt lat="43.5517" lon="6.85556">
        <ele>440.20001220703</ele>
        <time>2019-10-06T13:00:13.000Z</time>
      </trkpt>
      <trkpt lat="43.55169" lon="6.85576">
        <ele>439.79998779297</ele>
        <time>2019-10-06T13:00:16.000Z</time>
      </trkpt>
      <trkpt lat="43.55169" lon="6.85601">
        <ele>439</ele>
        <time>2019-10-06T13:00:20.000Z</time>
      </trkpt>
      <trkpt lat="43.55169" lon="6.85607">
        <ele>438.60000610352</ele>
        <time>2019-10-06T13:00:21.000Z</time>
      </trkpt>
      <trkpt lat="43.55169" lon="6.85619">
        <ele>438</ele>
        <time>2019-10-06T13:00:23.000Z</time>
      </trkpt>
      <trkpt lat="43.55167" lon="6.85641">
        <ele>437.79998779297</ele>
        <time>2019-10-06T13:00:27.000Z</time>
      </trkpt>
      <trkpt lat="43.55148" lon="6.85685">
        <ele>438.39999389648</ele>
        <time>2019-10-06T13:00:40.000Z</time>
      </trkpt>
      <trkpt lat="43.55145" lon="6.85689">
        <ele>438.79998779297</ele>
        <time>2019-10-06T13:00:42.000Z</time>
      </trkpt>
      <trkpt lat="43.55141" lon="6.85696">
        <ele>439.60000610352</ele>
        <time>2019-10-06T13:00:46.000Z</time>
      </trkpt>
      <trkpt lat="43.5514" lon="6.85698">
        <ele>439.60000610352</ele>
        <time>2019-10-06T13:00:47.000Z</time>
      </trkpt>
      <trkpt lat="43.55139" lon="6.8571">
        <ele>439.79998779297</ele>
        <time>2019-10-06T13:00:52.000Z</time>
      </trkpt>
      <trkpt lat="43.55134" lon="6.85725">
        <ele>438.60000610352</ele>
        <time>2019-10-06T13:00:57.000Z</time>
      </trkpt>
      <trkpt lat="43.5513" lon="6.85734">
        <ele>437.60000610352</ele>
        <time>2019-10-06T13:00:59.000Z</time>
      </trkpt>
      <trkpt lat="43.55126" lon="6.85738">
        <ele>436.39999389648</ele>
        <time>2019-10-06T13:01:00.000Z</time>
      </trkpt>
      <trkpt lat="43.55123" lon="6.85743">
        <ele>435.39999389648</ele>
        <time>2019-10-06T13:01:01.000Z</time>
      </trkpt>
      <trkpt lat="43.5512" lon="6.85747">
        <ele>434.20001220703</ele>
        <time>2019-10-06T13:01:02.000Z</time>
      </trkpt>
      <trkpt lat="43.55115" lon="6.85758">
        <ele>432.79998779297</ele>
        <time>2019-10-06T13:01:04.000Z</time>
      </trkpt>
      <trkpt lat="43.55113" lon="6.85768">
        <ele>431.39999389648</ele>
        <time>2019-10-06T13:01:06.000Z</time>
      </trkpt>
      <trkpt lat="43.55112" lon="6.8578">
        <ele>430</ele>
        <time>2019-10-06T13:01:08.000Z</time>
      </trkpt>
      <trkpt lat="43.55111" lon="6.85793">
        <ele>429</ele>
        <time>2019-10-06T13:01:10.000Z</time>
      </trkpt>
      <trkpt lat="43.5511" lon="6.85806">
        <ele>428.20001220703</ele>
        <time>2019-10-06T13:01:12.000Z</time>
      </trkpt>
      <trkpt lat="43.55109" lon="6.85813">
        <ele>428</ele>
        <time>2019-10-06T13:01:13.000Z</time>
      </trkpt>
      <trkpt lat="43.55107" lon="6.85829">
        <ele>426.60000610352</ele>
        <time>2019-10-06T13:01:15.000Z</time>
      </trkpt>
      <trkpt lat="43.55107" lon="6.85838">
        <ele>426.20001220703</ele>
        <time>2019-10-06T13:01:16.000Z</time>
      </trkpt>
      <trkpt lat="43.55107" lon="6.85854">
        <ele>425.20001220703</ele>
        <time>2019-10-06T13:01:18.000Z</time>
      </trkpt>
      <trkpt lat="43.55111" lon="6.85888">
        <ele>424</ele>
        <time>2019-10-06T13:01:22.000Z</time>
      </trkpt>
      <trkpt lat="43.55113" lon="6.85921">
        <ele>423.60000610352</ele>
        <time>2019-10-06T13:01:26.000Z</time>
      </trkpt>
      <trkpt lat="43.55136" lon="6.85987">
        <ele>424.20001220703</ele>
        <time>2019-10-06T13:01:42.000Z</time>
      </trkpt>
      <trkpt lat="43.55137" lon="6.8599">
        <ele>424.20001220703</ele>
        <time>2019-10-06T13:01:43.000Z</time>
      </trkpt>
      <trkpt lat="43.55136" lon="6.86008">
        <ele>425.39999389648</ele>
        <time>2019-10-06T13:01:48.000Z</time>
      </trkpt>
      <trkpt lat="43.55123" lon="6.86012">
        <ele>425.20001220703</ele>
        <time>2019-10-06T13:01:54.000Z</time>
      </trkpt>
      <trkpt lat="43.55119" lon="6.86009">
        <ele>425</ele>
        <time>2019-10-06T13:01:56.000Z</time>
      </trkpt>
      <trkpt lat="43.55116" lon="6.86008">
        <ele>425</ele>
        <time>2019-10-06T13:01:57.000Z</time>
      </trkpt>
      <trkpt lat="43.55114" lon="6.86007">
        <ele>425</ele>
        <time>2019-10-06T13:01:58.000Z</time>
      </trkpt>
      <trkpt lat="43.55112" lon="6.86006">
        <ele>424.79998779297</ele>
        <time>2019-10-06T13:01:59.000Z</time>
      </trkpt>
      <trkpt lat="43.5511" lon="6.86005">
        <ele>424.79998779297</ele>
        <time>2019-10-06T13:02:00.000Z</time>
      </trkpt>
      <trkpt lat="43.55107" lon="6.86004">
        <ele>424.79998779297</ele>
        <time>2019-10-06T13:02:01.000Z</time>
      </trkpt>
      <trkpt lat="43.55098" lon="6.86001">
        <ele>424.79998779297</ele>
        <time>2019-10-06T13:02:05.000Z</time>
      </trkpt>
      <trkpt lat="43.55086" lon="6.85991">
        <ele>424.39999389648</ele>
        <time>2019-10-06T13:02:10.000Z</time>
      </trkpt>
      <trkpt lat="43.55073" lon="6.85971">
        <ele>423.39999389648</ele>
        <time>2019-10-06T13:02:16.000Z</time>
      </trkpt>
      <trkpt lat="43.55069" lon="6.85961">
        <ele>423.20001220703</ele>
        <time>2019-10-06T13:02:18.000Z</time>
      </trkpt>
      <trkpt lat="43.55059" lon="6.85943">
        <ele>422.79998779297</ele>
        <time>2019-10-06T13:02:22.000Z</time>
      </trkpt>
      <trkpt lat="43.55047" lon="6.85928">
        <ele>422.39999389648</ele>
        <time>2019-10-06T13:02:26.000Z</time>
      </trkpt>
      <trkpt lat="43.55044" lon="6.85925">
        <ele>422.39999389648</ele>
        <time>2019-10-06T13:02:27.000Z</time>
      </trkpt>
      <trkpt lat="43.55041" lon="6.85922">
        <ele>422.20001220703</ele>
        <time>2019-10-06T13:02:28.000Z</time>
      </trkpt>
      <trkpt lat="43.55037" lon="6.85919">
        <ele>422.20001220703</ele>
        <time>2019-10-06T13:02:29.000Z</time>
      </trkpt>
      <trkpt lat="43.55031" lon="6.85914">
        <ele>422</ele>
        <time>2019-10-06T13:02:31.000Z</time>
      </trkpt>
      <trkpt lat="43.55027" lon="6.85913">
        <ele>422</ele>
        <time>2019-10-06T13:02:32.000Z</time>
      </trkpt>
      <trkpt lat="43.55012" lon="6.8591">
        <ele>421.79998779297</ele>
        <time>2019-10-06T13:02:36.000Z</time>
      </trkpt>
      <trkpt lat="43.54993" lon="6.85912">
        <ele>421.20001220703</ele>
        <time>2019-10-06T13:02:41.000Z</time>
      </trkpt>
      <trkpt lat="43.54985" lon="6.85913">
        <ele>421</ele>
        <time>2019-10-06T13:02:43.000Z</time>
      </trkpt>
      <trkpt lat="43.54973" lon="6.85917">
        <ele>420.79998779297</ele>
        <time>2019-10-06T13:02:46.000Z</time>
      </trkpt>
      <trkpt lat="43.5496" lon="6.85917">
        <ele>420.39999389648</ele>
        <time>2019-10-06T13:02:49.000Z</time>
      </trkpt>
      <trkpt lat="43.54951" lon="6.85913">
        <ele>420</ele>
        <time>2019-10-06T13:02:51.000Z</time>
      </trkpt>
      <trkpt lat="43.5494" lon="6.85901">
        <ele>418.60000610352</ele>
        <time>2019-10-06T13:02:54.000Z</time>
      </trkpt>
      <trkpt lat="43.54935" lon="6.85888">
        <ele>417.79998779297</ele>
        <time>2019-10-06T13:02:56.000Z</time>
      </trkpt>
      <trkpt lat="43.54932" lon="6.85881">
        <ele>417.39999389648</ele>
        <time>2019-10-06T13:02:57.000Z</time>
      </trkpt>
      <trkpt lat="43.54923" lon="6.85858">
        <ele>416.20001220703</ele>
        <time>2019-10-06T13:03:00.000Z</time>
      </trkpt>
      <trkpt lat="43.54917" lon="6.85842">
        <ele>414.79998779297</ele>
        <time>2019-10-06T13:03:02.000Z</time>
      </trkpt>
      <trkpt lat="43.54914" lon="6.85835">
        <ele>413.79998779297</ele>
        <time>2019-10-06T13:03:03.000Z</time>
      </trkpt>
      <trkpt lat="43.54911" lon="6.85827">
        <ele>412.79998779297</ele>
        <time>2019-10-06T13:03:04.000Z</time>
      </trkpt>
      <trkpt lat="43.54909" lon="6.8582">
        <ele>412.20001220703</ele>
        <time>2019-10-06T13:03:05.000Z</time>
      </trkpt>
      <trkpt lat="43.54906" lon="6.85812">
        <ele>412</ele>
        <time>2019-10-06T13:03:06.000Z</time>
      </trkpt>
      <trkpt lat="43.54902" lon="6.85797">
        <ele>410.79998779297</ele>
        <time>2019-10-06T13:03:08.000Z</time>
      </trkpt>
      <trkpt lat="43.549" lon="6.8578">
        <ele>410</ele>
        <time>2019-10-06T13:03:10.000Z</time>
      </trkpt>
      <trkpt lat="43.54898" lon="6.85772">
        <ele>409.20001220703</ele>
        <time>2019-10-06T13:03:11.000Z</time>
      </trkpt>
      <trkpt lat="43.54895" lon="6.85748">
        <ele>407.20001220703</ele>
        <time>2019-10-06T13:03:14.000Z</time>
      </trkpt>
      <trkpt lat="43.54896" lon="6.85739">
        <ele>406.39999389648</ele>
        <time>2019-10-06T13:03:15.000Z</time>
      </trkpt>
      <trkpt lat="43.54901" lon="6.85725">
        <ele>405.39999389648</ele>
        <time>2019-10-06T13:03:17.000Z</time>
      </trkpt>
      <trkpt lat="43.54909" lon="6.85714">
        <ele>404</ele>
        <time>2019-10-06T13:03:19.000Z</time>
      </trkpt>
      <trkpt lat="43.54914" lon="6.85709">
        <ele>403.20001220703</ele>
        <time>2019-10-06T13:03:20.000Z</time>
      </trkpt>
      <trkpt lat="43.54919" lon="6.85704">
        <ele>402.60000610352</ele>
        <time>2019-10-06T13:03:21.000Z</time>
      </trkpt>
      <trkpt lat="43.5493" lon="6.85693">
        <ele>401.20001220703</ele>
        <time>2019-10-06T13:03:23.000Z</time>
      </trkpt>
      <trkpt lat="43.54936" lon="6.85689">
        <ele>400</ele>
        <time>2019-10-06T13:03:24.000Z</time>
      </trkpt>
      <trkpt lat="43.54948" lon="6.85681">
        <ele>399</ele>
        <time>2019-10-06T13:03:26.000Z</time>
      </trkpt>
      <trkpt lat="43.5496" lon="6.85675">
        <ele>398</ele>
        <time>2019-10-06T13:03:28.000Z</time>
      </trkpt>
      <trkpt lat="43.54965" lon="6.85672">
        <ele>397.20001220703</ele>
        <time>2019-10-06T13:03:29.000Z</time>
      </trkpt>
      <trkpt lat="43.54969" lon="6.8567">
        <ele>396.60000610352</ele>
        <time>2019-10-06T13:03:30.000Z</time>
      </trkpt>
      <trkpt lat="43.54974" lon="6.85664">
        <ele>395.79998779297</ele>
        <time>2019-10-06T13:03:32.000Z</time>
      </trkpt>
      <trkpt lat="43.54973" lon="6.85657">
        <ele>394.79998779297</ele>
        <time>2019-10-06T13:03:34.000Z</time>
      </trkpt>
      <trkpt lat="43.54966" lon="6.85653">
        <ele>393.60000610352</ele>
        <time>2019-10-06T13:03:36.000Z</time>
      </trkpt>
      <trkpt lat="43.54956" lon="6.85654">
        <ele>392.60000610352</ele>
        <time>2019-10-06T13:03:38.000Z</time>
      </trkpt>
      <trkpt lat="43.54946" lon="6.85658">
        <ele>391.39999389648</ele>
        <time>2019-10-06T13:03:40.000Z</time>
      </trkpt>
      <trkpt lat="43.54941" lon="6.85659">
        <ele>391.20001220703</ele>
        <time>2019-10-06T13:03:41.000Z</time>
      </trkpt>
      <trkpt lat="43.54923" lon="6.85662">
        <ele>389.60000610352</ele>
        <time>2019-10-06T13:03:44.000Z</time>
      </trkpt>
      <trkpt lat="43.54911" lon="6.85665">
        <ele>388.39999389648</ele>
        <time>2019-10-06T13:03:46.000Z</time>
      </trkpt>
      <trkpt lat="43.54905" lon="6.85667">
        <ele>386.79998779297</ele>
        <time>2019-10-06T13:03:47.000Z</time>
      </trkpt>
      <trkpt lat="43.54893" lon="6.8567">
        <ele>385.20001220703</ele>
        <time>2019-10-06T13:03:49.000Z</time>
      </trkpt>
      <trkpt lat="43.54883" lon="6.85675">
        <ele>383.79998779297</ele>
        <time>2019-10-06T13:03:51.000Z</time>
      </trkpt>
      <trkpt lat="43.54874" lon="6.85681">
        <ele>382.60000610352</ele>
        <time>2019-10-06T13:03:53.000Z</time>
      </trkpt>
      <trkpt lat="43.54869" lon="6.85684">
        <ele>381.60000610352</ele>
        <time>2019-10-06T13:03:54.000Z</time>
      </trkpt>
      <trkpt lat="43.5486" lon="6.85692">
        <ele>379.79998779297</ele>
        <time>2019-10-06T13:03:56.000Z</time>
      </trkpt>
      <trkpt lat="43.54845" lon="6.85706">
        <ele>378.39999389648</ele>
        <time>2019-10-06T13:03:59.000Z</time>
      </trkpt>
      <trkpt lat="43.54832" lon="6.85715">
        <ele>377.39999389648</ele>
        <time>2019-10-06T13:04:01.000Z</time>
      </trkpt>
      <trkpt lat="43.54819" lon="6.85723">
        <ele>375.60000610352</ele>
        <time>2019-10-06T13:04:03.000Z</time>
      </trkpt>
      <trkpt lat="43.54812" lon="6.85726">
        <ele>374.39999389648</ele>
        <time>2019-10-06T13:04:04.000Z</time>
      </trkpt>
      <trkpt lat="43.54798" lon="6.85732">
        <ele>372.79998779297</ele>
        <time>2019-10-06T13:04:06.000Z</time>
      </trkpt>
      <trkpt lat="43.54791" lon="6.85735">
        <ele>371.60000610352</ele>
        <time>2019-10-06T13:04:07.000Z</time>
      </trkpt>
      <trkpt lat="43.5478" lon="6.85742">
        <ele>370.39999389648</ele>
        <time>2019-10-06T13:04:09.000Z</time>
      </trkpt>
      <trkpt lat="43.54769" lon="6.85748">
        <ele>369.20001220703</ele>
        <time>2019-10-06T13:04:11.000Z</time>
      </trkpt>
      <trkpt lat="43.54764" lon="6.8575">
        <ele>368.60000610352</ele>
        <time>2019-10-06T13:04:12.000Z</time>
      </trkpt>
      <trkpt lat="43.54758" lon="6.85751">
        <ele>367.79998779297</ele>
        <time>2019-10-06T13:04:13.000Z</time>
      </trkpt>
      <trkpt lat="43.54752" lon="6.8575">
        <ele>366.60000610352</ele>
        <time>2019-10-06T13:04:14.000Z</time>
      </trkpt>
      <trkpt lat="43.54742" lon="6.85747">
        <ele>365</ele>
        <time>2019-10-06T13:04:16.000Z</time>
      </trkpt>
      <trkpt lat="43.54736" lon="6.85744">
        <ele>364.39999389648</ele>
        <time>2019-10-06T13:04:17.000Z</time>
      </trkpt>
      <trkpt lat="43.54731" lon="6.8574">
        <ele>363.60000610352</ele>
        <time>2019-10-06T13:04:18.000Z</time>
      </trkpt>
      <trkpt lat="43.5472" lon="6.8573">
        <ele>362.20001220703</ele>
        <time>2019-10-06T13:04:20.000Z</time>
      </trkpt>
      <trkpt lat="43.54703" lon="6.85714">
        <ele>361</ele>
        <time>2019-10-06T13:04:23.000Z</time>
      </trkpt>
      <trkpt lat="43.54697" lon="6.8571">
        <ele>360.39999389648</ele>
        <time>2019-10-06T13:04:24.000Z</time>
      </trkpt>
      <trkpt lat="43.54691" lon="6.85706">
        <ele>359.79998779297</ele>
        <time>2019-10-06T13:04:25.000Z</time>
      </trkpt>
      <trkpt lat="43.54679" lon="6.85701">
        <ele>358.20001220703</ele>
        <time>2019-10-06T13:04:27.000Z</time>
      </trkpt>
      <trkpt lat="43.54662" lon="6.85694">
        <ele>356.79998779297</ele>
        <time>2019-10-06T13:04:30.000Z</time>
      </trkpt>
      <trkpt lat="43.54656" lon="6.85693">
        <ele>356.20001220703</ele>
        <time>2019-10-06T13:04:31.000Z</time>
      </trkpt>
      <trkpt lat="43.54649" lon="6.85692">
        <ele>355</ele>
        <time>2019-10-06T13:04:32.000Z</time>
      </trkpt>
      <trkpt lat="43.54636" lon="6.85693">
        <ele>353.60000610352</ele>
        <time>2019-10-06T13:04:34.000Z</time>
      </trkpt>
      <trkpt lat="43.54629" lon="6.85695">
        <ele>353.39999389648</ele>
        <time>2019-10-06T13:04:35.000Z</time>
      </trkpt>
      <trkpt lat="43.54622" lon="6.85695">
        <ele>353</ele>
        <time>2019-10-06T13:04:36.000Z</time>
      </trkpt>
      <trkpt lat="43.54615" lon="6.85696">
        <ele>352.60000610352</ele>
        <time>2019-10-06T13:04:37.000Z</time>
      </trkpt>
      <trkpt lat="43.54601" lon="6.85695">
        <ele>350.60000610352</ele>
        <time>2019-10-06T13:04:39.000Z</time>
      </trkpt>
      <trkpt lat="43.54594" lon="6.85695">
        <ele>349.20001220703</ele>
        <time>2019-10-06T13:04:40.000Z</time>
      </trkpt>
      <trkpt lat="43.54588" lon="6.85695">
        <ele>348</ele>
        <time>2019-10-06T13:04:41.000Z</time>
      </trkpt>
      <trkpt lat="43.54569" lon="6.85693">
        <ele>347</ele>
        <time>2019-10-06T13:04:44.000Z</time>
      </trkpt>
      <trkpt lat="43.54549" lon="6.8569">
        <ele>345.60000610352</ele>
        <time>2019-10-06T13:04:47.000Z</time>
      </trkpt>
      <trkpt lat="43.54542" lon="6.85691">
        <ele>344.39999389648</ele>
        <time>2019-10-06T13:04:48.000Z</time>
      </trkpt>
      <trkpt lat="43.54536" lon="6.85691">
        <ele>343.39999389648</ele>
        <time>2019-10-06T13:04:49.000Z</time>
      </trkpt>
      <trkpt lat="43.54518" lon="6.85689">
        <ele>342.20001220703</ele>
        <time>2019-10-06T13:04:51.000Z</time>
      </trkpt>
      <trkpt lat="43.54513" lon="6.85686">
        <ele>341.39999389648</ele>
        <time>2019-10-06T13:04:53.000Z</time>
      </trkpt>
      <trkpt lat="43.54507" lon="6.85682">
        <ele>340.39999389648</ele>
        <time>2019-10-06T13:04:54.000Z</time>
      </trkpt>
      <trkpt lat="43.54496" lon="6.85676">
        <ele>339.20001220703</ele>
        <time>2019-10-06T13:04:56.000Z</time>
      </trkpt>
      <trkpt lat="43.54478" lon="6.85671">
        <ele>337.60000610352</ele>
        <time>2019-10-06T13:04:59.000Z</time>
      </trkpt>
      <trkpt lat="43.54472" lon="6.85671">
        <ele>337</ele>
        <time>2019-10-06T13:05:00.000Z</time>
      </trkpt>
      <trkpt lat="43.54466" lon="6.85673">
        <ele>336.39999389648</ele>
        <time>2019-10-06T13:05:01.000Z</time>
      </trkpt>
      <trkpt lat="43.54455" lon="6.85679">
        <ele>335.39999389648</ele>
        <time>2019-10-06T13:05:03.000Z</time>
      </trkpt>
      <trkpt lat="43.54449" lon="6.85683">
        <ele>334.20001220703</ele>
        <time>2019-10-06T13:05:04.000Z</time>
      </trkpt>
      <trkpt lat="43.54444" lon="6.85686">
        <ele>333</ele>
        <time>2019-10-06T13:05:05.000Z</time>
      </trkpt>
      <trkpt lat="43.54438" lon="6.85688">
        <ele>332</ele>
        <time>2019-10-06T13:05:06.000Z</time>
      </trkpt>
      <trkpt lat="43.54424" lon="6.8569">
        <ele>330.20001220703</ele>
        <time>2019-10-06T13:05:08.000Z</time>
      </trkpt>
      <trkpt lat="43.54418" lon="6.8569">
        <ele>329.60000610352</ele>
        <time>2019-10-06T13:05:09.000Z</time>
      </trkpt>
      <trkpt lat="43.54404" lon="6.85691">
        <ele>328.60000610352</ele>
        <time>2019-10-06T13:05:11.000Z</time>
      </trkpt>
      <trkpt lat="43.5439" lon="6.85692">
        <ele>327.20001220703</ele>
        <time>2019-10-06T13:05:13.000Z</time>
      </trkpt>
      <trkpt lat="43.54369" lon="6.85695">
        <ele>325.60000610352</ele>
        <time>2019-10-06T13:05:16.000Z</time>
      </trkpt>
      <trkpt lat="43.54363" lon="6.85695">
        <ele>325</ele>
        <time>2019-10-06T13:05:17.000Z</time>
      </trkpt>
      <trkpt lat="43.54349" lon="6.85697">
        <ele>324.39999389648</ele>
        <time>2019-10-06T13:05:19.000Z</time>
      </trkpt>
      <trkpt lat="43.54335" lon="6.857">
        <ele>323.39999389648</ele>
        <time>2019-10-06T13:05:21.000Z</time>
      </trkpt>
      <trkpt lat="43.54327" lon="6.85702">
        <ele>322.79998779297</ele>
        <time>2019-10-06T13:05:22.000Z</time>
      </trkpt>
      <trkpt lat="43.54314" lon="6.85704">
        <ele>321.79998779297</ele>
        <time>2019-10-06T13:05:24.000Z</time>
      </trkpt>
      <trkpt lat="43.54308" lon="6.85705">
        <ele>320.60000610352</ele>
        <time>2019-10-06T13:05:25.000Z</time>
      </trkpt>
      <trkpt lat="43.54302" lon="6.85705">
        <ele>319.39999389648</ele>
        <time>2019-10-06T13:05:26.000Z</time>
      </trkpt>
      <trkpt lat="43.54289" lon="6.85714">
        <ele>318</ele>
        <time>2019-10-06T13:05:29.000Z</time>
      </trkpt>
      <trkpt lat="43.5428" lon="6.85721">
        <ele>316.60000610352</ele>
        <time>2019-10-06T13:05:31.000Z</time>
      </trkpt>
      <trkpt lat="43.54275" lon="6.85725">
        <ele>316.39999389648</ele>
        <time>2019-10-06T13:05:32.000Z</time>
      </trkpt>
      <trkpt lat="43.54267" lon="6.85736">
        <ele>315.39999389648</ele>
        <time>2019-10-06T13:05:34.000Z</time>
      </trkpt>
      <trkpt lat="43.5426" lon="6.85748">
        <ele>313.39999389648</ele>
        <time>2019-10-06T13:05:36.000Z</time>
      </trkpt>
      <trkpt lat="43.54251" lon="6.85761">
        <ele>312.39999389648</ele>
        <time>2019-10-06T13:05:38.000Z</time>
      </trkpt>
      <trkpt lat="43.54247" lon="6.85769">
        <ele>312.20001220703</ele>
        <time>2019-10-06T13:05:39.000Z</time>
      </trkpt>
      <trkpt lat="43.54241" lon="6.85793">
        <ele>310.60000610352</ele>
        <time>2019-10-06T13:05:42.000Z</time>
      </trkpt>
      <trkpt lat="43.54238" lon="6.85809">
        <ele>309</ele>
        <time>2019-10-06T13:05:44.000Z</time>
      </trkpt>
      <trkpt lat="43.54234" lon="6.85824">
        <ele>307.39999389648</ele>
        <time>2019-10-06T13:05:46.000Z</time>
      </trkpt>
      <trkpt lat="43.54232" lon="6.85831">
        <ele>306.79998779297</ele>
        <time>2019-10-06T13:05:47.000Z</time>
      </trkpt>
      <trkpt lat="43.5423" lon="6.85836">
        <ele>306.39999389648</ele>
        <time>2019-10-06T13:05:48.000Z</time>
      </trkpt>
      <trkpt lat="43.54228" lon="6.85842">
        <ele>306.20001220703</ele>
        <time>2019-10-06T13:05:49.000Z</time>
      </trkpt>
      <trkpt lat="43.5423" lon="6.85862">
        <ele>305.39999389648</ele>
        <time>2019-10-06T13:05:52.000Z</time>
      </trkpt>
      <trkpt lat="43.54236" lon="6.85875">
        <ele>304.20001220703</ele>
        <time>2019-10-06T13:05:54.000Z</time>
      </trkpt>
      <trkpt lat="43.54244" lon="6.85886">
        <ele>303</ele>
        <time>2019-10-06T13:05:56.000Z</time>
      </trkpt>
      <trkpt lat="43.54253" lon="6.85895">
        <ele>301.39999389648</ele>
        <time>2019-10-06T13:05:58.000Z</time>
      </trkpt>
      <trkpt lat="43.54261" lon="6.85904">
        <ele>300.39999389648</ele>
        <time>2019-10-06T13:06:00.000Z</time>
      </trkpt>
      <trkpt lat="43.54268" lon="6.85914">
        <ele>298.79998779297</ele>
        <time>2019-10-06T13:06:02.000Z</time>
      </trkpt>
      <trkpt lat="43.54275" lon="6.85923">
        <ele>297.39999389648</ele>
        <time>2019-10-06T13:06:04.000Z</time>
      </trkpt>
      <trkpt lat="43.54287" lon="6.85929">
        <ele>296.60000610352</ele>
        <time>2019-10-06T13:06:07.000Z</time>
      </trkpt>
      <trkpt lat="43.54292" lon="6.8593">
        <ele>296</ele>
        <time>2019-10-06T13:06:08.000Z</time>
      </trkpt>
      <trkpt lat="43.54296" lon="6.85932">
        <ele>295.20001220703</ele>
        <time>2019-10-06T13:06:09.000Z</time>
      </trkpt>
      <trkpt lat="43.54302" lon="6.85934">
        <ele>294.60000610352</ele>
        <time>2019-10-06T13:06:10.000Z</time>
      </trkpt>
      <trkpt lat="43.54312" lon="6.85934">
        <ele>293.39999389648</ele>
        <time>2019-10-06T13:06:12.000Z</time>
      </trkpt>
      <trkpt lat="43.54322" lon="6.85933">
        <ele>292</ele>
        <time>2019-10-06T13:06:14.000Z</time>
      </trkpt>
      <trkpt lat="43.54331" lon="6.85935">
        <ele>290.79998779297</ele>
        <time>2019-10-06T13:06:16.000Z</time>
      </trkpt>
      <trkpt lat="43.54353" lon="6.85954">
        <ele>289.39999389648</ele>
        <time>2019-10-06T13:06:21.000Z</time>
      </trkpt>
      <trkpt lat="43.54359" lon="6.85968">
        <ele>288.39999389648</ele>
        <time>2019-10-06T13:06:23.000Z</time>
      </trkpt>
      <trkpt lat="43.54361" lon="6.85975">
        <ele>287.79998779297</ele>
        <time>2019-10-06T13:06:24.000Z</time>
      </trkpt>
      <trkpt lat="43.54363" lon="6.85988">
        <ele>286.60000610352</ele>
        <time>2019-10-06T13:06:26.000Z</time>
      </trkpt>
      <trkpt lat="43.54371" lon="6.86">
        <ele>285</ele>
        <time>2019-10-06T13:06:29.000Z</time>
      </trkpt>
      <trkpt lat="43.5438" lon="6.86013">
        <ele>284</ele>
        <time>2019-10-06T13:06:32.000Z</time>
      </trkpt>
      <trkpt lat="43.54384" lon="6.86017">
        <ele>283.79998779297</ele>
        <time>2019-10-06T13:06:33.000Z</time>
      </trkpt>
      <trkpt lat="43.54393" lon="6.86024">
        <ele>283</ele>
        <time>2019-10-06T13:06:35.000Z</time>
      </trkpt>
      <trkpt lat="43.54406" lon="6.86036">
        <ele>281.60000610352</ele>
        <time>2019-10-06T13:06:38.000Z</time>
      </trkpt>
      <trkpt lat="43.54414" lon="6.86044">
        <ele>279.79998779297</ele>
        <time>2019-10-06T13:06:40.000Z</time>
      </trkpt>
      <trkpt lat="43.54418" lon="6.86049">
        <ele>279.20001220703</ele>
        <time>2019-10-06T13:06:41.000Z</time>
      </trkpt>
      <trkpt lat="43.54422" lon="6.86055">
        <ele>278.39999389648</ele>
        <time>2019-10-06T13:06:42.000Z</time>
      </trkpt>
      <trkpt lat="43.54428" lon="6.86065">
        <ele>277.39999389648</ele>
        <time>2019-10-06T13:06:44.000Z</time>
      </trkpt>
      <trkpt lat="43.5443" lon="6.86069">
        <ele>277.20001220703</ele>
        <time>2019-10-06T13:06:45.000Z</time>
      </trkpt>
      <trkpt lat="43.54417" lon="6.86085">
        <ele>276.60000610352</ele>
        <time>2019-10-06T13:06:52.000Z</time>
      </trkpt>
      <trkpt lat="43.54413" lon="6.86086">
        <ele>276.39999389648</ele>
        <time>2019-10-06T13:06:53.000Z</time>
      </trkpt>
      <trkpt lat="43.54395" lon="6.86091">
        <ele>275.20001220703</ele>
        <time>2019-10-06T13:06:58.000Z</time>
      </trkpt>
      <trkpt lat="43.54383" lon="6.86094">
        <ele>275</ele>
        <time>2019-10-06T13:07:01.000Z</time>
      </trkpt>
      <trkpt lat="43.54374" lon="6.86094">
        <ele>275</ele>
        <time>2019-10-06T13:07:03.000Z</time>
      </trkpt>
      <trkpt lat="43.54364" lon="6.86095">
        <ele>274.79998779297</ele>
        <time>2019-10-06T13:07:05.000Z</time>
      </trkpt>
      <trkpt lat="43.54351" lon="6.86095">
        <ele>274.20001220703</ele>
        <time>2019-10-06T13:07:08.000Z</time>
      </trkpt>
      <trkpt lat="43.54339" lon="6.86097">
        <ele>273.79998779297</ele>
        <time>2019-10-06T13:07:11.000Z</time>
      </trkpt>
      <trkpt lat="43.54335" lon="6.86098">
        <ele>273.79998779297</ele>
        <time>2019-10-06T13:07:12.000Z</time>
      </trkpt>
      <trkpt lat="43.54326" lon="6.86098">
        <ele>273.20001220703</ele>
        <time>2019-10-06T13:07:14.000Z</time>
      </trkpt>
      <trkpt lat="43.54322" lon="6.86098">
        <ele>273</ele>
        <time>2019-10-06T13:07:15.000Z</time>
      </trkpt>
      <trkpt lat="43.54305" lon="6.86103">
        <ele>272.39999389648</ele>
        <time>2019-10-06T13:07:19.000Z</time>
      </trkpt>
      <trkpt lat="43.54296" lon="6.86104">
        <ele>272.20001220703</ele>
        <time>2019-10-06T13:07:21.000Z</time>
      </trkpt>
      <trkpt lat="43.54275" lon="6.86113">
        <ele>271.20001220703</ele>
        <time>2019-10-06T13:07:26.000Z</time>
      </trkpt>
      <trkpt lat="43.5426" lon="6.86121">
        <ele>270.20001220703</ele>
        <time>2019-10-06T13:07:30.000Z</time>
      </trkpt>
      <trkpt lat="43.54256" lon="6.86123">
        <ele>270.20001220703</ele>
        <time>2019-10-06T13:07:31.000Z</time>
      </trkpt>
      <trkpt lat="43.54252" lon="6.86126">
        <ele>270</ele>
        <time>2019-10-06T13:07:32.000Z</time>
      </trkpt>
      <trkpt lat="43.54235" lon="6.86133">
        <ele>269.20001220703</ele>
        <time>2019-10-06T13:07:36.000Z</time>
      </trkpt>
      <trkpt lat="43.54216" lon="6.86149">
        <ele>268.60000610352</ele>
        <time>2019-10-06T13:07:41.000Z</time>
      </trkpt>
      <trkpt lat="43.54211" lon="6.86167">
        <ele>268</ele>
        <time>2019-10-06T13:07:44.000Z</time>
      </trkpt>
      <trkpt lat="43.54214" lon="6.86187">
        <ele>267.20001220703</ele>
        <time>2019-10-06T13:07:47.000Z</time>
      </trkpt>
      <trkpt lat="43.54218" lon="6.86198">
        <ele>266.60000610352</ele>
        <time>2019-10-06T13:07:49.000Z</time>
      </trkpt>
      <trkpt lat="43.54225" lon="6.86215">
        <ele>265.60000610352</ele>
        <time>2019-10-06T13:07:52.000Z</time>
      </trkpt>
      <trkpt lat="43.54239" lon="6.86239">
        <ele>264.39999389648</ele>
        <time>2019-10-06T13:07:57.000Z</time>
      </trkpt>
      <trkpt lat="43.54242" lon="6.86249">
        <ele>262.79998779297</ele>
        <time>2019-10-06T13:07:59.000Z</time>
      </trkpt>
      <trkpt lat="43.54245" lon="6.86258">
        <ele>261.60000610352</ele>
        <time>2019-10-06T13:08:01.000Z</time>
      </trkpt>
      <trkpt lat="43.54249" lon="6.86271">
        <ele>260.39999389648</ele>
        <time>2019-10-06T13:08:04.000Z</time>
      </trkpt>
      <trkpt lat="43.54254" lon="6.86281">
        <ele>259.20001220703</ele>
        <time>2019-10-06T13:08:07.000Z</time>
      </trkpt>
      <trkpt lat="43.54256" lon="6.86287">
        <ele>258</ele>
        <time>2019-10-06T13:08:09.000Z</time>
      </trkpt>
      <trkpt lat="43.5426" lon="6.86303">
        <ele>257</ele>
        <time>2019-10-06T13:08:13.000Z</time>
      </trkpt>
      <trkpt lat="43.54263" lon="6.86312">
        <ele>255.80000305176</ele>
        <time>2019-10-06T13:08:15.000Z</time>
      </trkpt>
      <trkpt lat="43.54267" lon="6.86322">
        <ele>254.80000305176</ele>
        <time>2019-10-06T13:08:17.000Z</time>
      </trkpt>
      <trkpt lat="43.54271" lon="6.86333">
        <ele>254.19999694824</ele>
        <time>2019-10-06T13:08:19.000Z</time>
      </trkpt>
      <trkpt lat="43.54274" lon="6.86344">
        <ele>253.60000610352</ele>
        <time>2019-10-06T13:08:21.000Z</time>
      </trkpt>
      <trkpt lat="43.54277" lon="6.86355">
        <ele>252.60000610352</ele>
        <time>2019-10-06T13:08:23.000Z</time>
      </trkpt>
      <trkpt lat="43.54277" lon="6.8636">
        <ele>252.19999694824</ele>
        <time>2019-10-06T13:08:24.000Z</time>
      </trkpt>
      <trkpt lat="43.54272" lon="6.86368">
        <ele>251.19999694824</ele>
        <time>2019-10-06T13:08:26.000Z</time>
      </trkpt>
      <trkpt lat="43.5426" lon="6.86365">
        <ele>249.39999389648</ele>
        <time>2019-10-06T13:08:29.000Z</time>
      </trkpt>
      <trkpt lat="43.5425" lon="6.86355">
        <ele>248</ele>
        <time>2019-10-06T13:08:32.000Z</time>
      </trkpt>
      <trkpt lat="43.54241" lon="6.86342">
        <ele>246.80000305176</ele>
        <time>2019-10-06T13:08:35.000Z</time>
      </trkpt>
      <trkpt lat="43.54235" lon="6.86333">
        <ele>245.80000305176</ele>
        <time>2019-10-06T13:08:37.000Z</time>
      </trkpt>
      <trkpt lat="43.54231" lon="6.86329">
        <ele>245.19999694824</ele>
        <time>2019-10-06T13:08:38.000Z</time>
      </trkpt>
      <trkpt lat="43.54224" lon="6.8632">
        <ele>244.39999389648</ele>
        <time>2019-10-06T13:08:40.000Z</time>
      </trkpt>
      <trkpt lat="43.54212" lon="6.86309">
        <ele>243.19999694824</ele>
        <time>2019-10-06T13:08:43.000Z</time>
      </trkpt>
      <trkpt lat="43.54209" lon="6.86304">
        <ele>242.60000610352</ele>
        <time>2019-10-06T13:08:44.000Z</time>
      </trkpt>
      <trkpt lat="43.54203" lon="6.86296">
        <ele>242</ele>
        <time>2019-10-06T13:08:46.000Z</time>
      </trkpt>
      <trkpt lat="43.54191" lon="6.86286">
        <ele>240.60000610352</ele>
        <time>2019-10-06T13:08:49.000Z</time>
      </trkpt>
      <trkpt lat="43.54182" lon="6.86277">
        <ele>239.60000610352</ele>
        <time>2019-10-06T13:08:51.000Z</time>
      </trkpt>
      <trkpt lat="43.54178" lon="6.86274">
        <ele>238.19999694824</ele>
        <time>2019-10-06T13:08:52.000Z</time>
      </trkpt>
      <trkpt lat="43.54173" lon="6.86272">
        <ele>237</ele>
        <time>2019-10-06T13:08:53.000Z</time>
      </trkpt>
      <trkpt lat="43.54168" lon="6.86268">
        <ele>236</ele>
        <time>2019-10-06T13:08:56.000Z</time>
      </trkpt>
      <trkpt lat="43.54165" lon="6.86265">
        <ele>235.80000305176</ele>
        <time>2019-10-06T13:09:04.000Z</time>
      </trkpt>
      <trkpt lat="43.54163" lon="6.86264">
        <ele>236</ele>
        <time>2019-10-06T13:09:05.000Z</time>
      </trkpt>
      <trkpt lat="43.54155" lon="6.86264">
        <ele>234.80000305176</ele>
        <time>2019-10-06T13:09:08.000Z</time>
      </trkpt>
      <trkpt lat="43.54152" lon="6.86263">
        <ele>234.39999389648</ele>
        <time>2019-10-06T13:09:09.000Z</time>
      </trkpt>
      <trkpt lat="43.54149" lon="6.86263">
        <ele>233.60000610352</ele>
        <time>2019-10-06T13:09:10.000Z</time>
      </trkpt>
      <trkpt lat="43.54142" lon="6.86266">
        <ele>232.39999389648</ele>
        <time>2019-10-06T13:09:12.000Z</time>
      </trkpt>
      <trkpt lat="43.54138" lon="6.86268">
        <ele>232</ele>
        <time>2019-10-06T13:09:13.000Z</time>
      </trkpt>
      <trkpt lat="43.54126" lon="6.86274">
        <ele>231</ele>
        <time>2019-10-06T13:09:16.000Z</time>
      </trkpt>
      <trkpt lat="43.54111" lon="6.8628">
        <ele>229.39999389648</ele>
        <time>2019-10-06T13:09:19.000Z</time>
      </trkpt>
      <trkpt lat="43.54099" lon="6.86284">
        <ele>228</ele>
        <time>2019-10-06T13:09:21.000Z</time>
      </trkpt>
      <trkpt lat="43.54088" lon="6.86287">
        <ele>226.60000610352</ele>
        <time>2019-10-06T13:09:23.000Z</time>
      </trkpt>
      <trkpt lat="43.54064" lon="6.86291">
        <ele>225.60000610352</ele>
        <time>2019-10-06T13:09:27.000Z</time>
      </trkpt>
      <trkpt lat="43.54047" lon="6.8629">
        <ele>224.39999389648</ele>
        <time>2019-10-06T13:09:30.000Z</time>
      </trkpt>
      <trkpt lat="43.54022" lon="6.86287">
        <ele>224</ele>
        <time>2019-10-06T13:09:35.000Z</time>
      </trkpt>
      <trkpt lat="43.54009" lon="6.86282">
        <ele>223.80000305176</ele>
        <time>2019-10-06T13:09:39.000Z</time>
      </trkpt>
      <trkpt lat="43.54002" lon="6.86281">
        <ele>224.19999694824</ele>
        <time>2019-10-06T13:09:42.000Z</time>
      </trkpt>
      <trkpt lat="43.54" lon="6.8628">
        <ele>224.39999389648</ele>
        <time>2019-10-06T13:09:43.000Z</time>
      </trkpt>
      <trkpt lat="43.53958" lon="6.86276">
        <ele>224.19999694824</ele>
        <time>2019-10-06T13:09:56.000Z</time>
      </trkpt>
      <trkpt lat="43.53926" lon="6.86273">
        <ele>223.19999694824</ele>
        <time>2019-10-06T13:10:04.000Z</time>
      </trkpt>
      <trkpt lat="43.53871" lon="6.86268">
        <ele>223.19999694824</ele>
        <time>2019-10-06T13:10:18.000Z</time>
      </trkpt>
      <trkpt lat="43.53815" lon="6.86262">
        <ele>224</ele>
        <time>2019-10-06T13:10:35.000Z</time>
      </trkpt>
      <trkpt lat="43.53786" lon="6.86275">
        <ele>224</ele>
        <time>2019-10-06T13:10:44.000Z</time>
      </trkpt>
      <trkpt lat="43.53759" lon="6.86298">
        <ele>222.80000305176</ele>
        <time>2019-10-06T13:10:52.000Z</time>
      </trkpt>
      <trkpt lat="43.53752" lon="6.86307">
        <ele>222.39999389648</ele>
        <time>2019-10-06T13:10:54.000Z</time>
      </trkpt>
      <trkpt lat="43.53745" lon="6.86317">
        <ele>222</ele>
        <time>2019-10-06T13:10:56.000Z</time>
      </trkpt>
      <trkpt lat="43.53736" lon="6.86326">
        <ele>221.19999694824</ele>
        <time>2019-10-06T13:10:58.000Z</time>
      </trkpt>
      <trkpt lat="43.53732" lon="6.86331">
        <ele>221</ele>
        <time>2019-10-06T13:10:59.000Z</time>
      </trkpt>
      <trkpt lat="43.53725" lon="6.86369">
        <ele>220</ele>
        <time>2019-10-06T13:11:05.000Z</time>
      </trkpt>
      <trkpt lat="43.53736" lon="6.86386">
        <ele>218.80000305176</ele>
        <time>2019-10-06T13:11:08.000Z</time>
      </trkpt>
      <trkpt lat="43.5374" lon="6.86391">
        <ele>218.60000610352</ele>
        <time>2019-10-06T13:11:09.000Z</time>
      </trkpt>
      <trkpt lat="43.53745" lon="6.86396">
        <ele>218.39999389648</ele>
        <time>2019-10-06T13:11:10.000Z</time>
      </trkpt>
      <trkpt lat="43.53753" lon="6.86409">
        <ele>217.60000610352</ele>
        <time>2019-10-06T13:11:12.000Z</time>
      </trkpt>
      <trkpt lat="43.53762" lon="6.8642">
        <ele>216.19999694824</ele>
        <time>2019-10-06T13:11:14.000Z</time>
      </trkpt>
      <trkpt lat="43.53766" lon="6.86427">
        <ele>215.60000610352</ele>
        <time>2019-10-06T13:11:15.000Z</time>
      </trkpt>
      <trkpt lat="43.53769" lon="6.86434">
        <ele>215.19999694824</ele>
        <time>2019-10-06T13:11:16.000Z</time>
      </trkpt>
      <trkpt lat="43.53769" lon="6.86442">
        <ele>214.60000610352</ele>
        <time>2019-10-06T13:11:17.000Z</time>
      </trkpt>
      <trkpt lat="43.53767" lon="6.8645">
        <ele>214.39999389648</ele>
        <time>2019-10-06T13:11:18.000Z</time>
      </trkpt>
      <trkpt lat="43.53755" lon="6.86465">
        <ele>214</ele>
        <time>2019-10-06T13:11:21.000Z</time>
      </trkpt>
      <trkpt lat="43.53743" lon="6.86467">
        <ele>213.39999389648</ele>
        <time>2019-10-06T13:11:23.000Z</time>
      </trkpt>
      <trkpt lat="43.53731" lon="6.86468">
        <ele>213</ele>
        <time>2019-10-06T13:11:25.000Z</time>
      </trkpt>
      <trkpt lat="43.53719" lon="6.86468">
        <ele>212.39999389648</ele>
        <time>2019-10-06T13:11:27.000Z</time>
      </trkpt>
      <trkpt lat="43.53703" lon="6.86477">
        <ele>211.80000305176</ele>
        <time>2019-10-06T13:11:30.000Z</time>
      </trkpt>
      <trkpt lat="43.53697" lon="6.86481">
        <ele>211.39999389648</ele>
        <time>2019-10-06T13:11:31.000Z</time>
      </trkpt>
      <trkpt lat="43.53685" lon="6.86489">
        <ele>210.80000305176</ele>
        <time>2019-10-06T13:11:33.000Z</time>
      </trkpt>
      <trkpt lat="43.53668" lon="6.86502">
        <ele>209.60000610352</ele>
        <time>2019-10-06T13:11:36.000Z</time>
      </trkpt>
      <trkpt lat="43.53662" lon="6.86506">
        <ele>209.39999389648</ele>
        <time>2019-10-06T13:11:37.000Z</time>
      </trkpt>
      <trkpt lat="43.53652" lon="6.86518">
        <ele>208.60000610352</ele>
        <time>2019-10-06T13:11:39.000Z</time>
      </trkpt>
      <trkpt lat="43.53647" lon="6.86525">
        <ele>208.19999694824</ele>
        <time>2019-10-06T13:11:40.000Z</time>
      </trkpt>
      <trkpt lat="43.53645" lon="6.86533">
        <ele>207.60000610352</ele>
        <time>2019-10-06T13:11:41.000Z</time>
      </trkpt>
      <trkpt lat="43.53642" lon="6.86571">
        <ele>206.19999694824</ele>
        <time>2019-10-06T13:11:45.000Z</time>
      </trkpt>
      <trkpt lat="43.5364" lon="6.8659">
        <ele>204.60000610352</ele>
        <time>2019-10-06T13:11:47.000Z</time>
      </trkpt>
      <trkpt lat="43.53638" lon="6.866">
        <ele>204</ele>
        <time>2019-10-06T13:11:48.000Z</time>
      </trkpt>
      <trkpt lat="43.53636" lon="6.86609">
        <ele>203.19999694824</ele>
        <time>2019-10-06T13:11:49.000Z</time>
      </trkpt>
      <trkpt lat="43.53635" lon="6.86619">
        <ele>202.19999694824</ele>
        <time>2019-10-06T13:11:50.000Z</time>
      </trkpt>
      <trkpt lat="43.53635" lon="6.86629">
        <ele>201.19999694824</ele>
        <time>2019-10-06T13:11:51.000Z</time>
      </trkpt>
      <trkpt lat="43.53635" lon="6.86649">
        <ele>200</ele>
        <time>2019-10-06T13:11:53.000Z</time>
      </trkpt>
      <trkpt lat="43.53636" lon="6.86657">
        <ele>198.60000610352</ele>
        <time>2019-10-06T13:11:54.000Z</time>
      </trkpt>
      <trkpt lat="43.53636" lon="6.86663">
        <ele>197.39999389648</ele>
        <time>2019-10-06T13:11:55.000Z</time>
      </trkpt>
      <trkpt lat="43.53637" lon="6.86672">
        <ele>196.39999389648</ele>
        <time>2019-10-06T13:11:57.000Z</time>
      </trkpt>
      <trkpt lat="43.53639" lon="6.86687">
        <ele>195.39999389648</ele>
        <time>2019-10-06T13:12:00.000Z</time>
      </trkpt>
      <trkpt lat="43.53639" lon="6.86715">
        <ele>194.19999694824</ele>
        <time>2019-10-06T13:12:04.000Z</time>
      </trkpt>
      <trkpt lat="43.53638" lon="6.86723">
        <ele>193.80000305176</ele>
        <time>2019-10-06T13:12:05.000Z</time>
      </trkpt>
      <trkpt lat="43.53637" lon="6.86739">
        <ele>192.60000610352</ele>
        <time>2019-10-06T13:12:07.000Z</time>
      </trkpt>
      <trkpt lat="43.53635" lon="6.86757">
        <ele>191.60000610352</ele>
        <time>2019-10-06T13:12:09.000Z</time>
      </trkpt>
      <trkpt lat="43.53634" lon="6.86765">
        <ele>191.39999389648</ele>
        <time>2019-10-06T13:12:10.000Z</time>
      </trkpt>
      <trkpt lat="43.53633" lon="6.86774">
        <ele>191.19999694824</ele>
        <time>2019-10-06T13:12:11.000Z</time>
      </trkpt>
      <trkpt lat="43.5364" lon="6.86797">
        <ele>190.39999389648</ele>
        <time>2019-10-06T13:12:14.000Z</time>
      </trkpt>
      <trkpt lat="43.53649" lon="6.86811">
        <ele>189</ele>
        <time>2019-10-06T13:12:16.000Z</time>
      </trkpt>
      <trkpt lat="43.53659" lon="6.86823">
        <ele>187.39999389648</ele>
        <time>2019-10-06T13:12:18.000Z</time>
      </trkpt>
      <trkpt lat="43.53662" lon="6.8683">
        <ele>187</ele>
        <time>2019-10-06T13:12:19.000Z</time>
      </trkpt>
      <trkpt lat="43.53664" lon="6.86846">
        <ele>186</ele>
        <time>2019-10-06T13:12:21.000Z</time>
      </trkpt>
      <trkpt lat="43.53665" lon="6.86863">
        <ele>185.39999389648</ele>
        <time>2019-10-06T13:12:23.000Z</time>
      </trkpt>
      <trkpt lat="43.53668" lon="6.86872">
        <ele>184.80000305176</ele>
        <time>2019-10-06T13:12:24.000Z</time>
      </trkpt>
      <trkpt lat="43.53676" lon="6.86885">
        <ele>183.60000610352</ele>
        <time>2019-10-06T13:12:26.000Z</time>
      </trkpt>
      <trkpt lat="43.53689" lon="6.86889">
        <ele>182.39999389648</ele>
        <time>2019-10-06T13:12:28.000Z</time>
      </trkpt>
      <trkpt lat="43.53701" lon="6.86881">
        <ele>181.19999694824</ele>
        <time>2019-10-06T13:12:30.000Z</time>
      </trkpt>
      <trkpt lat="43.53712" lon="6.86872">
        <ele>179.80000305176</ele>
        <time>2019-10-06T13:12:32.000Z</time>
      </trkpt>
      <trkpt lat="43.53719" lon="6.86871">
        <ele>178.60000610352</ele>
        <time>2019-10-06T13:12:33.000Z</time>
      </trkpt>
      <trkpt lat="43.53726" lon="6.8687">
        <ele>177.80000305176</ele>
        <time>2019-10-06T13:12:34.000Z</time>
      </trkpt>
      <trkpt lat="43.53733" lon="6.86868">
        <ele>177.19999694824</ele>
        <time>2019-10-06T13:12:35.000Z</time>
      </trkpt>
      <trkpt lat="43.5374" lon="6.86865">
        <ele>176</ele>
        <time>2019-10-06T13:12:36.000Z</time>
      </trkpt>
      <trkpt lat="43.53747" lon="6.86862">
        <ele>174.80000305176</ele>
        <time>2019-10-06T13:12:37.000Z</time>
      </trkpt>
      <trkpt lat="43.53754" lon="6.86859">
        <ele>173.80000305176</ele>
        <time>2019-10-06T13:12:38.000Z</time>
      </trkpt>
      <trkpt lat="43.53767" lon="6.86856">
        <ele>172.19999694824</ele>
        <time>2019-10-06T13:12:40.000Z</time>
      </trkpt>
      <trkpt lat="43.53781" lon="6.86855">
        <ele>170.80000305176</ele>
        <time>2019-10-06T13:12:42.000Z</time>
      </trkpt>
      <trkpt lat="43.53796" lon="6.86853">
        <ele>169.80000305176</ele>
        <time>2019-10-06T13:12:44.000Z</time>
      </trkpt>
      <trkpt lat="43.53803" lon="6.86851">
        <ele>169.39999389648</ele>
        <time>2019-10-06T13:12:45.000Z</time>
      </trkpt>
      <trkpt lat="43.5381" lon="6.86847">
        <ele>168.80000305176</ele>
        <time>2019-10-06T13:12:46.000Z</time>
      </trkpt>
      <trkpt lat="43.53816" lon="6.86842">
        <ele>168.19999694824</ele>
        <time>2019-10-06T13:12:47.000Z</time>
      </trkpt>
      <trkpt lat="43.53822" lon="6.86838">
        <ele>167.19999694824</ele>
        <time>2019-10-06T13:12:48.000Z</time>
      </trkpt>
      <trkpt lat="43.53829" lon="6.86836">
        <ele>166.39999389648</ele>
        <time>2019-10-06T13:12:49.000Z</time>
      </trkpt>
      <trkpt lat="43.53836" lon="6.86833">
        <ele>165.39999389648</ele>
        <time>2019-10-06T13:12:50.000Z</time>
      </trkpt>
      <trkpt lat="43.53842" lon="6.86831">
        <ele>164.60000610352</ele>
        <time>2019-10-06T13:12:51.000Z</time>
      </trkpt>
      <trkpt lat="43.53848" lon="6.86827">
        <ele>164.19999694824</ele>
        <time>2019-10-06T13:12:52.000Z</time>
      </trkpt>
      <trkpt lat="43.5386" lon="6.86818">
        <ele>163.39999389648</ele>
        <time>2019-10-06T13:12:54.000Z</time>
      </trkpt>
      <trkpt lat="43.53866" lon="6.86814">
        <ele>162.80000305176</ele>
        <time>2019-10-06T13:12:55.000Z</time>
      </trkpt>
      <trkpt lat="43.53872" lon="6.8681">
        <ele>162.39999389648</ele>
        <time>2019-10-06T13:12:56.000Z</time>
      </trkpt>
      <trkpt lat="43.53882" lon="6.86797">
        <ele>161.80000305176</ele>
        <time>2019-10-06T13:12:58.000Z</time>
      </trkpt>
      <trkpt lat="43.53887" lon="6.8679">
        <ele>161.39999389648</ele>
        <time>2019-10-06T13:12:59.000Z</time>
      </trkpt>
      <trkpt lat="43.53903" lon="6.86773">
        <ele>160.60000610352</ele>
        <time>2019-10-06T13:13:02.000Z</time>
      </trkpt>
      <trkpt lat="43.53916" lon="6.86773">
        <ele>159.39999389648</ele>
        <time>2019-10-06T13:13:04.000Z</time>
      </trkpt>
      <trkpt lat="43.53932" lon="6.86782">
        <ele>158.19999694824</ele>
        <time>2019-10-06T13:13:07.000Z</time>
      </trkpt>
      <trkpt lat="43.53939" lon="6.86834">
        <ele>157.39999389648</ele>
        <time>2019-10-06T13:13:15.000Z</time>
      </trkpt>
      <trkpt lat="43.53915" lon="6.86901">
        <ele>159.19999694824</ele>
        <time>2019-10-06T13:13:32.000Z</time>
      </trkpt>
      <trkpt lat="43.53899" lon="6.86912">
        <ele>159.60000610352</ele>
        <time>2019-10-06T13:13:38.000Z</time>
      </trkpt>
      <trkpt lat="43.53894" lon="6.86915">
        <ele>159.80000305176</ele>
        <time>2019-10-06T13:13:40.000Z</time>
      </trkpt>
      <trkpt lat="43.53869" lon="6.86931">
        <ele>160.60000610352</ele>
        <time>2019-10-06T13:13:50.000Z</time>
      </trkpt>
      <trkpt lat="43.53864" lon="6.86932">
        <ele>160.80000305176</ele>
        <time>2019-10-06T13:13:52.000Z</time>
      </trkpt>
      <trkpt lat="43.53851" lon="6.86941">
        <ele>161.60000610352</ele>
        <time>2019-10-06T13:14:00.000Z</time>
      </trkpt>
      <trkpt lat="43.5385" lon="6.86942">
        <ele>161.80000305176</ele>
        <time>2019-10-06T13:14:01.000Z</time>
      </trkpt>
      <trkpt lat="43.53847" lon="6.86947">
        <ele>162.19999694824</ele>
        <time>2019-10-06T13:14:04.000Z</time>
      </trkpt>
      <trkpt lat="43.53844" lon="6.86954">
        <ele>163</ele>
        <time>2019-10-06T13:14:08.000Z</time>
      </trkpt>
      <trkpt lat="43.5384" lon="6.86963">
        <ele>163</ele>
        <time>2019-10-06T13:14:13.000Z</time>
      </trkpt>
      <trkpt lat="43.53838" lon="6.86969">
        <ele>163.19999694824</ele>
        <time>2019-10-06T13:14:16.000Z</time>
      </trkpt>
      <trkpt lat="43.53829" lon="6.86983">
        <ele>164.19999694824</ele>
        <time>2019-10-06T13:14:25.000Z</time>
      </trkpt>
      <trkpt lat="43.53828" lon="6.86985">
        <ele>164.19999694824</ele>
        <time>2019-10-06T13:14:26.000Z</time>
      </trkpt>
      <trkpt lat="43.53827" lon="6.86986">
        <ele>164.39999389648</ele>
        <time>2019-10-06T13:14:27.000Z</time>
      </trkpt>
      <trkpt lat="43.53825" lon="6.86989">
        <ele>164.39999389648</ele>
        <time>2019-10-06T13:14:29.000Z</time>
      </trkpt>
      <trkpt lat="43.53823" lon="6.86993">
        <ele>164.60000610352</ele>
        <time>2019-10-06T13:14:31.000Z</time>
      </trkpt>
      <trkpt lat="43.53819" lon="6.86999">
        <ele>165</ele>
        <time>2019-10-06T13:14:35.000Z</time>
      </trkpt>
      <trkpt lat="43.53814" lon="6.87005">
        <ele>165.80000305176</ele>
        <time>2019-10-06T13:14:39.000Z</time>
      </trkpt>
      <trkpt lat="43.53811" lon="6.87017">
        <ele>166.19999694824</ele>
        <time>2019-10-06T13:14:45.000Z</time>
      </trkpt>
      <trkpt lat="43.53812" lon="6.87019">
        <ele>166.39999389648</ele>
        <time>2019-10-06T13:14:46.000Z</time>
      </trkpt>
      <trkpt lat="43.53817" lon="6.8703">
        <ele>167</ele>
        <time>2019-10-06T13:14:52.000Z</time>
      </trkpt>
      <trkpt lat="43.5383" lon="6.8707">
        <ele>167.39999389648</ele>
        <time>2019-10-06T13:15:08.000Z</time>
      </trkpt>
      <trkpt lat="43.53826" lon="6.87083">
        <ele>167.80000305176</ele>
        <time>2019-10-06T13:15:13.000Z</time>
      </trkpt>
      <trkpt lat="43.53817" lon="6.87096">
        <ele>168.60000610352</ele>
        <time>2019-10-06T13:15:19.000Z</time>
      </trkpt>
      <trkpt lat="43.53799" lon="6.87113">
        <ele>169.60000610352</ele>
        <time>2019-10-06T13:15:29.000Z</time>
      </trkpt>
      <trkpt lat="43.53783" lon="6.87184">
        <ele>169.19999694824</ele>
        <time>2019-10-06T13:15:51.000Z</time>
      </trkpt>
      <trkpt lat="43.53777" lon="6.87205">
        <ele>169</ele>
        <time>2019-10-06T13:15:57.000Z</time>
      </trkpt>
      <trkpt lat="43.53728" lon="6.8724">
        <ele>169</ele>
        <time>2019-10-06T13:16:16.000Z</time>
      </trkpt>
      <trkpt lat="43.53707" lon="6.87264">
        <ele>168.80000305176</ele>
        <time>2019-10-06T13:16:24.000Z</time>
      </trkpt>
      <trkpt lat="43.53691" lon="6.87282">
        <ele>167.60000610352</ele>
        <time>2019-10-06T13:16:30.000Z</time>
      </trkpt>
      <trkpt lat="43.53676" lon="6.87291">
        <ele>166.80000305176</ele>
        <time>2019-10-06T13:16:33.000Z</time>
      </trkpt>
      <trkpt lat="43.53665" lon="6.87296">
        <ele>165.60000610352</ele>
        <time>2019-10-06T13:16:35.000Z</time>
      </trkpt>
      <trkpt lat="43.53649" lon="6.87306">
        <ele>164.39999389648</ele>
        <time>2019-10-06T13:16:38.000Z</time>
      </trkpt>
      <trkpt lat="43.5364" lon="6.87317">
        <ele>163</ele>
        <time>2019-10-06T13:16:40.000Z</time>
      </trkpt>
      <trkpt lat="43.53634" lon="6.87332">
        <ele>161.39999389648</ele>
        <time>2019-10-06T13:16:42.000Z</time>
      </trkpt>
      <trkpt lat="43.53629" lon="6.87339">
        <ele>161</ele>
        <time>2019-10-06T13:16:43.000Z</time>
      </trkpt>
      <trkpt lat="43.53624" lon="6.87346">
        <ele>160.39999389648</ele>
        <time>2019-10-06T13:16:44.000Z</time>
      </trkpt>
      <trkpt lat="43.53619" lon="6.87352">
        <ele>159.19999694824</ele>
        <time>2019-10-06T13:16:45.000Z</time>
      </trkpt>
      <trkpt lat="43.53605" lon="6.87364">
        <ele>157.60000610352</ele>
        <time>2019-10-06T13:16:47.000Z</time>
      </trkpt>
      <trkpt lat="43.53591" lon="6.87375">
        <ele>156.39999389648</ele>
        <time>2019-10-06T13:16:49.000Z</time>
      </trkpt>
      <trkpt lat="43.53579" lon="6.87381">
        <ele>154.60000610352</ele>
        <time>2019-10-06T13:16:51.000Z</time>
      </trkpt>
      <trkpt lat="43.53569" lon="6.87384">
        <ele>153.19999694824</ele>
        <time>2019-10-06T13:16:53.000Z</time>
      </trkpt>
      <trkpt lat="43.53561" lon="6.8739">
        <ele>152</ele>
        <time>2019-10-06T13:16:55.000Z</time>
      </trkpt>
      <trkpt lat="43.53559" lon="6.87396">
        <ele>150.80000305176</ele>
        <time>2019-10-06T13:16:56.000Z</time>
      </trkpt>
      <trkpt lat="43.53556" lon="6.874">
        <ele>150.19999694824</ele>
        <time>2019-10-06T13:16:57.000Z</time>
      </trkpt>
      <trkpt lat="43.53553" lon="6.87402">
        <ele>149.80000305176</ele>
        <time>2019-10-06T13:16:58.000Z</time>
      </trkpt>
      <trkpt lat="43.5354" lon="6.87402">
        <ele>149</ele>
        <time>2019-10-06T13:17:02.000Z</time>
      </trkpt>
      <trkpt lat="43.53495" lon="6.87413">
        <ele>148.60000610352</ele>
        <time>2019-10-06T13:17:16.000Z</time>
      </trkpt>
      <trkpt lat="43.53477" lon="6.87421">
        <ele>147.80000305176</ele>
        <time>2019-10-06T13:17:20.000Z</time>
      </trkpt>
      <trkpt lat="43.53472" lon="6.87422">
        <ele>147.80000305176</ele>
        <time>2019-10-06T13:17:21.000Z</time>
      </trkpt>
      <trkpt lat="43.53463" lon="6.87425">
        <ele>147.60000610352</ele>
        <time>2019-10-06T13:17:23.000Z</time>
      </trkpt>
      <trkpt lat="43.53434" lon="6.87426">
        <ele>146.80000305176</ele>
        <time>2019-10-06T13:17:29.000Z</time>
      </trkpt>
      <trkpt lat="43.5341" lon="6.87431">
        <ele>146.60000610352</ele>
        <time>2019-10-06T13:17:37.000Z</time>
      </trkpt>
      <trkpt lat="43.5341" lon="6.87433">
        <ele>146.39999389648</ele>
        <time>2019-10-06T13:17:38.000Z</time>
      </trkpt>
      <trkpt lat="43.53409" lon="6.87439">
        <ele>146</ele>
        <time>2019-10-06T13:17:49.000Z</time>
      </trkpt>
      <trkpt lat="43.53409" lon="6.87439">
        <ele>146</ele>
        <time>2019-10-06T13:17:51.000Z</time>
      </trkpt>
      <trkpt lat="43.53409" lon="6.87439">
        <ele>145.80000305176</ele>
        <time>2019-10-06T13:17:58.000Z</time>
      </trkpt>
      <trkpt lat="43.53409" lon="6.87439">
        <ele>145.80000305176</ele>
        <time>2019-10-06T13:18:00.000Z</time>
      </trkpt>
      <trkpt lat="43.53409" lon="6.87439">
        <ele>145.60000610352</ele>
        <time>2019-10-06T13:18:01.000Z</time>
      </trkpt>
      <trkpt lat="43.53409" lon="6.8744">
        <ele>145.19999694824</ele>
        <time>2019-10-06T13:18:04.000Z</time>
      </trkpt>
      <trkpt lat="43.53409" lon="6.8744">
        <ele>144.39999389648</ele>
        <time>2019-10-06T13:18:06.000Z</time>
      </trkpt>
      <trkpt lat="43.53409" lon="6.8744">
        <ele>143.39999389648</ele>
        <time>2019-10-06T13:18:11.000Z</time>
      </trkpt>
      <trkpt lat="43.53409" lon="6.8744">
        <ele>142.60000610352</ele>
        <time>2019-10-06T13:18:21.000Z</time>
      </trkpt>
      <trkpt lat="43.53409" lon="6.8744">
        <ele>141.60000610352</ele>
        <time>2019-10-06T13:18:35.000Z</time>
      </trkpt>
      <trkpt lat="43.53409" lon="6.8744">
        <ele>140.60000610352</ele>
        <time>2019-10-06T13:18:43.000Z</time>
      </trkpt>
      <trkpt lat="43.53409" lon="6.8744">
        <ele>139.60000610352</ele>
        <time>2019-10-06T13:18:53.000Z</time>
      </trkpt>
      <trkpt lat="43.53409" lon="6.8744">
        <ele>138.39999389648</ele>
        <time>2019-10-06T13:18:59.000Z</time>
      </trkpt>
      <trkpt lat="43.53409" lon="6.87441">
        <ele>137</ele>
        <time>2019-10-06T13:19:02.000Z</time>
      </trkpt>
      <trkpt lat="43.53409" lon="6.87441">
        <ele>136</ele>
        <time>2019-10-06T13:19:06.000Z</time>
      </trkpt>
      <trkpt lat="43.53409" lon="6.87441">
        <ele>135.39999389648</ele>
        <time>2019-10-06T13:19:11.000Z</time>
      </trkpt>
      <trkpt lat="43.53409" lon="6.87441">
        <ele>134.80000305176</ele>
        <time>2019-10-06T13:19:13.000Z</time>
      </trkpt>
      <trkpt lat="43.53409" lon="6.87441">
        <ele>133.60000610352</ele>
        <time>2019-10-06T13:19:16.000Z</time>
      </trkpt>
      <trkpt lat="43.53409" lon="6.87441">
        <ele>133</ele>
        <time>2019-10-06T13:19:18.000Z</time>
      </trkpt>
      <trkpt lat="43.53409" lon="6.87441">
        <ele>132.39999389648</ele>
        <time>2019-10-06T13:19:20.000Z</time>
      </trkpt>
      <trkpt lat="43.53409" lon="6.87441">
        <ele>131.19999694824</ele>
        <time>2019-10-06T13:19:25.000Z</time>
      </trkpt>
      <trkpt lat="43.53408" lon="6.87441">
        <ele>130</ele>
        <time>2019-10-06T13:19:29.000Z</time>
      </trkpt>
      <trkpt lat="43.53408" lon="6.87441">
        <ele>129.39999389648</ele>
        <time>2019-10-06T13:19:34.000Z</time>
      </trkpt>
      <trkpt lat="43.53408" lon="6.87441">
        <ele>128.80000305176</ele>
        <time>2019-10-06T13:19:38.000Z</time>
      </trkpt>
      <trkpt lat="43.53407" lon="6.87442">
        <ele>127.80000305176</ele>
        <time>2019-10-06T13:19:42.000Z</time>
      </trkpt>
      <trkpt lat="43.53407" lon="6.87443">
        <ele>126.59999847412</ele>
        <time>2019-10-06T13:19:48.000Z</time>
      </trkpt>
      <trkpt lat="43.53408" lon="6.87447">
        <ele>125.59999847412</ele>
        <time>2019-10-06T13:19:50.000Z</time>
      </trkpt>
      <trkpt lat="43.53407" lon="6.87451">
        <ele>125</ele>
        <time>2019-10-06T13:19:51.000Z</time>
      </trkpt>
      <trkpt lat="43.53407" lon="6.87455">
        <ele>124.40000152588</ele>
        <time>2019-10-06T13:19:52.000Z</time>
      </trkpt>
      <trkpt lat="43.53403" lon="6.87463">
        <ele>123.40000152588</ele>
        <time>2019-10-06T13:19:54.000Z</time>
      </trkpt>
      <trkpt lat="43.53398" lon="6.87471">
        <ele>122.80000305176</ele>
        <time>2019-10-06T13:19:56.000Z</time>
      </trkpt>
      <trkpt lat="43.53386" lon="6.87483">
        <ele>122.19999694824</ele>
        <time>2019-10-06T13:20:00.000Z</time>
      </trkpt>
      <trkpt lat="43.5338" lon="6.87489">
        <ele>121.80000305176</ele>
        <time>2019-10-06T13:20:02.000Z</time>
      </trkpt>
      <trkpt lat="43.53352" lon="6.8752">
        <ele>121</ele>
        <time>2019-10-06T13:20:10.000Z</time>
      </trkpt>
      <trkpt lat="43.5329" lon="6.87573">
        <ele>119.80000305176</ele>
        <time>2019-10-06T13:20:18.000Z</time>
      </trkpt>
      <trkpt lat="43.53263" lon="6.87559">
        <ele>119.40000152588</ele>
        <time>2019-10-06T13:20:26.000Z</time>
      </trkpt>
      <trkpt lat="43.53262" lon="6.8755">
        <ele>120.40000152588</ele>
        <time>2019-10-06T13:20:32.000Z</time>
      </trkpt>
      <trkpt lat="43.53262" lon="6.87546">
        <ele>120.80000305176</ele>
        <time>2019-10-06T13:20:34.000Z</time>
      </trkpt>
      <trkpt lat="43.53265" lon="6.87536">
        <ele>121.59999847412</ele>
        <time>2019-10-06T13:20:39.000Z</time>
      </trkpt>
      <trkpt lat="43.53266" lon="6.87533">
        <ele>122</ele>
        <time>2019-10-06T13:20:41.000Z</time>
      </trkpt>
      <trkpt lat="43.53269" lon="6.87525">
        <ele>123.19999694824</ele>
        <time>2019-10-06T13:20:45.000Z</time>
      </trkpt>
      <trkpt lat="43.5327" lon="6.87514">
        <ele>124.80000305176</ele>
        <time>2019-10-06T13:20:50.000Z</time>
      </trkpt>
      <trkpt lat="43.53269" lon="6.8751">
        <ele>125.59999847412</ele>
        <time>2019-10-06T13:20:52.000Z</time>
      </trkpt>
      <trkpt lat="43.53269" lon="6.87508">
        <ele>126</ele>
        <time>2019-10-06T13:20:53.000Z</time>
      </trkpt>
      <trkpt lat="43.53266" lon="6.87503">
        <ele>127.19999694824</ele>
        <time>2019-10-06T13:20:56.000Z</time>
      </trkpt>
      <trkpt lat="43.53265" lon="6.87501">
        <ele>127.40000152588</ele>
        <time>2019-10-06T13:20:57.000Z</time>
      </trkpt>
      <trkpt lat="43.53263" lon="6.87498">
        <ele>127.80000305176</ele>
        <time>2019-10-06T13:20:59.000Z</time>
      </trkpt>
      <trkpt lat="43.5326" lon="6.87488">
        <ele>128.19999694824</ele>
        <time>2019-10-06T13:21:04.000Z</time>
      </trkpt>
      <trkpt lat="43.53254" lon="6.87475">
        <ele>129.19999694824</ele>
        <time>2019-10-06T13:21:11.000Z</time>
      </trkpt>
      <trkpt lat="43.53253" lon="6.87471">
        <ele>129.60000610352</ele>
        <time>2019-10-06T13:21:13.000Z</time>
      </trkpt>
      <trkpt lat="43.53252" lon="6.87467">
        <ele>129.60000610352</ele>
        <time>2019-10-06T13:21:15.000Z</time>
      </trkpt>
      <trkpt lat="43.53251" lon="6.87462">
        <ele>129.60000610352</ele>
        <time>2019-10-06T13:21:17.000Z</time>
      </trkpt>
      <trkpt lat="43.53247" lon="6.87392">
        <ele>129.80000305176</ele>
        <time>2019-10-06T13:21:39.000Z</time>
      </trkpt>
      <trkpt lat="43.53266" lon="6.87332">
        <ele>128.60000610352</ele>
        <time>2019-10-06T13:21:53.000Z</time>
      </trkpt>
      <trkpt lat="43.53266" lon="6.87313">
        <ele>128.39999389648</ele>
        <time>2019-10-06T13:21:56.000Z</time>
      </trkpt>
      <trkpt lat="43.53262" lon="6.87285">
        <ele>127</ele>
        <time>2019-10-06T13:22:00.000Z</time>
      </trkpt>
      <trkpt lat="43.5326" lon="6.87262">
        <ele>125.80000305176</ele>
        <time>2019-10-06T13:22:03.000Z</time>
      </trkpt>
      <trkpt lat="43.53276" lon="6.87223">
        <ele>125</ele>
        <time>2019-10-06T13:22:09.000Z</time>
      </trkpt>
      <trkpt lat="43.53289" lon="6.87207">
        <ele>124.40000152588</ele>
        <time>2019-10-06T13:22:12.000Z</time>
      </trkpt>
      <trkpt lat="43.533" lon="6.8719">
        <ele>124.40000152588</ele>
        <time>2019-10-06T13:22:16.000Z</time>
      </trkpt>
      <trkpt lat="43.53303" lon="6.87186">
        <ele>124.59999847412</ele>
        <time>2019-10-06T13:22:17.000Z</time>
      </trkpt>
      <trkpt lat="43.53306" lon="6.87182">
        <ele>124.59999847412</ele>
        <time>2019-10-06T13:22:18.000Z</time>
      </trkpt>
      <trkpt lat="43.53312" lon="6.87174">
        <ele>124.80000305176</ele>
        <time>2019-10-06T13:22:20.000Z</time>
      </trkpt>
      <trkpt lat="43.53315" lon="6.87171">
        <ele>124.80000305176</ele>
        <time>2019-10-06T13:22:21.000Z</time>
      </trkpt>
      <trkpt lat="43.53327" lon="6.8714">
        <ele>125</ele>
        <time>2019-10-06T13:22:29.000Z</time>
      </trkpt>
      <trkpt lat="43.5333" lon="6.87134">
        <ele>125</ele>
        <time>2019-10-06T13:22:32.000Z</time>
      </trkpt>
      <trkpt lat="43.53331" lon="6.87131">
        <ele>125</ele>
        <time>2019-10-06T13:22:33.000Z</time>
      </trkpt>
      <trkpt lat="43.53332" lon="6.87119">
        <ele>125.80000305176</ele>
        <time>2019-10-06T13:22:37.000Z</time>
      </trkpt>
      <trkpt lat="43.53333" lon="6.87103">
        <ele>126.19999694824</ele>
        <time>2019-10-06T13:22:41.000Z</time>
      </trkpt>
      <trkpt lat="43.53333" lon="6.87089">
        <ele>126.19999694824</ele>
        <time>2019-10-06T13:22:44.000Z</time>
      </trkpt>
      <trkpt lat="43.53347" lon="6.87021">
        <ele>126.80000305176</ele>
        <time>2019-10-06T13:22:59.000Z</time>
      </trkpt>
      <trkpt lat="43.53361" lon="6.86981">
        <ele>127.40000152588</ele>
        <time>2019-10-06T13:23:09.000Z</time>
      </trkpt>
      <trkpt lat="43.53362" lon="6.86979">
        <ele>127.40000152588</ele>
        <time>2019-10-06T13:23:10.000Z</time>
      </trkpt>
      <trkpt lat="43.53367" lon="6.86965">
        <ele>127.59999847412</ele>
        <time>2019-10-06T13:23:15.000Z</time>
      </trkpt>
      <trkpt lat="43.53369" lon="6.86888">
        <ele>128.39999389648</ele>
        <time>2019-10-06T13:23:32.000Z</time>
      </trkpt>
      <trkpt lat="43.53367" lon="6.86873">
        <ele>128.80000305176</ele>
        <time>2019-10-06T13:23:46.000Z</time>
      </trkpt>
      <trkpt lat="43.53358" lon="6.86836">
        <ele>129.60000610352</ele>
        <time>2019-10-06T13:24:04.000Z</time>
      </trkpt>
      <trkpt lat="43.53335" lon="6.86819">
        <ele>129.39999389648</ele>
        <time>2019-10-06T13:24:12.000Z</time>
      </trkpt>
      <trkpt lat="43.53293" lon="6.86818">
        <ele>129.39999389648</ele>
        <time>2019-10-06T13:24:23.000Z</time>
      </trkpt>
      <trkpt lat="43.53268" lon="6.86776">
        <ele>129.80000305176</ele>
        <time>2019-10-06T13:24:34.000Z</time>
      </trkpt>
      <trkpt lat="43.53259" lon="6.86766">
        <ele>130</ele>
        <time>2019-10-06T13:24:37.000Z</time>
      </trkpt>
      <trkpt lat="43.5324" lon="6.86699">
        <ele>130.60000610352</ele>
        <time>2019-10-06T13:24:52.000Z</time>
      </trkpt>
      <trkpt lat="43.53222" lon="6.86628">
        <ele>130.60000610352</ele>
        <time>2019-10-06T13:25:06.000Z</time>
      </trkpt>
      <trkpt lat="43.53217" lon="6.86603">
        <ele>131.39999389648</ele>
        <time>2019-10-06T13:25:11.000Z</time>
      </trkpt>
      <trkpt lat="43.53215" lon="6.86577">
        <ele>132</ele>
        <time>2019-10-06T13:25:17.000Z</time>
      </trkpt>
      <trkpt lat="43.5324" lon="6.86563">
        <ele>132.60000610352</ele>
        <time>2019-10-06T13:25:27.000Z</time>
      </trkpt>
      <trkpt lat="43.53232" lon="6.86486">
        <ele>133.39999389648</ele>
        <time>2019-10-06T13:25:45.000Z</time>
      </trkpt>
      <trkpt lat="43.53233" lon="6.8646">
        <ele>133.19999694824</ele>
        <time>2019-10-06T13:25:50.000Z</time>
      </trkpt>
      <trkpt lat="43.53231" lon="6.86386">
        <ele>132.80000305176</ele>
        <time>2019-10-06T13:26:04.000Z</time>
      </trkpt>
      <trkpt lat="43.53251" lon="6.86344">
        <ele>133.39999389648</ele>
        <time>2019-10-06T13:26:14.000Z</time>
      </trkpt>
      <trkpt lat="43.53255" lon="6.86337">
        <ele>133.19999694824</ele>
        <time>2019-10-06T13:26:16.000Z</time>
      </trkpt>
      <trkpt lat="43.5324" lon="6.86321">
        <ele>133.19999694824</ele>
        <time>2019-10-06T13:26:22.000Z</time>
      </trkpt>
      <trkpt lat="43.5322" lon="6.86312">
        <ele>133.39999389648</ele>
        <time>2019-10-06T13:26:27.000Z</time>
      </trkpt>
      <trkpt lat="43.53198" lon="6.86283">
        <ele>133.39999389648</ele>
        <time>2019-10-06T13:26:35.000Z</time>
      </trkpt>
      <trkpt lat="43.53187" lon="6.86263">
        <ele>132.60000610352</ele>
        <time>2019-10-06T13:26:57.000Z</time>
      </trkpt>
      <trkpt lat="43.53187" lon="6.86263">
        <ele>133</ele>
        <time>2019-10-06T13:27:44.000Z</time>
      </trkpt>
      <trkpt lat="43.53184" lon="6.86262">
        <ele>133.60000610352</ele>
        <time>2019-10-06T13:27:56.000Z</time>
      </trkpt>
      <trkpt lat="43.53168" lon="6.86254">
        <ele>133.80000305176</ele>
        <time>2019-10-06T13:28:03.000Z</time>
      </trkpt>
      <trkpt lat="43.53156" lon="6.86254">
        <ele>134.39999389648</ele>
        <time>2019-10-06T13:28:07.000Z</time>
      </trkpt>
      <trkpt lat="43.5313" lon="6.86268">
        <ele>135.19999694824</ele>
        <time>2019-10-06T13:28:16.000Z</time>
      </trkpt>
      <trkpt lat="43.53126" lon="6.86272">
        <ele>135.60000610352</ele>
        <time>2019-10-06T13:28:18.000Z</time>
      </trkpt>
      <trkpt lat="43.53107" lon="6.86273">
        <ele>136.60000610352</ele>
        <time>2019-10-06T13:28:26.000Z</time>
      </trkpt>
      <trkpt lat="43.53105" lon="6.86273">
        <ele>137</ele>
        <time>2019-10-06T13:28:27.000Z</time>
      </trkpt>
      <trkpt lat="43.53092" lon="6.86274">
        <ele>137.19999694824</ele>
        <time>2019-10-06T13:28:32.000Z</time>
      </trkpt>
      <trkpt lat="43.5308" lon="6.86275">
        <ele>138</ele>
        <time>2019-10-06T13:28:37.000Z</time>
      </trkpt>
      <trkpt lat="43.53055" lon="6.86271">
        <ele>138.80000305176</ele>
        <time>2019-10-06T13:28:48.000Z</time>
      </trkpt>
      <trkpt lat="43.5305" lon="6.86271">
        <ele>139</ele>
        <time>2019-10-06T13:28:50.000Z</time>
      </trkpt>
      <trkpt lat="43.53022" lon="6.86268">
        <ele>139.80000305176</ele>
        <time>2019-10-06T13:29:02.000Z</time>
      </trkpt>
      <trkpt lat="43.53017" lon="6.86267">
        <ele>140.39999389648</ele>
        <time>2019-10-06T13:29:04.000Z</time>
      </trkpt>
      <trkpt lat="43.53008" lon="6.86267">
        <ele>141.39999389648</ele>
        <time>2019-10-06T13:29:09.000Z</time>
      </trkpt>
      <trkpt lat="43.52995" lon="6.86274">
        <ele>142.19999694824</ele>
        <time>2019-10-06T13:29:17.000Z</time>
      </trkpt>
      <trkpt lat="43.52992" lon="6.86276">
        <ele>142.39999389648</ele>
        <time>2019-10-06T13:29:19.000Z</time>
      </trkpt>
      <trkpt lat="43.52978" lon="6.86289">
        <ele>143.60000610352</ele>
        <time>2019-10-06T13:29:28.000Z</time>
      </trkpt>
      <trkpt lat="43.52958" lon="6.86297">
        <ele>144.60000610352</ele>
        <time>2019-10-06T13:29:39.000Z</time>
      </trkpt>
      <trkpt lat="43.52937" lon="6.86302">
        <ele>146</ele>
        <time>2019-10-06T13:29:50.000Z</time>
      </trkpt>
      <trkpt lat="43.52923" lon="6.86296">
        <ele>146.60000610352</ele>
        <time>2019-10-06T13:29:58.000Z</time>
      </trkpt>
      <trkpt lat="43.52921" lon="6.86289">
        <ele>147</ele>
        <time>2019-10-06T13:30:01.000Z</time>
      </trkpt>
      <trkpt lat="43.5292" lon="6.8628">
        <ele>147.60000610352</ele>
        <time>2019-10-06T13:30:05.000Z</time>
      </trkpt>
      <trkpt lat="43.52922" lon="6.86275">
        <ele>148.19999694824</ele>
        <time>2019-10-06T13:30:08.000Z</time>
      </trkpt>
      <trkpt lat="43.52925" lon="6.86267">
        <ele>149.39999389648</ele>
        <time>2019-10-06T13:30:14.000Z</time>
      </trkpt>
      <trkpt lat="43.52925" lon="6.86265">
        <ele>149.60000610352</ele>
        <time>2019-10-06T13:30:15.000Z</time>
      </trkpt>
      <trkpt lat="43.52926" lon="6.86257">
        <ele>150.39999389648</ele>
        <time>2019-10-06T13:30:20.000Z</time>
      </trkpt>
      <trkpt lat="43.52928" lon="6.86248">
        <ele>151.39999389648</ele>
        <time>2019-10-06T13:30:25.000Z</time>
      </trkpt>
      <trkpt lat="43.52927" lon="6.86242">
        <ele>151.60000610352</ele>
        <time>2019-10-06T13:30:28.000Z</time>
      </trkpt>
      <trkpt lat="43.52927" lon="6.8624">
        <ele>151.60000610352</ele>
        <time>2019-10-06T13:30:29.000Z</time>
      </trkpt>
      <trkpt lat="43.52927" lon="6.86232">
        <ele>152.60000610352</ele>
        <time>2019-10-06T13:30:33.000Z</time>
      </trkpt>
      <trkpt lat="43.52926" lon="6.8623">
        <ele>153</ele>
        <time>2019-10-06T13:30:34.000Z</time>
      </trkpt>
      <trkpt lat="43.52924" lon="6.86223">
        <ele>153.39999389648</ele>
        <time>2019-10-06T13:30:38.000Z</time>
      </trkpt>
      <trkpt lat="43.52921" lon="6.86221">
        <ele>153.60000610352</ele>
        <time>2019-10-06T13:30:41.000Z</time>
      </trkpt>
      <trkpt lat="43.52917" lon="6.8622">
        <ele>153.80000305176</ele>
        <time>2019-10-06T13:30:45.000Z</time>
      </trkpt>
      <trkpt lat="43.52915" lon="6.8622">
        <ele>154</ele>
        <time>2019-10-06T13:30:46.000Z</time>
      </trkpt>
      <trkpt lat="43.52909" lon="6.86219">
        <ele>155</ele>
        <time>2019-10-06T13:30:52.000Z</time>
      </trkpt>
      <trkpt lat="43.52898" lon="6.86218">
        <ele>156.19999694824</ele>
        <time>2019-10-06T13:31:00.000Z</time>
      </trkpt>
      <trkpt lat="43.52888" lon="6.86218">
        <ele>157.19999694824</ele>
        <time>2019-10-06T13:31:08.000Z</time>
      </trkpt>
      <trkpt lat="43.52878" lon="6.86218">
        <ele>158.39999389648</ele>
        <time>2019-10-06T13:31:15.000Z</time>
      </trkpt>
      <trkpt lat="43.52868" lon="6.8622">
        <ele>159.39999389648</ele>
        <time>2019-10-06T13:31:23.000Z</time>
      </trkpt>
      <trkpt lat="43.52864" lon="6.86219">
        <ele>159.60000610352</ele>
        <time>2019-10-06T13:31:25.000Z</time>
      </trkpt>
      <trkpt lat="43.52862" lon="6.86219">
        <ele>159.80000305176</ele>
        <time>2019-10-06T13:31:28.000Z</time>
      </trkpt>
      <trkpt lat="43.52857" lon="6.8622">
        <ele>160.60000610352</ele>
        <time>2019-10-06T13:31:32.000Z</time>
      </trkpt>
      <trkpt lat="43.52847" lon="6.8622">
        <ele>161.60000610352</ele>
        <time>2019-10-06T13:31:41.000Z</time>
      </trkpt>
      <trkpt lat="43.52837" lon="6.86216">
        <ele>162.60000610352</ele>
        <time>2019-10-06T13:31:49.000Z</time>
      </trkpt>
      <trkpt lat="43.52831" lon="6.86213">
        <ele>163.80000305176</ele>
        <time>2019-10-06T13:31:56.000Z</time>
      </trkpt>
      <trkpt lat="43.52826" lon="6.86208">
        <ele>164.39999389648</ele>
        <time>2019-10-06T13:32:01.000Z</time>
      </trkpt>
      <trkpt lat="43.52824" lon="6.86207">
        <ele>164.80000305176</ele>
        <time>2019-10-06T13:32:03.000Z</time>
      </trkpt>
      <trkpt lat="43.52815" lon="6.86201">
        <ele>166</ele>
        <time>2019-10-06T13:32:11.000Z</time>
      </trkpt>
      <trkpt lat="43.52808" lon="6.86197">
        <ele>167.19999694824</ele>
        <time>2019-10-06T13:32:17.000Z</time>
      </trkpt>
      <trkpt lat="43.528" lon="6.86198">
        <ele>168.39999389648</ele>
        <time>2019-10-06T13:32:24.000Z</time>
      </trkpt>
      <trkpt lat="43.52799" lon="6.86199">
        <ele>168.60000610352</ele>
        <time>2019-10-06T13:32:25.000Z</time>
      </trkpt>
      <trkpt lat="43.52794" lon="6.86203">
        <ele>169.19999694824</ele>
        <time>2019-10-06T13:32:29.000Z</time>
      </trkpt>
      <trkpt lat="43.52792" lon="6.86208">
        <ele>169.39999389648</ele>
        <time>2019-10-06T13:32:32.000Z</time>
      </trkpt>
      <trkpt lat="43.5279" lon="6.86216">
        <ele>170.60000610352</ele>
        <time>2019-10-06T13:32:37.000Z</time>
      </trkpt>
      <trkpt lat="43.52786" lon="6.86233">
        <ele>171.60000610352</ele>
        <time>2019-10-06T13:32:47.000Z</time>
      </trkpt>
      <trkpt lat="43.52781" lon="6.86257">
        <ele>173</ele>
        <time>2019-10-06T13:33:01.000Z</time>
      </trkpt>
      <trkpt lat="43.52775" lon="6.8627">
        <ele>174</ele>
        <time>2019-10-06T13:33:10.000Z</time>
      </trkpt>
      <trkpt lat="43.52766" lon="6.86285">
        <ele>175</ele>
        <time>2019-10-06T13:33:21.000Z</time>
      </trkpt>
      <trkpt lat="43.5276" lon="6.86297">
        <ele>176.19999694824</ele>
        <time>2019-10-06T13:33:29.000Z</time>
      </trkpt>
      <trkpt lat="43.52755" lon="6.86308">
        <ele>177.39999389648</ele>
        <time>2019-10-06T13:33:37.000Z</time>
      </trkpt>
      <trkpt lat="43.52748" lon="6.86321">
        <ele>178.39999389648</ele>
        <time>2019-10-06T13:33:46.000Z</time>
      </trkpt>
      <trkpt lat="43.52743" lon="6.86335">
        <ele>179.80000305176</ele>
        <time>2019-10-06T13:33:53.000Z</time>
      </trkpt>
      <trkpt lat="43.52738" lon="6.86356">
        <ele>180.80000305176</ele>
        <time>2019-10-06T13:34:03.000Z</time>
      </trkpt>
      <trkpt lat="43.52737" lon="6.86359">
        <ele>181</ele>
        <time>2019-10-06T13:34:05.000Z</time>
      </trkpt>
      <trkpt lat="43.52735" lon="6.86366">
        <ele>181.80000305176</ele>
        <time>2019-10-06T13:34:10.000Z</time>
      </trkpt>
      <trkpt lat="43.52732" lon="6.86379">
        <ele>182.80000305176</ele>
        <time>2019-10-06T13:34:18.000Z</time>
      </trkpt>
      <trkpt lat="43.52726" lon="6.86404">
        <ele>184</ele>
        <time>2019-10-06T13:34:31.000Z</time>
      </trkpt>
      <trkpt lat="43.52727" lon="6.8643">
        <ele>185</ele>
        <time>2019-10-06T13:34:44.000Z</time>
      </trkpt>
      <trkpt lat="43.52724" lon="6.86455">
        <ele>185.80000305176</ele>
        <time>2019-10-06T13:34:56.000Z</time>
      </trkpt>
      <trkpt lat="43.52724" lon="6.86459">
        <ele>186</ele>
        <time>2019-10-06T13:34:58.000Z</time>
      </trkpt>
      <trkpt lat="43.52718" lon="6.86486">
        <ele>187.19999694824</ele>
        <time>2019-10-06T13:35:12.000Z</time>
      </trkpt>
      <trkpt lat="43.52712" lon="6.86509">
        <ele>188.19999694824</ele>
        <time>2019-10-06T13:35:24.000Z</time>
      </trkpt>
      <trkpt lat="43.52707" lon="6.86536">
        <ele>189.39999389648</ele>
        <time>2019-10-06T13:35:37.000Z</time>
      </trkpt>
      <trkpt lat="43.52707" lon="6.86549">
        <ele>190.60000610352</ele>
        <time>2019-10-06T13:35:44.000Z</time>
      </trkpt>
      <trkpt lat="43.52707" lon="6.86563">
        <ele>191.60000610352</ele>
        <time>2019-10-06T13:35:51.000Z</time>
      </trkpt>
      <trkpt lat="43.52706" lon="6.86575">
        <ele>192.80000305176</ele>
        <time>2019-10-06T13:35:57.000Z</time>
      </trkpt>
      <trkpt lat="43.52707" lon="6.86587">
        <ele>194</ele>
        <time>2019-10-06T13:36:04.000Z</time>
      </trkpt>
      <trkpt lat="43.52708" lon="6.86595">
        <ele>195</ele>
        <time>2019-10-06T13:36:08.000Z</time>
      </trkpt>
      <trkpt lat="43.52711" lon="6.86607">
        <ele>196</ele>
        <time>2019-10-06T13:36:15.000Z</time>
      </trkpt>
      <trkpt lat="43.52715" lon="6.86616">
        <ele>197.19999694824</ele>
        <time>2019-10-06T13:36:22.000Z</time>
      </trkpt>
      <trkpt lat="43.52715" lon="6.86622">
        <ele>197.60000610352</ele>
        <time>2019-10-06T13:36:25.000Z</time>
      </trkpt>
      <trkpt lat="43.52719" lon="6.86629">
        <ele>197.80000305176</ele>
        <time>2019-10-06T13:36:48.000Z</time>
      </trkpt>
      <trkpt lat="43.5272" lon="6.86633">
        <ele>198.19999694824</ele>
        <time>2019-10-06T13:36:51.000Z</time>
      </trkpt>
      <trkpt lat="43.5272" lon="6.86646">
        <ele>198.80000305176</ele>
        <time>2019-10-06T13:36:58.000Z</time>
      </trkpt>
      <trkpt lat="43.52721" lon="6.86657">
        <ele>199.39999389648</ele>
        <time>2019-10-06T13:37:04.000Z</time>
      </trkpt>
      <trkpt lat="43.52723" lon="6.86671">
        <ele>200</ele>
        <time>2019-10-06T13:37:11.000Z</time>
      </trkpt>
      <trkpt lat="43.52723" lon="6.86682">
        <ele>200.39999389648</ele>
        <time>2019-10-06T13:37:17.000Z</time>
      </trkpt>
      <trkpt lat="43.52721" lon="6.86713">
        <ele>201.60000610352</ele>
        <time>2019-10-06T13:37:31.000Z</time>
      </trkpt>
      <trkpt lat="43.5272" lon="6.8673">
        <ele>202.60000610352</ele>
        <time>2019-10-06T13:37:39.000Z</time>
      </trkpt>
      <trkpt lat="43.52719" lon="6.86749">
        <ele>203.60000610352</ele>
        <time>2019-10-06T13:37:48.000Z</time>
      </trkpt>
      <trkpt lat="43.52718" lon="6.86766">
        <ele>204.80000305176</ele>
        <time>2019-10-06T13:37:56.000Z</time>
      </trkpt>
      <trkpt lat="43.52715" lon="6.86796">
        <ele>205.80000305176</ele>
        <time>2019-10-06T13:38:10.000Z</time>
      </trkpt>
      <trkpt lat="43.52713" lon="6.86831">
        <ele>207</ele>
        <time>2019-10-06T13:38:26.000Z</time>
      </trkpt>
      <trkpt lat="43.52712" lon="6.86843">
        <ele>207.39999389648</ele>
        <time>2019-10-06T13:38:31.000Z</time>
      </trkpt>
      <trkpt lat="43.52709" lon="6.8687">
        <ele>208.19999694824</ele>
        <time>2019-10-06T13:38:42.000Z</time>
      </trkpt>
      <trkpt lat="43.52707" lon="6.86894">
        <ele>208.80000305176</ele>
        <time>2019-10-06T13:38:52.000Z</time>
      </trkpt>
      <trkpt lat="43.52707" lon="6.8691">
        <ele>209.19999694824</ele>
        <time>2019-10-06T13:38:59.000Z</time>
      </trkpt>
      <trkpt lat="43.52705" lon="6.86941">
        <ele>210.19999694824</ele>
        <time>2019-10-06T13:39:13.000Z</time>
      </trkpt>
      <trkpt lat="43.52705" lon="6.86947">
        <ele>210.39999389648</ele>
        <time>2019-10-06T13:39:16.000Z</time>
      </trkpt>
      <trkpt lat="43.52703" lon="6.86962">
        <ele>211.19999694824</ele>
        <time>2019-10-06T13:39:23.000Z</time>
      </trkpt>
      <trkpt lat="43.52701" lon="6.86976">
        <ele>212.39999389648</ele>
        <time>2019-10-06T13:39:31.000Z</time>
      </trkpt>
      <trkpt lat="43.52701" lon="6.86978">
        <ele>212.39999389648</ele>
        <time>2019-10-06T13:39:32.000Z</time>
      </trkpt>
      <trkpt lat="43.52697" lon="6.86988">
        <ele>213.39999389648</ele>
        <time>2019-10-06T13:39:38.000Z</time>
      </trkpt>
      <trkpt lat="43.52696" lon="6.8699">
        <ele>213.60000610352</ele>
        <time>2019-10-06T13:39:39.000Z</time>
      </trkpt>
      <trkpt lat="43.52691" lon="6.86998">
        <ele>214.60000610352</ele>
        <time>2019-10-06T13:39:45.000Z</time>
      </trkpt>
      <trkpt lat="43.52684" lon="6.87005">
        <ele>215.60000610352</ele>
        <time>2019-10-06T13:39:51.000Z</time>
      </trkpt>
      <trkpt lat="43.52675" lon="6.87013">
        <ele>216.60000610352</ele>
        <time>2019-10-06T13:39:59.000Z</time>
      </trkpt>
      <trkpt lat="43.52674" lon="6.87013">
        <ele>216.60000610352</ele>
        <time>2019-10-06T13:40:00.000Z</time>
      </trkpt>
      <trkpt lat="43.52674" lon="6.87014">
        <ele>216.80000305176</ele>
        <time>2019-10-06T13:40:15.000Z</time>
      </trkpt>
      <trkpt lat="43.52665" lon="6.87018">
        <ele>217.60000610352</ele>
        <time>2019-10-06T13:40:30.000Z</time>
      </trkpt>
      <trkpt lat="43.52662" lon="6.8702">
        <ele>218</ele>
        <time>2019-10-06T13:40:33.000Z</time>
      </trkpt>
      <trkpt lat="43.52654" lon="6.87026">
        <ele>218.80000305176</ele>
        <time>2019-10-06T13:40:40.000Z</time>
      </trkpt>
      <trkpt lat="43.52653" lon="6.87026">
        <ele>219</ele>
        <time>2019-10-06T13:40:41.000Z</time>
      </trkpt>
      <trkpt lat="43.52642" lon="6.87031">
        <ele>220</ele>
        <time>2019-10-06T13:40:49.000Z</time>
      </trkpt>
      <trkpt lat="43.52628" lon="6.87037">
        <ele>221.19999694824</ele>
        <time>2019-10-06T13:40:58.000Z</time>
      </trkpt>
      <trkpt lat="43.52619" lon="6.87046">
        <ele>222.19999694824</ele>
        <time>2019-10-06T13:41:06.000Z</time>
      </trkpt>
      <trkpt lat="43.52612" lon="6.87059">
        <ele>223.19999694824</ele>
        <time>2019-10-06T13:41:15.000Z</time>
      </trkpt>
      <trkpt lat="43.52608" lon="6.87071">
        <ele>224.19999694824</ele>
        <time>2019-10-06T13:41:22.000Z</time>
      </trkpt>
      <trkpt lat="43.52605" lon="6.87084">
        <ele>225.39999389648</ele>
        <time>2019-10-06T13:41:29.000Z</time>
      </trkpt>
      <trkpt lat="43.52601" lon="6.87095">
        <ele>226.60000610352</ele>
        <time>2019-10-06T13:41:36.000Z</time>
      </trkpt>
      <trkpt lat="43.52594" lon="6.87104">
        <ele>227.80000305176</ele>
        <time>2019-10-06T13:41:42.000Z</time>
      </trkpt>
      <trkpt lat="43.5258" lon="6.87107">
        <ele>228.80000305176</ele>
        <time>2019-10-06T13:41:51.000Z</time>
      </trkpt>
      <trkpt lat="43.52561" lon="6.87104">
        <ele>229.80000305176</ele>
        <time>2019-10-06T13:42:03.000Z</time>
      </trkpt>
      <trkpt lat="43.52549" lon="6.87117">
        <ele>230.60000610352</ele>
        <time>2019-10-06T13:42:13.000Z</time>
      </trkpt>
      <trkpt lat="43.52551" lon="6.87137">
        <ele>230.80000305176</ele>
        <time>2019-10-06T13:42:21.000Z</time>
      </trkpt>
      <trkpt lat="43.52557" lon="6.87159">
        <ele>231.19999694824</ele>
        <time>2019-10-06T13:42:29.000Z</time>
      </trkpt>
      <trkpt lat="43.5256" lon="6.87193">
        <ele>232.19999694824</ele>
        <time>2019-10-06T13:42:41.000Z</time>
      </trkpt>
      <trkpt lat="43.52515" lon="6.87227">
        <ele>232</ele>
        <time>2019-10-06T13:43:00.000Z</time>
      </trkpt>
      <trkpt lat="43.52493" lon="6.87259">
        <ele>231</ele>
        <time>2019-10-06T13:43:09.000Z</time>
      </trkpt>
      <trkpt lat="43.52481" lon="6.87285">
        <ele>229.80000305176</ele>
        <time>2019-10-06T13:43:13.000Z</time>
      </trkpt>
      <trkpt lat="43.52471" lon="6.87318">
        <ele>228.60000610352</ele>
        <time>2019-10-06T13:43:17.000Z</time>
      </trkpt>
      <trkpt lat="43.52463" lon="6.87345">
        <ele>227.39999389648</ele>
        <time>2019-10-06T13:43:20.000Z</time>
      </trkpt>
      <trkpt lat="43.52459" lon="6.87354">
        <ele>226.39999389648</ele>
        <time>2019-10-06T13:43:21.000Z</time>
      </trkpt>
      <trkpt lat="43.52455" lon="6.87364">
        <ele>225.80000305176</ele>
        <time>2019-10-06T13:43:22.000Z</time>
      </trkpt>
      <trkpt lat="43.52441" lon="6.87391">
        <ele>224.60000610352</ele>
        <time>2019-10-06T13:43:25.000Z</time>
      </trkpt>
      <trkpt lat="43.52412" lon="6.8743">
        <ele>223.60000610352</ele>
        <time>2019-10-06T13:43:31.000Z</time>
      </trkpt>
      <trkpt lat="43.52367" lon="6.87477">
        <ele>223</ele>
        <time>2019-10-06T13:43:42.000Z</time>
      </trkpt>
      <trkpt lat="43.52358" lon="6.87484">
        <ele>223</ele>
        <time>2019-10-06T13:43:44.000Z</time>
      </trkpt>
      <trkpt lat="43.52349" lon="6.87489">
        <ele>222.80000305176</ele>
        <time>2019-10-06T13:43:46.000Z</time>
      </trkpt>
      <trkpt lat="43.52344" lon="6.87491">
        <ele>222.80000305176</ele>
        <time>2019-10-06T13:43:47.000Z</time>
      </trkpt>
      <trkpt lat="43.52338" lon="6.87492">
        <ele>222.80000305176</ele>
        <time>2019-10-06T13:43:48.000Z</time>
      </trkpt>
      <trkpt lat="43.52312" lon="6.875">
        <ele>222.60000610352</ele>
        <time>2019-10-06T13:43:53.000Z</time>
      </trkpt>
      <trkpt lat="43.52267" lon="6.87542">
        <ele>222.60000610352</ele>
        <time>2019-10-06T13:44:08.000Z</time>
      </trkpt>
      <trkpt lat="43.52256" lon="6.87551">
        <ele>223.39999389648</ele>
        <time>2019-10-06T13:44:35.000Z</time>
      </trkpt>
      <trkpt lat="43.52256" lon="6.87551">
        <ele>223.19999694824</ele>
        <time>2019-10-06T13:44:46.000Z</time>
      </trkpt>
    </trkseg>
  </trk>
</gpx>